<?xml version="1.0" encoding="UTF-8" standalone="no" ?>
<gpx xmlns="http://www.topografix.com/GPX/1/1" xmlns:xsi="http://www.w3.org/2001/XMLSchema-instance" xsi:schemaLocation="http://www.topografix.com/GPX/1/1 http://www.topografix.com/GPX/1/1/gpx.xsd" version="1.1" creator="VisuGPX - https://www.visugpx.com">
  <metadata>
    <name>Ilay,La Chaux du Dombief,Bonlieu</name>
  </metadata>
  <trk>
    <name><![CDATA[T2022-11-10-14-54]]></name>
    <extensions>
      <line xmlns="http://www.topografix.com/GPX/gpx_style/0/2">
        <color>0000FF</color>
        <width>4</width>
      </line>
    </extensions>
    <trkseg>
      <trkpt lat="46.61857" lon="5.88787">
        <ele>775.4</ele>
        <time>2022-11-10T07:25:13Z</time>
      </trkpt>
      <trkpt lat="46.61853" lon="5.8879">
        <ele>774.3</ele>
        <time>2022-11-10T07:27:54Z</time>
      </trkpt>
      <trkpt lat="46.6185" lon="5.88795">
        <ele>773.8</ele>
        <time>2022-11-10T07:27:59Z</time>
      </trkpt>
      <trkpt lat="46.61846" lon="5.88799">
        <ele>773.9</ele>
        <time>2022-11-10T07:28:05Z</time>
      </trkpt>
      <trkpt lat="46.61844" lon="5.88805">
        <ele>774.8</ele>
        <time>2022-11-10T07:28:12Z</time>
      </trkpt>
      <trkpt lat="46.61841" lon="5.88811">
        <ele>775.6</ele>
        <time>2022-11-10T07:28:18Z</time>
      </trkpt>
      <trkpt lat="46.61838" lon="5.88817">
        <ele>775.7</ele>
        <time>2022-11-10T07:28:24Z</time>
      </trkpt>
      <trkpt lat="46.61835" lon="5.88823">
        <ele>774.9</ele>
        <time>2022-11-10T07:28:29Z</time>
      </trkpt>
      <trkpt lat="46.61834" lon="5.8883">
        <ele>774.1</ele>
        <time>2022-11-10T07:28:35Z</time>
      </trkpt>
      <trkpt lat="46.61835" lon="5.88836">
        <ele>774.2</ele>
        <time>2022-11-10T07:28:41Z</time>
      </trkpt>
      <trkpt lat="46.61834" lon="5.88843">
        <ele>774.1</ele>
        <time>2022-11-10T07:28:46Z</time>
      </trkpt>
      <trkpt lat="46.61833" lon="5.88851">
        <ele>774.2</ele>
        <time>2022-11-10T07:28:51Z</time>
      </trkpt>
      <trkpt lat="46.61833" lon="5.88859">
        <ele>774.7</ele>
        <time>2022-11-10T07:28:56Z</time>
      </trkpt>
      <trkpt lat="46.61833" lon="5.88866">
        <ele>775.6</ele>
        <time>2022-11-10T07:29:01Z</time>
      </trkpt>
      <trkpt lat="46.61831" lon="5.88873">
        <ele>776.3</ele>
        <time>2022-11-10T07:29:07Z</time>
      </trkpt>
      <trkpt lat="46.61831" lon="5.8888">
        <ele>777.3</ele>
        <time>2022-11-10T07:29:15Z</time>
      </trkpt>
      <trkpt lat="46.61829" lon="5.88886">
        <ele>778.4</ele>
        <time>2022-11-10T07:29:21Z</time>
      </trkpt>
      <trkpt lat="46.61829" lon="5.88893">
        <ele>779.1</ele>
        <time>2022-11-10T07:29:27Z</time>
      </trkpt>
      <trkpt lat="46.61829" lon="5.889">
        <ele>779.4</ele>
        <time>2022-11-10T07:29:32Z</time>
      </trkpt>
      <trkpt lat="46.61827" lon="5.88908">
        <ele>778.9</ele>
        <time>2022-11-10T07:29:37Z</time>
      </trkpt>
      <trkpt lat="46.61831" lon="5.8891">
        <ele>776.9</ele>
        <time>2022-11-10T07:29:55Z</time>
      </trkpt>
      <trkpt lat="46.61831" lon="5.88917">
        <ele>777.3</ele>
        <time>2022-11-10T07:30:01Z</time>
      </trkpt>
      <trkpt lat="46.61828" lon="5.88923">
        <ele>776.5</ele>
        <time>2022-11-10T07:30:05Z</time>
      </trkpt>
      <trkpt lat="46.61826" lon="5.8893">
        <ele>775.3</ele>
        <time>2022-11-10T07:30:09Z</time>
      </trkpt>
      <trkpt lat="46.61826" lon="5.88938">
        <ele>774.7</ele>
        <time>2022-11-10T07:30:14Z</time>
      </trkpt>
      <trkpt lat="46.61824" lon="5.88944">
        <ele>772.9</ele>
        <time>2022-11-10T07:30:23Z</time>
      </trkpt>
      <trkpt lat="46.61821" lon="5.8895">
        <ele>773.2</ele>
        <time>2022-11-10T07:30:28Z</time>
      </trkpt>
      <trkpt lat="46.61819" lon="5.88956">
        <ele>774.1</ele>
        <time>2022-11-10T07:30:35Z</time>
      </trkpt>
      <trkpt lat="46.61816" lon="5.88961">
        <ele>774.6</ele>
        <time>2022-11-10T07:30:41Z</time>
      </trkpt>
      <trkpt lat="46.61812" lon="5.88966">
        <ele>774.2</ele>
        <time>2022-11-10T07:31:01Z</time>
      </trkpt>
      <trkpt lat="46.61808" lon="5.88969">
        <ele>773.2</ele>
        <time>2022-11-10T07:31:17Z</time>
      </trkpt>
      <trkpt lat="46.61804" lon="5.88974">
        <ele>773.7</ele>
        <time>2022-11-10T07:31:23Z</time>
      </trkpt>
      <trkpt lat="46.61801" lon="5.88979">
        <ele>776</ele>
        <time>2022-11-10T07:31:42Z</time>
      </trkpt>
      <trkpt lat="46.61797" lon="5.88983">
        <ele>776.3</ele>
        <time>2022-11-10T07:31:47Z</time>
      </trkpt>
      <trkpt lat="46.61794" lon="5.88987">
        <ele>776.4</ele>
        <time>2022-11-10T07:31:51Z</time>
      </trkpt>
      <trkpt lat="46.61789" lon="5.88992">
        <ele>775.5</ele>
        <time>2022-11-10T07:31:56Z</time>
      </trkpt>
      <trkpt lat="46.61785" lon="5.88996">
        <ele>774.5</ele>
        <time>2022-11-10T07:32:01Z</time>
      </trkpt>
      <trkpt lat="46.61781" lon="5.88999">
        <ele>773.7</ele>
        <time>2022-11-10T07:32:05Z</time>
      </trkpt>
      <trkpt lat="46.61776" lon="5.89001">
        <ele>773.5</ele>
        <time>2022-11-10T07:32:09Z</time>
      </trkpt>
      <trkpt lat="46.61771" lon="5.89">
        <ele>773.1</ele>
        <time>2022-11-10T07:32:14Z</time>
      </trkpt>
      <trkpt lat="46.61765" lon="5.88997">
        <ele>772.3</ele>
        <time>2022-11-10T07:32:19Z</time>
      </trkpt>
      <trkpt lat="46.61761" lon="5.88993">
        <ele>771.8</ele>
        <time>2022-11-10T07:32:24Z</time>
      </trkpt>
      <trkpt lat="46.61757" lon="5.8899">
        <ele>772.8</ele>
        <time>2022-11-10T07:32:29Z</time>
      </trkpt>
      <trkpt lat="46.61753" lon="5.88987">
        <ele>774.3</ele>
        <time>2022-11-10T07:32:34Z</time>
      </trkpt>
      <trkpt lat="46.61749" lon="5.88982">
        <ele>775.1</ele>
        <time>2022-11-10T07:32:38Z</time>
      </trkpt>
      <trkpt lat="46.61744" lon="5.8898">
        <ele>775.8</ele>
        <time>2022-11-10T07:32:42Z</time>
      </trkpt>
      <trkpt lat="46.6174" lon="5.88977">
        <ele>776.2</ele>
        <time>2022-11-10T07:32:46Z</time>
      </trkpt>
      <trkpt lat="46.61735" lon="5.88974">
        <ele>776.4</ele>
        <time>2022-11-10T07:32:50Z</time>
      </trkpt>
      <trkpt lat="46.61729" lon="5.88972">
        <ele>776.3</ele>
        <time>2022-11-10T07:32:54Z</time>
      </trkpt>
      <trkpt lat="46.61725" lon="5.88973">
        <ele>776.2</ele>
        <time>2022-11-10T07:32:57Z</time>
      </trkpt>
      <trkpt lat="46.6172" lon="5.88973">
        <ele>776</ele>
        <time>2022-11-10T07:33:00Z</time>
      </trkpt>
      <trkpt lat="46.61715" lon="5.88971">
        <ele>775.8</ele>
        <time>2022-11-10T07:33:05Z</time>
      </trkpt>
      <trkpt lat="46.61711" lon="5.8897">
        <ele>775.7</ele>
        <time>2022-11-10T07:33:09Z</time>
      </trkpt>
      <trkpt lat="46.61705" lon="5.88972">
        <ele>776.1</ele>
        <time>2022-11-10T07:33:13Z</time>
      </trkpt>
      <trkpt lat="46.61701" lon="5.88972">
        <ele>776.3</ele>
        <time>2022-11-10T07:33:16Z</time>
      </trkpt>
      <trkpt lat="46.61696" lon="5.88972">
        <ele>776.7</ele>
        <time>2022-11-10T07:33:20Z</time>
      </trkpt>
      <trkpt lat="46.6169" lon="5.88973">
        <ele>777</ele>
        <time>2022-11-10T07:33:24Z</time>
      </trkpt>
      <trkpt lat="46.61685" lon="5.88974">
        <ele>777.1</ele>
        <time>2022-11-10T07:33:28Z</time>
      </trkpt>
      <trkpt lat="46.61679" lon="5.88976">
        <ele>777.2</ele>
        <time>2022-11-10T07:33:33Z</time>
      </trkpt>
      <trkpt lat="46.61675" lon="5.88977">
        <ele>776.9</ele>
        <time>2022-11-10T07:33:37Z</time>
      </trkpt>
      <trkpt lat="46.61669" lon="5.88978">
        <ele>776.7</ele>
        <time>2022-11-10T07:33:42Z</time>
      </trkpt>
      <trkpt lat="46.61664" lon="5.88979">
        <ele>776</ele>
        <time>2022-11-10T07:33:46Z</time>
      </trkpt>
      <trkpt lat="46.61659" lon="5.88982">
        <ele>775.3</ele>
        <time>2022-11-10T07:33:50Z</time>
      </trkpt>
      <trkpt lat="46.61655" lon="5.88985">
        <ele>774.7</ele>
        <time>2022-11-10T07:33:54Z</time>
      </trkpt>
      <trkpt lat="46.61651" lon="5.88989">
        <ele>774.6</ele>
        <time>2022-11-10T07:33:57Z</time>
      </trkpt>
      <trkpt lat="46.61648" lon="5.88994">
        <ele>774.7</ele>
        <time>2022-11-10T07:34:01Z</time>
      </trkpt>
      <trkpt lat="46.61646" lon="5.89">
        <ele>774.8</ele>
        <time>2022-11-10T07:34:04Z</time>
      </trkpt>
      <trkpt lat="46.61643" lon="5.89007">
        <ele>774.8</ele>
        <time>2022-11-10T07:34:08Z</time>
      </trkpt>
      <trkpt lat="46.61642" lon="5.89015">
        <ele>774.9</ele>
        <time>2022-11-10T07:34:13Z</time>
      </trkpt>
      <trkpt lat="46.61641" lon="5.89021">
        <ele>774.9</ele>
        <time>2022-11-10T07:34:17Z</time>
      </trkpt>
      <trkpt lat="46.6164" lon="5.89028">
        <ele>774.9</ele>
        <time>2022-11-10T07:34:21Z</time>
      </trkpt>
      <trkpt lat="46.61639" lon="5.89036">
        <ele>775.1</ele>
        <time>2022-11-10T07:34:25Z</time>
      </trkpt>
      <trkpt lat="46.61638" lon="5.89043">
        <ele>775.6</ele>
        <time>2022-11-10T07:34:29Z</time>
      </trkpt>
      <trkpt lat="46.61636" lon="5.89049">
        <ele>775.6</ele>
        <time>2022-11-10T07:34:33Z</time>
      </trkpt>
      <trkpt lat="46.61635" lon="5.89056">
        <ele>775.5</ele>
        <time>2022-11-10T07:34:38Z</time>
      </trkpt>
      <trkpt lat="46.61633" lon="5.89063">
        <ele>775</ele>
        <time>2022-11-10T07:34:43Z</time>
      </trkpt>
      <trkpt lat="46.61632" lon="5.8907">
        <ele>774.3</ele>
        <time>2022-11-10T07:34:48Z</time>
      </trkpt>
      <trkpt lat="46.61632" lon="5.89077">
        <ele>773.9</ele>
        <time>2022-11-10T07:34:53Z</time>
      </trkpt>
      <trkpt lat="46.61631" lon="5.89084">
        <ele>774.4</ele>
        <time>2022-11-10T07:34:57Z</time>
      </trkpt>
      <trkpt lat="46.61628" lon="5.89092">
        <ele>775.2</ele>
        <time>2022-11-10T07:35:01Z</time>
      </trkpt>
      <trkpt lat="46.61624" lon="5.89097">
        <ele>775.6</ele>
        <time>2022-11-10T07:35:04Z</time>
      </trkpt>
      <trkpt lat="46.6162" lon="5.89101">
        <ele>775.9</ele>
        <time>2022-11-10T07:35:07Z</time>
      </trkpt>
      <trkpt lat="46.61615" lon="5.89104">
        <ele>776.2</ele>
        <time>2022-11-10T07:35:11Z</time>
      </trkpt>
      <trkpt lat="46.6161" lon="5.89105">
        <ele>776.4</ele>
        <time>2022-11-10T07:35:15Z</time>
      </trkpt>
      <trkpt lat="46.61605" lon="5.89103">
        <ele>776.1</ele>
        <time>2022-11-10T07:35:19Z</time>
      </trkpt>
      <trkpt lat="46.61601" lon="5.89101">
        <ele>775.9</ele>
        <time>2022-11-10T07:35:23Z</time>
      </trkpt>
      <trkpt lat="46.61596" lon="5.891">
        <ele>776.5</ele>
        <time>2022-11-10T07:35:28Z</time>
      </trkpt>
      <trkpt lat="46.61591" lon="5.89098">
        <ele>777.6</ele>
        <time>2022-11-10T07:35:33Z</time>
      </trkpt>
      <trkpt lat="46.61586" lon="5.89097">
        <ele>778.8</ele>
        <time>2022-11-10T07:35:38Z</time>
      </trkpt>
      <trkpt lat="46.61581" lon="5.89096">
        <ele>779.5</ele>
        <time>2022-11-10T07:35:44Z</time>
      </trkpt>
      <trkpt lat="46.61576" lon="5.89097">
        <ele>779.9</ele>
        <time>2022-11-10T07:35:49Z</time>
      </trkpt>
      <trkpt lat="46.61571" lon="5.89099">
        <ele>780.7</ele>
        <time>2022-11-10T07:35:54Z</time>
      </trkpt>
      <trkpt lat="46.61567" lon="5.89101">
        <ele>781</ele>
        <time>2022-11-10T07:35:59Z</time>
      </trkpt>
      <trkpt lat="46.61561" lon="5.89104">
        <ele>781.1</ele>
        <time>2022-11-10T07:36:04Z</time>
      </trkpt>
      <trkpt lat="46.61556" lon="5.89107">
        <ele>781.2</ele>
        <time>2022-11-10T07:36:09Z</time>
      </trkpt>
      <trkpt lat="46.61552" lon="5.8911">
        <ele>781.4</ele>
        <time>2022-11-10T07:36:13Z</time>
      </trkpt>
      <trkpt lat="46.61547" lon="5.8911">
        <ele>782.2</ele>
        <time>2022-11-10T07:36:18Z</time>
      </trkpt>
      <trkpt lat="46.61542" lon="5.89109">
        <ele>782.9</ele>
        <time>2022-11-10T07:36:22Z</time>
      </trkpt>
      <trkpt lat="46.61538" lon="5.89108">
        <ele>783.7</ele>
        <time>2022-11-10T07:36:26Z</time>
      </trkpt>
      <trkpt lat="46.61533" lon="5.8911">
        <ele>784.8</ele>
        <time>2022-11-10T07:36:31Z</time>
      </trkpt>
      <trkpt lat="46.61528" lon="5.89112">
        <ele>785.9</ele>
        <time>2022-11-10T07:36:38Z</time>
      </trkpt>
      <trkpt lat="46.61524" lon="5.89117">
        <ele>786.8</ele>
        <time>2022-11-10T07:36:44Z</time>
      </trkpt>
      <trkpt lat="46.6152" lon="5.89122">
        <ele>787.1</ele>
        <time>2022-11-10T07:36:49Z</time>
      </trkpt>
      <trkpt lat="46.61516" lon="5.89127">
        <ele>786.7</ele>
        <time>2022-11-10T07:36:53Z</time>
      </trkpt>
      <trkpt lat="46.61512" lon="5.89132">
        <ele>786.3</ele>
        <time>2022-11-10T07:36:58Z</time>
      </trkpt>
      <trkpt lat="46.61508" lon="5.89136">
        <ele>786.5</ele>
        <time>2022-11-10T07:37:03Z</time>
      </trkpt>
      <trkpt lat="46.61504" lon="5.89138">
        <ele>786.6</ele>
        <time>2022-11-10T07:37:09Z</time>
      </trkpt>
      <trkpt lat="46.61499" lon="5.8914">
        <ele>786.8</ele>
        <time>2022-11-10T07:37:14Z</time>
      </trkpt>
      <trkpt lat="46.61495" lon="5.89141">
        <ele>786.7</ele>
        <time>2022-11-10T07:37:20Z</time>
      </trkpt>
      <trkpt lat="46.6149" lon="5.8914">
        <ele>786.8</ele>
        <time>2022-11-10T07:37:25Z</time>
      </trkpt>
      <trkpt lat="46.61485" lon="5.89139">
        <ele>787</ele>
        <time>2022-11-10T07:37:29Z</time>
      </trkpt>
      <trkpt lat="46.6148" lon="5.89139">
        <ele>788.2</ele>
        <time>2022-11-10T07:37:35Z</time>
      </trkpt>
      <trkpt lat="46.61475" lon="5.89142">
        <ele>788.3</ele>
        <time>2022-11-10T07:37:41Z</time>
      </trkpt>
      <trkpt lat="46.6147" lon="5.89142">
        <ele>787.3</ele>
        <time>2022-11-10T07:37:47Z</time>
      </trkpt>
      <trkpt lat="46.61465" lon="5.89144">
        <ele>786.3</ele>
        <time>2022-11-10T07:37:52Z</time>
      </trkpt>
      <trkpt lat="46.6146" lon="5.89145">
        <ele>786.4</ele>
        <time>2022-11-10T07:37:58Z</time>
      </trkpt>
      <trkpt lat="46.61455" lon="5.89147">
        <ele>787.1</ele>
        <time>2022-11-10T07:38:03Z</time>
      </trkpt>
      <trkpt lat="46.6145" lon="5.89146">
        <ele>788</ele>
        <time>2022-11-10T07:38:08Z</time>
      </trkpt>
      <trkpt lat="46.61445" lon="5.89147">
        <ele>788.6</ele>
        <time>2022-11-10T07:38:14Z</time>
      </trkpt>
      <trkpt lat="46.6144" lon="5.8915">
        <ele>789.5</ele>
        <time>2022-11-10T07:38:21Z</time>
      </trkpt>
      <trkpt lat="46.61436" lon="5.89152">
        <ele>791.2</ele>
        <time>2022-11-10T07:38:28Z</time>
      </trkpt>
      <trkpt lat="46.61431" lon="5.89154">
        <ele>792</ele>
        <time>2022-11-10T07:38:34Z</time>
      </trkpt>
      <trkpt lat="46.61425" lon="5.89155">
        <ele>792.2</ele>
        <time>2022-11-10T07:38:39Z</time>
      </trkpt>
      <trkpt lat="46.6142" lon="5.89156">
        <ele>791.6</ele>
        <time>2022-11-10T07:38:43Z</time>
      </trkpt>
      <trkpt lat="46.61416" lon="5.89159">
        <ele>790.7</ele>
        <time>2022-11-10T07:38:48Z</time>
      </trkpt>
      <trkpt lat="46.61413" lon="5.89164">
        <ele>789.1</ele>
        <time>2022-11-10T07:38:57Z</time>
      </trkpt>
      <trkpt lat="46.61409" lon="5.89169">
        <ele>787.7</ele>
        <time>2022-11-10T07:39:32Z</time>
      </trkpt>
      <trkpt lat="46.61404" lon="5.8917">
        <ele>786.9</ele>
        <time>2022-11-10T07:39:37Z</time>
      </trkpt>
      <trkpt lat="46.61401" lon="5.89175">
        <ele>787.2</ele>
        <time>2022-11-10T07:39:42Z</time>
      </trkpt>
      <trkpt lat="46.61397" lon="5.8918">
        <ele>788.4</ele>
        <time>2022-11-10T07:39:47Z</time>
      </trkpt>
      <trkpt lat="46.61394" lon="5.89185">
        <ele>789.7</ele>
        <time>2022-11-10T07:39:52Z</time>
      </trkpt>
      <trkpt lat="46.6139" lon="5.8919">
        <ele>790.6</ele>
        <time>2022-11-10T07:39:58Z</time>
      </trkpt>
      <trkpt lat="46.61386" lon="5.89193">
        <ele>791</ele>
        <time>2022-11-10T07:40:03Z</time>
      </trkpt>
      <trkpt lat="46.61382" lon="5.89197">
        <ele>791.5</ele>
        <time>2022-11-10T07:40:08Z</time>
      </trkpt>
      <trkpt lat="46.61377" lon="5.89199">
        <ele>792.2</ele>
        <time>2022-11-10T07:40:13Z</time>
      </trkpt>
      <trkpt lat="46.61372" lon="5.89202">
        <ele>793.3</ele>
        <time>2022-11-10T07:40:19Z</time>
      </trkpt>
      <trkpt lat="46.61369" lon="5.89207">
        <ele>793.9</ele>
        <time>2022-11-10T07:40:23Z</time>
      </trkpt>
      <trkpt lat="46.61364" lon="5.8921">
        <ele>794.3</ele>
        <time>2022-11-10T07:40:27Z</time>
      </trkpt>
      <trkpt lat="46.6136" lon="5.89215">
        <ele>794.6</ele>
        <time>2022-11-10T07:40:32Z</time>
      </trkpt>
      <trkpt lat="46.61356" lon="5.89219">
        <ele>794.9</ele>
        <time>2022-11-10T07:40:37Z</time>
      </trkpt>
      <trkpt lat="46.61352" lon="5.89223">
        <ele>795.1</ele>
        <time>2022-11-10T07:40:42Z</time>
      </trkpt>
      <trkpt lat="46.61348" lon="5.89228">
        <ele>795.4</ele>
        <time>2022-11-10T07:40:47Z</time>
      </trkpt>
      <trkpt lat="46.61344" lon="5.89235">
        <ele>795.6</ele>
        <time>2022-11-10T07:40:52Z</time>
      </trkpt>
      <trkpt lat="46.61341" lon="5.8924">
        <ele>795.4</ele>
        <time>2022-11-10T07:40:57Z</time>
      </trkpt>
      <trkpt lat="46.61338" lon="5.89245">
        <ele>795.7</ele>
        <time>2022-11-10T07:41:02Z</time>
      </trkpt>
      <trkpt lat="46.61334" lon="5.8925">
        <ele>797.1</ele>
        <time>2022-11-10T07:41:10Z</time>
      </trkpt>
      <trkpt lat="46.61333" lon="5.89257">
        <ele>798.2</ele>
        <time>2022-11-10T07:41:17Z</time>
      </trkpt>
      <trkpt lat="46.6133" lon="5.89264">
        <ele>798.9</ele>
        <time>2022-11-10T07:41:23Z</time>
      </trkpt>
      <trkpt lat="46.61327" lon="5.89269">
        <ele>799.4</ele>
        <time>2022-11-10T07:41:28Z</time>
      </trkpt>
      <trkpt lat="46.61325" lon="5.89276">
        <ele>799.8</ele>
        <time>2022-11-10T07:41:34Z</time>
      </trkpt>
      <trkpt lat="46.61322" lon="5.89282">
        <ele>801.8</ele>
        <time>2022-11-10T07:41:45Z</time>
      </trkpt>
      <trkpt lat="46.61319" lon="5.89288">
        <ele>802.5</ele>
        <time>2022-11-10T07:41:51Z</time>
      </trkpt>
      <trkpt lat="46.61316" lon="5.89293">
        <ele>803</ele>
        <time>2022-11-10T07:41:56Z</time>
      </trkpt>
      <trkpt lat="46.61314" lon="5.89299">
        <ele>803.9</ele>
        <time>2022-11-10T07:42:02Z</time>
      </trkpt>
      <trkpt lat="46.6131" lon="5.89304">
        <ele>804.9</ele>
        <time>2022-11-10T07:42:08Z</time>
      </trkpt>
      <trkpt lat="46.61308" lon="5.89311">
        <ele>805.4</ele>
        <time>2022-11-10T07:42:16Z</time>
      </trkpt>
      <trkpt lat="46.61307" lon="5.89318">
        <ele>804.9</ele>
        <time>2022-11-10T07:42:23Z</time>
      </trkpt>
      <trkpt lat="46.61309" lon="5.89325">
        <ele>804.7</ele>
        <time>2022-11-10T07:42:30Z</time>
      </trkpt>
      <trkpt lat="46.61307" lon="5.89332">
        <ele>804.3</ele>
        <time>2022-11-10T07:42:38Z</time>
      </trkpt>
      <trkpt lat="46.61306" lon="5.89339">
        <ele>803.9</ele>
        <time>2022-11-10T07:42:44Z</time>
      </trkpt>
      <trkpt lat="46.61309" lon="5.89344">
        <ele>804.1</ele>
        <time>2022-11-10T07:42:49Z</time>
      </trkpt>
      <trkpt lat="46.61312" lon="5.8935">
        <ele>804.2</ele>
        <time>2022-11-10T07:42:55Z</time>
      </trkpt>
      <trkpt lat="46.61315" lon="5.89356">
        <ele>804.1</ele>
        <time>2022-11-10T07:43:01Z</time>
      </trkpt>
      <trkpt lat="46.61319" lon="5.89361">
        <ele>803.3</ele>
        <time>2022-11-10T07:43:08Z</time>
      </trkpt>
      <trkpt lat="46.61324" lon="5.89363">
        <ele>802.5</ele>
        <time>2022-11-10T07:43:14Z</time>
      </trkpt>
      <trkpt lat="46.61327" lon="5.89368">
        <ele>801.9</ele>
        <time>2022-11-10T07:43:20Z</time>
      </trkpt>
      <trkpt lat="46.61326" lon="5.89376">
        <ele>801.4</ele>
        <time>2022-11-10T07:43:28Z</time>
      </trkpt>
      <trkpt lat="46.61324" lon="5.89383">
        <ele>801.3</ele>
        <time>2022-11-10T07:43:40Z</time>
      </trkpt>
      <trkpt lat="46.61328" lon="5.89388">
        <ele>802.1</ele>
        <time>2022-11-10T07:43:46Z</time>
      </trkpt>
      <trkpt lat="46.61332" lon="5.89387">
        <ele>803.2</ele>
        <time>2022-11-10T07:43:51Z</time>
      </trkpt>
      <trkpt lat="46.61333" lon="5.89395">
        <ele>804.7</ele>
        <time>2022-11-10T07:44:00Z</time>
      </trkpt>
      <trkpt lat="46.61335" lon="5.89401">
        <ele>804.9</ele>
        <time>2022-11-10T07:44:06Z</time>
      </trkpt>
      <trkpt lat="46.61339" lon="5.89406">
        <ele>805.2</ele>
        <time>2022-11-10T07:44:12Z</time>
      </trkpt>
      <trkpt lat="46.6134" lon="5.89412">
        <ele>804.6</ele>
        <time>2022-11-10T07:44:20Z</time>
      </trkpt>
      <trkpt lat="46.61341" lon="5.8942">
        <ele>804.2</ele>
        <time>2022-11-10T07:44:26Z</time>
      </trkpt>
      <trkpt lat="46.61342" lon="5.89427">
        <ele>804.6</ele>
        <time>2022-11-10T07:44:31Z</time>
      </trkpt>
      <trkpt lat="46.6134" lon="5.89434">
        <ele>806.2</ele>
        <time>2022-11-10T07:44:39Z</time>
      </trkpt>
      <trkpt lat="46.61337" lon="5.89439">
        <ele>806.6</ele>
        <time>2022-11-10T07:44:45Z</time>
      </trkpt>
      <trkpt lat="46.61334" lon="5.89443">
        <ele>806.2</ele>
        <time>2022-11-10T07:44:50Z</time>
      </trkpt>
      <trkpt lat="46.6133" lon="5.89449">
        <ele>806.4</ele>
        <time>2022-11-10T07:44:55Z</time>
      </trkpt>
      <trkpt lat="46.61326" lon="5.89453">
        <ele>807.1</ele>
        <time>2022-11-10T07:45:01Z</time>
      </trkpt>
      <trkpt lat="46.61322" lon="5.89457">
        <ele>808</ele>
        <time>2022-11-10T07:45:08Z</time>
      </trkpt>
      <trkpt lat="46.61318" lon="5.8946">
        <ele>809.4</ele>
        <time>2022-11-10T07:45:17Z</time>
      </trkpt>
      <trkpt lat="46.61313" lon="5.89462">
        <ele>810.2</ele>
        <time>2022-11-10T07:45:23Z</time>
      </trkpt>
      <trkpt lat="46.61309" lon="5.89462">
        <ele>810.7</ele>
        <time>2022-11-10T07:45:28Z</time>
      </trkpt>
      <trkpt lat="46.61304" lon="5.89463">
        <ele>810</ele>
        <time>2022-11-10T07:45:36Z</time>
      </trkpt>
      <trkpt lat="46.613" lon="5.89466">
        <ele>808.9</ele>
        <time>2022-11-10T07:45:43Z</time>
      </trkpt>
      <trkpt lat="46.61295" lon="5.89469">
        <ele>807.6</ele>
        <time>2022-11-10T07:45:50Z</time>
      </trkpt>
      <trkpt lat="46.6129" lon="5.89472">
        <ele>807.6</ele>
        <time>2022-11-10T07:45:55Z</time>
      </trkpt>
      <trkpt lat="46.61287" lon="5.89477">
        <ele>808.4</ele>
        <time>2022-11-10T07:46:00Z</time>
      </trkpt>
      <trkpt lat="46.61285" lon="5.89484">
        <ele>809.4</ele>
        <time>2022-11-10T07:46:06Z</time>
      </trkpt>
      <trkpt lat="46.61283" lon="5.8949">
        <ele>809.8</ele>
        <time>2022-11-10T07:46:14Z</time>
      </trkpt>
      <trkpt lat="46.61286" lon="5.89496">
        <ele>810.2</ele>
        <time>2022-11-10T07:46:20Z</time>
      </trkpt>
      <trkpt lat="46.61288" lon="5.89502">
        <ele>810.7</ele>
        <time>2022-11-10T07:46:24Z</time>
      </trkpt>
      <trkpt lat="46.61292" lon="5.89507">
        <ele>812.9</ele>
        <time>2022-11-10T07:46:32Z</time>
      </trkpt>
      <trkpt lat="46.61295" lon="5.89512">
        <ele>814.9</ele>
        <time>2022-11-10T07:46:41Z</time>
      </trkpt>
      <trkpt lat="46.61295" lon="5.89519">
        <ele>815.2</ele>
        <time>2022-11-10T07:46:47Z</time>
      </trkpt>
      <trkpt lat="46.61295" lon="5.89526">
        <ele>815.8</ele>
        <time>2022-11-10T07:46:55Z</time>
      </trkpt>
      <trkpt lat="46.61296" lon="5.89534">
        <ele>816.4</ele>
        <time>2022-11-10T07:47:02Z</time>
      </trkpt>
      <trkpt lat="46.61296" lon="5.89541">
        <ele>817.2</ele>
        <time>2022-11-10T07:47:08Z</time>
      </trkpt>
      <trkpt lat="46.61299" lon="5.89547">
        <ele>817.7</ele>
        <time>2022-11-10T07:47:15Z</time>
      </trkpt>
      <trkpt lat="46.61302" lon="5.89552">
        <ele>817.6</ele>
        <time>2022-11-10T07:47:23Z</time>
      </trkpt>
      <trkpt lat="46.61306" lon="5.89558">
        <ele>817.3</ele>
        <time>2022-11-10T07:47:30Z</time>
      </trkpt>
      <trkpt lat="46.61309" lon="5.89564">
        <ele>817.3</ele>
        <time>2022-11-10T07:47:36Z</time>
      </trkpt>
      <trkpt lat="46.61313" lon="5.89569">
        <ele>817.4</ele>
        <time>2022-11-10T07:47:42Z</time>
      </trkpt>
      <trkpt lat="46.61315" lon="5.89574">
        <ele>816.9</ele>
        <time>2022-11-10T07:47:48Z</time>
      </trkpt>
      <trkpt lat="46.61318" lon="5.8958">
        <ele>816.2</ele>
        <time>2022-11-10T07:47:54Z</time>
      </trkpt>
      <trkpt lat="46.61321" lon="5.89586">
        <ele>816.3</ele>
        <time>2022-11-10T07:47:59Z</time>
      </trkpt>
      <trkpt lat="46.61324" lon="5.89592">
        <ele>816.6</ele>
        <time>2022-11-10T07:48:04Z</time>
      </trkpt>
      <trkpt lat="46.61327" lon="5.89598">
        <ele>816.5</ele>
        <time>2022-11-10T07:48:08Z</time>
      </trkpt>
      <trkpt lat="46.61329" lon="5.89604">
        <ele>816.3</ele>
        <time>2022-11-10T07:48:12Z</time>
      </trkpt>
      <trkpt lat="46.61331" lon="5.8961">
        <ele>816</ele>
        <time>2022-11-10T07:48:17Z</time>
      </trkpt>
      <trkpt lat="46.61334" lon="5.89616">
        <ele>815.8</ele>
        <time>2022-11-10T07:48:23Z</time>
      </trkpt>
      <trkpt lat="46.61338" lon="5.89621">
        <ele>815.8</ele>
        <time>2022-11-10T07:48:27Z</time>
      </trkpt>
      <trkpt lat="46.61341" lon="5.89626">
        <ele>815.9</ele>
        <time>2022-11-10T07:48:32Z</time>
      </trkpt>
      <trkpt lat="46.61343" lon="5.89632">
        <ele>816.6</ele>
        <time>2022-11-10T07:48:38Z</time>
      </trkpt>
      <trkpt lat="46.61345" lon="5.89639">
        <ele>817.3</ele>
        <time>2022-11-10T07:48:44Z</time>
      </trkpt>
      <trkpt lat="46.61345" lon="5.89646">
        <ele>817.9</ele>
        <time>2022-11-10T07:48:51Z</time>
      </trkpt>
      <trkpt lat="46.61344" lon="5.89653">
        <ele>818</ele>
        <time>2022-11-10T07:48:55Z</time>
      </trkpt>
      <trkpt lat="46.61346" lon="5.8966">
        <ele>818</ele>
        <time>2022-11-10T07:48:59Z</time>
      </trkpt>
      <trkpt lat="46.61349" lon="5.89666">
        <ele>817.6</ele>
        <time>2022-11-10T07:49:02Z</time>
      </trkpt>
      <trkpt lat="46.61349" lon="5.89673">
        <ele>817.4</ele>
        <time>2022-11-10T07:49:05Z</time>
      </trkpt>
      <trkpt lat="46.61347" lon="5.89681">
        <ele>817.8</ele>
        <time>2022-11-10T07:49:10Z</time>
      </trkpt>
      <trkpt lat="46.61343" lon="5.89686">
        <ele>818.2</ele>
        <time>2022-11-10T07:49:14Z</time>
      </trkpt>
      <trkpt lat="46.61343" lon="5.89692">
        <ele>817.5</ele>
        <time>2022-11-10T07:49:21Z</time>
      </trkpt>
      <trkpt lat="46.61341" lon="5.897">
        <ele>816</ele>
        <time>2022-11-10T07:49:26Z</time>
      </trkpt>
      <trkpt lat="46.61339" lon="5.89707">
        <ele>814</ele>
        <time>2022-11-10T07:49:32Z</time>
      </trkpt>
      <trkpt lat="46.61338" lon="5.89714">
        <ele>812.7</ele>
        <time>2022-11-10T07:49:40Z</time>
      </trkpt>
      <trkpt lat="46.61335" lon="5.89719">
        <ele>812.8</ele>
        <time>2022-11-10T07:49:46Z</time>
      </trkpt>
      <trkpt lat="46.6133" lon="5.89723">
        <ele>813.5</ele>
        <time>2022-11-10T07:49:51Z</time>
      </trkpt>
      <trkpt lat="46.61326" lon="5.89727">
        <ele>814.4</ele>
        <time>2022-11-10T07:49:56Z</time>
      </trkpt>
      <trkpt lat="46.61322" lon="5.89733">
        <ele>815.9</ele>
        <time>2022-11-10T07:50:01Z</time>
      </trkpt>
      <trkpt lat="46.6132" lon="5.8974">
        <ele>817</ele>
        <time>2022-11-10T07:50:06Z</time>
      </trkpt>
      <trkpt lat="46.61316" lon="5.89745">
        <ele>817.9</ele>
        <time>2022-11-10T07:50:12Z</time>
      </trkpt>
      <trkpt lat="46.61312" lon="5.89749">
        <ele>818.5</ele>
        <time>2022-11-10T07:50:17Z</time>
      </trkpt>
      <trkpt lat="46.61309" lon="5.89754">
        <ele>818.8</ele>
        <time>2022-11-10T07:50:22Z</time>
      </trkpt>
      <trkpt lat="46.61304" lon="5.89758">
        <ele>819.1</ele>
        <time>2022-11-10T07:50:26Z</time>
      </trkpt>
      <trkpt lat="46.61301" lon="5.89762">
        <ele>819.5</ele>
        <time>2022-11-10T07:50:30Z</time>
      </trkpt>
      <trkpt lat="46.61295" lon="5.89765">
        <ele>819.8</ele>
        <time>2022-11-10T07:50:34Z</time>
      </trkpt>
      <trkpt lat="46.61291" lon="5.89767">
        <ele>820</ele>
        <time>2022-11-10T07:50:39Z</time>
      </trkpt>
      <trkpt lat="46.61286" lon="5.8977">
        <ele>820.2</ele>
        <time>2022-11-10T07:50:46Z</time>
      </trkpt>
      <trkpt lat="46.61282" lon="5.89774">
        <ele>820.3</ele>
        <time>2022-11-10T07:50:51Z</time>
      </trkpt>
      <trkpt lat="46.61277" lon="5.89776">
        <ele>821.1</ele>
        <time>2022-11-10T07:50:56Z</time>
      </trkpt>
      <trkpt lat="46.61272" lon="5.89776">
        <ele>822.1</ele>
        <time>2022-11-10T07:51:01Z</time>
      </trkpt>
      <trkpt lat="46.61268" lon="5.89779">
        <ele>823.4</ele>
        <time>2022-11-10T07:51:06Z</time>
      </trkpt>
      <trkpt lat="46.61264" lon="5.89784">
        <ele>824.4</ele>
        <time>2022-11-10T07:51:13Z</time>
      </trkpt>
      <trkpt lat="46.61261" lon="5.8979">
        <ele>824.3</ele>
        <time>2022-11-10T07:51:18Z</time>
      </trkpt>
      <trkpt lat="46.61257" lon="5.89795">
        <ele>824.5</ele>
        <time>2022-11-10T07:51:24Z</time>
      </trkpt>
      <trkpt lat="46.61253" lon="5.89798">
        <ele>824.9</ele>
        <time>2022-11-10T07:51:30Z</time>
      </trkpt>
      <trkpt lat="46.61249" lon="5.89802">
        <ele>825</ele>
        <time>2022-11-10T07:51:35Z</time>
      </trkpt>
      <trkpt lat="46.61245" lon="5.89808">
        <ele>824.6</ele>
        <time>2022-11-10T07:51:42Z</time>
      </trkpt>
      <trkpt lat="46.61242" lon="5.89813">
        <ele>824.9</ele>
        <time>2022-11-10T07:51:51Z</time>
      </trkpt>
      <trkpt lat="46.61237" lon="5.89816">
        <ele>825.5</ele>
        <time>2022-11-10T07:51:55Z</time>
      </trkpt>
      <trkpt lat="46.61232" lon="5.89819">
        <ele>826.3</ele>
        <time>2022-11-10T07:51:59Z</time>
      </trkpt>
      <trkpt lat="46.61231" lon="5.89825">
        <ele>827.2</ele>
        <time>2022-11-10T07:52:05Z</time>
      </trkpt>
      <trkpt lat="46.61226" lon="5.8983">
        <ele>827.6</ele>
        <time>2022-11-10T07:52:10Z</time>
      </trkpt>
      <trkpt lat="46.61222" lon="5.89834">
        <ele>827.1</ele>
        <time>2022-11-10T07:52:17Z</time>
      </trkpt>
      <trkpt lat="46.61218" lon="5.89836">
        <ele>827.1</ele>
        <time>2022-11-10T07:52:25Z</time>
      </trkpt>
      <trkpt lat="46.61214" lon="5.89839">
        <ele>827.7</ele>
        <time>2022-11-10T07:52:31Z</time>
      </trkpt>
      <trkpt lat="46.61211" lon="5.89845">
        <ele>827.9</ele>
        <time>2022-11-10T07:52:35Z</time>
      </trkpt>
      <trkpt lat="46.61208" lon="5.8985">
        <ele>827.5</ele>
        <time>2022-11-10T07:52:42Z</time>
      </trkpt>
      <trkpt lat="46.61205" lon="5.89856">
        <ele>827.4</ele>
        <time>2022-11-10T07:52:48Z</time>
      </trkpt>
      <trkpt lat="46.61201" lon="5.89861">
        <ele>827.7</ele>
        <time>2022-11-10T07:52:58Z</time>
      </trkpt>
      <trkpt lat="46.61197" lon="5.89864">
        <ele>827.6</ele>
        <time>2022-11-10T07:53:01Z</time>
      </trkpt>
      <trkpt lat="46.61193" lon="5.89868">
        <ele>827.1</ele>
        <time>2022-11-10T07:53:06Z</time>
      </trkpt>
      <trkpt lat="46.61189" lon="5.89872">
        <ele>826.5</ele>
        <time>2022-11-10T07:53:14Z</time>
      </trkpt>
      <trkpt lat="46.61185" lon="5.89878">
        <ele>827.8</ele>
        <time>2022-11-10T07:53:30Z</time>
      </trkpt>
      <trkpt lat="46.6118" lon="5.89882">
        <ele>828.9</ele>
        <time>2022-11-10T07:53:33Z</time>
      </trkpt>
      <trkpt lat="46.61177" lon="5.89886">
        <ele>830.1</ele>
        <time>2022-11-10T07:53:37Z</time>
      </trkpt>
      <trkpt lat="46.61172" lon="5.89891">
        <ele>830.9</ele>
        <time>2022-11-10T07:53:42Z</time>
      </trkpt>
      <trkpt lat="46.61169" lon="5.89895">
        <ele>831.4</ele>
        <time>2022-11-10T07:53:48Z</time>
      </trkpt>
      <trkpt lat="46.61165" lon="5.899">
        <ele>832.2</ele>
        <time>2022-11-10T07:53:56Z</time>
      </trkpt>
      <trkpt lat="46.61161" lon="5.89904">
        <ele>833</ele>
        <time>2022-11-10T07:54:02Z</time>
      </trkpt>
      <trkpt lat="46.61159" lon="5.8991">
        <ele>834.6</ele>
        <time>2022-11-10T07:54:08Z</time>
      </trkpt>
      <trkpt lat="46.61159" lon="5.89917">
        <ele>835.7</ele>
        <time>2022-11-10T07:54:12Z</time>
      </trkpt>
      <trkpt lat="46.6116" lon="5.89924">
        <ele>836.4</ele>
        <time>2022-11-10T07:54:16Z</time>
      </trkpt>
      <trkpt lat="46.61161" lon="5.89932">
        <ele>836.6</ele>
        <time>2022-11-10T07:54:21Z</time>
      </trkpt>
      <trkpt lat="46.6116" lon="5.89939">
        <ele>836.7</ele>
        <time>2022-11-10T07:54:26Z</time>
      </trkpt>
      <trkpt lat="46.61158" lon="5.89945">
        <ele>837.9</ele>
        <time>2022-11-10T07:54:36Z</time>
      </trkpt>
      <trkpt lat="46.61155" lon="5.8995">
        <ele>839</ele>
        <time>2022-11-10T07:54:43Z</time>
      </trkpt>
      <trkpt lat="46.61152" lon="5.89954">
        <ele>840</ele>
        <time>2022-11-10T07:54:48Z</time>
      </trkpt>
      <trkpt lat="46.61149" lon="5.89961">
        <ele>841.9</ele>
        <time>2022-11-10T07:54:54Z</time>
      </trkpt>
      <trkpt lat="46.61148" lon="5.89968">
        <ele>844.3</ele>
        <time>2022-11-10T07:55:00Z</time>
      </trkpt>
      <trkpt lat="46.61152" lon="5.89972">
        <ele>844.9</ele>
        <time>2022-11-10T07:55:04Z</time>
      </trkpt>
      <trkpt lat="46.6115" lon="5.89979">
        <ele>844.3</ele>
        <time>2022-11-10T07:55:17Z</time>
      </trkpt>
      <trkpt lat="46.61147" lon="5.89983">
        <ele>844.3</ele>
        <time>2022-11-10T07:55:23Z</time>
      </trkpt>
      <trkpt lat="46.61143" lon="5.8999">
        <ele>844.5</ele>
        <time>2022-11-10T07:55:28Z</time>
      </trkpt>
      <trkpt lat="46.61143" lon="5.89997">
        <ele>844.6</ele>
        <time>2022-11-10T07:55:34Z</time>
      </trkpt>
      <trkpt lat="46.61142" lon="5.90004">
        <ele>845</ele>
        <time>2022-11-10T07:55:42Z</time>
      </trkpt>
      <trkpt lat="46.61142" lon="5.90012">
        <ele>845.6</ele>
        <time>2022-11-10T07:55:49Z</time>
      </trkpt>
      <trkpt lat="46.61142" lon="5.90019">
        <ele>845.5</ele>
        <time>2022-11-10T07:55:56Z</time>
      </trkpt>
      <trkpt lat="46.61142" lon="5.90025">
        <ele>845.5</ele>
        <time>2022-11-10T07:56:04Z</time>
      </trkpt>
      <trkpt lat="46.61141" lon="5.90032">
        <ele>846</ele>
        <time>2022-11-10T07:56:13Z</time>
      </trkpt>
      <trkpt lat="46.61139" lon="5.90039">
        <ele>847</ele>
        <time>2022-11-10T07:56:20Z</time>
      </trkpt>
      <trkpt lat="46.61136" lon="5.90045">
        <ele>847.8</ele>
        <time>2022-11-10T07:56:26Z</time>
      </trkpt>
      <trkpt lat="46.61135" lon="5.90052">
        <ele>849.1</ele>
        <time>2022-11-10T07:56:33Z</time>
      </trkpt>
      <trkpt lat="46.61135" lon="5.90058">
        <ele>850.4</ele>
        <time>2022-11-10T07:56:39Z</time>
      </trkpt>
      <trkpt lat="46.61137" lon="5.90064">
        <ele>851.4</ele>
        <time>2022-11-10T07:56:46Z</time>
      </trkpt>
      <trkpt lat="46.61141" lon="5.90069">
        <ele>852.6</ele>
        <time>2022-11-10T07:56:53Z</time>
      </trkpt>
      <trkpt lat="46.6114" lon="5.90077">
        <ele>853.1</ele>
        <time>2022-11-10T07:56:59Z</time>
      </trkpt>
      <trkpt lat="46.61138" lon="5.90084">
        <ele>853.9</ele>
        <time>2022-11-10T07:57:06Z</time>
      </trkpt>
      <trkpt lat="46.61138" lon="5.90091">
        <ele>855.1</ele>
        <time>2022-11-10T07:57:14Z</time>
      </trkpt>
      <trkpt lat="46.61137" lon="5.90099">
        <ele>856.4</ele>
        <time>2022-11-10T07:57:22Z</time>
      </trkpt>
      <trkpt lat="46.61136" lon="5.90106">
        <ele>858.3</ele>
        <time>2022-11-10T07:57:31Z</time>
      </trkpt>
      <trkpt lat="46.61134" lon="5.90112">
        <ele>859.7</ele>
        <time>2022-11-10T07:57:37Z</time>
      </trkpt>
      <trkpt lat="46.61129" lon="5.90113">
        <ele>860.6</ele>
        <time>2022-11-10T07:57:41Z</time>
      </trkpt>
      <trkpt lat="46.61127" lon="5.9012">
        <ele>862.5</ele>
        <time>2022-11-10T07:57:49Z</time>
      </trkpt>
      <trkpt lat="46.61123" lon="5.90125">
        <ele>863.9</ele>
        <time>2022-11-10T07:57:56Z</time>
      </trkpt>
      <trkpt lat="46.6112" lon="5.90129">
        <ele>865</ele>
        <time>2022-11-10T07:58:01Z</time>
      </trkpt>
      <trkpt lat="46.61115" lon="5.90132">
        <ele>866.2</ele>
        <time>2022-11-10T07:58:07Z</time>
      </trkpt>
      <trkpt lat="46.61111" lon="5.90136">
        <ele>866.9</ele>
        <time>2022-11-10T07:58:14Z</time>
      </trkpt>
      <trkpt lat="46.61109" lon="5.90143">
        <ele>867.6</ele>
        <time>2022-11-10T07:58:22Z</time>
      </trkpt>
      <trkpt lat="46.61106" lon="5.90149">
        <ele>868</ele>
        <time>2022-11-10T07:58:27Z</time>
      </trkpt>
      <trkpt lat="46.61103" lon="5.90153">
        <ele>868.7</ele>
        <time>2022-11-10T07:58:33Z</time>
      </trkpt>
      <trkpt lat="46.61098" lon="5.90157">
        <ele>868.9</ele>
        <time>2022-11-10T07:58:38Z</time>
      </trkpt>
      <trkpt lat="46.61094" lon="5.9016">
        <ele>868.7</ele>
        <time>2022-11-10T07:58:45Z</time>
      </trkpt>
      <trkpt lat="46.61091" lon="5.90167">
        <ele>868.8</ele>
        <time>2022-11-10T07:58:52Z</time>
      </trkpt>
      <trkpt lat="46.61086" lon="5.9017">
        <ele>868.7</ele>
        <time>2022-11-10T07:58:59Z</time>
      </trkpt>
      <trkpt lat="46.61082" lon="5.90173">
        <ele>868.2</ele>
        <time>2022-11-10T07:59:05Z</time>
      </trkpt>
      <trkpt lat="46.61078" lon="5.90177">
        <ele>868.7</ele>
        <time>2022-11-10T07:59:12Z</time>
      </trkpt>
      <trkpt lat="46.61074" lon="5.9018">
        <ele>870.1</ele>
        <time>2022-11-10T07:59:19Z</time>
      </trkpt>
      <trkpt lat="46.6107" lon="5.90185">
        <ele>871.4</ele>
        <time>2022-11-10T07:59:26Z</time>
      </trkpt>
      <trkpt lat="46.61066" lon="5.90189">
        <ele>872.4</ele>
        <time>2022-11-10T07:59:31Z</time>
      </trkpt>
      <trkpt lat="46.61063" lon="5.90193">
        <ele>873.3</ele>
        <time>2022-11-10T07:59:35Z</time>
      </trkpt>
      <trkpt lat="46.61058" lon="5.90196">
        <ele>874.2</ele>
        <time>2022-11-10T07:59:40Z</time>
      </trkpt>
      <trkpt lat="46.61054" lon="5.90198">
        <ele>874.9</ele>
        <time>2022-11-10T07:59:45Z</time>
      </trkpt>
      <trkpt lat="46.61049" lon="5.90197">
        <ele>876.3</ele>
        <time>2022-11-10T07:59:50Z</time>
      </trkpt>
      <trkpt lat="46.61043" lon="5.90197">
        <ele>877.7</ele>
        <time>2022-11-10T07:59:55Z</time>
      </trkpt>
      <trkpt lat="46.61038" lon="5.90197">
        <ele>879.8</ele>
        <time>2022-11-10T08:00:02Z</time>
      </trkpt>
      <trkpt lat="46.61034" lon="5.90201">
        <ele>879.6</ele>
        <time>2022-11-10T08:00:06Z</time>
      </trkpt>
      <trkpt lat="46.61029" lon="5.90203">
        <ele>880</ele>
        <time>2022-11-10T08:00:11Z</time>
      </trkpt>
      <trkpt lat="46.61024" lon="5.90205">
        <ele>880.3</ele>
        <time>2022-11-10T08:00:16Z</time>
      </trkpt>
      <trkpt lat="46.6102" lon="5.90209">
        <ele>880.5</ele>
        <time>2022-11-10T08:00:22Z</time>
      </trkpt>
      <trkpt lat="46.61015" lon="5.90211">
        <ele>881.1</ele>
        <time>2022-11-10T08:00:28Z</time>
      </trkpt>
      <trkpt lat="46.61011" lon="5.90214">
        <ele>881.4</ele>
        <time>2022-11-10T08:00:35Z</time>
      </trkpt>
      <trkpt lat="46.61009" lon="5.90221">
        <ele>881.5</ele>
        <time>2022-11-10T08:00:42Z</time>
      </trkpt>
      <trkpt lat="46.61005" lon="5.90224">
        <ele>881.5</ele>
        <time>2022-11-10T08:00:48Z</time>
      </trkpt>
      <trkpt lat="46.61" lon="5.90226">
        <ele>881.5</ele>
        <time>2022-11-10T08:00:53Z</time>
      </trkpt>
      <trkpt lat="46.60996" lon="5.90229">
        <ele>882</ele>
        <time>2022-11-10T08:00:58Z</time>
      </trkpt>
      <trkpt lat="46.60991" lon="5.90233">
        <ele>883.3</ele>
        <time>2022-11-10T08:01:05Z</time>
      </trkpt>
      <trkpt lat="46.60989" lon="5.90239">
        <ele>883.3</ele>
        <time>2022-11-10T08:01:12Z</time>
      </trkpt>
      <trkpt lat="46.60987" lon="5.90245">
        <ele>882.8</ele>
        <time>2022-11-10T08:01:18Z</time>
      </trkpt>
      <trkpt lat="46.60984" lon="5.9025">
        <ele>882.7</ele>
        <time>2022-11-10T08:01:26Z</time>
      </trkpt>
      <trkpt lat="46.6098" lon="5.90254">
        <ele>883</ele>
        <time>2022-11-10T08:01:35Z</time>
      </trkpt>
      <trkpt lat="46.60977" lon="5.9026">
        <ele>882.6</ele>
        <time>2022-11-10T08:01:40Z</time>
      </trkpt>
      <trkpt lat="46.60973" lon="5.90263">
        <ele>882.5</ele>
        <time>2022-11-10T08:01:46Z</time>
      </trkpt>
      <trkpt lat="46.60969" lon="5.90259">
        <ele>883.6</ele>
        <time>2022-11-10T08:02:16Z</time>
      </trkpt>
      <trkpt lat="46.60964" lon="5.9026">
        <ele>883.3</ele>
        <time>2022-11-10T08:02:30Z</time>
      </trkpt>
      <trkpt lat="46.6096" lon="5.90264">
        <ele>883.3</ele>
        <time>2022-11-10T08:02:37Z</time>
      </trkpt>
      <trkpt lat="46.60957" lon="5.90268">
        <ele>883.2</ele>
        <time>2022-11-10T08:02:45Z</time>
      </trkpt>
      <trkpt lat="46.60954" lon="5.90274">
        <ele>883.7</ele>
        <time>2022-11-10T08:02:54Z</time>
      </trkpt>
      <trkpt lat="46.60951" lon="5.90278">
        <ele>883.7</ele>
        <time>2022-11-10T08:03:00Z</time>
      </trkpt>
      <trkpt lat="46.60946" lon="5.90279">
        <ele>884.6</ele>
        <time>2022-11-10T08:03:06Z</time>
      </trkpt>
      <trkpt lat="46.60941" lon="5.90279">
        <ele>886.5</ele>
        <time>2022-11-10T08:03:13Z</time>
      </trkpt>
      <trkpt lat="46.60937" lon="5.90284">
        <ele>887.8</ele>
        <time>2022-11-10T08:03:19Z</time>
      </trkpt>
      <trkpt lat="46.60934" lon="5.9029">
        <ele>887.7</ele>
        <time>2022-11-10T08:03:25Z</time>
      </trkpt>
      <trkpt lat="46.6093" lon="5.90294">
        <ele>886.7</ele>
        <time>2022-11-10T08:03:32Z</time>
      </trkpt>
      <trkpt lat="46.60926" lon="5.90299">
        <ele>885.9</ele>
        <time>2022-11-10T08:03:37Z</time>
      </trkpt>
      <trkpt lat="46.60923" lon="5.90304">
        <ele>884.9</ele>
        <time>2022-11-10T08:03:45Z</time>
      </trkpt>
      <trkpt lat="46.60923" lon="5.90311">
        <ele>884.8</ele>
        <time>2022-11-10T08:03:52Z</time>
      </trkpt>
      <trkpt lat="46.60923" lon="5.90318">
        <ele>885.2</ele>
        <time>2022-11-10T08:04:01Z</time>
      </trkpt>
      <trkpt lat="46.60925" lon="5.90324">
        <ele>886.4</ele>
        <time>2022-11-10T08:04:08Z</time>
      </trkpt>
      <trkpt lat="46.60922" lon="5.90329">
        <ele>889</ele>
        <time>2022-11-10T08:04:19Z</time>
      </trkpt>
      <trkpt lat="46.60919" lon="5.90335">
        <ele>888.9</ele>
        <time>2022-11-10T08:04:27Z</time>
      </trkpt>
      <trkpt lat="46.60914" lon="5.90339">
        <ele>890.1</ele>
        <time>2022-11-10T08:04:35Z</time>
      </trkpt>
      <trkpt lat="46.6091" lon="5.90341">
        <ele>891.6</ele>
        <time>2022-11-10T08:04:42Z</time>
      </trkpt>
      <trkpt lat="46.6091" lon="5.90348">
        <ele>891.7</ele>
        <time>2022-11-10T08:04:53Z</time>
      </trkpt>
      <trkpt lat="46.60914" lon="5.9035">
        <ele>891.4</ele>
        <time>2022-11-10T08:05:10Z</time>
      </trkpt>
      <trkpt lat="46.6091" lon="5.90354">
        <ele>890.7</ele>
        <time>2022-11-10T08:05:38Z</time>
      </trkpt>
      <trkpt lat="46.60909" lon="5.9036">
        <ele>892.3</ele>
        <time>2022-11-10T08:05:52Z</time>
      </trkpt>
      <trkpt lat="46.60907" lon="5.90366">
        <ele>892.9</ele>
        <time>2022-11-10T08:06:01Z</time>
      </trkpt>
      <trkpt lat="46.60902" lon="5.90367">
        <ele>892.7</ele>
        <time>2022-11-10T08:06:09Z</time>
      </trkpt>
      <trkpt lat="46.60897" lon="5.90366">
        <ele>892.4</ele>
        <time>2022-11-10T08:06:15Z</time>
      </trkpt>
      <trkpt lat="46.60896" lon="5.90374">
        <ele>892.5</ele>
        <time>2022-11-10T08:06:22Z</time>
      </trkpt>
      <trkpt lat="46.60897" lon="5.9038">
        <ele>892.4</ele>
        <time>2022-11-10T08:06:27Z</time>
      </trkpt>
      <trkpt lat="46.60902" lon="5.90386">
        <ele>892.6</ele>
        <time>2022-11-10T08:06:32Z</time>
      </trkpt>
      <trkpt lat="46.60906" lon="5.90387">
        <ele>893.2</ele>
        <time>2022-11-10T08:06:36Z</time>
      </trkpt>
      <trkpt lat="46.60912" lon="5.90389">
        <ele>893.3</ele>
        <time>2022-11-10T08:06:41Z</time>
      </trkpt>
      <trkpt lat="46.60915" lon="5.90394">
        <ele>892.1</ele>
        <time>2022-11-10T08:06:47Z</time>
      </trkpt>
      <trkpt lat="46.6092" lon="5.90397">
        <ele>891.3</ele>
        <time>2022-11-10T08:06:53Z</time>
      </trkpt>
      <trkpt lat="46.60925" lon="5.90397">
        <ele>890.2</ele>
        <time>2022-11-10T08:06:59Z</time>
      </trkpt>
      <trkpt lat="46.60926" lon="5.90403">
        <ele>892.4</ele>
        <time>2022-11-10T08:15:32Z</time>
      </trkpt>
      <trkpt lat="46.60922" lon="5.90408">
        <ele>890.4</ele>
        <time>2022-11-10T08:15:44Z</time>
      </trkpt>
      <trkpt lat="46.60918" lon="5.90407">
        <ele>889.7</ele>
        <time>2022-11-10T08:15:51Z</time>
      </trkpt>
      <trkpt lat="46.60913" lon="5.90405">
        <ele>890.4</ele>
        <time>2022-11-10T08:15:58Z</time>
      </trkpt>
      <trkpt lat="46.60909" lon="5.90405">
        <ele>890.9</ele>
        <time>2022-11-10T08:16:03Z</time>
      </trkpt>
      <trkpt lat="46.60904" lon="5.90406">
        <ele>891.3</ele>
        <time>2022-11-10T08:16:13Z</time>
      </trkpt>
      <trkpt lat="46.609" lon="5.9041">
        <ele>891.3</ele>
        <time>2022-11-10T08:16:19Z</time>
      </trkpt>
      <trkpt lat="46.60895" lon="5.90414">
        <ele>891.9</ele>
        <time>2022-11-10T08:16:24Z</time>
      </trkpt>
      <trkpt lat="46.60891" lon="5.90417">
        <ele>893.2</ele>
        <time>2022-11-10T08:16:29Z</time>
      </trkpt>
      <trkpt lat="46.60886" lon="5.9042">
        <ele>894.4</ele>
        <time>2022-11-10T08:16:35Z</time>
      </trkpt>
      <trkpt lat="46.60882" lon="5.90424">
        <ele>895.2</ele>
        <time>2022-11-10T08:16:41Z</time>
      </trkpt>
      <trkpt lat="46.60878" lon="5.90428">
        <ele>895.6</ele>
        <time>2022-11-10T08:16:46Z</time>
      </trkpt>
      <trkpt lat="46.60874" lon="5.90431">
        <ele>895.1</ele>
        <time>2022-11-10T08:16:52Z</time>
      </trkpt>
      <trkpt lat="46.60869" lon="5.90433">
        <ele>894.7</ele>
        <time>2022-11-10T08:16:58Z</time>
      </trkpt>
      <trkpt lat="46.60865" lon="5.90435">
        <ele>894.1</ele>
        <time>2022-11-10T08:17:06Z</time>
      </trkpt>
      <trkpt lat="46.6086" lon="5.90435">
        <ele>893.9</ele>
        <time>2022-11-10T08:17:11Z</time>
      </trkpt>
      <trkpt lat="46.60855" lon="5.90435">
        <ele>893.6</ele>
        <time>2022-11-10T08:17:16Z</time>
      </trkpt>
      <trkpt lat="46.6085" lon="5.90436">
        <ele>893.4</ele>
        <time>2022-11-10T08:17:21Z</time>
      </trkpt>
      <trkpt lat="46.60846" lon="5.90438">
        <ele>893.6</ele>
        <time>2022-11-10T08:17:26Z</time>
      </trkpt>
      <trkpt lat="46.60842" lon="5.90442">
        <ele>893.4</ele>
        <time>2022-11-10T08:17:31Z</time>
      </trkpt>
      <trkpt lat="46.60837" lon="5.90444">
        <ele>891.7</ele>
        <time>2022-11-10T08:17:44Z</time>
      </trkpt>
      <trkpt lat="46.60833" lon="5.90441">
        <ele>891.9</ele>
        <time>2022-11-10T08:17:53Z</time>
      </trkpt>
      <trkpt lat="46.60831" lon="5.90434">
        <ele>893.2</ele>
        <time>2022-11-10T08:18:00Z</time>
      </trkpt>
      <trkpt lat="46.60829" lon="5.90428">
        <ele>894.8</ele>
        <time>2022-11-10T08:18:06Z</time>
      </trkpt>
      <trkpt lat="46.60826" lon="5.90423">
        <ele>896.9</ele>
        <time>2022-11-10T08:18:13Z</time>
      </trkpt>
      <trkpt lat="46.60821" lon="5.9042">
        <ele>898.8</ele>
        <time>2022-11-10T08:18:21Z</time>
      </trkpt>
      <trkpt lat="46.60817" lon="5.90418">
        <ele>899.7</ele>
        <time>2022-11-10T08:18:27Z</time>
      </trkpt>
      <trkpt lat="46.60816" lon="5.90425">
        <ele>900.2</ele>
        <time>2022-11-10T08:18:36Z</time>
      </trkpt>
      <trkpt lat="46.60811" lon="5.90426">
        <ele>901.6</ele>
        <time>2022-11-10T08:18:57Z</time>
      </trkpt>
      <trkpt lat="46.60806" lon="5.90426">
        <ele>903.1</ele>
        <time>2022-11-10T08:19:07Z</time>
      </trkpt>
      <trkpt lat="46.60801" lon="5.90429">
        <ele>904.2</ele>
        <time>2022-11-10T08:19:14Z</time>
      </trkpt>
      <trkpt lat="46.60798" lon="5.90434">
        <ele>905</ele>
        <time>2022-11-10T08:19:21Z</time>
      </trkpt>
      <trkpt lat="46.60795" lon="5.9044">
        <ele>904.8</ele>
        <time>2022-11-10T08:19:27Z</time>
      </trkpt>
      <trkpt lat="46.60791" lon="5.90444">
        <ele>902.7</ele>
        <time>2022-11-10T08:19:46Z</time>
      </trkpt>
      <trkpt lat="46.60786" lon="5.90446">
        <ele>903.2</ele>
        <time>2022-11-10T08:19:54Z</time>
      </trkpt>
      <trkpt lat="46.60782" lon="5.90449">
        <ele>904</ele>
        <time>2022-11-10T08:20:01Z</time>
      </trkpt>
      <trkpt lat="46.60777" lon="5.90451">
        <ele>903.7</ele>
        <time>2022-11-10T08:20:08Z</time>
      </trkpt>
      <trkpt lat="46.60772" lon="5.90451">
        <ele>902.1</ele>
        <time>2022-11-10T08:20:17Z</time>
      </trkpt>
      <trkpt lat="46.60774" lon="5.90442">
        <ele>899.7</ele>
        <time>2022-11-10T08:20:44Z</time>
      </trkpt>
      <trkpt lat="46.60777" lon="5.90436">
        <ele>899.2</ele>
        <time>2022-11-10T08:20:48Z</time>
      </trkpt>
      <trkpt lat="46.6078" lon="5.90431">
        <ele>899.2</ele>
        <time>2022-11-10T08:20:56Z</time>
      </trkpt>
      <trkpt lat="46.60782" lon="5.90425">
        <ele>899.5</ele>
        <time>2022-11-10T08:21:02Z</time>
      </trkpt>
      <trkpt lat="46.60784" lon="5.90418">
        <ele>899.5</ele>
        <time>2022-11-10T08:21:08Z</time>
      </trkpt>
      <trkpt lat="46.60786" lon="5.90412">
        <ele>899.2</ele>
        <time>2022-11-10T08:21:18Z</time>
      </trkpt>
      <trkpt lat="46.60789" lon="5.90407">
        <ele>897.9</ele>
        <time>2022-11-10T08:21:28Z</time>
      </trkpt>
      <trkpt lat="46.60793" lon="5.90403">
        <ele>897</ele>
        <time>2022-11-10T08:21:39Z</time>
      </trkpt>
      <trkpt lat="46.60797" lon="5.90399">
        <ele>896.7</ele>
        <time>2022-11-10T08:21:46Z</time>
      </trkpt>
      <trkpt lat="46.608" lon="5.90394">
        <ele>896.4</ele>
        <time>2022-11-10T08:21:54Z</time>
      </trkpt>
      <trkpt lat="46.60802" lon="5.90387">
        <ele>896.2</ele>
        <time>2022-11-10T08:22:01Z</time>
      </trkpt>
      <trkpt lat="46.60805" lon="5.90382">
        <ele>896</ele>
        <time>2022-11-10T08:22:09Z</time>
      </trkpt>
      <trkpt lat="46.60804" lon="5.90376">
        <ele>896.3</ele>
        <time>2022-11-10T08:22:29Z</time>
      </trkpt>
      <trkpt lat="46.60804" lon="5.90369">
        <ele>896.2</ele>
        <time>2022-11-10T08:22:35Z</time>
      </trkpt>
      <trkpt lat="46.60805" lon="5.90362">
        <ele>896.4</ele>
        <time>2022-11-10T08:23:16Z</time>
      </trkpt>
      <trkpt lat="46.60806" lon="5.90355">
        <ele>896.2</ele>
        <time>2022-11-10T08:23:23Z</time>
      </trkpt>
      <trkpt lat="46.60807" lon="5.90348">
        <ele>896.2</ele>
        <time>2022-11-10T08:23:29Z</time>
      </trkpt>
      <trkpt lat="46.60807" lon="5.90341">
        <ele>896</ele>
        <time>2022-11-10T08:23:33Z</time>
      </trkpt>
      <trkpt lat="46.60807" lon="5.90333">
        <ele>895.6</ele>
        <time>2022-11-10T08:23:38Z</time>
      </trkpt>
      <trkpt lat="46.60806" lon="5.90327">
        <ele>895.3</ele>
        <time>2022-11-10T08:23:44Z</time>
      </trkpt>
      <trkpt lat="46.60804" lon="5.9032">
        <ele>894.7</ele>
        <time>2022-11-10T08:23:54Z</time>
      </trkpt>
      <trkpt lat="46.60804" lon="5.90313">
        <ele>894.6</ele>
        <time>2022-11-10T08:23:59Z</time>
      </trkpt>
      <trkpt lat="46.60804" lon="5.90306">
        <ele>894.8</ele>
        <time>2022-11-10T08:24:04Z</time>
      </trkpt>
      <trkpt lat="46.60803" lon="5.903">
        <ele>895.3</ele>
        <time>2022-11-10T08:24:10Z</time>
      </trkpt>
      <trkpt lat="46.60802" lon="5.90293">
        <ele>895.6</ele>
        <time>2022-11-10T08:24:18Z</time>
      </trkpt>
      <trkpt lat="46.60805" lon="5.90288">
        <ele>895.1</ele>
        <time>2022-11-10T08:24:24Z</time>
      </trkpt>
      <trkpt lat="46.6081" lon="5.90284">
        <ele>894.4</ele>
        <time>2022-11-10T08:24:33Z</time>
      </trkpt>
      <trkpt lat="46.60814" lon="5.90283">
        <ele>894.5</ele>
        <time>2022-11-10T08:24:39Z</time>
      </trkpt>
      <trkpt lat="46.60819" lon="5.90282">
        <ele>894.8</ele>
        <time>2022-11-10T08:24:47Z</time>
      </trkpt>
      <trkpt lat="46.60816" lon="5.90276">
        <ele>898.4</ele>
        <time>2022-11-10T08:25:04Z</time>
      </trkpt>
      <trkpt lat="46.60811" lon="5.90273">
        <ele>899.8</ele>
        <time>2022-11-10T08:25:09Z</time>
      </trkpt>
      <trkpt lat="46.60806" lon="5.90272">
        <ele>902</ele>
        <time>2022-11-10T08:25:13Z</time>
      </trkpt>
      <trkpt lat="46.60801" lon="5.90272">
        <ele>904.4</ele>
        <time>2022-11-10T08:25:17Z</time>
      </trkpt>
      <trkpt lat="46.608" lon="5.90265">
        <ele>908.4</ele>
        <time>2022-11-10T08:25:47Z</time>
      </trkpt>
      <trkpt lat="46.60801" lon="5.90258">
        <ele>908.7</ele>
        <time>2022-11-10T08:26:21Z</time>
      </trkpt>
      <trkpt lat="46.60801" lon="5.90251">
        <ele>909.1</ele>
        <time>2022-11-10T08:26:27Z</time>
      </trkpt>
      <trkpt lat="46.60803" lon="5.90244">
        <ele>910.3</ele>
        <time>2022-11-10T08:26:34Z</time>
      </trkpt>
      <trkpt lat="46.60803" lon="5.90237">
        <ele>911.4</ele>
        <time>2022-11-10T08:26:42Z</time>
      </trkpt>
      <trkpt lat="46.60804" lon="5.9023">
        <ele>912.1</ele>
        <time>2022-11-10T08:26:50Z</time>
      </trkpt>
      <trkpt lat="46.60806" lon="5.90224">
        <ele>912.1</ele>
        <time>2022-11-10T08:26:58Z</time>
      </trkpt>
      <trkpt lat="46.60805" lon="5.90218">
        <ele>911.5</ele>
        <time>2022-11-10T08:27:07Z</time>
      </trkpt>
      <trkpt lat="46.60802" lon="5.90213">
        <ele>910.7</ele>
        <time>2022-11-10T08:27:20Z</time>
      </trkpt>
      <trkpt lat="46.60798" lon="5.90209">
        <ele>910.3</ele>
        <time>2022-11-10T08:27:26Z</time>
      </trkpt>
      <trkpt lat="46.60801" lon="5.90202">
        <ele>910.2</ele>
        <time>2022-11-10T08:27:32Z</time>
      </trkpt>
      <trkpt lat="46.60805" lon="5.90197">
        <ele>910.7</ele>
        <time>2022-11-10T08:27:40Z</time>
      </trkpt>
      <trkpt lat="46.60809" lon="5.90192">
        <ele>911.5</ele>
        <time>2022-11-10T08:27:46Z</time>
      </trkpt>
      <trkpt lat="46.60813" lon="5.90189">
        <ele>912.5</ele>
        <time>2022-11-10T08:27:53Z</time>
      </trkpt>
      <trkpt lat="46.60818" lon="5.90188">
        <ele>913.5</ele>
        <time>2022-11-10T08:28:00Z</time>
      </trkpt>
      <trkpt lat="46.60823" lon="5.90184">
        <ele>914.6</ele>
        <time>2022-11-10T08:28:07Z</time>
      </trkpt>
      <trkpt lat="46.60826" lon="5.90179">
        <ele>915.5</ele>
        <time>2022-11-10T08:28:14Z</time>
      </trkpt>
      <trkpt lat="46.6083" lon="5.90176">
        <ele>916.3</ele>
        <time>2022-11-10T08:28:22Z</time>
      </trkpt>
      <trkpt lat="46.60831" lon="5.90169">
        <ele>916.3</ele>
        <time>2022-11-10T08:28:30Z</time>
      </trkpt>
      <trkpt lat="46.60831" lon="5.90161">
        <ele>917.9</ele>
        <time>2022-11-10T08:29:09Z</time>
      </trkpt>
      <trkpt lat="46.60834" lon="5.90156">
        <ele>919.2</ele>
        <time>2022-11-10T08:29:17Z</time>
      </trkpt>
      <trkpt lat="46.60838" lon="5.90152">
        <ele>920.1</ele>
        <time>2022-11-10T08:29:25Z</time>
      </trkpt>
      <trkpt lat="46.60841" lon="5.90146">
        <ele>921.6</ele>
        <time>2022-11-10T08:29:32Z</time>
      </trkpt>
      <trkpt lat="46.60841" lon="5.9014">
        <ele>922.8</ele>
        <time>2022-11-10T08:29:39Z</time>
      </trkpt>
      <trkpt lat="46.6084" lon="5.90133">
        <ele>923.2</ele>
        <time>2022-11-10T08:29:49Z</time>
      </trkpt>
      <trkpt lat="46.60841" lon="5.90126">
        <ele>922.9</ele>
        <time>2022-11-10T08:29:59Z</time>
      </trkpt>
      <trkpt lat="46.6084" lon="5.90119">
        <ele>922.1</ele>
        <time>2022-11-10T08:30:07Z</time>
      </trkpt>
      <trkpt lat="46.60838" lon="5.90112">
        <ele>922.5</ele>
        <time>2022-11-10T08:30:15Z</time>
      </trkpt>
      <trkpt lat="46.60834" lon="5.90108">
        <ele>922.7</ele>
        <time>2022-11-10T08:30:21Z</time>
      </trkpt>
      <trkpt lat="46.60832" lon="5.90102">
        <ele>922.3</ele>
        <time>2022-11-10T08:30:28Z</time>
      </trkpt>
      <trkpt lat="46.60829" lon="5.90096">
        <ele>919.6</ele>
        <time>2022-11-10T08:30:50Z</time>
      </trkpt>
      <trkpt lat="46.60828" lon="5.90085">
        <ele>920</ele>
        <time>2022-11-10T08:31:08Z</time>
      </trkpt>
      <trkpt lat="46.60829" lon="5.90079">
        <ele>921.2</ele>
        <time>2022-11-10T08:31:12Z</time>
      </trkpt>
      <trkpt lat="46.60831" lon="5.90073">
        <ele>922.9</ele>
        <time>2022-11-10T08:31:18Z</time>
      </trkpt>
      <trkpt lat="46.60834" lon="5.90067">
        <ele>924.4</ele>
        <time>2022-11-10T08:31:24Z</time>
      </trkpt>
      <trkpt lat="46.60834" lon="5.9006">
        <ele>924.7</ele>
        <time>2022-11-10T08:31:32Z</time>
      </trkpt>
      <trkpt lat="46.6083" lon="5.90054">
        <ele>926.8</ele>
        <time>2022-11-10T08:32:32Z</time>
      </trkpt>
      <trkpt lat="46.60828" lon="5.90049">
        <ele>928.9</ele>
        <time>2022-11-10T08:32:36Z</time>
      </trkpt>
      <trkpt lat="46.60827" lon="5.90042">
        <ele>930.3</ele>
        <time>2022-11-10T08:32:41Z</time>
      </trkpt>
      <trkpt lat="46.60826" lon="5.90036">
        <ele>931.7</ele>
        <time>2022-11-10T08:32:47Z</time>
      </trkpt>
      <trkpt lat="46.60823" lon="5.90028">
        <ele>934.3</ele>
        <time>2022-11-10T08:33:10Z</time>
      </trkpt>
      <trkpt lat="46.60819" lon="5.90024">
        <ele>934.6</ele>
        <time>2022-11-10T08:33:21Z</time>
      </trkpt>
      <trkpt lat="46.60824" lon="5.90027">
        <ele>932.8</ele>
        <time>2022-11-10T08:33:52Z</time>
      </trkpt>
      <trkpt lat="46.60828" lon="5.90031">
        <ele>932.3</ele>
        <time>2022-11-10T08:33:59Z</time>
      </trkpt>
      <trkpt lat="46.60824" lon="5.90028">
        <ele>933.7</ele>
        <time>2022-11-10T08:34:27Z</time>
      </trkpt>
      <trkpt lat="46.6082" lon="5.90025">
        <ele>933.9</ele>
        <time>2022-11-10T08:34:38Z</time>
      </trkpt>
      <trkpt lat="46.60815" lon="5.90025">
        <ele>932.6</ele>
        <time>2022-11-10T08:35:21Z</time>
      </trkpt>
      <trkpt lat="46.6081" lon="5.90022">
        <ele>933</ele>
        <time>2022-11-10T08:35:29Z</time>
      </trkpt>
      <trkpt lat="46.60805" lon="5.90021">
        <ele>932.9</ele>
        <time>2022-11-10T08:35:35Z</time>
      </trkpt>
      <trkpt lat="46.60799" lon="5.90019">
        <ele>932.8</ele>
        <time>2022-11-10T08:35:40Z</time>
      </trkpt>
      <trkpt lat="46.60795" lon="5.90018">
        <ele>933</ele>
        <time>2022-11-10T08:35:44Z</time>
      </trkpt>
      <trkpt lat="46.6079" lon="5.90015">
        <ele>932.9</ele>
        <time>2022-11-10T08:35:49Z</time>
      </trkpt>
      <trkpt lat="46.60786" lon="5.90013">
        <ele>932.4</ele>
        <time>2022-11-10T08:35:53Z</time>
      </trkpt>
      <trkpt lat="46.60782" lon="5.90008">
        <ele>932.2</ele>
        <time>2022-11-10T08:35:59Z</time>
      </trkpt>
      <trkpt lat="46.60778" lon="5.90005">
        <ele>932.1</ele>
        <time>2022-11-10T08:36:05Z</time>
      </trkpt>
      <trkpt lat="46.60776" lon="5.89999">
        <ele>931.5</ele>
        <time>2022-11-10T08:36:11Z</time>
      </trkpt>
      <trkpt lat="46.60775" lon="5.89992">
        <ele>930</ele>
        <time>2022-11-10T08:36:22Z</time>
      </trkpt>
      <trkpt lat="46.60773" lon="5.89986">
        <ele>930.2</ele>
        <time>2022-11-10T08:36:28Z</time>
      </trkpt>
      <trkpt lat="46.60771" lon="5.8998">
        <ele>931.1</ele>
        <time>2022-11-10T08:36:35Z</time>
      </trkpt>
      <trkpt lat="46.60773" lon="5.89973">
        <ele>933.1</ele>
        <time>2022-11-10T08:36:50Z</time>
      </trkpt>
      <trkpt lat="46.60773" lon="5.89966">
        <ele>934.1</ele>
        <time>2022-11-10T08:36:57Z</time>
      </trkpt>
      <trkpt lat="46.60777" lon="5.8996">
        <ele>935.1</ele>
        <time>2022-11-10T08:37:11Z</time>
      </trkpt>
      <trkpt lat="46.60781" lon="5.89958">
        <ele>934.2</ele>
        <time>2022-11-10T08:37:22Z</time>
      </trkpt>
      <trkpt lat="46.60776" lon="5.89963">
        <ele>934.1</ele>
        <time>2022-11-10T08:37:46Z</time>
      </trkpt>
      <trkpt lat="46.60772" lon="5.89958">
        <ele>935.3</ele>
        <time>2022-11-10T08:38:46Z</time>
      </trkpt>
      <trkpt lat="46.60769" lon="5.89954">
        <ele>937.8</ele>
        <time>2022-11-10T08:39:16Z</time>
      </trkpt>
      <trkpt lat="46.60764" lon="5.89951">
        <ele>939.2</ele>
        <time>2022-11-10T08:39:23Z</time>
      </trkpt>
      <trkpt lat="46.60758" lon="5.89956">
        <ele>936.8</ele>
        <time>2022-11-10T08:40:04Z</time>
      </trkpt>
      <trkpt lat="46.60753" lon="5.89959">
        <ele>935</ele>
        <time>2022-11-10T08:40:16Z</time>
      </trkpt>
      <trkpt lat="46.60749" lon="5.89961">
        <ele>933.4</ele>
        <time>2022-11-10T08:40:24Z</time>
      </trkpt>
      <trkpt lat="46.60744" lon="5.89962">
        <ele>932.9</ele>
        <time>2022-11-10T08:40:38Z</time>
      </trkpt>
      <trkpt lat="46.60739" lon="5.8996">
        <ele>932.4</ele>
        <time>2022-11-10T08:40:48Z</time>
      </trkpt>
      <trkpt lat="46.60734" lon="5.89959">
        <ele>930.7</ele>
        <time>2022-11-10T08:40:58Z</time>
      </trkpt>
      <trkpt lat="46.60736" lon="5.89951">
        <ele>927.9</ele>
        <time>2022-11-10T08:41:40Z</time>
      </trkpt>
      <trkpt lat="46.60734" lon="5.89942">
        <ele>926.7</ele>
        <time>2022-11-10T08:42:04Z</time>
      </trkpt>
      <trkpt lat="46.60729" lon="5.89942">
        <ele>926.5</ele>
        <time>2022-11-10T08:42:07Z</time>
      </trkpt>
      <trkpt lat="46.60725" lon="5.89943">
        <ele>926.6</ele>
        <time>2022-11-10T08:42:13Z</time>
      </trkpt>
      <trkpt lat="46.60721" lon="5.89947">
        <ele>925.9</ele>
        <time>2022-11-10T08:42:23Z</time>
      </trkpt>
      <trkpt lat="46.60719" lon="5.8994">
        <ele>924.7</ele>
        <time>2022-11-10T08:42:31Z</time>
      </trkpt>
      <trkpt lat="46.60717" lon="5.89932">
        <ele>924.3</ele>
        <time>2022-11-10T08:42:35Z</time>
      </trkpt>
      <trkpt lat="46.60714" lon="5.89925">
        <ele>924</ele>
        <time>2022-11-10T08:42:40Z</time>
      </trkpt>
      <trkpt lat="46.60711" lon="5.8992">
        <ele>923.4</ele>
        <time>2022-11-10T08:42:45Z</time>
      </trkpt>
      <trkpt lat="46.60706" lon="5.8992">
        <ele>922.7</ele>
        <time>2022-11-10T08:42:52Z</time>
      </trkpt>
      <trkpt lat="46.60702" lon="5.89922">
        <ele>922.2</ele>
        <time>2022-11-10T08:42:58Z</time>
      </trkpt>
      <trkpt lat="46.60698" lon="5.89925">
        <ele>921.8</ele>
        <time>2022-11-10T08:43:02Z</time>
      </trkpt>
      <trkpt lat="46.60693" lon="5.89926">
        <ele>922</ele>
        <time>2022-11-10T08:43:07Z</time>
      </trkpt>
      <trkpt lat="46.60687" lon="5.89926">
        <ele>924.9</ele>
        <time>2022-11-10T08:43:26Z</time>
      </trkpt>
      <trkpt lat="46.60681" lon="5.89929">
        <ele>925.4</ele>
        <time>2022-11-10T08:43:30Z</time>
      </trkpt>
      <trkpt lat="46.60676" lon="5.89931">
        <ele>925.5</ele>
        <time>2022-11-10T08:43:34Z</time>
      </trkpt>
      <trkpt lat="46.60672" lon="5.89932">
        <ele>925.5</ele>
        <time>2022-11-10T08:43:38Z</time>
      </trkpt>
      <trkpt lat="46.60667" lon="5.89929">
        <ele>925.7</ele>
        <time>2022-11-10T08:43:43Z</time>
      </trkpt>
      <trkpt lat="46.60664" lon="5.89923">
        <ele>926.4</ele>
        <time>2022-11-10T08:43:49Z</time>
      </trkpt>
      <trkpt lat="46.60662" lon="5.89916">
        <ele>927.1</ele>
        <time>2022-11-10T08:43:54Z</time>
      </trkpt>
      <trkpt lat="46.6066" lon="5.89909">
        <ele>927.2</ele>
        <time>2022-11-10T08:44:00Z</time>
      </trkpt>
      <trkpt lat="46.6066" lon="5.89901">
        <ele>926.4</ele>
        <time>2022-11-10T08:44:06Z</time>
      </trkpt>
      <trkpt lat="46.60662" lon="5.89895">
        <ele>925.6</ele>
        <time>2022-11-10T08:44:13Z</time>
      </trkpt>
      <trkpt lat="46.60664" lon="5.89889">
        <ele>924.6</ele>
        <time>2022-11-10T08:44:20Z</time>
      </trkpt>
      <trkpt lat="46.60665" lon="5.89878">
        <ele>922.6</ele>
        <time>2022-11-10T08:44:37Z</time>
      </trkpt>
      <trkpt lat="46.60665" lon="5.89871">
        <ele>922.1</ele>
        <time>2022-11-10T08:44:41Z</time>
      </trkpt>
      <trkpt lat="46.60669" lon="5.89866">
        <ele>921.6</ele>
        <time>2022-11-10T08:44:48Z</time>
      </trkpt>
      <trkpt lat="46.60673" lon="5.89863">
        <ele>921.5</ele>
        <time>2022-11-10T08:44:53Z</time>
      </trkpt>
      <trkpt lat="46.60676" lon="5.89858">
        <ele>921.4</ele>
        <time>2022-11-10T08:45:00Z</time>
      </trkpt>
      <trkpt lat="46.6068" lon="5.89854">
        <ele>921.3</ele>
        <time>2022-11-10T08:45:06Z</time>
      </trkpt>
      <trkpt lat="46.60684" lon="5.8985">
        <ele>921.5</ele>
        <time>2022-11-10T08:45:12Z</time>
      </trkpt>
      <trkpt lat="46.60687" lon="5.89846">
        <ele>921.7</ele>
        <time>2022-11-10T08:45:17Z</time>
      </trkpt>
      <trkpt lat="46.60692" lon="5.89843">
        <ele>922.2</ele>
        <time>2022-11-10T08:45:22Z</time>
      </trkpt>
      <trkpt lat="46.60696" lon="5.89839">
        <ele>922.9</ele>
        <time>2022-11-10T08:45:26Z</time>
      </trkpt>
      <trkpt lat="46.60699" lon="5.89832">
        <ele>923.7</ele>
        <time>2022-11-10T08:45:32Z</time>
      </trkpt>
      <trkpt lat="46.60702" lon="5.89827">
        <ele>924.7</ele>
        <time>2022-11-10T08:45:40Z</time>
      </trkpt>
      <trkpt lat="46.60704" lon="5.8982">
        <ele>925</ele>
        <time>2022-11-10T08:45:46Z</time>
      </trkpt>
      <trkpt lat="46.60705" lon="5.89814">
        <ele>925.1</ele>
        <time>2022-11-10T08:45:53Z</time>
      </trkpt>
      <trkpt lat="46.60708" lon="5.89808">
        <ele>926</ele>
        <time>2022-11-10T08:45:59Z</time>
      </trkpt>
      <trkpt lat="46.60709" lon="5.89801">
        <ele>928.1</ele>
        <time>2022-11-10T08:46:08Z</time>
      </trkpt>
      <trkpt lat="46.60712" lon="5.89796">
        <ele>930.1</ele>
        <time>2022-11-10T08:46:16Z</time>
      </trkpt>
      <trkpt lat="46.60711" lon="5.89789">
        <ele>931.6</ele>
        <time>2022-11-10T08:46:36Z</time>
      </trkpt>
      <trkpt lat="46.60714" lon="5.89782">
        <ele>932.1</ele>
        <time>2022-11-10T08:46:52Z</time>
      </trkpt>
      <trkpt lat="46.60713" lon="5.89775">
        <ele>932.1</ele>
        <time>2022-11-10T08:46:56Z</time>
      </trkpt>
      <trkpt lat="46.60715" lon="5.89769">
        <ele>931.7</ele>
        <time>2022-11-10T08:47:02Z</time>
      </trkpt>
      <trkpt lat="46.6072" lon="5.89769">
        <ele>930.9</ele>
        <time>2022-11-10T08:47:12Z</time>
      </trkpt>
      <trkpt lat="46.60725" lon="5.89768">
        <ele>930.4</ele>
        <time>2022-11-10T08:47:22Z</time>
      </trkpt>
      <trkpt lat="46.60719" lon="5.89768">
        <ele>928.6</ele>
        <time>2022-11-10T08:50:05Z</time>
      </trkpt>
      <trkpt lat="46.60714" lon="5.89766">
        <ele>929.3</ele>
        <time>2022-11-10T08:50:09Z</time>
      </trkpt>
      <trkpt lat="46.6071" lon="5.89764">
        <ele>929.5</ele>
        <time>2022-11-10T08:50:16Z</time>
      </trkpt>
      <trkpt lat="46.60705" lon="5.89762">
        <ele>928.8</ele>
        <time>2022-11-10T08:50:23Z</time>
      </trkpt>
      <trkpt lat="46.60701" lon="5.89762">
        <ele>927.7</ele>
        <time>2022-11-10T08:50:31Z</time>
      </trkpt>
      <trkpt lat="46.60696" lon="5.89763">
        <ele>926.9</ele>
        <time>2022-11-10T08:50:42Z</time>
      </trkpt>
      <trkpt lat="46.60691" lon="5.89762">
        <ele>926.4</ele>
        <time>2022-11-10T08:50:48Z</time>
      </trkpt>
      <trkpt lat="46.60689" lon="5.89755">
        <ele>925.5</ele>
        <time>2022-11-10T08:50:55Z</time>
      </trkpt>
      <trkpt lat="46.60685" lon="5.8975">
        <ele>924.4</ele>
        <time>2022-11-10T08:51:01Z</time>
      </trkpt>
      <trkpt lat="46.60682" lon="5.89745">
        <ele>922.4</ele>
        <time>2022-11-10T08:51:18Z</time>
      </trkpt>
      <trkpt lat="46.60678" lon="5.89739">
        <ele>924.1</ele>
        <time>2022-11-10T08:51:26Z</time>
      </trkpt>
      <trkpt lat="46.60674" lon="5.89742">
        <ele>926.7</ele>
        <time>2022-11-10T08:51:33Z</time>
      </trkpt>
      <trkpt lat="46.60671" lon="5.89747">
        <ele>927.5</ele>
        <time>2022-11-10T08:51:38Z</time>
      </trkpt>
      <trkpt lat="46.60668" lon="5.89753">
        <ele>929.2</ele>
        <time>2022-11-10T08:51:47Z</time>
      </trkpt>
      <trkpt lat="46.60668" lon="5.89746">
        <ele>932.8</ele>
        <time>2022-11-10T08:51:59Z</time>
      </trkpt>
      <trkpt lat="46.60671" lon="5.89741">
        <ele>934.3</ele>
        <time>2022-11-10T08:52:05Z</time>
      </trkpt>
      <trkpt lat="46.60674" lon="5.89736">
        <ele>935.2</ele>
        <time>2022-11-10T08:52:10Z</time>
      </trkpt>
      <trkpt lat="46.60678" lon="5.89731">
        <ele>935.9</ele>
        <time>2022-11-10T08:52:15Z</time>
      </trkpt>
      <trkpt lat="46.60681" lon="5.89727">
        <ele>936</ele>
        <time>2022-11-10T08:52:20Z</time>
      </trkpt>
      <trkpt lat="46.60678" lon="5.89722">
        <ele>936.2</ele>
        <time>2022-11-10T08:52:31Z</time>
      </trkpt>
      <trkpt lat="46.60673" lon="5.89724">
        <ele>936.9</ele>
        <time>2022-11-10T08:52:38Z</time>
      </trkpt>
      <trkpt lat="46.60666" lon="5.89724">
        <ele>937.6</ele>
        <time>2022-11-10T08:53:01Z</time>
      </trkpt>
      <trkpt lat="46.60664" lon="5.89718">
        <ele>939.5</ele>
        <time>2022-11-10T08:53:43Z</time>
      </trkpt>
      <trkpt lat="46.60666" lon="5.89712">
        <ele>940.6</ele>
        <time>2022-11-10T08:53:51Z</time>
      </trkpt>
      <trkpt lat="46.60666" lon="5.89704">
        <ele>942.3</ele>
        <time>2022-11-10T08:54:06Z</time>
      </trkpt>
      <trkpt lat="46.60662" lon="5.89699">
        <ele>945</ele>
        <time>2022-11-10T08:54:29Z</time>
      </trkpt>
      <trkpt lat="46.60659" lon="5.89694">
        <ele>946</ele>
        <time>2022-11-10T08:54:35Z</time>
      </trkpt>
      <trkpt lat="46.60655" lon="5.89691">
        <ele>947</ele>
        <time>2022-11-10T08:54:43Z</time>
      </trkpt>
      <trkpt lat="46.60652" lon="5.89695">
        <ele>950.9</ele>
        <time>2022-11-10T08:55:00Z</time>
      </trkpt>
      <trkpt lat="46.60647" lon="5.89696">
        <ele>950.7</ele>
        <time>2022-11-10T08:55:13Z</time>
      </trkpt>
      <trkpt lat="46.60642" lon="5.89698">
        <ele>950.5</ele>
        <time>2022-11-10T08:55:55Z</time>
      </trkpt>
      <trkpt lat="46.60645" lon="5.8969">
        <ele>953.1</ele>
        <time>2022-11-10T09:00:34Z</time>
      </trkpt>
      <trkpt lat="46.60647" lon="5.89683">
        <ele>953.7</ele>
        <time>2022-11-10T09:00:40Z</time>
      </trkpt>
      <trkpt lat="46.60649" lon="5.89678">
        <ele>953.2</ele>
        <time>2022-11-10T09:00:51Z</time>
      </trkpt>
      <trkpt lat="46.60652" lon="5.89672">
        <ele>952.4</ele>
        <time>2022-11-10T09:00:58Z</time>
      </trkpt>
      <trkpt lat="46.60651" lon="5.89665">
        <ele>952.1</ele>
        <time>2022-11-10T09:01:05Z</time>
      </trkpt>
      <trkpt lat="46.60654" lon="5.8966">
        <ele>952.4</ele>
        <time>2022-11-10T09:01:19Z</time>
      </trkpt>
      <trkpt lat="46.60658" lon="5.89658">
        <ele>952.7</ele>
        <time>2022-11-10T09:01:23Z</time>
      </trkpt>
      <trkpt lat="46.60663" lon="5.89656">
        <ele>953</ele>
        <time>2022-11-10T09:01:27Z</time>
      </trkpt>
      <trkpt lat="46.60667" lon="5.89653">
        <ele>953.5</ele>
        <time>2022-11-10T09:01:34Z</time>
      </trkpt>
      <trkpt lat="46.60662" lon="5.89652">
        <ele>954.4</ele>
        <time>2022-11-10T09:01:51Z</time>
      </trkpt>
      <trkpt lat="46.60657" lon="5.89654">
        <ele>954.4</ele>
        <time>2022-11-10T09:01:57Z</time>
      </trkpt>
      <trkpt lat="46.60653" lon="5.89654">
        <ele>954.3</ele>
        <time>2022-11-10T09:02:03Z</time>
      </trkpt>
      <trkpt lat="46.60648" lon="5.89652">
        <ele>954.7</ele>
        <time>2022-11-10T09:02:09Z</time>
      </trkpt>
      <trkpt lat="46.60643" lon="5.8965">
        <ele>953.6</ele>
        <time>2022-11-10T09:02:17Z</time>
      </trkpt>
      <trkpt lat="46.6064" lon="5.89645">
        <ele>950.8</ele>
        <time>2022-11-10T09:02:30Z</time>
      </trkpt>
      <trkpt lat="46.60642" lon="5.89638">
        <ele>949.4</ele>
        <time>2022-11-10T09:02:36Z</time>
      </trkpt>
      <trkpt lat="46.60641" lon="5.89632">
        <ele>947.5</ele>
        <time>2022-11-10T09:02:46Z</time>
      </trkpt>
      <trkpt lat="46.60636" lon="5.89633">
        <ele>946.3</ele>
        <time>2022-11-10T09:02:53Z</time>
      </trkpt>
      <trkpt lat="46.60631" lon="5.89634">
        <ele>945.7</ele>
        <time>2022-11-10T09:02:58Z</time>
      </trkpt>
      <trkpt lat="46.60626" lon="5.89635">
        <ele>945.2</ele>
        <time>2022-11-10T09:03:03Z</time>
      </trkpt>
      <trkpt lat="46.60621" lon="5.89636">
        <ele>944.7</ele>
        <time>2022-11-10T09:03:08Z</time>
      </trkpt>
      <trkpt lat="46.60616" lon="5.89638">
        <ele>944.6</ele>
        <time>2022-11-10T09:03:13Z</time>
      </trkpt>
      <trkpt lat="46.60612" lon="5.89635">
        <ele>944.5</ele>
        <time>2022-11-10T09:03:20Z</time>
      </trkpt>
      <trkpt lat="46.60607" lon="5.89633">
        <ele>944.5</ele>
        <time>2022-11-10T09:03:26Z</time>
      </trkpt>
      <trkpt lat="46.60602" lon="5.89631">
        <ele>944.3</ele>
        <time>2022-11-10T09:03:32Z</time>
      </trkpt>
      <trkpt lat="46.60598" lon="5.89625">
        <ele>946.5</ele>
        <time>2022-11-10T09:04:23Z</time>
      </trkpt>
      <trkpt lat="46.60595" lon="5.8962">
        <ele>947.4</ele>
        <time>2022-11-10T09:04:29Z</time>
      </trkpt>
      <trkpt lat="46.60595" lon="5.89613">
        <ele>948.1</ele>
        <time>2022-11-10T09:04:37Z</time>
      </trkpt>
      <trkpt lat="46.60591" lon="5.89607">
        <ele>949.5</ele>
        <time>2022-11-10T09:04:55Z</time>
      </trkpt>
      <trkpt lat="46.60588" lon="5.89601">
        <ele>950.2</ele>
        <time>2022-11-10T09:05:06Z</time>
      </trkpt>
      <trkpt lat="46.60584" lon="5.89597">
        <ele>950.2</ele>
        <time>2022-11-10T09:05:13Z</time>
      </trkpt>
      <trkpt lat="46.60579" lon="5.89598">
        <ele>949.1</ele>
        <time>2022-11-10T09:05:21Z</time>
      </trkpt>
      <trkpt lat="46.60575" lon="5.89597">
        <ele>948.6</ele>
        <time>2022-11-10T09:05:27Z</time>
      </trkpt>
      <trkpt lat="46.6057" lon="5.89597">
        <ele>948.8</ele>
        <time>2022-11-10T09:05:33Z</time>
      </trkpt>
      <trkpt lat="46.60567" lon="5.89602">
        <ele>949.3</ele>
        <time>2022-11-10T09:05:50Z</time>
      </trkpt>
      <trkpt lat="46.60566" lon="5.89595">
        <ele>949.9</ele>
        <time>2022-11-10T09:06:36Z</time>
      </trkpt>
      <trkpt lat="46.60563" lon="5.89589">
        <ele>949.9</ele>
        <time>2022-11-10T09:06:41Z</time>
      </trkpt>
      <trkpt lat="46.60562" lon="5.89582">
        <ele>949.6</ele>
        <time>2022-11-10T09:06:46Z</time>
      </trkpt>
      <trkpt lat="46.6056" lon="5.89575">
        <ele>949</ele>
        <time>2022-11-10T09:06:51Z</time>
      </trkpt>
      <trkpt lat="46.60558" lon="5.89568">
        <ele>948.2</ele>
        <time>2022-11-10T09:06:56Z</time>
      </trkpt>
      <trkpt lat="46.60554" lon="5.89562">
        <ele>947.6</ele>
        <time>2022-11-10T09:07:01Z</time>
      </trkpt>
      <trkpt lat="46.60551" lon="5.89556">
        <ele>947.2</ele>
        <time>2022-11-10T09:07:05Z</time>
      </trkpt>
      <trkpt lat="46.60548" lon="5.8955">
        <ele>947.3</ele>
        <time>2022-11-10T09:07:10Z</time>
      </trkpt>
      <trkpt lat="46.60545" lon="5.89544">
        <ele>947.7</ele>
        <time>2022-11-10T09:07:15Z</time>
      </trkpt>
      <trkpt lat="46.60541" lon="5.89541">
        <ele>947.9</ele>
        <time>2022-11-10T09:07:20Z</time>
      </trkpt>
      <trkpt lat="46.60537" lon="5.89536">
        <ele>947.6</ele>
        <time>2022-11-10T09:07:26Z</time>
      </trkpt>
      <trkpt lat="46.60533" lon="5.89531">
        <ele>947.3</ele>
        <time>2022-11-10T09:07:32Z</time>
      </trkpt>
      <trkpt lat="46.6053" lon="5.89526">
        <ele>947.2</ele>
        <time>2022-11-10T09:07:36Z</time>
      </trkpt>
      <trkpt lat="46.60525" lon="5.89522">
        <ele>947.4</ele>
        <time>2022-11-10T09:07:40Z</time>
      </trkpt>
      <trkpt lat="46.6052" lon="5.8952">
        <ele>947.9</ele>
        <time>2022-11-10T09:07:44Z</time>
      </trkpt>
      <trkpt lat="46.60516" lon="5.89518">
        <ele>949.2</ele>
        <time>2022-11-10T09:07:49Z</time>
      </trkpt>
      <trkpt lat="46.60511" lon="5.89517">
        <ele>950.3</ele>
        <time>2022-11-10T09:07:54Z</time>
      </trkpt>
      <trkpt lat="46.60507" lon="5.89517">
        <ele>951.3</ele>
        <time>2022-11-10T09:07:59Z</time>
      </trkpt>
      <trkpt lat="46.60506" lon="5.8951">
        <ele>952.5</ele>
        <time>2022-11-10T09:08:06Z</time>
      </trkpt>
      <trkpt lat="46.60506" lon="5.89503">
        <ele>953.8</ele>
        <time>2022-11-10T09:08:11Z</time>
      </trkpt>
      <trkpt lat="46.60505" lon="5.89496">
        <ele>955.7</ele>
        <time>2022-11-10T09:08:17Z</time>
      </trkpt>
      <trkpt lat="46.60504" lon="5.89489">
        <ele>957</ele>
        <time>2022-11-10T09:08:23Z</time>
      </trkpt>
      <trkpt lat="46.60504" lon="5.8948">
        <ele>958.2</ele>
        <time>2022-11-10T09:09:34Z</time>
      </trkpt>
      <trkpt lat="46.60502" lon="5.89473">
        <ele>959.1</ele>
        <time>2022-11-10T09:09:39Z</time>
      </trkpt>
      <trkpt lat="46.60498" lon="5.89471">
        <ele>960.7</ele>
        <time>2022-11-10T09:09:46Z</time>
      </trkpt>
      <trkpt lat="46.60494" lon="5.89468">
        <ele>961.4</ele>
        <time>2022-11-10T09:09:52Z</time>
      </trkpt>
      <trkpt lat="46.6049" lon="5.89464">
        <ele>960.9</ele>
        <time>2022-11-10T09:09:57Z</time>
      </trkpt>
      <trkpt lat="46.60485" lon="5.89459">
        <ele>960.1</ele>
        <time>2022-11-10T09:10:03Z</time>
      </trkpt>
      <trkpt lat="46.60482" lon="5.89455">
        <ele>959.5</ele>
        <time>2022-11-10T09:10:10Z</time>
      </trkpt>
      <trkpt lat="46.60478" lon="5.8945">
        <ele>958.6</ele>
        <time>2022-11-10T09:10:17Z</time>
      </trkpt>
      <trkpt lat="46.60475" lon="5.89444">
        <ele>957.8</ele>
        <time>2022-11-10T09:10:24Z</time>
      </trkpt>
      <trkpt lat="46.60473" lon="5.89438">
        <ele>957.7</ele>
        <time>2022-11-10T09:10:29Z</time>
      </trkpt>
      <trkpt lat="46.6047" lon="5.89432">
        <ele>956.8</ele>
        <time>2022-11-10T09:10:38Z</time>
      </trkpt>
      <trkpt lat="46.60468" lon="5.89426">
        <ele>955.2</ele>
        <time>2022-11-10T09:10:47Z</time>
      </trkpt>
      <trkpt lat="46.60463" lon="5.89424">
        <ele>953.4</ele>
        <time>2022-11-10T09:10:55Z</time>
      </trkpt>
      <trkpt lat="46.60458" lon="5.89422">
        <ele>951.8</ele>
        <time>2022-11-10T09:11:01Z</time>
      </trkpt>
      <trkpt lat="46.60453" lon="5.8942">
        <ele>951.1</ele>
        <time>2022-11-10T09:11:07Z</time>
      </trkpt>
      <trkpt lat="46.6045" lon="5.89415">
        <ele>950.1</ele>
        <time>2022-11-10T09:11:15Z</time>
      </trkpt>
      <trkpt lat="46.60448" lon="5.89408">
        <ele>947.9</ele>
        <time>2022-11-10T09:11:22Z</time>
      </trkpt>
      <trkpt lat="46.60447" lon="5.89401">
        <ele>944.7</ele>
        <time>2022-11-10T09:11:29Z</time>
      </trkpt>
      <trkpt lat="46.60442" lon="5.89399">
        <ele>941.9</ele>
        <time>2022-11-10T09:11:37Z</time>
      </trkpt>
      <trkpt lat="46.60438" lon="5.89397">
        <ele>940.6</ele>
        <time>2022-11-10T09:11:45Z</time>
      </trkpt>
      <trkpt lat="46.60438" lon="5.8939">
        <ele>939.7</ele>
        <time>2022-11-10T09:11:52Z</time>
      </trkpt>
      <trkpt lat="46.60438" lon="5.89379">
        <ele>938.7</ele>
        <time>2022-11-10T09:12:11Z</time>
      </trkpt>
      <trkpt lat="46.60436" lon="5.89372">
        <ele>938.8</ele>
        <time>2022-11-10T09:12:15Z</time>
      </trkpt>
      <trkpt lat="46.60436" lon="5.89365">
        <ele>939</ele>
        <time>2022-11-10T09:12:24Z</time>
      </trkpt>
      <trkpt lat="46.60432" lon="5.89362">
        <ele>939.3</ele>
        <time>2022-11-10T09:12:37Z</time>
      </trkpt>
      <trkpt lat="46.60426" lon="5.89362">
        <ele>939.7</ele>
        <time>2022-11-10T09:12:42Z</time>
      </trkpt>
      <trkpt lat="46.60422" lon="5.89363">
        <ele>939.9</ele>
        <time>2022-11-10T09:12:46Z</time>
      </trkpt>
      <trkpt lat="46.60417" lon="5.89363">
        <ele>940.2</ele>
        <time>2022-11-10T09:12:51Z</time>
      </trkpt>
      <trkpt lat="46.60412" lon="5.89363">
        <ele>939.9</ele>
        <time>2022-11-10T09:12:58Z</time>
      </trkpt>
      <trkpt lat="46.60408" lon="5.89367">
        <ele>939.4</ele>
        <time>2022-11-10T09:13:09Z</time>
      </trkpt>
      <trkpt lat="46.60404" lon="5.8937">
        <ele>939.8</ele>
        <time>2022-11-10T09:13:15Z</time>
      </trkpt>
      <trkpt lat="46.604" lon="5.89365">
        <ele>939.4</ele>
        <time>2022-11-10T09:13:24Z</time>
      </trkpt>
      <trkpt lat="46.60393" lon="5.89359">
        <ele>937.6</ele>
        <time>2022-11-10T09:13:41Z</time>
      </trkpt>
      <trkpt lat="46.60388" lon="5.89357">
        <ele>937.5</ele>
        <time>2022-11-10T09:13:44Z</time>
      </trkpt>
      <trkpt lat="46.60383" lon="5.89355">
        <ele>937.5</ele>
        <time>2022-11-10T09:13:49Z</time>
      </trkpt>
      <trkpt lat="46.60379" lon="5.89358">
        <ele>936.9</ele>
        <time>2022-11-10T09:13:58Z</time>
      </trkpt>
      <trkpt lat="46.60374" lon="5.89361">
        <ele>936.7</ele>
        <time>2022-11-10T09:14:04Z</time>
      </trkpt>
      <trkpt lat="46.60369" lon="5.89362">
        <ele>937.1</ele>
        <time>2022-11-10T09:14:10Z</time>
      </trkpt>
      <trkpt lat="46.60365" lon="5.89366">
        <ele>936.7</ele>
        <time>2022-11-10T09:14:18Z</time>
      </trkpt>
      <trkpt lat="46.60362" lon="5.89372">
        <ele>935.3</ele>
        <time>2022-11-10T09:14:28Z</time>
      </trkpt>
      <trkpt lat="46.60358" lon="5.89376">
        <ele>934</ele>
        <time>2022-11-10T09:14:35Z</time>
      </trkpt>
      <trkpt lat="46.60355" lon="5.89382">
        <ele>932.7</ele>
        <time>2022-11-10T09:14:42Z</time>
      </trkpt>
      <trkpt lat="46.60353" lon="5.89388">
        <ele>932.3</ele>
        <time>2022-11-10T09:14:47Z</time>
      </trkpt>
      <trkpt lat="46.6035" lon="5.89394">
        <ele>932.2</ele>
        <time>2022-11-10T09:14:52Z</time>
      </trkpt>
      <trkpt lat="46.60347" lon="5.894">
        <ele>932.8</ele>
        <time>2022-11-10T09:15:00Z</time>
      </trkpt>
      <trkpt lat="46.60342" lon="5.89401">
        <ele>933</ele>
        <time>2022-11-10T09:15:05Z</time>
      </trkpt>
      <trkpt lat="46.60337" lon="5.89405">
        <ele>933</ele>
        <time>2022-11-10T09:15:11Z</time>
      </trkpt>
      <trkpt lat="46.60334" lon="5.8941">
        <ele>933.2</ele>
        <time>2022-11-10T09:15:18Z</time>
      </trkpt>
      <trkpt lat="46.60333" lon="5.89417">
        <ele>932.7</ele>
        <time>2022-11-10T09:15:26Z</time>
      </trkpt>
      <trkpt lat="46.60332" lon="5.89428">
        <ele>931.6</ele>
        <time>2022-11-10T09:15:44Z</time>
      </trkpt>
      <trkpt lat="46.60332" lon="5.89435">
        <ele>930.8</ele>
        <time>2022-11-10T09:15:47Z</time>
      </trkpt>
      <trkpt lat="46.60334" lon="5.89442">
        <ele>929.2</ele>
        <time>2022-11-10T09:15:52Z</time>
      </trkpt>
      <trkpt lat="46.60337" lon="5.89448">
        <ele>928.1</ele>
        <time>2022-11-10T09:15:57Z</time>
      </trkpt>
      <trkpt lat="46.60338" lon="5.89454">
        <ele>927.1</ele>
        <time>2022-11-10T09:16:05Z</time>
      </trkpt>
      <trkpt lat="46.60336" lon="5.89461">
        <ele>926.3</ele>
        <time>2022-11-10T09:16:12Z</time>
      </trkpt>
      <trkpt lat="46.60333" lon="5.89467">
        <ele>926</ele>
        <time>2022-11-10T09:16:18Z</time>
      </trkpt>
      <trkpt lat="46.60331" lon="5.89474">
        <ele>925.6</ele>
        <time>2022-11-10T09:16:24Z</time>
      </trkpt>
      <trkpt lat="46.6033" lon="5.89481">
        <ele>925.3</ele>
        <time>2022-11-10T09:16:30Z</time>
      </trkpt>
      <trkpt lat="46.60328" lon="5.89488">
        <ele>925.4</ele>
        <time>2022-11-10T09:16:35Z</time>
      </trkpt>
      <trkpt lat="46.60327" lon="5.89494">
        <ele>925.2</ele>
        <time>2022-11-10T09:16:41Z</time>
      </trkpt>
      <trkpt lat="46.60323" lon="5.895">
        <ele>925.1</ele>
        <time>2022-11-10T09:16:48Z</time>
      </trkpt>
      <trkpt lat="46.6032" lon="5.89506">
        <ele>924.8</ele>
        <time>2022-11-10T09:16:53Z</time>
      </trkpt>
      <trkpt lat="46.60316" lon="5.8951">
        <ele>924.6</ele>
        <time>2022-11-10T09:16:58Z</time>
      </trkpt>
      <trkpt lat="46.60311" lon="5.89513">
        <ele>924.5</ele>
        <time>2022-11-10T09:17:03Z</time>
      </trkpt>
      <trkpt lat="46.60307" lon="5.89516">
        <ele>924.3</ele>
        <time>2022-11-10T09:17:08Z</time>
      </trkpt>
      <trkpt lat="46.60303" lon="5.89519">
        <ele>924.4</ele>
        <time>2022-11-10T09:17:13Z</time>
      </trkpt>
      <trkpt lat="46.60299" lon="5.89524">
        <ele>924.4</ele>
        <time>2022-11-10T09:17:18Z</time>
      </trkpt>
      <trkpt lat="46.60295" lon="5.89528">
        <ele>924.1</ele>
        <time>2022-11-10T09:17:26Z</time>
      </trkpt>
      <trkpt lat="46.60291" lon="5.89527">
        <ele>924.3</ele>
        <time>2022-11-10T09:17:35Z</time>
      </trkpt>
      <trkpt lat="46.60286" lon="5.8953">
        <ele>924.2</ele>
        <time>2022-11-10T09:18:04Z</time>
      </trkpt>
      <trkpt lat="46.60282" lon="5.89531">
        <ele>924.1</ele>
        <time>2022-11-10T09:18:09Z</time>
      </trkpt>
      <trkpt lat="46.60277" lon="5.8953">
        <ele>924.4</ele>
        <time>2022-11-10T09:18:14Z</time>
      </trkpt>
      <trkpt lat="46.60272" lon="5.8953">
        <ele>925.1</ele>
        <time>2022-11-10T09:18:20Z</time>
      </trkpt>
      <trkpt lat="46.60267" lon="5.89531">
        <ele>925.3</ele>
        <time>2022-11-10T09:18:27Z</time>
      </trkpt>
      <trkpt lat="46.60262" lon="5.89531">
        <ele>925.8</ele>
        <time>2022-11-10T09:18:34Z</time>
      </trkpt>
      <trkpt lat="46.60257" lon="5.89532">
        <ele>926.9</ele>
        <time>2022-11-10T09:18:40Z</time>
      </trkpt>
      <trkpt lat="46.60252" lon="5.89534">
        <ele>928.1</ele>
        <time>2022-11-10T09:18:48Z</time>
      </trkpt>
      <trkpt lat="46.60248" lon="5.89534">
        <ele>928</ele>
        <time>2022-11-10T09:18:57Z</time>
      </trkpt>
      <trkpt lat="46.60243" lon="5.89536">
        <ele>928.1</ele>
        <time>2022-11-10T09:19:04Z</time>
      </trkpt>
      <trkpt lat="46.60238" lon="5.89538">
        <ele>928.8</ele>
        <time>2022-11-10T09:19:10Z</time>
      </trkpt>
      <trkpt lat="46.60233" lon="5.89537">
        <ele>929.2</ele>
        <time>2022-11-10T09:19:17Z</time>
      </trkpt>
      <trkpt lat="46.60228" lon="5.89536">
        <ele>929.8</ele>
        <time>2022-11-10T09:19:23Z</time>
      </trkpt>
      <trkpt lat="46.60224" lon="5.89536">
        <ele>930.2</ele>
        <time>2022-11-10T09:19:28Z</time>
      </trkpt>
      <trkpt lat="46.60219" lon="5.89538">
        <ele>930.8</ele>
        <time>2022-11-10T09:19:33Z</time>
      </trkpt>
      <trkpt lat="46.60214" lon="5.89541">
        <ele>931.1</ele>
        <time>2022-11-10T09:19:39Z</time>
      </trkpt>
      <trkpt lat="46.6021" lon="5.89543">
        <ele>931.4</ele>
        <time>2022-11-10T09:19:44Z</time>
      </trkpt>
      <trkpt lat="46.60204" lon="5.89543">
        <ele>931.4</ele>
        <time>2022-11-10T09:19:51Z</time>
      </trkpt>
      <trkpt lat="46.602" lon="5.89546">
        <ele>931.5</ele>
        <time>2022-11-10T09:19:57Z</time>
      </trkpt>
      <trkpt lat="46.60195" lon="5.89545">
        <ele>932</ele>
        <time>2022-11-10T09:20:03Z</time>
      </trkpt>
      <trkpt lat="46.6019" lon="5.89545">
        <ele>932.7</ele>
        <time>2022-11-10T09:20:08Z</time>
      </trkpt>
      <trkpt lat="46.60186" lon="5.89544">
        <ele>933.6</ele>
        <time>2022-11-10T09:20:14Z</time>
      </trkpt>
      <trkpt lat="46.60181" lon="5.89546">
        <ele>933.5</ele>
        <time>2022-11-10T09:20:22Z</time>
      </trkpt>
      <trkpt lat="46.60177" lon="5.89549">
        <ele>933.5</ele>
        <time>2022-11-10T09:20:27Z</time>
      </trkpt>
      <trkpt lat="46.60172" lon="5.89551">
        <ele>933.3</ele>
        <time>2022-11-10T09:20:32Z</time>
      </trkpt>
      <trkpt lat="46.60167" lon="5.89551">
        <ele>933.6</ele>
        <time>2022-11-10T09:20:38Z</time>
      </trkpt>
      <trkpt lat="46.60162" lon="5.89553">
        <ele>934</ele>
        <time>2022-11-10T09:20:44Z</time>
      </trkpt>
      <trkpt lat="46.60157" lon="5.89555">
        <ele>933.6</ele>
        <time>2022-11-10T09:20:49Z</time>
      </trkpt>
      <trkpt lat="46.60152" lon="5.89555">
        <ele>933.3</ele>
        <time>2022-11-10T09:20:54Z</time>
      </trkpt>
      <trkpt lat="46.60147" lon="5.89553">
        <ele>933.5</ele>
        <time>2022-11-10T09:20:59Z</time>
      </trkpt>
      <trkpt lat="46.60143" lon="5.89552">
        <ele>933.9</ele>
        <time>2022-11-10T09:21:03Z</time>
      </trkpt>
      <trkpt lat="46.60139" lon="5.89549">
        <ele>934.9</ele>
        <time>2022-11-10T09:21:08Z</time>
      </trkpt>
      <trkpt lat="46.60135" lon="5.89545">
        <ele>936.1</ele>
        <time>2022-11-10T09:21:13Z</time>
      </trkpt>
      <trkpt lat="46.6013" lon="5.89543">
        <ele>936.4</ele>
        <time>2022-11-10T09:21:19Z</time>
      </trkpt>
      <trkpt lat="46.60126" lon="5.89539">
        <ele>935.7</ele>
        <time>2022-11-10T09:21:26Z</time>
      </trkpt>
      <trkpt lat="46.60121" lon="5.89535">
        <ele>935.8</ele>
        <time>2022-11-10T09:21:33Z</time>
      </trkpt>
      <trkpt lat="46.60118" lon="5.8953">
        <ele>936.6</ele>
        <time>2022-11-10T09:21:39Z</time>
      </trkpt>
      <trkpt lat="46.60114" lon="5.89525">
        <ele>937.4</ele>
        <time>2022-11-10T09:21:44Z</time>
      </trkpt>
      <trkpt lat="46.60111" lon="5.89519">
        <ele>938.4</ele>
        <time>2022-11-10T09:21:50Z</time>
      </trkpt>
      <trkpt lat="46.6011" lon="5.89512">
        <ele>938.6</ele>
        <time>2022-11-10T09:21:56Z</time>
      </trkpt>
      <trkpt lat="46.60109" lon="5.89504">
        <ele>938.8</ele>
        <time>2022-11-10T09:22:02Z</time>
      </trkpt>
      <trkpt lat="46.60108" lon="5.89498">
        <ele>938.8</ele>
        <time>2022-11-10T09:22:14Z</time>
      </trkpt>
      <trkpt lat="46.60102" lon="5.89502">
        <ele>938.3</ele>
        <time>2022-11-10T09:23:05Z</time>
      </trkpt>
      <trkpt lat="46.60098" lon="5.89504">
        <ele>938.3</ele>
        <time>2022-11-10T09:23:09Z</time>
      </trkpt>
      <trkpt lat="46.60093" lon="5.89508">
        <ele>938.1</ele>
        <time>2022-11-10T09:23:16Z</time>
      </trkpt>
      <trkpt lat="46.6009" lon="5.89514">
        <ele>937.8</ele>
        <time>2022-11-10T09:23:22Z</time>
      </trkpt>
      <trkpt lat="46.60094" lon="5.8951">
        <ele>936.2</ele>
        <time>2022-11-10T09:23:34Z</time>
      </trkpt>
      <trkpt lat="46.60097" lon="5.89504">
        <ele>935.8</ele>
        <time>2022-11-10T09:23:38Z</time>
      </trkpt>
      <trkpt lat="46.601" lon="5.89499">
        <ele>935.5</ele>
        <time>2022-11-10T09:23:47Z</time>
      </trkpt>
      <trkpt lat="46.60104" lon="5.89494">
        <ele>935.3</ele>
        <time>2022-11-10T09:23:55Z</time>
      </trkpt>
      <trkpt lat="46.60106" lon="5.89488">
        <ele>935.6</ele>
        <time>2022-11-10T09:25:04Z</time>
      </trkpt>
      <trkpt lat="46.6011" lon="5.89484">
        <ele>936.9</ele>
        <time>2022-11-10T09:25:12Z</time>
      </trkpt>
      <trkpt lat="46.60107" lon="5.89491">
        <ele>939.7</ele>
        <time>2022-11-10T09:25:58Z</time>
      </trkpt>
      <trkpt lat="46.60102" lon="5.89492">
        <ele>941.6</ele>
        <time>2022-11-10T09:29:01Z</time>
      </trkpt>
      <trkpt lat="46.60097" lon="5.89494">
        <ele>941.2</ele>
        <time>2022-11-10T09:29:05Z</time>
      </trkpt>
      <trkpt lat="46.60092" lon="5.89494">
        <ele>939.7</ele>
        <time>2022-11-10T09:29:11Z</time>
      </trkpt>
      <trkpt lat="46.60087" lon="5.89492">
        <ele>938.9</ele>
        <time>2022-11-10T09:29:16Z</time>
      </trkpt>
      <trkpt lat="46.60083" lon="5.89489">
        <ele>937.9</ele>
        <time>2022-11-10T09:29:22Z</time>
      </trkpt>
      <trkpt lat="46.60079" lon="5.89485">
        <ele>937.2</ele>
        <time>2022-11-10T09:29:27Z</time>
      </trkpt>
      <trkpt lat="46.60075" lon="5.89482">
        <ele>937.1</ele>
        <time>2022-11-10T09:29:32Z</time>
      </trkpt>
      <trkpt lat="46.6007" lon="5.8948">
        <ele>936.8</ele>
        <time>2022-11-10T09:29:38Z</time>
      </trkpt>
      <trkpt lat="46.60065" lon="5.89478">
        <ele>937</ele>
        <time>2022-11-10T09:29:44Z</time>
      </trkpt>
      <trkpt lat="46.6006" lon="5.89476">
        <ele>936.9</ele>
        <time>2022-11-10T09:29:50Z</time>
      </trkpt>
      <trkpt lat="46.60055" lon="5.89473">
        <ele>936.8</ele>
        <time>2022-11-10T09:29:55Z</time>
      </trkpt>
      <trkpt lat="46.6005" lon="5.8947">
        <ele>936.3</ele>
        <time>2022-11-10T09:30:00Z</time>
      </trkpt>
      <trkpt lat="46.60045" lon="5.89467">
        <ele>935.8</ele>
        <time>2022-11-10T09:30:05Z</time>
      </trkpt>
      <trkpt lat="46.6004" lon="5.89464">
        <ele>935.4</ele>
        <time>2022-11-10T09:30:10Z</time>
      </trkpt>
      <trkpt lat="46.60035" lon="5.89463">
        <ele>934.8</ele>
        <time>2022-11-10T09:30:15Z</time>
      </trkpt>
      <trkpt lat="46.60031" lon="5.89461">
        <ele>934.1</ele>
        <time>2022-11-10T09:30:19Z</time>
      </trkpt>
      <trkpt lat="46.60026" lon="5.89458">
        <ele>932.9</ele>
        <time>2022-11-10T09:30:24Z</time>
      </trkpt>
      <trkpt lat="46.60022" lon="5.89454">
        <ele>932.5</ele>
        <time>2022-11-10T09:30:30Z</time>
      </trkpt>
      <trkpt lat="46.60019" lon="5.89448">
        <ele>932.4</ele>
        <time>2022-11-10T09:30:41Z</time>
      </trkpt>
      <trkpt lat="46.60015" lon="5.89445">
        <ele>932.4</ele>
        <time>2022-11-10T09:30:47Z</time>
      </trkpt>
      <trkpt lat="46.6001" lon="5.89444">
        <ele>931.9</ele>
        <time>2022-11-10T09:30:53Z</time>
      </trkpt>
      <trkpt lat="46.60005" lon="5.89446">
        <ele>931.4</ele>
        <time>2022-11-10T09:30:59Z</time>
      </trkpt>
      <trkpt lat="46.59999" lon="5.89447">
        <ele>931.2</ele>
        <time>2022-11-10T09:31:03Z</time>
      </trkpt>
      <trkpt lat="46.59994" lon="5.89446">
        <ele>930.9</ele>
        <time>2022-11-10T09:31:07Z</time>
      </trkpt>
      <trkpt lat="46.5999" lon="5.89444">
        <ele>930.6</ele>
        <time>2022-11-10T09:31:12Z</time>
      </trkpt>
      <trkpt lat="46.59985" lon="5.89441">
        <ele>930.4</ele>
        <time>2022-11-10T09:31:16Z</time>
      </trkpt>
      <trkpt lat="46.5998" lon="5.89437">
        <ele>930.4</ele>
        <time>2022-11-10T09:31:21Z</time>
      </trkpt>
      <trkpt lat="46.59977" lon="5.89433">
        <ele>931.2</ele>
        <time>2022-11-10T09:31:29Z</time>
      </trkpt>
      <trkpt lat="46.59972" lon="5.89431">
        <ele>931.8</ele>
        <time>2022-11-10T09:31:36Z</time>
      </trkpt>
      <trkpt lat="46.59968" lon="5.89428">
        <ele>932.5</ele>
        <time>2022-11-10T09:31:44Z</time>
      </trkpt>
      <trkpt lat="46.59965" lon="5.89422">
        <ele>932.9</ele>
        <time>2022-11-10T09:31:51Z</time>
      </trkpt>
      <trkpt lat="46.59961" lon="5.89417">
        <ele>931.9</ele>
        <time>2022-11-10T09:31:59Z</time>
      </trkpt>
      <trkpt lat="46.59956" lon="5.89415">
        <ele>931.3</ele>
        <time>2022-11-10T09:32:05Z</time>
      </trkpt>
      <trkpt lat="46.59951" lon="5.89416">
        <ele>931</ele>
        <time>2022-11-10T09:32:10Z</time>
      </trkpt>
      <trkpt lat="46.59946" lon="5.89414">
        <ele>930.8</ele>
        <time>2022-11-10T09:32:15Z</time>
      </trkpt>
      <trkpt lat="46.59941" lon="5.89414">
        <ele>930.4</ele>
        <time>2022-11-10T09:32:19Z</time>
      </trkpt>
      <trkpt lat="46.59936" lon="5.89412">
        <ele>930.1</ele>
        <time>2022-11-10T09:32:24Z</time>
      </trkpt>
      <trkpt lat="46.59931" lon="5.8941">
        <ele>929.8</ele>
        <time>2022-11-10T09:32:29Z</time>
      </trkpt>
      <trkpt lat="46.59927" lon="5.89409">
        <ele>929.4</ele>
        <time>2022-11-10T09:32:33Z</time>
      </trkpt>
      <trkpt lat="46.59922" lon="5.89408">
        <ele>929</ele>
        <time>2022-11-10T09:32:38Z</time>
      </trkpt>
      <trkpt lat="46.59917" lon="5.89406">
        <ele>928.3</ele>
        <time>2022-11-10T09:32:44Z</time>
      </trkpt>
      <trkpt lat="46.59912" lon="5.89404">
        <ele>927.3</ele>
        <time>2022-11-10T09:32:50Z</time>
      </trkpt>
      <trkpt lat="46.59907" lon="5.89401">
        <ele>926.4</ele>
        <time>2022-11-10T09:32:56Z</time>
      </trkpt>
      <trkpt lat="46.59903" lon="5.89397">
        <ele>925.7</ele>
        <time>2022-11-10T09:33:01Z</time>
      </trkpt>
      <trkpt lat="46.59898" lon="5.89393">
        <ele>925.5</ele>
        <time>2022-11-10T09:33:06Z</time>
      </trkpt>
      <trkpt lat="46.59894" lon="5.89389">
        <ele>925.7</ele>
        <time>2022-11-10T09:33:10Z</time>
      </trkpt>
      <trkpt lat="46.59891" lon="5.89384">
        <ele>926.6</ele>
        <time>2022-11-10T09:33:16Z</time>
      </trkpt>
      <trkpt lat="46.59887" lon="5.8938">
        <ele>927.6</ele>
        <time>2022-11-10T09:33:22Z</time>
      </trkpt>
      <trkpt lat="46.59883" lon="5.89376">
        <ele>928.6</ele>
        <time>2022-11-10T09:33:29Z</time>
      </trkpt>
      <trkpt lat="46.59879" lon="5.89372">
        <ele>928.5</ele>
        <time>2022-11-10T09:33:39Z</time>
      </trkpt>
      <trkpt lat="46.59875" lon="5.89369">
        <ele>927.9</ele>
        <time>2022-11-10T09:33:45Z</time>
      </trkpt>
      <trkpt lat="46.5987" lon="5.89367">
        <ele>927.4</ele>
        <time>2022-11-10T09:33:52Z</time>
      </trkpt>
      <trkpt lat="46.59866" lon="5.89372">
        <ele>931.2</ele>
        <time>2022-11-10T09:34:26Z</time>
      </trkpt>
      <trkpt lat="46.59862" lon="5.89372">
        <ele>931.4</ele>
        <time>2022-11-10T09:34:31Z</time>
      </trkpt>
      <trkpt lat="46.59856" lon="5.89371">
        <ele>931.1</ele>
        <time>2022-11-10T09:34:35Z</time>
      </trkpt>
      <trkpt lat="46.59851" lon="5.8937">
        <ele>930.7</ele>
        <time>2022-11-10T09:34:38Z</time>
      </trkpt>
      <trkpt lat="46.59845" lon="5.89368">
        <ele>929.7</ele>
        <time>2022-11-10T09:34:42Z</time>
      </trkpt>
      <trkpt lat="46.59839" lon="5.89368">
        <ele>928.7</ele>
        <time>2022-11-10T09:34:46Z</time>
      </trkpt>
      <trkpt lat="46.59834" lon="5.89365">
        <ele>927.3</ele>
        <time>2022-11-10T09:34:52Z</time>
      </trkpt>
      <trkpt lat="46.59829" lon="5.89363">
        <ele>926.2</ele>
        <time>2022-11-10T09:34:56Z</time>
      </trkpt>
      <trkpt lat="46.59824" lon="5.8936">
        <ele>925.4</ele>
        <time>2022-11-10T09:35:00Z</time>
      </trkpt>
      <trkpt lat="46.59819" lon="5.89359">
        <ele>924.4</ele>
        <time>2022-11-10T09:35:05Z</time>
      </trkpt>
      <trkpt lat="46.59814" lon="5.8936">
        <ele>923.5</ele>
        <time>2022-11-10T09:35:09Z</time>
      </trkpt>
      <trkpt lat="46.59809" lon="5.8936">
        <ele>922.6</ele>
        <time>2022-11-10T09:35:13Z</time>
      </trkpt>
      <trkpt lat="46.59804" lon="5.89359">
        <ele>921.6</ele>
        <time>2022-11-10T09:35:17Z</time>
      </trkpt>
      <trkpt lat="46.59799" lon="5.89358">
        <ele>920.2</ele>
        <time>2022-11-10T09:35:22Z</time>
      </trkpt>
      <trkpt lat="46.59793" lon="5.89357">
        <ele>919.7</ele>
        <time>2022-11-10T09:35:26Z</time>
      </trkpt>
      <trkpt lat="46.59788" lon="5.89356">
        <ele>919.9</ele>
        <time>2022-11-10T09:35:30Z</time>
      </trkpt>
      <trkpt lat="46.59783" lon="5.89357">
        <ele>920.3</ele>
        <time>2022-11-10T09:35:34Z</time>
      </trkpt>
      <trkpt lat="46.59778" lon="5.89359">
        <ele>920.4</ele>
        <time>2022-11-10T09:35:38Z</time>
      </trkpt>
      <trkpt lat="46.59773" lon="5.89361">
        <ele>920.4</ele>
        <time>2022-11-10T09:35:42Z</time>
      </trkpt>
      <trkpt lat="46.59769" lon="5.89362">
        <ele>920</ele>
        <time>2022-11-10T09:35:46Z</time>
      </trkpt>
      <trkpt lat="46.59763" lon="5.89364">
        <ele>919.7</ele>
        <time>2022-11-10T09:35:51Z</time>
      </trkpt>
      <trkpt lat="46.59759" lon="5.89366">
        <ele>919.1</ele>
        <time>2022-11-10T09:35:55Z</time>
      </trkpt>
      <trkpt lat="46.59754" lon="5.89369">
        <ele>918.7</ele>
        <time>2022-11-10T09:35:59Z</time>
      </trkpt>
      <trkpt lat="46.59749" lon="5.89372">
        <ele>918.5</ele>
        <time>2022-11-10T09:36:03Z</time>
      </trkpt>
      <trkpt lat="46.59744" lon="5.89371">
        <ele>918.5</ele>
        <time>2022-11-10T09:36:08Z</time>
      </trkpt>
      <trkpt lat="46.59739" lon="5.89369">
        <ele>918.8</ele>
        <time>2022-11-10T09:36:13Z</time>
      </trkpt>
      <trkpt lat="46.59734" lon="5.89366">
        <ele>919</ele>
        <time>2022-11-10T09:36:18Z</time>
      </trkpt>
      <trkpt lat="46.59729" lon="5.89365">
        <ele>918.5</ele>
        <time>2022-11-10T09:36:26Z</time>
      </trkpt>
      <trkpt lat="46.59725" lon="5.8936">
        <ele>918.3</ele>
        <time>2022-11-10T09:36:32Z</time>
      </trkpt>
      <trkpt lat="46.59721" lon="5.89358">
        <ele>918.3</ele>
        <time>2022-11-10T09:36:37Z</time>
      </trkpt>
      <trkpt lat="46.59716" lon="5.89355">
        <ele>918</ele>
        <time>2022-11-10T09:36:42Z</time>
      </trkpt>
      <trkpt lat="46.59712" lon="5.89352">
        <ele>917.9</ele>
        <time>2022-11-10T09:36:47Z</time>
      </trkpt>
      <trkpt lat="46.59707" lon="5.8935">
        <ele>917.9</ele>
        <time>2022-11-10T09:36:52Z</time>
      </trkpt>
      <trkpt lat="46.59702" lon="5.89348">
        <ele>917.8</ele>
        <time>2022-11-10T09:36:57Z</time>
      </trkpt>
      <trkpt lat="46.59699" lon="5.89344">
        <ele>917.6</ele>
        <time>2022-11-10T09:37:02Z</time>
      </trkpt>
      <trkpt lat="46.59694" lon="5.89342">
        <ele>917.5</ele>
        <time>2022-11-10T09:37:08Z</time>
      </trkpt>
      <trkpt lat="46.59689" lon="5.89341">
        <ele>917.6</ele>
        <time>2022-11-10T09:37:14Z</time>
      </trkpt>
      <trkpt lat="46.59686" lon="5.89337">
        <ele>917.7</ele>
        <time>2022-11-10T09:37:20Z</time>
      </trkpt>
      <trkpt lat="46.59682" lon="5.89332">
        <ele>918.1</ele>
        <time>2022-11-10T09:37:25Z</time>
      </trkpt>
      <trkpt lat="46.5968" lon="5.89327">
        <ele>918.1</ele>
        <time>2022-11-10T09:37:31Z</time>
      </trkpt>
      <trkpt lat="46.59677" lon="5.89321">
        <ele>918.2</ele>
        <time>2022-11-10T09:37:37Z</time>
      </trkpt>
      <trkpt lat="46.59672" lon="5.8932">
        <ele>918.3</ele>
        <time>2022-11-10T09:37:42Z</time>
      </trkpt>
      <trkpt lat="46.59668" lon="5.89319">
        <ele>918.5</ele>
        <time>2022-11-10T09:37:47Z</time>
      </trkpt>
      <trkpt lat="46.59663" lon="5.89318">
        <ele>918.6</ele>
        <time>2022-11-10T09:37:53Z</time>
      </trkpt>
      <trkpt lat="46.59658" lon="5.89319">
        <ele>918.5</ele>
        <time>2022-11-10T09:37:58Z</time>
      </trkpt>
      <trkpt lat="46.59653" lon="5.8932">
        <ele>918.5</ele>
        <time>2022-11-10T09:38:02Z</time>
      </trkpt>
      <trkpt lat="46.59649" lon="5.89318">
        <ele>918.6</ele>
        <time>2022-11-10T09:38:07Z</time>
      </trkpt>
      <trkpt lat="46.59645" lon="5.89314">
        <ele>918.7</ele>
        <time>2022-11-10T09:38:13Z</time>
      </trkpt>
      <trkpt lat="46.59641" lon="5.8931">
        <ele>919</ele>
        <time>2022-11-10T09:38:18Z</time>
      </trkpt>
      <trkpt lat="46.59635" lon="5.89309">
        <ele>918.7</ele>
        <time>2022-11-10T09:38:24Z</time>
      </trkpt>
      <trkpt lat="46.59631" lon="5.8931">
        <ele>917.9</ele>
        <time>2022-11-10T09:38:29Z</time>
      </trkpt>
      <trkpt lat="46.59627" lon="5.89315">
        <ele>915.4</ele>
        <time>2022-11-10T09:38:36Z</time>
      </trkpt>
      <trkpt lat="46.59622" lon="5.89313">
        <ele>914.5</ele>
        <time>2022-11-10T09:38:42Z</time>
      </trkpt>
      <trkpt lat="46.59619" lon="5.89307">
        <ele>914.2</ele>
        <time>2022-11-10T09:38:48Z</time>
      </trkpt>
      <trkpt lat="46.59615" lon="5.89302">
        <ele>914.4</ele>
        <time>2022-11-10T09:38:56Z</time>
      </trkpt>
      <trkpt lat="46.59612" lon="5.89297">
        <ele>914.5</ele>
        <time>2022-11-10T09:39:01Z</time>
      </trkpt>
      <trkpt lat="46.59609" lon="5.89291">
        <ele>914.4</ele>
        <time>2022-11-10T09:39:07Z</time>
      </trkpt>
      <trkpt lat="46.59605" lon="5.89286">
        <ele>914.2</ele>
        <time>2022-11-10T09:39:13Z</time>
      </trkpt>
      <trkpt lat="46.59602" lon="5.89282">
        <ele>914.6</ele>
        <time>2022-11-10T09:39:18Z</time>
      </trkpt>
      <trkpt lat="46.59597" lon="5.89277">
        <ele>915</ele>
        <time>2022-11-10T09:39:23Z</time>
      </trkpt>
      <trkpt lat="46.59594" lon="5.89271">
        <ele>915.2</ele>
        <time>2022-11-10T09:39:28Z</time>
      </trkpt>
      <trkpt lat="46.5959" lon="5.89265">
        <ele>915.5</ele>
        <time>2022-11-10T09:39:33Z</time>
      </trkpt>
      <trkpt lat="46.59586" lon="5.8926">
        <ele>916.2</ele>
        <time>2022-11-10T09:39:38Z</time>
      </trkpt>
      <trkpt lat="46.59583" lon="5.89254">
        <ele>916.9</ele>
        <time>2022-11-10T09:39:43Z</time>
      </trkpt>
      <trkpt lat="46.59579" lon="5.89249">
        <ele>917.6</ele>
        <time>2022-11-10T09:39:48Z</time>
      </trkpt>
      <trkpt lat="46.59575" lon="5.89246">
        <ele>918.4</ele>
        <time>2022-11-10T09:39:53Z</time>
      </trkpt>
      <trkpt lat="46.5957" lon="5.89243">
        <ele>918.8</ele>
        <time>2022-11-10T09:39:58Z</time>
      </trkpt>
      <trkpt lat="46.59566" lon="5.89238">
        <ele>919.4</ele>
        <time>2022-11-10T09:40:03Z</time>
      </trkpt>
      <trkpt lat="46.59562" lon="5.89234">
        <ele>919.5</ele>
        <time>2022-11-10T09:40:08Z</time>
      </trkpt>
      <trkpt lat="46.59559" lon="5.89229">
        <ele>919.4</ele>
        <time>2022-11-10T09:40:13Z</time>
      </trkpt>
      <trkpt lat="46.59556" lon="5.89223">
        <ele>919.2</ele>
        <time>2022-11-10T09:40:18Z</time>
      </trkpt>
      <trkpt lat="46.59552" lon="5.89217">
        <ele>919</ele>
        <time>2022-11-10T09:40:23Z</time>
      </trkpt>
      <trkpt lat="46.59549" lon="5.89212">
        <ele>919.1</ele>
        <time>2022-11-10T09:40:27Z</time>
      </trkpt>
      <trkpt lat="46.59546" lon="5.89207">
        <ele>919.8</ele>
        <time>2022-11-10T09:40:32Z</time>
      </trkpt>
      <trkpt lat="46.59542" lon="5.89201">
        <ele>920.6</ele>
        <time>2022-11-10T09:40:36Z</time>
      </trkpt>
      <trkpt lat="46.59537" lon="5.89196">
        <ele>921.8</ele>
        <time>2022-11-10T09:40:40Z</time>
      </trkpt>
      <trkpt lat="46.59533" lon="5.89192">
        <ele>922.6</ele>
        <time>2022-11-10T09:40:45Z</time>
      </trkpt>
      <trkpt lat="46.5953" lon="5.89188">
        <ele>922.1</ele>
        <time>2022-11-10T09:40:51Z</time>
      </trkpt>
      <trkpt lat="46.59526" lon="5.89183">
        <ele>921.6</ele>
        <time>2022-11-10T09:40:56Z</time>
      </trkpt>
      <trkpt lat="46.59522" lon="5.89179">
        <ele>921.1</ele>
        <time>2022-11-10T09:41:00Z</time>
      </trkpt>
      <trkpt lat="46.59518" lon="5.89175">
        <ele>920.6</ele>
        <time>2022-11-10T09:41:04Z</time>
      </trkpt>
      <trkpt lat="46.59514" lon="5.8917">
        <ele>920.2</ele>
        <time>2022-11-10T09:41:09Z</time>
      </trkpt>
      <trkpt lat="46.5951" lon="5.89165">
        <ele>920</ele>
        <time>2022-11-10T09:41:14Z</time>
      </trkpt>
      <trkpt lat="46.59505" lon="5.89162">
        <ele>919.7</ele>
        <time>2022-11-10T09:41:19Z</time>
      </trkpt>
      <trkpt lat="46.59503" lon="5.89155">
        <ele>919.1</ele>
        <time>2022-11-10T09:41:24Z</time>
      </trkpt>
      <trkpt lat="46.59499" lon="5.89151">
        <ele>919.1</ele>
        <time>2022-11-10T09:41:28Z</time>
      </trkpt>
      <trkpt lat="46.59496" lon="5.89145">
        <ele>918.7</ele>
        <time>2022-11-10T09:41:33Z</time>
      </trkpt>
      <trkpt lat="46.59491" lon="5.89141">
        <ele>918.3</ele>
        <time>2022-11-10T09:41:37Z</time>
      </trkpt>
      <trkpt lat="46.59487" lon="5.89139">
        <ele>918.2</ele>
        <time>2022-11-10T09:41:41Z</time>
      </trkpt>
      <trkpt lat="46.59483" lon="5.89135">
        <ele>918.2</ele>
        <time>2022-11-10T09:41:46Z</time>
      </trkpt>
      <trkpt lat="46.5948" lon="5.89129">
        <ele>917.5</ele>
        <time>2022-11-10T09:41:53Z</time>
      </trkpt>
      <trkpt lat="46.59476" lon="5.89124">
        <ele>916.9</ele>
        <time>2022-11-10T09:41:58Z</time>
      </trkpt>
      <trkpt lat="46.59472" lon="5.89119">
        <ele>916.5</ele>
        <time>2022-11-10T09:42:03Z</time>
      </trkpt>
      <trkpt lat="46.59468" lon="5.89115">
        <ele>916.7</ele>
        <time>2022-11-10T09:42:08Z</time>
      </trkpt>
      <trkpt lat="46.59463" lon="5.89112">
        <ele>917.1</ele>
        <time>2022-11-10T09:42:14Z</time>
      </trkpt>
      <trkpt lat="46.59461" lon="5.89106">
        <ele>916.4</ele>
        <time>2022-11-10T09:42:21Z</time>
      </trkpt>
      <trkpt lat="46.59458" lon="5.89101">
        <ele>916.2</ele>
        <time>2022-11-10T09:42:25Z</time>
      </trkpt>
      <trkpt lat="46.59452" lon="5.89098">
        <ele>916.3</ele>
        <time>2022-11-10T09:42:29Z</time>
      </trkpt>
      <trkpt lat="46.59448" lon="5.89095">
        <ele>916.6</ele>
        <time>2022-11-10T09:42:34Z</time>
      </trkpt>
      <trkpt lat="46.59443" lon="5.89093">
        <ele>916.8</ele>
        <time>2022-11-10T09:42:40Z</time>
      </trkpt>
      <trkpt lat="46.59439" lon="5.8909">
        <ele>917</ele>
        <time>2022-11-10T09:42:44Z</time>
      </trkpt>
      <trkpt lat="46.59436" lon="5.89086">
        <ele>917.1</ele>
        <time>2022-11-10T09:42:48Z</time>
      </trkpt>
      <trkpt lat="46.59433" lon="5.8908">
        <ele>917.4</ele>
        <time>2022-11-10T09:42:52Z</time>
      </trkpt>
      <trkpt lat="46.59429" lon="5.89074">
        <ele>917.5</ele>
        <time>2022-11-10T09:42:56Z</time>
      </trkpt>
      <trkpt lat="46.59427" lon="5.89068">
        <ele>917.6</ele>
        <time>2022-11-10T09:42:59Z</time>
      </trkpt>
      <trkpt lat="46.59424" lon="5.89063">
        <ele>918</ele>
        <time>2022-11-10T09:43:02Z</time>
      </trkpt>
      <trkpt lat="46.59419" lon="5.89058">
        <ele>918.8</ele>
        <time>2022-11-10T09:43:06Z</time>
      </trkpt>
      <trkpt lat="46.59416" lon="5.89052">
        <ele>919.8</ele>
        <time>2022-11-10T09:43:10Z</time>
      </trkpt>
      <trkpt lat="46.59414" lon="5.89045">
        <ele>921.3</ele>
        <time>2022-11-10T09:43:14Z</time>
      </trkpt>
      <trkpt lat="46.59413" lon="5.89038">
        <ele>924</ele>
        <time>2022-11-10T09:43:18Z</time>
      </trkpt>
      <trkpt lat="46.59411" lon="5.89031">
        <ele>927.1</ele>
        <time>2022-11-10T09:43:23Z</time>
      </trkpt>
      <trkpt lat="46.59408" lon="5.89026">
        <ele>928.4</ele>
        <time>2022-11-10T09:43:28Z</time>
      </trkpt>
      <trkpt lat="46.59405" lon="5.8902">
        <ele>929.1</ele>
        <time>2022-11-10T09:43:33Z</time>
      </trkpt>
      <trkpt lat="46.59402" lon="5.89015">
        <ele>929.5</ele>
        <time>2022-11-10T09:43:37Z</time>
      </trkpt>
      <trkpt lat="46.59399" lon="5.89009">
        <ele>929.7</ele>
        <time>2022-11-10T09:43:42Z</time>
      </trkpt>
      <trkpt lat="46.59396" lon="5.89003">
        <ele>929.8</ele>
        <time>2022-11-10T09:43:46Z</time>
      </trkpt>
      <trkpt lat="46.59394" lon="5.88996">
        <ele>929.7</ele>
        <time>2022-11-10T09:43:50Z</time>
      </trkpt>
      <trkpt lat="46.59391" lon="5.88991">
        <ele>929.3</ele>
        <time>2022-11-10T09:43:55Z</time>
      </trkpt>
      <trkpt lat="46.59388" lon="5.88987">
        <ele>929.3</ele>
        <time>2022-11-10T09:43:59Z</time>
      </trkpt>
      <trkpt lat="46.59384" lon="5.88983">
        <ele>929.8</ele>
        <time>2022-11-10T09:44:03Z</time>
      </trkpt>
      <trkpt lat="46.59381" lon="5.88978">
        <ele>930.5</ele>
        <time>2022-11-10T09:44:07Z</time>
      </trkpt>
      <trkpt lat="46.59377" lon="5.88974">
        <ele>930.9</ele>
        <time>2022-11-10T09:44:12Z</time>
      </trkpt>
      <trkpt lat="46.59373" lon="5.8897">
        <ele>931.6</ele>
        <time>2022-11-10T09:44:17Z</time>
      </trkpt>
      <trkpt lat="46.59368" lon="5.88967">
        <ele>932.5</ele>
        <time>2022-11-10T09:44:22Z</time>
      </trkpt>
      <trkpt lat="46.59364" lon="5.88962">
        <ele>933.4</ele>
        <time>2022-11-10T09:44:27Z</time>
      </trkpt>
      <trkpt lat="46.59361" lon="5.88956">
        <ele>933.8</ele>
        <time>2022-11-10T09:44:32Z</time>
      </trkpt>
      <trkpt lat="46.59358" lon="5.8895">
        <ele>934.3</ele>
        <time>2022-11-10T09:44:38Z</time>
      </trkpt>
      <trkpt lat="46.59354" lon="5.88945">
        <ele>935</ele>
        <time>2022-11-10T09:44:43Z</time>
      </trkpt>
      <trkpt lat="46.5935" lon="5.88941">
        <ele>936.8</ele>
        <time>2022-11-10T09:44:48Z</time>
      </trkpt>
      <trkpt lat="46.59346" lon="5.88935">
        <ele>938.2</ele>
        <time>2022-11-10T09:44:52Z</time>
      </trkpt>
      <trkpt lat="46.59344" lon="5.88927">
        <ele>939.1</ele>
        <time>2022-11-10T09:44:56Z</time>
      </trkpt>
      <trkpt lat="46.59342" lon="5.88921">
        <ele>940.1</ele>
        <time>2022-11-10T09:45:01Z</time>
      </trkpt>
      <trkpt lat="46.5934" lon="5.88913">
        <ele>940.7</ele>
        <time>2022-11-10T09:45:05Z</time>
      </trkpt>
      <trkpt lat="46.59336" lon="5.88908">
        <ele>940.8</ele>
        <time>2022-11-10T09:45:09Z</time>
      </trkpt>
      <trkpt lat="46.59332" lon="5.88905">
        <ele>940.8</ele>
        <time>2022-11-10T09:45:13Z</time>
      </trkpt>
      <trkpt lat="46.59329" lon="5.889">
        <ele>940.7</ele>
        <time>2022-11-10T09:45:18Z</time>
      </trkpt>
      <trkpt lat="46.59327" lon="5.88893">
        <ele>940.3</ele>
        <time>2022-11-10T09:45:24Z</time>
      </trkpt>
      <trkpt lat="46.59323" lon="5.8889">
        <ele>940.3</ele>
        <time>2022-11-10T09:45:29Z</time>
      </trkpt>
      <trkpt lat="46.59319" lon="5.88885">
        <ele>940.8</ele>
        <time>2022-11-10T09:45:34Z</time>
      </trkpt>
      <trkpt lat="46.59315" lon="5.88881">
        <ele>942.7</ele>
        <time>2022-11-10T09:45:40Z</time>
      </trkpt>
      <trkpt lat="46.5931" lon="5.88878">
        <ele>943.9</ele>
        <time>2022-11-10T09:45:44Z</time>
      </trkpt>
      <trkpt lat="46.59306" lon="5.88875">
        <ele>944.9</ele>
        <time>2022-11-10T09:45:48Z</time>
      </trkpt>
      <trkpt lat="46.59303" lon="5.88869">
        <ele>946.1</ele>
        <time>2022-11-10T09:45:53Z</time>
      </trkpt>
      <trkpt lat="46.59299" lon="5.88865">
        <ele>946.2</ele>
        <time>2022-11-10T09:45:58Z</time>
      </trkpt>
      <trkpt lat="46.59295" lon="5.88862">
        <ele>945.6</ele>
        <time>2022-11-10T09:46:02Z</time>
      </trkpt>
      <trkpt lat="46.5929" lon="5.88861">
        <ele>945.4</ele>
        <time>2022-11-10T09:46:08Z</time>
      </trkpt>
      <trkpt lat="46.59285" lon="5.88859">
        <ele>945.6</ele>
        <time>2022-11-10T09:46:13Z</time>
      </trkpt>
      <trkpt lat="46.59282" lon="5.88855">
        <ele>945.1</ele>
        <time>2022-11-10T09:46:19Z</time>
      </trkpt>
      <trkpt lat="46.59278" lon="5.88851">
        <ele>944.3</ele>
        <time>2022-11-10T09:46:26Z</time>
      </trkpt>
      <trkpt lat="46.59273" lon="5.8885">
        <ele>943.7</ele>
        <time>2022-11-10T09:46:31Z</time>
      </trkpt>
      <trkpt lat="46.59268" lon="5.88849">
        <ele>944</ele>
        <time>2022-11-10T09:46:35Z</time>
      </trkpt>
      <trkpt lat="46.59264" lon="5.88846">
        <ele>945.1</ele>
        <time>2022-11-10T09:46:44Z</time>
      </trkpt>
      <trkpt lat="46.59258" lon="5.88846">
        <ele>945.1</ele>
        <time>2022-11-10T09:46:48Z</time>
      </trkpt>
      <trkpt lat="46.59254" lon="5.88844">
        <ele>944.7</ele>
        <time>2022-11-10T09:46:51Z</time>
      </trkpt>
      <trkpt lat="46.59251" lon="5.88838">
        <ele>944.3</ele>
        <time>2022-11-10T09:46:55Z</time>
      </trkpt>
      <trkpt lat="46.59247" lon="5.88833">
        <ele>943.5</ele>
        <time>2022-11-10T09:47:00Z</time>
      </trkpt>
      <trkpt lat="46.59242" lon="5.88828">
        <ele>942.8</ele>
        <time>2022-11-10T09:47:05Z</time>
      </trkpt>
      <trkpt lat="46.59238" lon="5.88824">
        <ele>942.7</ele>
        <time>2022-11-10T09:47:09Z</time>
      </trkpt>
      <trkpt lat="46.59235" lon="5.88818">
        <ele>942.6</ele>
        <time>2022-11-10T09:47:14Z</time>
      </trkpt>
      <trkpt lat="46.59234" lon="5.8881">
        <ele>941.9</ele>
        <time>2022-11-10T09:47:20Z</time>
      </trkpt>
      <trkpt lat="46.59232" lon="5.88804">
        <ele>941.7</ele>
        <time>2022-11-10T09:47:25Z</time>
      </trkpt>
      <trkpt lat="46.59231" lon="5.88797">
        <ele>941.8</ele>
        <time>2022-11-10T09:47:30Z</time>
      </trkpt>
      <trkpt lat="46.59227" lon="5.88792">
        <ele>941.9</ele>
        <time>2022-11-10T09:47:35Z</time>
      </trkpt>
      <trkpt lat="46.59225" lon="5.88785">
        <ele>942.2</ele>
        <time>2022-11-10T09:47:40Z</time>
      </trkpt>
      <trkpt lat="46.59224" lon="5.88777">
        <ele>942.5</ele>
        <time>2022-11-10T09:47:45Z</time>
      </trkpt>
      <trkpt lat="46.59221" lon="5.8877">
        <ele>943.7</ele>
        <time>2022-11-10T09:47:50Z</time>
      </trkpt>
      <trkpt lat="46.5922" lon="5.88763">
        <ele>945.2</ele>
        <time>2022-11-10T09:47:55Z</time>
      </trkpt>
      <trkpt lat="46.59217" lon="5.88757">
        <ele>946.8</ele>
        <time>2022-11-10T09:48:00Z</time>
      </trkpt>
      <trkpt lat="46.59214" lon="5.88751">
        <ele>948.4</ele>
        <time>2022-11-10T09:48:05Z</time>
      </trkpt>
      <trkpt lat="46.59209" lon="5.88748">
        <ele>949.1</ele>
        <time>2022-11-10T09:48:09Z</time>
      </trkpt>
      <trkpt lat="46.59204" lon="5.88745">
        <ele>949.7</ele>
        <time>2022-11-10T09:48:13Z</time>
      </trkpt>
      <trkpt lat="46.592" lon="5.88741">
        <ele>950.3</ele>
        <time>2022-11-10T09:48:18Z</time>
      </trkpt>
      <trkpt lat="46.59197" lon="5.88736">
        <ele>951</ele>
        <time>2022-11-10T09:48:24Z</time>
      </trkpt>
      <trkpt lat="46.59194" lon="5.88732">
        <ele>951.6</ele>
        <time>2022-11-10T09:48:30Z</time>
      </trkpt>
      <trkpt lat="46.59191" lon="5.88727">
        <ele>952</ele>
        <time>2022-11-10T09:48:35Z</time>
      </trkpt>
      <trkpt lat="46.59187" lon="5.88721">
        <ele>952.4</ele>
        <time>2022-11-10T09:48:40Z</time>
      </trkpt>
      <trkpt lat="46.59183" lon="5.88717">
        <ele>952.6</ele>
        <time>2022-11-10T09:48:45Z</time>
      </trkpt>
      <trkpt lat="46.59179" lon="5.88712">
        <ele>952.9</ele>
        <time>2022-11-10T09:48:51Z</time>
      </trkpt>
      <trkpt lat="46.59175" lon="5.88709">
        <ele>954.3</ele>
        <time>2022-11-10T09:48:57Z</time>
      </trkpt>
      <trkpt lat="46.59171" lon="5.88706">
        <ele>955.9</ele>
        <time>2022-11-10T09:49:02Z</time>
      </trkpt>
      <trkpt lat="46.59165" lon="5.88705">
        <ele>956.7</ele>
        <time>2022-11-10T09:49:06Z</time>
      </trkpt>
      <trkpt lat="46.5916" lon="5.88702">
        <ele>957.3</ele>
        <time>2022-11-10T09:49:10Z</time>
      </trkpt>
      <trkpt lat="46.59155" lon="5.88701">
        <ele>957.9</ele>
        <time>2022-11-10T09:49:15Z</time>
      </trkpt>
      <trkpt lat="46.59151" lon="5.88701">
        <ele>958.6</ele>
        <time>2022-11-10T09:49:22Z</time>
      </trkpt>
      <trkpt lat="46.59146" lon="5.88699">
        <ele>959.6</ele>
        <time>2022-11-10T09:49:28Z</time>
      </trkpt>
      <trkpt lat="46.59141" lon="5.88697">
        <ele>960.8</ele>
        <time>2022-11-10T09:49:34Z</time>
      </trkpt>
      <trkpt lat="46.59137" lon="5.88695">
        <ele>962.1</ele>
        <time>2022-11-10T09:49:40Z</time>
      </trkpt>
      <trkpt lat="46.59133" lon="5.88692">
        <ele>962.9</ele>
        <time>2022-11-10T09:49:44Z</time>
      </trkpt>
      <trkpt lat="46.59128" lon="5.88689">
        <ele>963.6</ele>
        <time>2022-11-10T09:49:49Z</time>
      </trkpt>
      <trkpt lat="46.59123" lon="5.88684">
        <ele>964.1</ele>
        <time>2022-11-10T09:49:53Z</time>
      </trkpt>
      <trkpt lat="46.59118" lon="5.88682">
        <ele>964.7</ele>
        <time>2022-11-10T09:49:57Z</time>
      </trkpt>
      <trkpt lat="46.59114" lon="5.88681">
        <ele>965.5</ele>
        <time>2022-11-10T09:50:01Z</time>
      </trkpt>
      <trkpt lat="46.59109" lon="5.88677">
        <ele>967</ele>
        <time>2022-11-10T09:50:09Z</time>
      </trkpt>
      <trkpt lat="46.59105" lon="5.88673">
        <ele>967</ele>
        <time>2022-11-10T09:50:15Z</time>
      </trkpt>
      <trkpt lat="46.59102" lon="5.88668">
        <ele>966.5</ele>
        <time>2022-11-10T09:50:20Z</time>
      </trkpt>
      <trkpt lat="46.59098" lon="5.88663">
        <ele>965.8</ele>
        <time>2022-11-10T09:50:25Z</time>
      </trkpt>
      <trkpt lat="46.59095" lon="5.88659">
        <ele>965.7</ele>
        <time>2022-11-10T09:50:31Z</time>
      </trkpt>
      <trkpt lat="46.59091" lon="5.88654">
        <ele>965.4</ele>
        <time>2022-11-10T09:50:37Z</time>
      </trkpt>
      <trkpt lat="46.59085" lon="5.88654">
        <ele>964.8</ele>
        <time>2022-11-10T09:50:42Z</time>
      </trkpt>
      <trkpt lat="46.5908" lon="5.88652">
        <ele>964.7</ele>
        <time>2022-11-10T09:50:48Z</time>
      </trkpt>
      <trkpt lat="46.59078" lon="5.88645">
        <ele>964.5</ele>
        <time>2022-11-10T09:50:55Z</time>
      </trkpt>
      <trkpt lat="46.59075" lon="5.88639">
        <ele>964.9</ele>
        <time>2022-11-10T09:50:59Z</time>
      </trkpt>
      <trkpt lat="46.59072" lon="5.88634">
        <ele>964.7</ele>
        <time>2022-11-10T09:51:03Z</time>
      </trkpt>
      <trkpt lat="46.5907" lon="5.88627">
        <ele>963.8</ele>
        <time>2022-11-10T09:51:08Z</time>
      </trkpt>
      <trkpt lat="46.59066" lon="5.88623">
        <ele>964.2</ele>
        <time>2022-11-10T09:51:13Z</time>
      </trkpt>
      <trkpt lat="46.59062" lon="5.88619">
        <ele>964.5</ele>
        <time>2022-11-10T09:51:17Z</time>
      </trkpt>
      <trkpt lat="46.59058" lon="5.88616">
        <ele>964.3</ele>
        <time>2022-11-10T09:51:22Z</time>
      </trkpt>
      <trkpt lat="46.59055" lon="5.88611">
        <ele>964.3</ele>
        <time>2022-11-10T09:51:27Z</time>
      </trkpt>
      <trkpt lat="46.59052" lon="5.88605">
        <ele>963.5</ele>
        <time>2022-11-10T09:51:33Z</time>
      </trkpt>
      <trkpt lat="46.59049" lon="5.88598">
        <ele>963</ele>
        <time>2022-11-10T09:51:38Z</time>
      </trkpt>
      <trkpt lat="46.59045" lon="5.88595">
        <ele>963</ele>
        <time>2022-11-10T09:51:43Z</time>
      </trkpt>
      <trkpt lat="46.5904" lon="5.88593">
        <ele>963.5</ele>
        <time>2022-11-10T09:51:48Z</time>
      </trkpt>
      <trkpt lat="46.59036" lon="5.88589">
        <ele>964.6</ele>
        <time>2022-11-10T09:51:54Z</time>
      </trkpt>
      <trkpt lat="46.59031" lon="5.88584">
        <ele>965.1</ele>
        <time>2022-11-10T09:51:59Z</time>
      </trkpt>
      <trkpt lat="46.59027" lon="5.88583">
        <ele>965.5</ele>
        <time>2022-11-10T09:52:03Z</time>
      </trkpt>
      <trkpt lat="46.59022" lon="5.88579">
        <ele>965.8</ele>
        <time>2022-11-10T09:52:07Z</time>
      </trkpt>
      <trkpt lat="46.5902" lon="5.88573">
        <ele>966.6</ele>
        <time>2022-11-10T09:52:12Z</time>
      </trkpt>
      <trkpt lat="46.59017" lon="5.88568">
        <ele>966.7</ele>
        <time>2022-11-10T09:52:19Z</time>
      </trkpt>
      <trkpt lat="46.59012" lon="5.88569">
        <ele>965.1</ele>
        <time>2022-11-10T09:52:28Z</time>
      </trkpt>
      <trkpt lat="46.59008" lon="5.88566">
        <ele>963.7</ele>
        <time>2022-11-10T09:52:33Z</time>
      </trkpt>
      <trkpt lat="46.59002" lon="5.88564">
        <ele>963.2</ele>
        <time>2022-11-10T09:52:37Z</time>
      </trkpt>
      <trkpt lat="46.58997" lon="5.88563">
        <ele>963.4</ele>
        <time>2022-11-10T09:52:40Z</time>
      </trkpt>
      <trkpt lat="46.58992" lon="5.88561">
        <ele>964.1</ele>
        <time>2022-11-10T09:52:44Z</time>
      </trkpt>
      <trkpt lat="46.58988" lon="5.88559">
        <ele>965</ele>
        <time>2022-11-10T09:52:48Z</time>
      </trkpt>
      <trkpt lat="46.58982" lon="5.88559">
        <ele>966.2</ele>
        <time>2022-11-10T09:52:52Z</time>
      </trkpt>
      <trkpt lat="46.58977" lon="5.88559">
        <ele>967.4</ele>
        <time>2022-11-10T09:52:56Z</time>
      </trkpt>
      <trkpt lat="46.58973" lon="5.88561">
        <ele>969</ele>
        <time>2022-11-10T09:53:01Z</time>
      </trkpt>
      <trkpt lat="46.58968" lon="5.88559">
        <ele>971.1</ele>
        <time>2022-11-10T09:53:06Z</time>
      </trkpt>
      <trkpt lat="46.58964" lon="5.8856">
        <ele>973.8</ele>
        <time>2022-11-10T09:53:15Z</time>
      </trkpt>
      <trkpt lat="46.58959" lon="5.88561">
        <ele>974.5</ele>
        <time>2022-11-10T09:53:19Z</time>
      </trkpt>
      <trkpt lat="46.58954" lon="5.88563">
        <ele>975.3</ele>
        <time>2022-11-10T09:53:24Z</time>
      </trkpt>
      <trkpt lat="46.58949" lon="5.88565">
        <ele>976.5</ele>
        <time>2022-11-10T09:53:31Z</time>
      </trkpt>
      <trkpt lat="46.58944" lon="5.88567">
        <ele>976.5</ele>
        <time>2022-11-10T09:53:37Z</time>
      </trkpt>
      <trkpt lat="46.58939" lon="5.88565">
        <ele>976.4</ele>
        <time>2022-11-10T09:53:42Z</time>
      </trkpt>
      <trkpt lat="46.58934" lon="5.88561">
        <ele>976.9</ele>
        <time>2022-11-10T09:53:47Z</time>
      </trkpt>
      <trkpt lat="46.5893" lon="5.88563">
        <ele>975.4</ele>
        <time>2022-11-10T09:53:57Z</time>
      </trkpt>
      <trkpt lat="46.58924" lon="5.88566">
        <ele>974.6</ele>
        <time>2022-11-10T09:54:02Z</time>
      </trkpt>
      <trkpt lat="46.58919" lon="5.88565">
        <ele>974.4</ele>
        <time>2022-11-10T09:54:07Z</time>
      </trkpt>
      <trkpt lat="46.58915" lon="5.88563">
        <ele>975</ele>
        <time>2022-11-10T09:54:12Z</time>
      </trkpt>
      <trkpt lat="46.5891" lon="5.88562">
        <ele>975.5</ele>
        <time>2022-11-10T09:54:16Z</time>
      </trkpt>
      <trkpt lat="46.58905" lon="5.88561">
        <ele>976.1</ele>
        <time>2022-11-10T09:54:20Z</time>
      </trkpt>
      <trkpt lat="46.589" lon="5.8856">
        <ele>976.4</ele>
        <time>2022-11-10T09:54:24Z</time>
      </trkpt>
      <trkpt lat="46.58894" lon="5.88559">
        <ele>976.5</ele>
        <time>2022-11-10T09:54:29Z</time>
      </trkpt>
      <trkpt lat="46.5889" lon="5.88555">
        <ele>976.4</ele>
        <time>2022-11-10T09:54:34Z</time>
      </trkpt>
      <trkpt lat="46.58885" lon="5.88553">
        <ele>976.7</ele>
        <time>2022-11-10T09:54:40Z</time>
      </trkpt>
      <trkpt lat="46.58881" lon="5.88548">
        <ele>977.5</ele>
        <time>2022-11-10T09:54:49Z</time>
      </trkpt>
      <trkpt lat="46.58876" lon="5.88547">
        <ele>977.9</ele>
        <time>2022-11-10T09:54:55Z</time>
      </trkpt>
      <trkpt lat="46.58871" lon="5.88546">
        <ele>977.4</ele>
        <time>2022-11-10T09:55:00Z</time>
      </trkpt>
      <trkpt lat="46.58866" lon="5.88543">
        <ele>976.9</ele>
        <time>2022-11-10T09:55:05Z</time>
      </trkpt>
      <trkpt lat="46.58862" lon="5.8854">
        <ele>976</ele>
        <time>2022-11-10T09:55:11Z</time>
      </trkpt>
      <trkpt lat="46.58857" lon="5.88538">
        <ele>974.5</ele>
        <time>2022-11-10T09:55:17Z</time>
      </trkpt>
      <trkpt lat="46.58853" lon="5.88537">
        <ele>973.1</ele>
        <time>2022-11-10T09:55:22Z</time>
      </trkpt>
      <trkpt lat="46.58851" lon="5.88531">
        <ele>971.7</ele>
        <time>2022-11-10T09:55:28Z</time>
      </trkpt>
      <trkpt lat="46.58847" lon="5.88526">
        <ele>970.8</ele>
        <time>2022-11-10T09:55:33Z</time>
      </trkpt>
      <trkpt lat="46.58842" lon="5.88523">
        <ele>970.2</ele>
        <time>2022-11-10T09:55:37Z</time>
      </trkpt>
      <trkpt lat="46.58838" lon="5.8852">
        <ele>969.9</ele>
        <time>2022-11-10T09:55:41Z</time>
      </trkpt>
      <trkpt lat="46.58834" lon="5.88516">
        <ele>969.8</ele>
        <time>2022-11-10T09:55:44Z</time>
      </trkpt>
      <trkpt lat="46.5883" lon="5.8851">
        <ele>969.7</ele>
        <time>2022-11-10T09:55:48Z</time>
      </trkpt>
      <trkpt lat="46.58826" lon="5.88506">
        <ele>969.2</ele>
        <time>2022-11-10T09:55:53Z</time>
      </trkpt>
      <trkpt lat="46.58823" lon="5.885">
        <ele>969</ele>
        <time>2022-11-10T09:55:58Z</time>
      </trkpt>
      <trkpt lat="46.58818" lon="5.88497">
        <ele>969.3</ele>
        <time>2022-11-10T09:56:05Z</time>
      </trkpt>
      <trkpt lat="46.58814" lon="5.88495">
        <ele>969.8</ele>
        <time>2022-11-10T09:56:10Z</time>
      </trkpt>
      <trkpt lat="46.58809" lon="5.88492">
        <ele>970.4</ele>
        <time>2022-11-10T09:56:14Z</time>
      </trkpt>
      <trkpt lat="46.58805" lon="5.88487">
        <ele>970.4</ele>
        <time>2022-11-10T09:56:19Z</time>
      </trkpt>
      <trkpt lat="46.588" lon="5.88482">
        <ele>970.2</ele>
        <time>2022-11-10T09:56:23Z</time>
      </trkpt>
      <trkpt lat="46.58796" lon="5.88479">
        <ele>970.1</ele>
        <time>2022-11-10T09:56:27Z</time>
      </trkpt>
      <trkpt lat="46.58791" lon="5.88475">
        <ele>969.9</ele>
        <time>2022-11-10T09:56:32Z</time>
      </trkpt>
      <trkpt lat="46.58786" lon="5.88471">
        <ele>970.2</ele>
        <time>2022-11-10T09:56:36Z</time>
      </trkpt>
      <trkpt lat="46.58782" lon="5.88469">
        <ele>970.8</ele>
        <time>2022-11-10T09:56:40Z</time>
      </trkpt>
      <trkpt lat="46.58778" lon="5.88463">
        <ele>971.2</ele>
        <time>2022-11-10T09:56:46Z</time>
      </trkpt>
      <trkpt lat="46.58774" lon="5.88458">
        <ele>970.9</ele>
        <time>2022-11-10T09:56:49Z</time>
      </trkpt>
      <trkpt lat="46.5877" lon="5.88455">
        <ele>971.2</ele>
        <time>2022-11-10T09:56:53Z</time>
      </trkpt>
      <trkpt lat="46.58768" lon="5.88449">
        <ele>972.1</ele>
        <time>2022-11-10T09:56:59Z</time>
      </trkpt>
      <trkpt lat="46.58768" lon="5.88442">
        <ele>972.5</ele>
        <time>2022-11-10T09:57:04Z</time>
      </trkpt>
      <trkpt lat="46.58764" lon="5.88436">
        <ele>971.5</ele>
        <time>2022-11-10T09:57:11Z</time>
      </trkpt>
      <trkpt lat="46.58761" lon="5.88429">
        <ele>971.5</ele>
        <time>2022-11-10T09:57:15Z</time>
      </trkpt>
      <trkpt lat="46.5876" lon="5.88422">
        <ele>972.3</ele>
        <time>2022-11-10T09:57:19Z</time>
      </trkpt>
      <trkpt lat="46.58759" lon="5.88415">
        <ele>973.1</ele>
        <time>2022-11-10T09:57:25Z</time>
      </trkpt>
      <trkpt lat="46.58757" lon="5.88407">
        <ele>971.8</ele>
        <time>2022-11-10T09:57:32Z</time>
      </trkpt>
      <trkpt lat="46.58755" lon="5.884">
        <ele>971.8</ele>
        <time>2022-11-10T09:57:36Z</time>
      </trkpt>
      <trkpt lat="46.58754" lon="5.88394">
        <ele>971.9</ele>
        <time>2022-11-10T09:57:39Z</time>
      </trkpt>
      <trkpt lat="46.58752" lon="5.88388">
        <ele>971.8</ele>
        <time>2022-11-10T09:57:42Z</time>
      </trkpt>
      <trkpt lat="46.5875" lon="5.88381">
        <ele>971.9</ele>
        <time>2022-11-10T09:57:46Z</time>
      </trkpt>
      <trkpt lat="46.58748" lon="5.88375">
        <ele>972.3</ele>
        <time>2022-11-10T09:57:51Z</time>
      </trkpt>
      <trkpt lat="46.58744" lon="5.88371">
        <ele>973</ele>
        <time>2022-11-10T09:57:55Z</time>
      </trkpt>
      <trkpt lat="46.5874" lon="5.88369">
        <ele>974.2</ele>
        <time>2022-11-10T09:57:59Z</time>
      </trkpt>
      <trkpt lat="46.58734" lon="5.88371">
        <ele>975.2</ele>
        <time>2022-11-10T09:58:04Z</time>
      </trkpt>
      <trkpt lat="46.58729" lon="5.88371">
        <ele>975.5</ele>
        <time>2022-11-10T09:58:09Z</time>
      </trkpt>
      <trkpt lat="46.58723" lon="5.88371">
        <ele>975.8</ele>
        <time>2022-11-10T09:58:12Z</time>
      </trkpt>
      <trkpt lat="46.58719" lon="5.88371">
        <ele>976.6</ele>
        <time>2022-11-10T09:58:15Z</time>
      </trkpt>
      <trkpt lat="46.58714" lon="5.8837">
        <ele>977.5</ele>
        <time>2022-11-10T09:58:20Z</time>
      </trkpt>
      <trkpt lat="46.58709" lon="5.8837">
        <ele>978</ele>
        <time>2022-11-10T09:58:26Z</time>
      </trkpt>
      <trkpt lat="46.58705" lon="5.88371">
        <ele>978.1</ele>
        <time>2022-11-10T09:58:30Z</time>
      </trkpt>
      <trkpt lat="46.587" lon="5.88374">
        <ele>977.6</ele>
        <time>2022-11-10T09:58:33Z</time>
      </trkpt>
      <trkpt lat="46.58695" lon="5.88377">
        <ele>977.7</ele>
        <time>2022-11-10T09:58:37Z</time>
      </trkpt>
      <trkpt lat="46.58691" lon="5.88378">
        <ele>978.3</ele>
        <time>2022-11-10T09:58:43Z</time>
      </trkpt>
      <trkpt lat="46.58686" lon="5.88379">
        <ele>979.2</ele>
        <time>2022-11-10T09:58:48Z</time>
      </trkpt>
      <trkpt lat="46.5868" lon="5.8838">
        <ele>980.8</ele>
        <time>2022-11-10T09:58:54Z</time>
      </trkpt>
      <trkpt lat="46.58675" lon="5.88378">
        <ele>981.6</ele>
        <time>2022-11-10T09:58:58Z</time>
      </trkpt>
      <trkpt lat="46.5867" lon="5.88377">
        <ele>981.8</ele>
        <time>2022-11-10T09:59:02Z</time>
      </trkpt>
      <trkpt lat="46.58665" lon="5.88378">
        <ele>980.7</ele>
        <time>2022-11-10T09:59:07Z</time>
      </trkpt>
      <trkpt lat="46.5866" lon="5.88377">
        <ele>979.5</ele>
        <time>2022-11-10T09:59:11Z</time>
      </trkpt>
      <trkpt lat="46.58656" lon="5.88373">
        <ele>978.9</ele>
        <time>2022-11-10T09:59:15Z</time>
      </trkpt>
      <trkpt lat="46.58652" lon="5.88369">
        <ele>978.9</ele>
        <time>2022-11-10T09:59:19Z</time>
      </trkpt>
      <trkpt lat="46.58648" lon="5.88364">
        <ele>979.2</ele>
        <time>2022-11-10T09:59:24Z</time>
      </trkpt>
      <trkpt lat="46.58646" lon="5.88357">
        <ele>979.7</ele>
        <time>2022-11-10T09:59:29Z</time>
      </trkpt>
      <trkpt lat="46.58643" lon="5.88352">
        <ele>978.8</ele>
        <time>2022-11-10T09:59:34Z</time>
      </trkpt>
      <trkpt lat="46.5864" lon="5.88345">
        <ele>978.1</ele>
        <time>2022-11-10T09:59:39Z</time>
      </trkpt>
      <trkpt lat="46.58637" lon="5.8834">
        <ele>978</ele>
        <time>2022-11-10T09:59:43Z</time>
      </trkpt>
      <trkpt lat="46.58635" lon="5.88333">
        <ele>978</ele>
        <time>2022-11-10T09:59:47Z</time>
      </trkpt>
      <trkpt lat="46.58632" lon="5.88326">
        <ele>978.4</ele>
        <time>2022-11-10T09:59:51Z</time>
      </trkpt>
      <trkpt lat="46.58629" lon="5.8832">
        <ele>978.4</ele>
        <time>2022-11-10T09:59:55Z</time>
      </trkpt>
      <trkpt lat="46.58626" lon="5.88316">
        <ele>978.2</ele>
        <time>2022-11-10T09:59:59Z</time>
      </trkpt>
      <trkpt lat="46.58621" lon="5.88314">
        <ele>977.7</ele>
        <time>2022-11-10T10:00:04Z</time>
      </trkpt>
      <trkpt lat="46.58616" lon="5.88312">
        <ele>977.1</ele>
        <time>2022-11-10T10:00:09Z</time>
      </trkpt>
      <trkpt lat="46.58611" lon="5.8831">
        <ele>976.5</ele>
        <time>2022-11-10T10:00:14Z</time>
      </trkpt>
      <trkpt lat="46.58605" lon="5.88308">
        <ele>976.4</ele>
        <time>2022-11-10T10:00:19Z</time>
      </trkpt>
      <trkpt lat="46.586" lon="5.88307">
        <ele>976.1</ele>
        <time>2022-11-10T10:00:24Z</time>
      </trkpt>
      <trkpt lat="46.58594" lon="5.88305">
        <ele>976.2</ele>
        <time>2022-11-10T10:00:29Z</time>
      </trkpt>
      <trkpt lat="46.58589" lon="5.88304">
        <ele>976.2</ele>
        <time>2022-11-10T10:00:33Z</time>
      </trkpt>
      <trkpt lat="46.58585" lon="5.88301">
        <ele>976.6</ele>
        <time>2022-11-10T10:00:38Z</time>
      </trkpt>
      <trkpt lat="46.5858" lon="5.88299">
        <ele>976.2</ele>
        <time>2022-11-10T10:00:44Z</time>
      </trkpt>
      <trkpt lat="46.58575" lon="5.88297">
        <ele>975.5</ele>
        <time>2022-11-10T10:00:48Z</time>
      </trkpt>
      <trkpt lat="46.58569" lon="5.88296">
        <ele>974.8</ele>
        <time>2022-11-10T10:00:52Z</time>
      </trkpt>
      <trkpt lat="46.58565" lon="5.88296">
        <ele>974</ele>
        <time>2022-11-10T10:00:56Z</time>
      </trkpt>
      <trkpt lat="46.5856" lon="5.88294">
        <ele>972.9</ele>
        <time>2022-11-10T10:01:02Z</time>
      </trkpt>
      <trkpt lat="46.58555" lon="5.88293">
        <ele>972.4</ele>
        <time>2022-11-10T10:01:06Z</time>
      </trkpt>
      <trkpt lat="46.5855" lon="5.88292">
        <ele>972</ele>
        <time>2022-11-10T10:01:10Z</time>
      </trkpt>
      <trkpt lat="46.58546" lon="5.88288">
        <ele>971.4</ele>
        <time>2022-11-10T10:01:15Z</time>
      </trkpt>
      <trkpt lat="46.58543" lon="5.88282">
        <ele>970.4</ele>
        <time>2022-11-10T10:01:21Z</time>
      </trkpt>
      <trkpt lat="46.58541" lon="5.88276">
        <ele>969.3</ele>
        <time>2022-11-10T10:01:26Z</time>
      </trkpt>
      <trkpt lat="46.58536" lon="5.88278">
        <ele>968.5</ele>
        <time>2022-11-10T10:02:20Z</time>
      </trkpt>
      <trkpt lat="46.58542" lon="5.88274">
        <ele>971.8</ele>
        <time>2022-11-10T10:03:14Z</time>
      </trkpt>
      <trkpt lat="46.58547" lon="5.88272">
        <ele>972.8</ele>
        <time>2022-11-10T10:03:18Z</time>
      </trkpt>
      <trkpt lat="46.58538" lon="5.88275">
        <ele>974.8</ele>
        <time>2022-11-10T10:03:38Z</time>
      </trkpt>
      <trkpt lat="46.58539" lon="5.88268">
        <ele>974</ele>
        <time>2022-11-10T10:03:58Z</time>
      </trkpt>
      <trkpt lat="46.58539" lon="5.88261">
        <ele>974.2</ele>
        <time>2022-11-10T10:04:04Z</time>
      </trkpt>
      <trkpt lat="46.58537" lon="5.88255">
        <ele>975.2</ele>
        <time>2022-11-10T10:04:10Z</time>
      </trkpt>
      <trkpt lat="46.58536" lon="5.88247">
        <ele>975.9</ele>
        <time>2022-11-10T10:04:16Z</time>
      </trkpt>
      <trkpt lat="46.58534" lon="5.88241">
        <ele>976.4</ele>
        <time>2022-11-10T10:04:21Z</time>
      </trkpt>
      <trkpt lat="46.58534" lon="5.88233">
        <ele>976.7</ele>
        <time>2022-11-10T10:04:26Z</time>
      </trkpt>
      <trkpt lat="46.58538" lon="5.88228">
        <ele>976.4</ele>
        <time>2022-11-10T10:04:30Z</time>
      </trkpt>
      <trkpt lat="46.5854" lon="5.88221">
        <ele>975.4</ele>
        <time>2022-11-10T10:04:35Z</time>
      </trkpt>
      <trkpt lat="46.58542" lon="5.88215">
        <ele>973.5</ele>
        <time>2022-11-10T10:04:42Z</time>
      </trkpt>
      <trkpt lat="46.58544" lon="5.88209">
        <ele>971.6</ele>
        <time>2022-11-10T10:04:48Z</time>
      </trkpt>
      <trkpt lat="46.58546" lon="5.88201">
        <ele>970.6</ele>
        <time>2022-11-10T10:04:52Z</time>
      </trkpt>
      <trkpt lat="46.58547" lon="5.88193">
        <ele>970.1</ele>
        <time>2022-11-10T10:04:56Z</time>
      </trkpt>
      <trkpt lat="46.58546" lon="5.88186">
        <ele>970.1</ele>
        <time>2022-11-10T10:05:00Z</time>
      </trkpt>
      <trkpt lat="46.58545" lon="5.88179">
        <ele>970.8</ele>
        <time>2022-11-10T10:05:04Z</time>
      </trkpt>
      <trkpt lat="46.58544" lon="5.88172">
        <ele>971.8</ele>
        <time>2022-11-10T10:05:08Z</time>
      </trkpt>
      <trkpt lat="46.58543" lon="5.88165">
        <ele>972.7</ele>
        <time>2022-11-10T10:05:13Z</time>
      </trkpt>
      <trkpt lat="46.58543" lon="5.88158">
        <ele>973.3</ele>
        <time>2022-11-10T10:05:20Z</time>
      </trkpt>
      <trkpt lat="46.58541" lon="5.88151">
        <ele>973.1</ele>
        <time>2022-11-10T10:05:26Z</time>
      </trkpt>
      <trkpt lat="46.58538" lon="5.88145">
        <ele>973.3</ele>
        <time>2022-11-10T10:05:32Z</time>
      </trkpt>
      <trkpt lat="46.58537" lon="5.88137">
        <ele>973.9</ele>
        <time>2022-11-10T10:05:38Z</time>
      </trkpt>
      <trkpt lat="46.58535" lon="5.8813">
        <ele>974.5</ele>
        <time>2022-11-10T10:05:42Z</time>
      </trkpt>
      <trkpt lat="46.58533" lon="5.88123">
        <ele>975.1</ele>
        <time>2022-11-10T10:05:46Z</time>
      </trkpt>
      <trkpt lat="46.58532" lon="5.88117">
        <ele>975.8</ele>
        <time>2022-11-10T10:05:52Z</time>
      </trkpt>
      <trkpt lat="46.58531" lon="5.8811">
        <ele>976.4</ele>
        <time>2022-11-10T10:05:57Z</time>
      </trkpt>
      <trkpt lat="46.5853" lon="5.88104">
        <ele>976.9</ele>
        <time>2022-11-10T10:06:02Z</time>
      </trkpt>
      <trkpt lat="46.58531" lon="5.88096">
        <ele>976.9</ele>
        <time>2022-11-10T10:06:08Z</time>
      </trkpt>
      <trkpt lat="46.58531" lon="5.88088">
        <ele>976.7</ele>
        <time>2022-11-10T10:06:13Z</time>
      </trkpt>
      <trkpt lat="46.58534" lon="5.88083">
        <ele>975.7</ele>
        <time>2022-11-10T10:06:19Z</time>
      </trkpt>
      <trkpt lat="46.58537" lon="5.88078">
        <ele>974.2</ele>
        <time>2022-11-10T10:06:24Z</time>
      </trkpt>
      <trkpt lat="46.5854" lon="5.88072">
        <ele>973.2</ele>
        <time>2022-11-10T10:06:29Z</time>
      </trkpt>
      <trkpt lat="46.58544" lon="5.88067">
        <ele>972.5</ele>
        <time>2022-11-10T10:06:34Z</time>
      </trkpt>
      <trkpt lat="46.58547" lon="5.88061">
        <ele>972.1</ele>
        <time>2022-11-10T10:06:39Z</time>
      </trkpt>
      <trkpt lat="46.58547" lon="5.88054">
        <ele>971.1</ele>
        <time>2022-11-10T10:06:45Z</time>
      </trkpt>
      <trkpt lat="46.5855" lon="5.88049">
        <ele>969.7</ele>
        <time>2022-11-10T10:06:50Z</time>
      </trkpt>
      <trkpt lat="46.58553" lon="5.88042">
        <ele>968.5</ele>
        <time>2022-11-10T10:06:55Z</time>
      </trkpt>
      <trkpt lat="46.58556" lon="5.88037">
        <ele>968</ele>
        <time>2022-11-10T10:06:58Z</time>
      </trkpt>
      <trkpt lat="46.58557" lon="5.8803">
        <ele>967.6</ele>
        <time>2022-11-10T10:07:02Z</time>
      </trkpt>
      <trkpt lat="46.58555" lon="5.88023">
        <ele>968.1</ele>
        <time>2022-11-10T10:07:07Z</time>
      </trkpt>
      <trkpt lat="46.58553" lon="5.88016">
        <ele>968.7</ele>
        <time>2022-11-10T10:07:11Z</time>
      </trkpt>
      <trkpt lat="46.58552" lon="5.88008">
        <ele>968.8</ele>
        <time>2022-11-10T10:07:17Z</time>
      </trkpt>
      <trkpt lat="46.58548" lon="5.88004">
        <ele>968.6</ele>
        <time>2022-11-10T10:07:21Z</time>
      </trkpt>
      <trkpt lat="46.58546" lon="5.87996">
        <ele>967.8</ele>
        <time>2022-11-10T10:07:25Z</time>
      </trkpt>
      <trkpt lat="46.58545" lon="5.87988">
        <ele>967.2</ele>
        <time>2022-11-10T10:07:28Z</time>
      </trkpt>
      <trkpt lat="46.58543" lon="5.87982">
        <ele>966</ele>
        <time>2022-11-10T10:07:33Z</time>
      </trkpt>
      <trkpt lat="46.58539" lon="5.87979">
        <ele>963.4</ele>
        <time>2022-11-10T10:07:43Z</time>
      </trkpt>
      <trkpt lat="46.58534" lon="5.87975">
        <ele>963.3</ele>
        <time>2022-11-10T10:07:47Z</time>
      </trkpt>
      <trkpt lat="46.58531" lon="5.87969">
        <ele>963.5</ele>
        <time>2022-11-10T10:07:51Z</time>
      </trkpt>
      <trkpt lat="46.5853" lon="5.87962">
        <ele>964</ele>
        <time>2022-11-10T10:07:56Z</time>
      </trkpt>
      <trkpt lat="46.58528" lon="5.87955">
        <ele>964.7</ele>
        <time>2022-11-10T10:08:00Z</time>
      </trkpt>
      <trkpt lat="46.58528" lon="5.87948">
        <ele>965.5</ele>
        <time>2022-11-10T10:08:07Z</time>
      </trkpt>
      <trkpt lat="46.58528" lon="5.87941">
        <ele>966.1</ele>
        <time>2022-11-10T10:08:12Z</time>
      </trkpt>
      <trkpt lat="46.58525" lon="5.87935">
        <ele>966.8</ele>
        <time>2022-11-10T10:08:17Z</time>
      </trkpt>
      <trkpt lat="46.58522" lon="5.87929">
        <ele>967</ele>
        <time>2022-11-10T10:08:22Z</time>
      </trkpt>
      <trkpt lat="46.58523" lon="5.87922">
        <ele>966.6</ele>
        <time>2022-11-10T10:08:26Z</time>
      </trkpt>
      <trkpt lat="46.58521" lon="5.87915">
        <ele>966</ele>
        <time>2022-11-10T10:08:30Z</time>
      </trkpt>
      <trkpt lat="46.58519" lon="5.87908">
        <ele>965.1</ele>
        <time>2022-11-10T10:08:34Z</time>
      </trkpt>
      <trkpt lat="46.58514" lon="5.87906">
        <ele>963.7</ele>
        <time>2022-11-10T10:08:37Z</time>
      </trkpt>
      <trkpt lat="46.5851" lon="5.87904">
        <ele>962.2</ele>
        <time>2022-11-10T10:08:41Z</time>
      </trkpt>
      <trkpt lat="46.58508" lon="5.87898">
        <ele>960.8</ele>
        <time>2022-11-10T10:08:46Z</time>
      </trkpt>
      <trkpt lat="46.58506" lon="5.87891">
        <ele>959.4</ele>
        <time>2022-11-10T10:08:51Z</time>
      </trkpt>
      <trkpt lat="46.58505" lon="5.87884">
        <ele>958.5</ele>
        <time>2022-11-10T10:08:56Z</time>
      </trkpt>
      <trkpt lat="46.58503" lon="5.87878">
        <ele>957.9</ele>
        <time>2022-11-10T10:09:02Z</time>
      </trkpt>
      <trkpt lat="46.585" lon="5.87871">
        <ele>958.5</ele>
        <time>2022-11-10T10:09:08Z</time>
      </trkpt>
      <trkpt lat="46.58497" lon="5.87866">
        <ele>959.3</ele>
        <time>2022-11-10T10:09:13Z</time>
      </trkpt>
      <trkpt lat="46.58496" lon="5.87859">
        <ele>959.9</ele>
        <time>2022-11-10T10:09:17Z</time>
      </trkpt>
      <trkpt lat="46.58494" lon="5.87852">
        <ele>960.8</ele>
        <time>2022-11-10T10:09:23Z</time>
      </trkpt>
      <trkpt lat="46.58494" lon="5.87845">
        <ele>961.8</ele>
        <time>2022-11-10T10:09:29Z</time>
      </trkpt>
      <trkpt lat="46.58494" lon="5.87838">
        <ele>962.5</ele>
        <time>2022-11-10T10:09:34Z</time>
      </trkpt>
      <trkpt lat="46.58492" lon="5.87832">
        <ele>963.6</ele>
        <time>2022-11-10T10:09:39Z</time>
      </trkpt>
      <trkpt lat="46.58488" lon="5.87828">
        <ele>965</ele>
        <time>2022-11-10T10:09:43Z</time>
      </trkpt>
      <trkpt lat="46.58484" lon="5.87823">
        <ele>966.9</ele>
        <time>2022-11-10T10:09:47Z</time>
      </trkpt>
      <trkpt lat="46.58481" lon="5.87818">
        <ele>970.5</ele>
        <time>2022-11-10T10:09:56Z</time>
      </trkpt>
      <trkpt lat="46.58477" lon="5.87822">
        <ele>970.2</ele>
        <time>2022-11-10T10:10:25Z</time>
      </trkpt>
      <trkpt lat="46.58472" lon="5.87821">
        <ele>972.4</ele>
        <time>2022-11-10T10:10:43Z</time>
      </trkpt>
      <trkpt lat="46.58467" lon="5.87818">
        <ele>972.8</ele>
        <time>2022-11-10T10:10:51Z</time>
      </trkpt>
      <trkpt lat="46.58462" lon="5.87816">
        <ele>972.9</ele>
        <time>2022-11-10T10:10:56Z</time>
      </trkpt>
      <trkpt lat="46.58458" lon="5.87816">
        <ele>973.1</ele>
        <time>2022-11-10T10:11:01Z</time>
      </trkpt>
      <trkpt lat="46.58453" lon="5.87814">
        <ele>974</ele>
        <time>2022-11-10T10:11:08Z</time>
      </trkpt>
      <trkpt lat="46.58449" lon="5.87814">
        <ele>974.3</ele>
        <time>2022-11-10T10:11:13Z</time>
      </trkpt>
      <trkpt lat="46.58444" lon="5.87813">
        <ele>974.5</ele>
        <time>2022-11-10T10:11:18Z</time>
      </trkpt>
      <trkpt lat="46.58439" lon="5.87814">
        <ele>974.9</ele>
        <time>2022-11-10T10:11:22Z</time>
      </trkpt>
      <trkpt lat="46.58434" lon="5.87815">
        <ele>975.2</ele>
        <time>2022-11-10T10:11:27Z</time>
      </trkpt>
      <trkpt lat="46.58428" lon="5.87813">
        <ele>975.8</ele>
        <time>2022-11-10T10:11:33Z</time>
      </trkpt>
      <trkpt lat="46.58424" lon="5.87813">
        <ele>976.3</ele>
        <time>2022-11-10T10:11:38Z</time>
      </trkpt>
      <trkpt lat="46.58419" lon="5.87813">
        <ele>976.4</ele>
        <time>2022-11-10T10:11:43Z</time>
      </trkpt>
      <trkpt lat="46.58414" lon="5.87813">
        <ele>976.3</ele>
        <time>2022-11-10T10:11:48Z</time>
      </trkpt>
      <trkpt lat="46.58408" lon="5.87811">
        <ele>976.4</ele>
        <time>2022-11-10T10:11:53Z</time>
      </trkpt>
      <trkpt lat="46.58404" lon="5.87807">
        <ele>976.7</ele>
        <time>2022-11-10T10:11:57Z</time>
      </trkpt>
      <trkpt lat="46.58399" lon="5.87805">
        <ele>977.1</ele>
        <time>2022-11-10T10:12:02Z</time>
      </trkpt>
      <trkpt lat="46.58394" lon="5.87804">
        <ele>977.2</ele>
        <time>2022-11-10T10:12:07Z</time>
      </trkpt>
      <trkpt lat="46.5839" lon="5.87804">
        <ele>977.6</ele>
        <time>2022-11-10T10:12:11Z</time>
      </trkpt>
      <trkpt lat="46.58384" lon="5.87803">
        <ele>978.3</ele>
        <time>2022-11-10T10:12:15Z</time>
      </trkpt>
      <trkpt lat="46.58379" lon="5.87801">
        <ele>979.3</ele>
        <time>2022-11-10T10:12:20Z</time>
      </trkpt>
      <trkpt lat="46.58375" lon="5.87799">
        <ele>980</ele>
        <time>2022-11-10T10:12:24Z</time>
      </trkpt>
      <trkpt lat="46.5837" lon="5.87799">
        <ele>980</ele>
        <time>2022-11-10T10:12:29Z</time>
      </trkpt>
      <trkpt lat="46.58365" lon="5.87797">
        <ele>980.3</ele>
        <time>2022-11-10T10:12:34Z</time>
      </trkpt>
      <trkpt lat="46.5836" lon="5.87796">
        <ele>980.4</ele>
        <time>2022-11-10T10:12:38Z</time>
      </trkpt>
      <trkpt lat="46.58355" lon="5.87795">
        <ele>979.9</ele>
        <time>2022-11-10T10:12:44Z</time>
      </trkpt>
      <trkpt lat="46.58351" lon="5.87796">
        <ele>980</ele>
        <time>2022-11-10T10:12:49Z</time>
      </trkpt>
      <trkpt lat="46.58346" lon="5.87796">
        <ele>980.2</ele>
        <time>2022-11-10T10:12:54Z</time>
      </trkpt>
      <trkpt lat="46.58341" lon="5.87795">
        <ele>980.1</ele>
        <time>2022-11-10T10:13:00Z</time>
      </trkpt>
      <trkpt lat="46.58336" lon="5.87794">
        <ele>979.7</ele>
        <time>2022-11-10T10:13:05Z</time>
      </trkpt>
      <trkpt lat="46.58331" lon="5.87795">
        <ele>979</ele>
        <time>2022-11-10T10:13:09Z</time>
      </trkpt>
      <trkpt lat="46.58326" lon="5.87792">
        <ele>978.3</ele>
        <time>2022-11-10T10:13:14Z</time>
      </trkpt>
      <trkpt lat="46.58321" lon="5.87789">
        <ele>977.7</ele>
        <time>2022-11-10T10:13:19Z</time>
      </trkpt>
      <trkpt lat="46.58317" lon="5.87784">
        <ele>977.3</ele>
        <time>2022-11-10T10:13:25Z</time>
      </trkpt>
      <trkpt lat="46.58312" lon="5.8778">
        <ele>976.6</ele>
        <time>2022-11-10T10:13:30Z</time>
      </trkpt>
      <trkpt lat="46.58308" lon="5.87779">
        <ele>976</ele>
        <time>2022-11-10T10:13:35Z</time>
      </trkpt>
      <trkpt lat="46.58303" lon="5.87775">
        <ele>975.1</ele>
        <time>2022-11-10T10:13:41Z</time>
      </trkpt>
      <trkpt lat="46.58298" lon="5.87773">
        <ele>974.9</ele>
        <time>2022-11-10T10:13:45Z</time>
      </trkpt>
      <trkpt lat="46.58292" lon="5.87773">
        <ele>974.5</ele>
        <time>2022-11-10T10:13:49Z</time>
      </trkpt>
      <trkpt lat="46.58288" lon="5.87773">
        <ele>974.2</ele>
        <time>2022-11-10T10:13:52Z</time>
      </trkpt>
      <trkpt lat="46.58283" lon="5.8777">
        <ele>973.6</ele>
        <time>2022-11-10T10:13:57Z</time>
      </trkpt>
      <trkpt lat="46.58278" lon="5.87766">
        <ele>973</ele>
        <time>2022-11-10T10:14:01Z</time>
      </trkpt>
      <trkpt lat="46.58274" lon="5.87763">
        <ele>972</ele>
        <time>2022-11-10T10:14:07Z</time>
      </trkpt>
      <trkpt lat="46.5827" lon="5.8776">
        <ele>969.7</ele>
        <time>2022-11-10T10:14:14Z</time>
      </trkpt>
      <trkpt lat="46.58265" lon="5.87759">
        <ele>968.4</ele>
        <time>2022-11-10T10:14:18Z</time>
      </trkpt>
      <trkpt lat="46.58259" lon="5.87757">
        <ele>967.5</ele>
        <time>2022-11-10T10:14:22Z</time>
      </trkpt>
      <trkpt lat="46.58255" lon="5.87754">
        <ele>966.8</ele>
        <time>2022-11-10T10:14:26Z</time>
      </trkpt>
      <trkpt lat="46.58251" lon="5.87751">
        <ele>966.4</ele>
        <time>2022-11-10T10:14:30Z</time>
      </trkpt>
      <trkpt lat="46.58246" lon="5.87748">
        <ele>966.3</ele>
        <time>2022-11-10T10:14:34Z</time>
      </trkpt>
      <trkpt lat="46.58241" lon="5.87747">
        <ele>966.3</ele>
        <time>2022-11-10T10:14:38Z</time>
      </trkpt>
      <trkpt lat="46.58236" lon="5.87746">
        <ele>965.6</ele>
        <time>2022-11-10T10:14:46Z</time>
      </trkpt>
      <trkpt lat="46.58231" lon="5.87742">
        <ele>965.6</ele>
        <time>2022-11-10T10:14:50Z</time>
      </trkpt>
      <trkpt lat="46.58226" lon="5.87739">
        <ele>966.1</ele>
        <time>2022-11-10T10:14:53Z</time>
      </trkpt>
      <trkpt lat="46.58221" lon="5.87736">
        <ele>967</ele>
        <time>2022-11-10T10:15:00Z</time>
      </trkpt>
      <trkpt lat="46.58215" lon="5.87735">
        <ele>967.5</ele>
        <time>2022-11-10T10:15:04Z</time>
      </trkpt>
      <trkpt lat="46.58208" lon="5.87736">
        <ele>968</ele>
        <time>2022-11-10T10:15:07Z</time>
      </trkpt>
      <trkpt lat="46.58203" lon="5.87736">
        <ele>968.9</ele>
        <time>2022-11-10T10:15:10Z</time>
      </trkpt>
      <trkpt lat="46.58197" lon="5.87738">
        <ele>970.2</ele>
        <time>2022-11-10T10:15:14Z</time>
      </trkpt>
      <trkpt lat="46.58192" lon="5.87739">
        <ele>971.6</ele>
        <time>2022-11-10T10:15:19Z</time>
      </trkpt>
      <trkpt lat="46.58188" lon="5.87741">
        <ele>972.9</ele>
        <time>2022-11-10T10:15:24Z</time>
      </trkpt>
      <trkpt lat="46.58183" lon="5.8774">
        <ele>973.5</ele>
        <time>2022-11-10T10:15:35Z</time>
      </trkpt>
      <trkpt lat="46.58184" lon="5.87732">
        <ele>972.1</ele>
        <time>2022-11-10T10:15:52Z</time>
      </trkpt>
      <trkpt lat="46.58185" lon="5.87724">
        <ele>971.4</ele>
        <time>2022-11-10T10:15:56Z</time>
      </trkpt>
      <trkpt lat="46.58183" lon="5.87717">
        <ele>971.3</ele>
        <time>2022-11-10T10:16:00Z</time>
      </trkpt>
      <trkpt lat="46.58182" lon="5.8771">
        <ele>971.3</ele>
        <time>2022-11-10T10:16:07Z</time>
      </trkpt>
      <trkpt lat="46.58186" lon="5.87706">
        <ele>970.2</ele>
        <time>2022-11-10T10:16:27Z</time>
      </trkpt>
      <trkpt lat="46.5819" lon="5.87699">
        <ele>969.5</ele>
        <time>2022-11-10T10:16:34Z</time>
      </trkpt>
      <trkpt lat="46.58192" lon="5.87693">
        <ele>968.4</ele>
        <time>2022-11-10T10:16:38Z</time>
      </trkpt>
      <trkpt lat="46.58196" lon="5.8769">
        <ele>964.8</ele>
        <time>2022-11-10T10:16:47Z</time>
      </trkpt>
      <trkpt lat="46.58196" lon="5.87683">
        <ele>963</ele>
        <time>2022-11-10T10:16:53Z</time>
      </trkpt>
      <trkpt lat="46.58194" lon="5.87677">
        <ele>962.9</ele>
        <time>2022-11-10T10:16:57Z</time>
      </trkpt>
      <trkpt lat="46.58195" lon="5.87669">
        <ele>963.6</ele>
        <time>2022-11-10T10:17:03Z</time>
      </trkpt>
      <trkpt lat="46.58196" lon="5.87662">
        <ele>965.6</ele>
        <time>2022-11-10T10:17:10Z</time>
      </trkpt>
      <trkpt lat="46.58196" lon="5.87654">
        <ele>967.4</ele>
        <time>2022-11-10T10:17:15Z</time>
      </trkpt>
      <trkpt lat="46.58195" lon="5.87648">
        <ele>970.3</ele>
        <time>2022-11-10T10:17:21Z</time>
      </trkpt>
      <trkpt lat="46.58192" lon="5.87641">
        <ele>973</ele>
        <time>2022-11-10T10:17:28Z</time>
      </trkpt>
      <trkpt lat="46.5819" lon="5.87635">
        <ele>974.2</ele>
        <time>2022-11-10T10:17:33Z</time>
      </trkpt>
      <trkpt lat="46.58189" lon="5.87628">
        <ele>975</ele>
        <time>2022-11-10T10:17:37Z</time>
      </trkpt>
      <trkpt lat="46.58186" lon="5.87622">
        <ele>976.1</ele>
        <time>2022-11-10T10:17:42Z</time>
      </trkpt>
      <trkpt lat="46.58182" lon="5.87618">
        <ele>977.3</ele>
        <time>2022-11-10T10:17:47Z</time>
      </trkpt>
      <trkpt lat="46.58177" lon="5.87615">
        <ele>978.1</ele>
        <time>2022-11-10T10:17:52Z</time>
      </trkpt>
      <trkpt lat="46.58173" lon="5.87612">
        <ele>979.5</ele>
        <time>2022-11-10T10:17:58Z</time>
      </trkpt>
      <trkpt lat="46.58169" lon="5.87607">
        <ele>979.8</ele>
        <time>2022-11-10T10:18:08Z</time>
      </trkpt>
      <trkpt lat="46.58165" lon="5.87604">
        <ele>978.6</ele>
        <time>2022-11-10T10:18:14Z</time>
      </trkpt>
      <trkpt lat="46.5816" lon="5.87601">
        <ele>977.8</ele>
        <time>2022-11-10T10:18:18Z</time>
      </trkpt>
      <trkpt lat="46.58154" lon="5.876">
        <ele>977.5</ele>
        <time>2022-11-10T10:18:22Z</time>
      </trkpt>
      <trkpt lat="46.58149" lon="5.87601">
        <ele>977.5</ele>
        <time>2022-11-10T10:18:27Z</time>
      </trkpt>
      <trkpt lat="46.58145" lon="5.87603">
        <ele>977.8</ele>
        <time>2022-11-10T10:18:32Z</time>
      </trkpt>
      <trkpt lat="46.5814" lon="5.87605">
        <ele>978.8</ele>
        <time>2022-11-10T10:18:35Z</time>
      </trkpt>
      <trkpt lat="46.58135" lon="5.87607">
        <ele>980</ele>
        <time>2022-11-10T10:18:38Z</time>
      </trkpt>
      <trkpt lat="46.5813" lon="5.87607">
        <ele>981.3</ele>
        <time>2022-11-10T10:18:42Z</time>
      </trkpt>
      <trkpt lat="46.58125" lon="5.87606">
        <ele>982.2</ele>
        <time>2022-11-10T10:18:46Z</time>
      </trkpt>
      <trkpt lat="46.5812" lon="5.87606">
        <ele>982.9</ele>
        <time>2022-11-10T10:18:51Z</time>
      </trkpt>
      <trkpt lat="46.58115" lon="5.87605">
        <ele>983.1</ele>
        <time>2022-11-10T10:18:56Z</time>
      </trkpt>
      <trkpt lat="46.58111" lon="5.87602">
        <ele>982.9</ele>
        <time>2022-11-10T10:19:00Z</time>
      </trkpt>
      <trkpt lat="46.58107" lon="5.87599">
        <ele>982.5</ele>
        <time>2022-11-10T10:19:06Z</time>
      </trkpt>
      <trkpt lat="46.58102" lon="5.87598">
        <ele>982.4</ele>
        <time>2022-11-10T10:19:12Z</time>
      </trkpt>
      <trkpt lat="46.58098" lon="5.87596">
        <ele>982.1</ele>
        <time>2022-11-10T10:19:18Z</time>
      </trkpt>
      <trkpt lat="46.58092" lon="5.87595">
        <ele>982.3</ele>
        <time>2022-11-10T10:19:23Z</time>
      </trkpt>
      <trkpt lat="46.58088" lon="5.87594">
        <ele>983</ele>
        <time>2022-11-10T10:19:31Z</time>
      </trkpt>
      <trkpt lat="46.58083" lon="5.87592">
        <ele>983.4</ele>
        <time>2022-11-10T10:19:38Z</time>
      </trkpt>
      <trkpt lat="46.58077" lon="5.8759">
        <ele>983.2</ele>
        <time>2022-11-10T10:19:43Z</time>
      </trkpt>
      <trkpt lat="46.58074" lon="5.87585">
        <ele>982.7</ele>
        <time>2022-11-10T10:19:48Z</time>
      </trkpt>
      <trkpt lat="46.58071" lon="5.8758">
        <ele>982.3</ele>
        <time>2022-11-10T10:19:53Z</time>
      </trkpt>
      <trkpt lat="46.58067" lon="5.87576">
        <ele>981.4</ele>
        <time>2022-11-10T10:19:59Z</time>
      </trkpt>
      <trkpt lat="46.58066" lon="5.87569">
        <ele>980.8</ele>
        <time>2022-11-10T10:20:03Z</time>
      </trkpt>
      <trkpt lat="46.58064" lon="5.87563">
        <ele>980.3</ele>
        <time>2022-11-10T10:20:08Z</time>
      </trkpt>
      <trkpt lat="46.58063" lon="5.87556">
        <ele>980</ele>
        <time>2022-11-10T10:20:14Z</time>
      </trkpt>
      <trkpt lat="46.5806" lon="5.8755">
        <ele>980</ele>
        <time>2022-11-10T10:20:20Z</time>
      </trkpt>
      <trkpt lat="46.58058" lon="5.87544">
        <ele>979.5</ele>
        <time>2022-11-10T10:20:26Z</time>
      </trkpt>
      <trkpt lat="46.58054" lon="5.8754">
        <ele>978.7</ele>
        <time>2022-11-10T10:20:34Z</time>
      </trkpt>
      <trkpt lat="46.5805" lon="5.87537">
        <ele>978.4</ele>
        <time>2022-11-10T10:20:40Z</time>
      </trkpt>
      <trkpt lat="46.5805" lon="5.87531">
        <ele>978</ele>
        <time>2022-11-10T10:20:49Z</time>
      </trkpt>
      <trkpt lat="46.58046" lon="5.87527">
        <ele>977.9</ele>
        <time>2022-11-10T10:20:54Z</time>
      </trkpt>
      <trkpt lat="46.58044" lon="5.8752">
        <ele>978.3</ele>
        <time>2022-11-10T10:20:57Z</time>
      </trkpt>
      <trkpt lat="46.58043" lon="5.87512">
        <ele>979.3</ele>
        <time>2022-11-10T10:21:01Z</time>
      </trkpt>
      <trkpt lat="46.58043" lon="5.87505">
        <ele>980.1</ele>
        <time>2022-11-10T10:21:06Z</time>
      </trkpt>
      <trkpt lat="46.58046" lon="5.87498">
        <ele>980.8</ele>
        <time>2022-11-10T10:21:12Z</time>
      </trkpt>
      <trkpt lat="46.58048" lon="5.87492">
        <ele>980.4</ele>
        <time>2022-11-10T10:21:16Z</time>
      </trkpt>
      <trkpt lat="46.5805" lon="5.87485">
        <ele>979.9</ele>
        <time>2022-11-10T10:21:21Z</time>
      </trkpt>
      <trkpt lat="46.5805" lon="5.87479">
        <ele>979.7</ele>
        <time>2022-11-10T10:21:25Z</time>
      </trkpt>
      <trkpt lat="46.58049" lon="5.87472">
        <ele>979.4</ele>
        <time>2022-11-10T10:21:30Z</time>
      </trkpt>
      <trkpt lat="46.5805" lon="5.87465">
        <ele>979.3</ele>
        <time>2022-11-10T10:21:35Z</time>
      </trkpt>
      <trkpt lat="46.58051" lon="5.87457">
        <ele>978.8</ele>
        <time>2022-11-10T10:21:40Z</time>
      </trkpt>
      <trkpt lat="46.58053" lon="5.8745">
        <ele>978.1</ele>
        <time>2022-11-10T10:21:45Z</time>
      </trkpt>
      <trkpt lat="46.58055" lon="5.87443">
        <ele>977.3</ele>
        <time>2022-11-10T10:21:50Z</time>
      </trkpt>
      <trkpt lat="46.58057" lon="5.87435">
        <ele>976.7</ele>
        <time>2022-11-10T10:21:54Z</time>
      </trkpt>
      <trkpt lat="46.58057" lon="5.87429">
        <ele>976</ele>
        <time>2022-11-10T10:22:01Z</time>
      </trkpt>
      <trkpt lat="46.58059" lon="5.87421">
        <ele>975.6</ele>
        <time>2022-11-10T10:22:08Z</time>
      </trkpt>
      <trkpt lat="46.5806" lon="5.87414">
        <ele>975.3</ele>
        <time>2022-11-10T10:22:13Z</time>
      </trkpt>
      <trkpt lat="46.58064" lon="5.87409">
        <ele>974.2</ele>
        <time>2022-11-10T10:22:18Z</time>
      </trkpt>
      <trkpt lat="46.58064" lon="5.87403">
        <ele>973.1</ele>
        <time>2022-11-10T10:22:27Z</time>
      </trkpt>
      <trkpt lat="46.58067" lon="5.87397">
        <ele>973.3</ele>
        <time>2022-11-10T10:22:43Z</time>
      </trkpt>
      <trkpt lat="46.5807" lon="5.87392">
        <ele>974</ele>
        <time>2022-11-10T10:22:48Z</time>
      </trkpt>
      <trkpt lat="46.58069" lon="5.87399">
        <ele>974.4</ele>
        <time>2022-11-10T10:22:55Z</time>
      </trkpt>
      <trkpt lat="46.58064" lon="5.87405">
        <ele>975.3</ele>
        <time>2022-11-10T10:23:28Z</time>
      </trkpt>
      <trkpt lat="46.58059" lon="5.87404">
        <ele>975.9</ele>
        <time>2022-11-10T10:23:31Z</time>
      </trkpt>
      <trkpt lat="46.58064" lon="5.87407">
        <ele>977.2</ele>
        <time>2022-11-10T10:23:56Z</time>
      </trkpt>
      <trkpt lat="46.58063" lon="5.87414">
        <ele>977.3</ele>
        <time>2022-11-10T10:24:00Z</time>
      </trkpt>
      <trkpt lat="46.58062" lon="5.87421">
        <ele>977.8</ele>
        <time>2022-11-10T10:24:06Z</time>
      </trkpt>
      <trkpt lat="46.58061" lon="5.87428">
        <ele>978.5</ele>
        <time>2022-11-10T10:24:13Z</time>
      </trkpt>
      <trkpt lat="46.58062" lon="5.87436">
        <ele>979.1</ele>
        <time>2022-11-10T10:24:37Z</time>
      </trkpt>
      <trkpt lat="46.58063" lon="5.87443">
        <ele>978.3</ele>
        <time>2022-11-10T10:24:41Z</time>
      </trkpt>
      <trkpt lat="46.58059" lon="5.87434">
        <ele>977.9</ele>
        <time>2022-11-10T10:25:07Z</time>
      </trkpt>
      <trkpt lat="46.58057" lon="5.87427">
        <ele>978.6</ele>
        <time>2022-11-10T10:25:10Z</time>
      </trkpt>
      <trkpt lat="46.58057" lon="5.8742">
        <ele>979.2</ele>
        <time>2022-11-10T10:25:13Z</time>
      </trkpt>
      <trkpt lat="46.58056" lon="5.87413">
        <ele>979.7</ele>
        <time>2022-11-10T10:25:19Z</time>
      </trkpt>
      <trkpt lat="46.58054" lon="5.87407">
        <ele>980.1</ele>
        <time>2022-11-10T10:25:25Z</time>
      </trkpt>
      <trkpt lat="46.58058" lon="5.87405">
        <ele>980.3</ele>
        <time>2022-11-10T10:25:33Z</time>
      </trkpt>
      <trkpt lat="46.58059" lon="5.87411">
        <ele>979</ele>
        <time>2022-11-10T10:25:44Z</time>
      </trkpt>
      <trkpt lat="46.58064" lon="5.87413">
        <ele>978.7</ele>
        <time>2022-11-10T10:26:51Z</time>
      </trkpt>
      <trkpt lat="46.58062" lon="5.87405">
        <ele>980.8</ele>
        <time>2022-11-10T10:27:32Z</time>
      </trkpt>
      <trkpt lat="46.58057" lon="5.87405">
        <ele>984.7</ele>
        <time>2022-11-10T10:29:08Z</time>
      </trkpt>
      <trkpt lat="46.58053" lon="5.87408">
        <ele>985.2</ele>
        <time>2022-11-10T10:29:11Z</time>
      </trkpt>
      <trkpt lat="46.58048" lon="5.87408">
        <ele>986</ele>
        <time>2022-11-10T10:29:19Z</time>
      </trkpt>
      <trkpt lat="46.58043" lon="5.87406">
        <ele>986.6</ele>
        <time>2022-11-10T10:29:28Z</time>
      </trkpt>
      <trkpt lat="46.58039" lon="5.87404">
        <ele>986.7</ele>
        <time>2022-11-10T10:29:37Z</time>
      </trkpt>
      <trkpt lat="46.58034" lon="5.87405">
        <ele>986</ele>
        <time>2022-11-10T10:29:44Z</time>
      </trkpt>
      <trkpt lat="46.58029" lon="5.87403">
        <ele>985.7</ele>
        <time>2022-11-10T10:29:51Z</time>
      </trkpt>
      <trkpt lat="46.58024" lon="5.87401">
        <ele>985.3</ele>
        <time>2022-11-10T10:29:57Z</time>
      </trkpt>
      <trkpt lat="46.58021" lon="5.87396">
        <ele>985.3</ele>
        <time>2022-11-10T10:30:03Z</time>
      </trkpt>
      <trkpt lat="46.58017" lon="5.87392">
        <ele>984.7</ele>
        <time>2022-11-10T10:30:09Z</time>
      </trkpt>
      <trkpt lat="46.58012" lon="5.87391">
        <ele>983.4</ele>
        <time>2022-11-10T10:30:17Z</time>
      </trkpt>
      <trkpt lat="46.58007" lon="5.87389">
        <ele>982.6</ele>
        <time>2022-11-10T10:30:23Z</time>
      </trkpt>
      <trkpt lat="46.58002" lon="5.87389">
        <ele>981.8</ele>
        <time>2022-11-10T10:30:29Z</time>
      </trkpt>
      <trkpt lat="46.57998" lon="5.87387">
        <ele>979.6</ele>
        <time>2022-11-10T10:30:48Z</time>
      </trkpt>
      <trkpt lat="46.57993" lon="5.87383">
        <ele>978.6</ele>
        <time>2022-11-10T10:30:54Z</time>
      </trkpt>
      <trkpt lat="46.57988" lon="5.87382">
        <ele>978</ele>
        <time>2022-11-10T10:31:00Z</time>
      </trkpt>
      <trkpt lat="46.57983" lon="5.87381">
        <ele>977.6</ele>
        <time>2022-11-10T10:31:05Z</time>
      </trkpt>
      <trkpt lat="46.57978" lon="5.87382">
        <ele>977.1</ele>
        <time>2022-11-10T10:31:12Z</time>
      </trkpt>
      <trkpt lat="46.57974" lon="5.87385">
        <ele>976.6</ele>
        <time>2022-11-10T10:31:18Z</time>
      </trkpt>
      <trkpt lat="46.57969" lon="5.87388">
        <ele>976.1</ele>
        <time>2022-11-10T10:31:25Z</time>
      </trkpt>
      <trkpt lat="46.57966" lon="5.87395">
        <ele>975.1</ele>
        <time>2022-11-10T10:31:30Z</time>
      </trkpt>
      <trkpt lat="46.57961" lon="5.87397">
        <ele>974.2</ele>
        <time>2022-11-10T10:31:35Z</time>
      </trkpt>
      <trkpt lat="46.57956" lon="5.87397">
        <ele>973.4</ele>
        <time>2022-11-10T10:31:40Z</time>
      </trkpt>
      <trkpt lat="46.57951" lon="5.874">
        <ele>972.6</ele>
        <time>2022-11-10T10:31:45Z</time>
      </trkpt>
      <trkpt lat="46.57946" lon="5.87403">
        <ele>972.1</ele>
        <time>2022-11-10T10:31:51Z</time>
      </trkpt>
      <trkpt lat="46.57942" lon="5.87405">
        <ele>972.3</ele>
        <time>2022-11-10T10:31:58Z</time>
      </trkpt>
      <trkpt lat="46.57937" lon="5.8741">
        <ele>972.7</ele>
        <time>2022-11-10T10:32:04Z</time>
      </trkpt>
      <trkpt lat="46.57933" lon="5.87414">
        <ele>972.6</ele>
        <time>2022-11-10T10:32:09Z</time>
      </trkpt>
      <trkpt lat="46.5793" lon="5.87419">
        <ele>972.1</ele>
        <time>2022-11-10T10:32:17Z</time>
      </trkpt>
      <trkpt lat="46.5793" lon="5.87426">
        <ele>972.2</ele>
        <time>2022-11-10T10:32:23Z</time>
      </trkpt>
      <trkpt lat="46.5793" lon="5.87433">
        <ele>972.4</ele>
        <time>2022-11-10T10:32:31Z</time>
      </trkpt>
      <trkpt lat="46.57928" lon="5.8744">
        <ele>972.7</ele>
        <time>2022-11-10T10:32:39Z</time>
      </trkpt>
      <trkpt lat="46.57925" lon="5.87445">
        <ele>973.1</ele>
        <time>2022-11-10T10:32:45Z</time>
      </trkpt>
      <trkpt lat="46.5792" lon="5.87447">
        <ele>973.3</ele>
        <time>2022-11-10T10:32:51Z</time>
      </trkpt>
      <trkpt lat="46.57917" lon="5.87453">
        <ele>973.5</ele>
        <time>2022-11-10T10:32:57Z</time>
      </trkpt>
      <trkpt lat="46.57914" lon="5.87459">
        <ele>974</ele>
        <time>2022-11-10T10:33:02Z</time>
      </trkpt>
      <trkpt lat="46.57914" lon="5.87467">
        <ele>974.5</ele>
        <time>2022-11-10T10:33:07Z</time>
      </trkpt>
      <trkpt lat="46.57914" lon="5.87474">
        <ele>974.4</ele>
        <time>2022-11-10T10:33:12Z</time>
      </trkpt>
      <trkpt lat="46.57915" lon="5.87481">
        <ele>973.3</ele>
        <time>2022-11-10T10:33:18Z</time>
      </trkpt>
      <trkpt lat="46.57915" lon="5.87489">
        <ele>970.4</ele>
        <time>2022-11-10T10:33:28Z</time>
      </trkpt>
      <trkpt lat="46.57914" lon="5.87496">
        <ele>969.8</ele>
        <time>2022-11-10T10:33:31Z</time>
      </trkpt>
      <trkpt lat="46.57912" lon="5.87503">
        <ele>969.6</ele>
        <time>2022-11-10T10:33:35Z</time>
      </trkpt>
      <trkpt lat="46.57909" lon="5.8751">
        <ele>970.1</ele>
        <time>2022-11-10T10:33:40Z</time>
      </trkpt>
      <trkpt lat="46.57906" lon="5.87516">
        <ele>970.5</ele>
        <time>2022-11-10T10:33:44Z</time>
      </trkpt>
      <trkpt lat="46.57904" lon="5.87523">
        <ele>971.1</ele>
        <time>2022-11-10T10:33:48Z</time>
      </trkpt>
      <trkpt lat="46.57905" lon="5.8753">
        <ele>971.7</ele>
        <time>2022-11-10T10:33:54Z</time>
      </trkpt>
      <trkpt lat="46.57902" lon="5.87537">
        <ele>971.5</ele>
        <time>2022-11-10T10:34:02Z</time>
      </trkpt>
      <trkpt lat="46.579" lon="5.87544">
        <ele>971</ele>
        <time>2022-11-10T10:34:06Z</time>
      </trkpt>
      <trkpt lat="46.57897" lon="5.87549">
        <ele>970.8</ele>
        <time>2022-11-10T10:34:11Z</time>
      </trkpt>
      <trkpt lat="46.57892" lon="5.87552">
        <ele>970.7</ele>
        <time>2022-11-10T10:34:16Z</time>
      </trkpt>
      <trkpt lat="46.57887" lon="5.87553">
        <ele>970.2</ele>
        <time>2022-11-10T10:34:21Z</time>
      </trkpt>
      <trkpt lat="46.57883" lon="5.87555">
        <ele>968.8</ele>
        <time>2022-11-10T10:34:27Z</time>
      </trkpt>
      <trkpt lat="46.57877" lon="5.87556">
        <ele>966.8</ele>
        <time>2022-11-10T10:34:32Z</time>
      </trkpt>
      <trkpt lat="46.57872" lon="5.87558">
        <ele>965.9</ele>
        <time>2022-11-10T10:34:37Z</time>
      </trkpt>
      <trkpt lat="46.57867" lon="5.87559">
        <ele>965.4</ele>
        <time>2022-11-10T10:34:42Z</time>
      </trkpt>
      <trkpt lat="46.57863" lon="5.87555">
        <ele>964.7</ele>
        <time>2022-11-10T10:34:49Z</time>
      </trkpt>
      <trkpt lat="46.5786" lon="5.8755">
        <ele>964</ele>
        <time>2022-11-10T10:34:53Z</time>
      </trkpt>
      <trkpt lat="46.57862" lon="5.87543">
        <ele>963.5</ele>
        <time>2022-11-10T10:34:58Z</time>
      </trkpt>
      <trkpt lat="46.57862" lon="5.87536">
        <ele>963.3</ele>
        <time>2022-11-10T10:35:04Z</time>
      </trkpt>
      <trkpt lat="46.57857" lon="5.87533">
        <ele>963</ele>
        <time>2022-11-10T10:35:10Z</time>
      </trkpt>
      <trkpt lat="46.57853" lon="5.87529">
        <ele>962.9</ele>
        <time>2022-11-10T10:35:15Z</time>
      </trkpt>
      <trkpt lat="46.57848" lon="5.87529">
        <ele>963.3</ele>
        <time>2022-11-10T10:35:20Z</time>
      </trkpt>
      <trkpt lat="46.57843" lon="5.87527">
        <ele>963.8</ele>
        <time>2022-11-10T10:35:25Z</time>
      </trkpt>
      <trkpt lat="46.57839" lon="5.87523">
        <ele>963.8</ele>
        <time>2022-11-10T10:35:30Z</time>
      </trkpt>
      <trkpt lat="46.57834" lon="5.8752">
        <ele>962.9</ele>
        <time>2022-11-10T10:35:37Z</time>
      </trkpt>
      <trkpt lat="46.5783" lon="5.87522">
        <ele>960.2</ele>
        <time>2022-11-10T10:35:46Z</time>
      </trkpt>
      <trkpt lat="46.57825" lon="5.87521">
        <ele>959.3</ele>
        <time>2022-11-10T10:35:50Z</time>
      </trkpt>
      <trkpt lat="46.5782" lon="5.87518">
        <ele>958.6</ele>
        <time>2022-11-10T10:35:55Z</time>
      </trkpt>
      <trkpt lat="46.57815" lon="5.87517">
        <ele>958.4</ele>
        <time>2022-11-10T10:35:59Z</time>
      </trkpt>
      <trkpt lat="46.5781" lon="5.87514">
        <ele>957.6</ele>
        <time>2022-11-10T10:36:04Z</time>
      </trkpt>
      <trkpt lat="46.57806" lon="5.87517">
        <ele>956.1</ele>
        <time>2022-11-10T10:36:09Z</time>
      </trkpt>
      <trkpt lat="46.57801" lon="5.87518">
        <ele>955.1</ele>
        <time>2022-11-10T10:36:15Z</time>
      </trkpt>
      <trkpt lat="46.57797" lon="5.87512">
        <ele>955</ele>
        <time>2022-11-10T10:36:19Z</time>
      </trkpt>
      <trkpt lat="46.57797" lon="5.87505">
        <ele>954.7</ele>
        <time>2022-11-10T10:36:24Z</time>
      </trkpt>
      <trkpt lat="46.57799" lon="5.87498">
        <ele>954.5</ele>
        <time>2022-11-10T10:36:28Z</time>
      </trkpt>
      <trkpt lat="46.57803" lon="5.87495">
        <ele>954.3</ele>
        <time>2022-11-10T10:36:33Z</time>
      </trkpt>
      <trkpt lat="46.57807" lon="5.87491">
        <ele>954.2</ele>
        <time>2022-11-10T10:36:38Z</time>
      </trkpt>
      <trkpt lat="46.5781" lon="5.87486">
        <ele>953.4</ele>
        <time>2022-11-10T10:36:44Z</time>
      </trkpt>
      <trkpt lat="46.57811" lon="5.87479">
        <ele>951.1</ele>
        <time>2022-11-10T10:36:51Z</time>
      </trkpt>
      <trkpt lat="46.57814" lon="5.87474">
        <ele>948.9</ele>
        <time>2022-11-10T10:37:00Z</time>
      </trkpt>
      <trkpt lat="46.57819" lon="5.87471">
        <ele>947.3</ele>
        <time>2022-11-10T10:37:06Z</time>
      </trkpt>
      <trkpt lat="46.57825" lon="5.8747">
        <ele>947.1</ele>
        <time>2022-11-10T10:37:11Z</time>
      </trkpt>
      <trkpt lat="46.5783" lon="5.87473">
        <ele>947.9</ele>
        <time>2022-11-10T10:37:16Z</time>
      </trkpt>
      <trkpt lat="46.57836" lon="5.87473">
        <ele>949.3</ele>
        <time>2022-11-10T10:37:20Z</time>
      </trkpt>
      <trkpt lat="46.57841" lon="5.87473">
        <ele>950.6</ele>
        <time>2022-11-10T10:37:24Z</time>
      </trkpt>
      <trkpt lat="46.57846" lon="5.87473">
        <ele>953.1</ele>
        <time>2022-11-10T10:37:32Z</time>
      </trkpt>
      <trkpt lat="46.57851" lon="5.87471">
        <ele>955</ele>
        <time>2022-11-10T10:37:38Z</time>
      </trkpt>
      <trkpt lat="46.57856" lon="5.8747">
        <ele>955.7</ele>
        <time>2022-11-10T10:37:42Z</time>
      </trkpt>
      <trkpt lat="46.57859" lon="5.87464">
        <ele>956.1</ele>
        <time>2022-11-10T10:37:48Z</time>
      </trkpt>
      <trkpt lat="46.57862" lon="5.87457">
        <ele>956.4</ele>
        <time>2022-11-10T10:37:53Z</time>
      </trkpt>
      <trkpt lat="46.57866" lon="5.87451">
        <ele>957.2</ele>
        <time>2022-11-10T10:37:57Z</time>
      </trkpt>
      <trkpt lat="46.5787" lon="5.87447">
        <ele>958.5</ele>
        <time>2022-11-10T10:38:02Z</time>
      </trkpt>
      <trkpt lat="46.57874" lon="5.87442">
        <ele>960</ele>
        <time>2022-11-10T10:38:09Z</time>
      </trkpt>
      <trkpt lat="46.57878" lon="5.87438">
        <ele>960.2</ele>
        <time>2022-11-10T10:38:16Z</time>
      </trkpt>
      <trkpt lat="46.57883" lon="5.87435">
        <ele>958.5</ele>
        <time>2022-11-10T10:38:21Z</time>
      </trkpt>
      <trkpt lat="46.57887" lon="5.87432">
        <ele>957.2</ele>
        <time>2022-11-10T10:38:26Z</time>
      </trkpt>
      <trkpt lat="46.5789" lon="5.87427">
        <ele>954.7</ele>
        <time>2022-11-10T10:38:32Z</time>
      </trkpt>
      <trkpt lat="46.57894" lon="5.87422">
        <ele>951.7</ele>
        <time>2022-11-10T10:38:38Z</time>
      </trkpt>
      <trkpt lat="46.57898" lon="5.87419">
        <ele>950.2</ele>
        <time>2022-11-10T10:38:44Z</time>
      </trkpt>
      <trkpt lat="46.57902" lon="5.87416">
        <ele>948.5</ele>
        <time>2022-11-10T10:38:50Z</time>
      </trkpt>
      <trkpt lat="46.57906" lon="5.8741">
        <ele>945.5</ele>
        <time>2022-11-10T10:38:57Z</time>
      </trkpt>
      <trkpt lat="46.57907" lon="5.87404">
        <ele>943.1</ele>
        <time>2022-11-10T10:39:03Z</time>
      </trkpt>
      <trkpt lat="46.5791" lon="5.87398">
        <ele>941.4</ele>
        <time>2022-11-10T10:39:08Z</time>
      </trkpt>
      <trkpt lat="46.57911" lon="5.87391">
        <ele>940</ele>
        <time>2022-11-10T10:39:15Z</time>
      </trkpt>
      <trkpt lat="46.57911" lon="5.87383">
        <ele>939.5</ele>
        <time>2022-11-10T10:39:21Z</time>
      </trkpt>
      <trkpt lat="46.57912" lon="5.87377">
        <ele>939.8</ele>
        <time>2022-11-10T10:39:25Z</time>
      </trkpt>
      <trkpt lat="46.57913" lon="5.8737">
        <ele>940.4</ele>
        <time>2022-11-10T10:39:29Z</time>
      </trkpt>
      <trkpt lat="46.57917" lon="5.87365">
        <ele>941.7</ele>
        <time>2022-11-10T10:39:34Z</time>
      </trkpt>
      <trkpt lat="46.57921" lon="5.8736">
        <ele>943.1</ele>
        <time>2022-11-10T10:39:39Z</time>
      </trkpt>
      <trkpt lat="46.57926" lon="5.87358">
        <ele>944.3</ele>
        <time>2022-11-10T10:39:44Z</time>
      </trkpt>
      <trkpt lat="46.57927" lon="5.8735">
        <ele>945.4</ele>
        <time>2022-11-10T10:39:50Z</time>
      </trkpt>
      <trkpt lat="46.5793" lon="5.87345">
        <ele>947.4</ele>
        <time>2022-11-10T10:39:57Z</time>
      </trkpt>
      <trkpt lat="46.57934" lon="5.87342">
        <ele>948.1</ele>
        <time>2022-11-10T10:40:03Z</time>
      </trkpt>
      <trkpt lat="46.57937" lon="5.87337">
        <ele>948</ele>
        <time>2022-11-10T10:40:10Z</time>
      </trkpt>
      <trkpt lat="46.57935" lon="5.87329">
        <ele>945.7</ele>
        <time>2022-11-10T10:40:19Z</time>
      </trkpt>
      <trkpt lat="46.5794" lon="5.87326">
        <ele>943.8</ele>
        <time>2022-11-10T10:40:26Z</time>
      </trkpt>
      <trkpt lat="46.57944" lon="5.87326">
        <ele>942.1</ele>
        <time>2022-11-10T10:40:31Z</time>
      </trkpt>
      <trkpt lat="46.5795" lon="5.87328">
        <ele>938.4</ele>
        <time>2022-11-10T10:40:41Z</time>
      </trkpt>
      <trkpt lat="46.57954" lon="5.87332">
        <ele>937.6</ele>
        <time>2022-11-10T10:40:44Z</time>
      </trkpt>
      <trkpt lat="46.57959" lon="5.87333">
        <ele>936.7</ele>
        <time>2022-11-10T10:40:48Z</time>
      </trkpt>
      <trkpt lat="46.57964" lon="5.87333">
        <ele>935.8</ele>
        <time>2022-11-10T10:40:52Z</time>
      </trkpt>
      <trkpt lat="46.57969" lon="5.87334">
        <ele>934.8</ele>
        <time>2022-11-10T10:40:57Z</time>
      </trkpt>
      <trkpt lat="46.57974" lon="5.87336">
        <ele>933.2</ele>
        <time>2022-11-10T10:41:04Z</time>
      </trkpt>
      <trkpt lat="46.57978" lon="5.87336">
        <ele>931.6</ele>
        <time>2022-11-10T10:41:10Z</time>
      </trkpt>
      <trkpt lat="46.57983" lon="5.87336">
        <ele>929.9</ele>
        <time>2022-11-10T10:41:16Z</time>
      </trkpt>
      <trkpt lat="46.57988" lon="5.87333">
        <ele>926.6</ele>
        <time>2022-11-10T10:41:27Z</time>
      </trkpt>
      <trkpt lat="46.57993" lon="5.8733">
        <ele>924.6</ele>
        <time>2022-11-10T10:41:37Z</time>
      </trkpt>
      <trkpt lat="46.57998" lon="5.8733">
        <ele>921.9</ele>
        <time>2022-11-10T10:41:53Z</time>
      </trkpt>
      <trkpt lat="46.58" lon="5.87323">
        <ele>921.8</ele>
        <time>2022-11-10T10:42:08Z</time>
      </trkpt>
      <trkpt lat="46.58001" lon="5.87316">
        <ele>924</ele>
        <time>2022-11-10T10:42:15Z</time>
      </trkpt>
      <trkpt lat="46.58005" lon="5.87318">
        <ele>925.6</ele>
        <time>2022-11-10T10:42:23Z</time>
      </trkpt>
      <trkpt lat="46.58008" lon="5.87324">
        <ele>925.4</ele>
        <time>2022-11-10T10:42:28Z</time>
      </trkpt>
      <trkpt lat="46.58011" lon="5.87329">
        <ele>924.3</ele>
        <time>2022-11-10T10:42:33Z</time>
      </trkpt>
      <trkpt lat="46.58015" lon="5.87332">
        <ele>923.1</ele>
        <time>2022-11-10T10:42:39Z</time>
      </trkpt>
      <trkpt lat="46.5802" lon="5.87332">
        <ele>921.6</ele>
        <time>2022-11-10T10:42:48Z</time>
      </trkpt>
      <trkpt lat="46.58025" lon="5.87334">
        <ele>921.5</ele>
        <time>2022-11-10T10:42:53Z</time>
      </trkpt>
      <trkpt lat="46.58029" lon="5.87337">
        <ele>921.6</ele>
        <time>2022-11-10T10:42:57Z</time>
      </trkpt>
      <trkpt lat="46.58034" lon="5.87339">
        <ele>921.5</ele>
        <time>2022-11-10T10:43:02Z</time>
      </trkpt>
      <trkpt lat="46.58037" lon="5.87345">
        <ele>921.6</ele>
        <time>2022-11-10T10:43:09Z</time>
      </trkpt>
      <trkpt lat="46.58042" lon="5.87347">
        <ele>921.1</ele>
        <time>2022-11-10T10:43:17Z</time>
      </trkpt>
      <trkpt lat="46.58047" lon="5.87347">
        <ele>919.8</ele>
        <time>2022-11-10T10:43:25Z</time>
      </trkpt>
      <trkpt lat="46.58053" lon="5.87349">
        <ele>918.7</ele>
        <time>2022-11-10T10:43:29Z</time>
      </trkpt>
      <trkpt lat="46.58057" lon="5.87353">
        <ele>917.7</ele>
        <time>2022-11-10T10:43:33Z</time>
      </trkpt>
      <trkpt lat="46.58062" lon="5.87355">
        <ele>916.3</ele>
        <time>2022-11-10T10:43:38Z</time>
      </trkpt>
      <trkpt lat="46.58066" lon="5.8736">
        <ele>915.2</ele>
        <time>2022-11-10T10:43:43Z</time>
      </trkpt>
      <trkpt lat="46.58071" lon="5.87363">
        <ele>914.5</ele>
        <time>2022-11-10T10:43:47Z</time>
      </trkpt>
      <trkpt lat="46.58076" lon="5.87364">
        <ele>914</ele>
        <time>2022-11-10T10:43:52Z</time>
      </trkpt>
      <trkpt lat="46.58081" lon="5.87363">
        <ele>913.9</ele>
        <time>2022-11-10T10:43:58Z</time>
      </trkpt>
      <trkpt lat="46.58085" lon="5.87366">
        <ele>914.2</ele>
        <time>2022-11-10T10:44:06Z</time>
      </trkpt>
      <trkpt lat="46.58091" lon="5.87366">
        <ele>914.5</ele>
        <time>2022-11-10T10:44:18Z</time>
      </trkpt>
      <trkpt lat="46.58096" lon="5.87367">
        <ele>914.7</ele>
        <time>2022-11-10T10:44:21Z</time>
      </trkpt>
      <trkpt lat="46.58101" lon="5.87371">
        <ele>915</ele>
        <time>2022-11-10T10:44:25Z</time>
      </trkpt>
      <trkpt lat="46.58105" lon="5.87375">
        <ele>915</ele>
        <time>2022-11-10T10:44:29Z</time>
      </trkpt>
      <trkpt lat="46.5811" lon="5.87377">
        <ele>914.9</ele>
        <time>2022-11-10T10:44:35Z</time>
      </trkpt>
      <trkpt lat="46.58115" lon="5.87378">
        <ele>914.4</ele>
        <time>2022-11-10T10:44:43Z</time>
      </trkpt>
      <trkpt lat="46.5812" lon="5.87379">
        <ele>913.4</ele>
        <time>2022-11-10T10:44:49Z</time>
      </trkpt>
      <trkpt lat="46.58125" lon="5.87382">
        <ele>912.4</ele>
        <time>2022-11-10T10:44:54Z</time>
      </trkpt>
      <trkpt lat="46.58129" lon="5.87386">
        <ele>911.6</ele>
        <time>2022-11-10T10:45:00Z</time>
      </trkpt>
      <trkpt lat="46.58133" lon="5.87389">
        <ele>911.3</ele>
        <time>2022-11-10T10:45:05Z</time>
      </trkpt>
      <trkpt lat="46.58138" lon="5.8739">
        <ele>911</ele>
        <time>2022-11-10T10:45:10Z</time>
      </trkpt>
      <trkpt lat="46.58143" lon="5.87393">
        <ele>910.7</ele>
        <time>2022-11-10T10:45:15Z</time>
      </trkpt>
      <trkpt lat="46.58148" lon="5.87395">
        <ele>910.5</ele>
        <time>2022-11-10T10:45:21Z</time>
      </trkpt>
      <trkpt lat="46.58152" lon="5.87398">
        <ele>909.5</ele>
        <time>2022-11-10T10:45:29Z</time>
      </trkpt>
      <trkpt lat="46.58155" lon="5.87402">
        <ele>908.9</ele>
        <time>2022-11-10T10:45:36Z</time>
      </trkpt>
      <trkpt lat="46.5816" lon="5.87405">
        <ele>908.1</ele>
        <time>2022-11-10T10:45:45Z</time>
      </trkpt>
      <trkpt lat="46.58165" lon="5.87405">
        <ele>907.4</ele>
        <time>2022-11-10T10:45:51Z</time>
      </trkpt>
      <trkpt lat="46.5817" lon="5.87408">
        <ele>906.6</ele>
        <time>2022-11-10T10:45:59Z</time>
      </trkpt>
      <trkpt lat="46.58173" lon="5.87412">
        <ele>905.4</ele>
        <time>2022-11-10T10:46:04Z</time>
      </trkpt>
      <trkpt lat="46.58178" lon="5.87416">
        <ele>904.1</ele>
        <time>2022-11-10T10:46:11Z</time>
      </trkpt>
      <trkpt lat="46.58181" lon="5.87421">
        <ele>902</ele>
        <time>2022-11-10T10:46:19Z</time>
      </trkpt>
      <trkpt lat="46.58185" lon="5.87425">
        <ele>900.5</ele>
        <time>2022-11-10T10:46:24Z</time>
      </trkpt>
      <trkpt lat="46.58189" lon="5.8743">
        <ele>899.6</ele>
        <time>2022-11-10T10:46:29Z</time>
      </trkpt>
      <trkpt lat="46.58189" lon="5.87438">
        <ele>899</ele>
        <time>2022-11-10T10:46:35Z</time>
      </trkpt>
      <trkpt lat="46.58192" lon="5.87444">
        <ele>899.1</ele>
        <time>2022-11-10T10:46:41Z</time>
      </trkpt>
      <trkpt lat="46.58195" lon="5.87449">
        <ele>899.5</ele>
        <time>2022-11-10T10:46:47Z</time>
      </trkpt>
      <trkpt lat="46.58199" lon="5.87453">
        <ele>899.9</ele>
        <time>2022-11-10T10:46:53Z</time>
      </trkpt>
      <trkpt lat="46.58203" lon="5.87459">
        <ele>899.6</ele>
        <time>2022-11-10T10:47:00Z</time>
      </trkpt>
      <trkpt lat="46.58207" lon="5.87462">
        <ele>899.1</ele>
        <time>2022-11-10T10:47:05Z</time>
      </trkpt>
      <trkpt lat="46.58211" lon="5.87468">
        <ele>898</ele>
        <time>2022-11-10T10:47:13Z</time>
      </trkpt>
      <trkpt lat="46.58214" lon="5.87473">
        <ele>897.6</ele>
        <time>2022-11-10T10:47:20Z</time>
      </trkpt>
      <trkpt lat="46.58219" lon="5.87477">
        <ele>897.5</ele>
        <time>2022-11-10T10:47:25Z</time>
      </trkpt>
      <trkpt lat="46.58222" lon="5.87484">
        <ele>897.2</ele>
        <time>2022-11-10T10:47:30Z</time>
      </trkpt>
      <trkpt lat="46.58225" lon="5.87489">
        <ele>897.6</ele>
        <time>2022-11-10T10:47:34Z</time>
      </trkpt>
      <trkpt lat="46.5823" lon="5.87492">
        <ele>898.2</ele>
        <time>2022-11-10T10:47:38Z</time>
      </trkpt>
      <trkpt lat="46.58234" lon="5.87497">
        <ele>899.5</ele>
        <time>2022-11-10T10:47:42Z</time>
      </trkpt>
      <trkpt lat="46.58239" lon="5.87502">
        <ele>901.5</ele>
        <time>2022-11-10T10:47:46Z</time>
      </trkpt>
      <trkpt lat="46.58243" lon="5.87506">
        <ele>903.4</ele>
        <time>2022-11-10T10:47:50Z</time>
      </trkpt>
      <trkpt lat="46.58248" lon="5.87508">
        <ele>905.5</ele>
        <time>2022-11-10T10:47:54Z</time>
      </trkpt>
      <trkpt lat="46.58252" lon="5.87512">
        <ele>908.3</ele>
        <time>2022-11-10T10:47:59Z</time>
      </trkpt>
      <trkpt lat="46.58256" lon="5.87517">
        <ele>911.3</ele>
        <time>2022-11-10T10:48:05Z</time>
      </trkpt>
      <trkpt lat="46.58261" lon="5.87519">
        <ele>912.4</ele>
        <time>2022-11-10T10:48:14Z</time>
      </trkpt>
      <trkpt lat="46.58265" lon="5.87523">
        <ele>912.3</ele>
        <time>2022-11-10T10:48:19Z</time>
      </trkpt>
      <trkpt lat="46.58269" lon="5.87527">
        <ele>912.3</ele>
        <time>2022-11-10T10:48:24Z</time>
      </trkpt>
      <trkpt lat="46.58274" lon="5.87529">
        <ele>911.7</ele>
        <time>2022-11-10T10:48:30Z</time>
      </trkpt>
      <trkpt lat="46.58278" lon="5.87535">
        <ele>910.7</ele>
        <time>2022-11-10T10:48:39Z</time>
      </trkpt>
      <trkpt lat="46.5828" lon="5.8754">
        <ele>909.9</ele>
        <time>2022-11-10T10:48:45Z</time>
      </trkpt>
      <trkpt lat="46.58281" lon="5.87547">
        <ele>908.8</ele>
        <time>2022-11-10T10:48:53Z</time>
      </trkpt>
      <trkpt lat="46.58283" lon="5.87553">
        <ele>904.3</ele>
        <time>2022-11-10T10:49:08Z</time>
      </trkpt>
      <trkpt lat="46.58286" lon="5.87558">
        <ele>902.2</ele>
        <time>2022-11-10T10:49:13Z</time>
      </trkpt>
      <trkpt lat="46.58289" lon="5.87563">
        <ele>899.6</ele>
        <time>2022-11-10T10:49:20Z</time>
      </trkpt>
      <trkpt lat="46.58293" lon="5.87566">
        <ele>897.4</ele>
        <time>2022-11-10T10:49:27Z</time>
      </trkpt>
      <trkpt lat="46.58297" lon="5.87569">
        <ele>895.3</ele>
        <time>2022-11-10T10:49:32Z</time>
      </trkpt>
      <trkpt lat="46.58302" lon="5.87573">
        <ele>892.2</ele>
        <time>2022-11-10T10:49:40Z</time>
      </trkpt>
      <trkpt lat="46.58306" lon="5.87576">
        <ele>890.1</ele>
        <time>2022-11-10T10:49:46Z</time>
      </trkpt>
      <trkpt lat="46.5831" lon="5.87579">
        <ele>888.5</ele>
        <time>2022-11-10T10:49:52Z</time>
      </trkpt>
      <trkpt lat="46.58312" lon="5.87585">
        <ele>885.6</ele>
        <time>2022-11-10T10:49:59Z</time>
      </trkpt>
      <trkpt lat="46.58316" lon="5.87591">
        <ele>881.6</ele>
        <time>2022-11-10T10:50:05Z</time>
      </trkpt>
      <trkpt lat="46.5832" lon="5.87594">
        <ele>879.4</ele>
        <time>2022-11-10T10:50:09Z</time>
      </trkpt>
      <trkpt lat="46.58324" lon="5.87598">
        <ele>877.5</ele>
        <time>2022-11-10T10:50:13Z</time>
      </trkpt>
      <trkpt lat="46.58329" lon="5.87601">
        <ele>875.9</ele>
        <time>2022-11-10T10:50:18Z</time>
      </trkpt>
      <trkpt lat="46.58334" lon="5.87602">
        <ele>874.8</ele>
        <time>2022-11-10T10:50:24Z</time>
      </trkpt>
      <trkpt lat="46.58338" lon="5.87607">
        <ele>874.2</ele>
        <time>2022-11-10T10:50:31Z</time>
      </trkpt>
      <trkpt lat="46.58341" lon="5.87613">
        <ele>873.3</ele>
        <time>2022-11-10T10:50:42Z</time>
      </trkpt>
      <trkpt lat="46.58346" lon="5.87616">
        <ele>872.6</ele>
        <time>2022-11-10T10:50:48Z</time>
      </trkpt>
      <trkpt lat="46.58351" lon="5.87618">
        <ele>871.8</ele>
        <time>2022-11-10T10:50:52Z</time>
      </trkpt>
      <trkpt lat="46.58355" lon="5.87621">
        <ele>871.1</ele>
        <time>2022-11-10T10:50:55Z</time>
      </trkpt>
      <trkpt lat="46.5836" lon="5.87623">
        <ele>869.7</ele>
        <time>2022-11-10T10:51:01Z</time>
      </trkpt>
      <trkpt lat="46.58363" lon="5.87627">
        <ele>867.6</ele>
        <time>2022-11-10T10:51:09Z</time>
      </trkpt>
      <trkpt lat="46.58368" lon="5.87628">
        <ele>863.8</ele>
        <time>2022-11-10T10:51:19Z</time>
      </trkpt>
      <trkpt lat="46.58373" lon="5.8763">
        <ele>861.1</ele>
        <time>2022-11-10T10:51:25Z</time>
      </trkpt>
      <trkpt lat="46.58378" lon="5.8763">
        <ele>858.6</ele>
        <time>2022-11-10T10:51:31Z</time>
      </trkpt>
      <trkpt lat="46.58382" lon="5.87631">
        <ele>855.9</ele>
        <time>2022-11-10T10:51:39Z</time>
      </trkpt>
      <trkpt lat="46.58387" lon="5.87629">
        <ele>853.9</ele>
        <time>2022-11-10T10:51:46Z</time>
      </trkpt>
      <trkpt lat="46.58391" lon="5.87629">
        <ele>853.1</ele>
        <time>2022-11-10T10:51:50Z</time>
      </trkpt>
      <trkpt lat="46.58396" lon="5.8763">
        <ele>852.7</ele>
        <time>2022-11-10T10:51:55Z</time>
      </trkpt>
      <trkpt lat="46.58402" lon="5.87631">
        <ele>852.8</ele>
        <time>2022-11-10T10:52:01Z</time>
      </trkpt>
      <trkpt lat="46.58407" lon="5.87631">
        <ele>853.2</ele>
        <time>2022-11-10T10:52:05Z</time>
      </trkpt>
      <trkpt lat="46.58412" lon="5.87631">
        <ele>853.2</ele>
        <time>2022-11-10T10:52:10Z</time>
      </trkpt>
      <trkpt lat="46.58416" lon="5.87633">
        <ele>852.8</ele>
        <time>2022-11-10T10:52:17Z</time>
      </trkpt>
      <trkpt lat="46.58421" lon="5.87634">
        <ele>850.6</ele>
        <time>2022-11-10T10:52:25Z</time>
      </trkpt>
      <trkpt lat="46.58426" lon="5.87637">
        <ele>848.9</ele>
        <time>2022-11-10T10:52:33Z</time>
      </trkpt>
      <trkpt lat="46.5843" lon="5.87641">
        <ele>847.8</ele>
        <time>2022-11-10T10:52:39Z</time>
      </trkpt>
      <trkpt lat="46.58435" lon="5.8764">
        <ele>847.1</ele>
        <time>2022-11-10T10:52:44Z</time>
      </trkpt>
      <trkpt lat="46.58439" lon="5.87637">
        <ele>847.1</ele>
        <time>2022-11-10T10:52:49Z</time>
      </trkpt>
      <trkpt lat="46.58444" lon="5.87637">
        <ele>847.7</ele>
        <time>2022-11-10T10:52:57Z</time>
      </trkpt>
      <trkpt lat="46.58449" lon="5.87638">
        <ele>848.5</ele>
        <time>2022-11-10T10:53:02Z</time>
      </trkpt>
      <trkpt lat="46.58454" lon="5.87639">
        <ele>849.2</ele>
        <time>2022-11-10T10:53:07Z</time>
      </trkpt>
      <trkpt lat="46.58459" lon="5.8764">
        <ele>849.1</ele>
        <time>2022-11-10T10:53:12Z</time>
      </trkpt>
      <trkpt lat="46.58464" lon="5.87642">
        <ele>848.8</ele>
        <time>2022-11-10T10:53:16Z</time>
      </trkpt>
      <trkpt lat="46.58469" lon="5.87644">
        <ele>848.3</ele>
        <time>2022-11-10T10:53:21Z</time>
      </trkpt>
      <trkpt lat="46.58474" lon="5.87644">
        <ele>847.7</ele>
        <time>2022-11-10T10:53:25Z</time>
      </trkpt>
      <trkpt lat="46.58479" lon="5.87646">
        <ele>846.7</ele>
        <time>2022-11-10T10:53:30Z</time>
      </trkpt>
      <trkpt lat="46.58484" lon="5.87647">
        <ele>845.8</ele>
        <time>2022-11-10T10:53:36Z</time>
      </trkpt>
      <trkpt lat="46.58489" lon="5.87646">
        <ele>844.4</ele>
        <time>2022-11-10T10:53:43Z</time>
      </trkpt>
      <trkpt lat="46.58493" lon="5.87643">
        <ele>842.4</ele>
        <time>2022-11-10T10:53:50Z</time>
      </trkpt>
      <trkpt lat="46.58498" lon="5.87643">
        <ele>839.7</ele>
        <time>2022-11-10T10:53:58Z</time>
      </trkpt>
      <trkpt lat="46.58503" lon="5.87644">
        <ele>837.1</ele>
        <time>2022-11-10T10:54:05Z</time>
      </trkpt>
      <trkpt lat="46.58508" lon="5.87644">
        <ele>835.1</ele>
        <time>2022-11-10T10:54:13Z</time>
      </trkpt>
      <trkpt lat="46.58512" lon="5.87642">
        <ele>833.2</ele>
        <time>2022-11-10T10:54:18Z</time>
      </trkpt>
      <trkpt lat="46.58517" lon="5.87643">
        <ele>831.1</ele>
        <time>2022-11-10T10:54:24Z</time>
      </trkpt>
      <trkpt lat="46.58522" lon="5.87645">
        <ele>829.1</ele>
        <time>2022-11-10T10:54:30Z</time>
      </trkpt>
      <trkpt lat="46.58527" lon="5.87646">
        <ele>827.6</ele>
        <time>2022-11-10T10:54:37Z</time>
      </trkpt>
      <trkpt lat="46.58532" lon="5.87647">
        <ele>826.8</ele>
        <time>2022-11-10T10:54:42Z</time>
      </trkpt>
      <trkpt lat="46.58536" lon="5.87648">
        <ele>825.9</ele>
        <time>2022-11-10T10:54:47Z</time>
      </trkpt>
      <trkpt lat="46.58542" lon="5.8765">
        <ele>825.1</ele>
        <time>2022-11-10T10:54:52Z</time>
      </trkpt>
      <trkpt lat="46.58546" lon="5.87652">
        <ele>824.4</ele>
        <time>2022-11-10T10:54:56Z</time>
      </trkpt>
      <trkpt lat="46.58551" lon="5.87654">
        <ele>823.8</ele>
        <time>2022-11-10T10:55:01Z</time>
      </trkpt>
      <trkpt lat="46.58556" lon="5.87653">
        <ele>823.1</ele>
        <time>2022-11-10T10:55:07Z</time>
      </trkpt>
      <trkpt lat="46.5856" lon="5.87656">
        <ele>822.5</ele>
        <time>2022-11-10T10:55:13Z</time>
      </trkpt>
      <trkpt lat="46.58565" lon="5.87657">
        <ele>822.7</ele>
        <time>2022-11-10T10:55:20Z</time>
      </trkpt>
      <trkpt lat="46.58569" lon="5.87654">
        <ele>822.6</ele>
        <time>2022-11-10T10:55:25Z</time>
      </trkpt>
      <trkpt lat="46.58574" lon="5.87653">
        <ele>822.6</ele>
        <time>2022-11-10T10:55:30Z</time>
      </trkpt>
      <trkpt lat="46.58579" lon="5.87652">
        <ele>822.3</ele>
        <time>2022-11-10T10:55:34Z</time>
      </trkpt>
      <trkpt lat="46.58584" lon="5.8765">
        <ele>821.9</ele>
        <time>2022-11-10T10:55:42Z</time>
      </trkpt>
      <trkpt lat="46.58589" lon="5.87648">
        <ele>821.9</ele>
        <time>2022-11-10T10:55:48Z</time>
      </trkpt>
      <trkpt lat="46.58593" lon="5.87651">
        <ele>821.2</ele>
        <time>2022-11-10T10:55:54Z</time>
      </trkpt>
      <trkpt lat="46.58598" lon="5.87653">
        <ele>820.2</ele>
        <time>2022-11-10T10:56:01Z</time>
      </trkpt>
      <trkpt lat="46.58603" lon="5.87654">
        <ele>819</ele>
        <time>2022-11-10T10:56:07Z</time>
      </trkpt>
      <trkpt lat="46.58608" lon="5.87655">
        <ele>818.4</ele>
        <time>2022-11-10T10:56:12Z</time>
      </trkpt>
      <trkpt lat="46.58613" lon="5.87655">
        <ele>818.5</ele>
        <time>2022-11-10T10:56:17Z</time>
      </trkpt>
      <trkpt lat="46.58618" lon="5.87657">
        <ele>819.8</ele>
        <time>2022-11-10T10:56:24Z</time>
      </trkpt>
      <trkpt lat="46.58622" lon="5.87653">
        <ele>820.9</ele>
        <time>2022-11-10T10:56:33Z</time>
      </trkpt>
      <trkpt lat="46.5863" lon="5.87652">
        <ele>822.1</ele>
        <time>2022-11-10T10:56:47Z</time>
      </trkpt>
      <trkpt lat="46.58635" lon="5.87652">
        <ele>821.8</ele>
        <time>2022-11-10T10:56:50Z</time>
      </trkpt>
      <trkpt lat="46.5864" lon="5.87653">
        <ele>820.7</ele>
        <time>2022-11-10T10:56:55Z</time>
      </trkpt>
      <trkpt lat="46.58646" lon="5.87652">
        <ele>817.2</ele>
        <time>2022-11-10T10:57:04Z</time>
      </trkpt>
      <trkpt lat="46.58651" lon="5.87651">
        <ele>815.6</ele>
        <time>2022-11-10T10:57:08Z</time>
      </trkpt>
      <trkpt lat="46.58656" lon="5.87651">
        <ele>814.6</ele>
        <time>2022-11-10T10:57:11Z</time>
      </trkpt>
      <trkpt lat="46.58661" lon="5.87651">
        <ele>813.6</ele>
        <time>2022-11-10T10:57:14Z</time>
      </trkpt>
      <trkpt lat="46.58666" lon="5.87649">
        <ele>811.8</ele>
        <time>2022-11-10T10:57:19Z</time>
      </trkpt>
      <trkpt lat="46.5867" lon="5.87648">
        <ele>809.4</ele>
        <time>2022-11-10T10:57:27Z</time>
      </trkpt>
      <trkpt lat="46.58675" lon="5.8765">
        <ele>807.3</ele>
        <time>2022-11-10T10:57:34Z</time>
      </trkpt>
      <trkpt lat="46.5868" lon="5.87648">
        <ele>805.7</ele>
        <time>2022-11-10T10:57:40Z</time>
      </trkpt>
      <trkpt lat="46.58684" lon="5.87646">
        <ele>805.1</ele>
        <time>2022-11-10T10:57:45Z</time>
      </trkpt>
      <trkpt lat="46.58689" lon="5.87644">
        <ele>804.7</ele>
        <time>2022-11-10T10:57:52Z</time>
      </trkpt>
      <trkpt lat="46.58693" lon="5.87644">
        <ele>805</ele>
        <time>2022-11-10T10:57:58Z</time>
      </trkpt>
      <trkpt lat="46.58699" lon="5.87644">
        <ele>805.5</ele>
        <time>2022-11-10T10:58:03Z</time>
      </trkpt>
      <trkpt lat="46.58704" lon="5.87644">
        <ele>805.9</ele>
        <time>2022-11-10T10:58:08Z</time>
      </trkpt>
      <trkpt lat="46.58709" lon="5.87645">
        <ele>806.7</ele>
        <time>2022-11-10T10:58:14Z</time>
      </trkpt>
      <trkpt lat="46.58714" lon="5.87647">
        <ele>806.9</ele>
        <time>2022-11-10T10:58:18Z</time>
      </trkpt>
      <trkpt lat="46.58718" lon="5.87651">
        <ele>806.1</ele>
        <time>2022-11-10T10:58:24Z</time>
      </trkpt>
      <trkpt lat="46.58723" lon="5.87653">
        <ele>805.6</ele>
        <time>2022-11-10T10:58:28Z</time>
      </trkpt>
      <trkpt lat="46.58727" lon="5.87654">
        <ele>805.4</ele>
        <time>2022-11-10T10:58:32Z</time>
      </trkpt>
      <trkpt lat="46.58732" lon="5.8765">
        <ele>805.5</ele>
        <time>2022-11-10T10:58:37Z</time>
      </trkpt>
      <trkpt lat="46.58736" lon="5.87647">
        <ele>805.5</ele>
        <time>2022-11-10T10:58:42Z</time>
      </trkpt>
      <trkpt lat="46.58741" lon="5.87648">
        <ele>805.7</ele>
        <time>2022-11-10T10:58:47Z</time>
      </trkpt>
      <trkpt lat="46.58746" lon="5.87651">
        <ele>805.5</ele>
        <time>2022-11-10T10:58:52Z</time>
      </trkpt>
      <trkpt lat="46.58751" lon="5.8765">
        <ele>805.1</ele>
        <time>2022-11-10T10:58:58Z</time>
      </trkpt>
      <trkpt lat="46.58756" lon="5.87652">
        <ele>804.1</ele>
        <time>2022-11-10T10:59:03Z</time>
      </trkpt>
      <trkpt lat="46.58761" lon="5.87651">
        <ele>803</ele>
        <time>2022-11-10T10:59:08Z</time>
      </trkpt>
      <trkpt lat="46.58765" lon="5.87647">
        <ele>801.2</ele>
        <time>2022-11-10T10:59:15Z</time>
      </trkpt>
      <trkpt lat="46.58766" lon="5.8764">
        <ele>799.7</ele>
        <time>2022-11-10T10:59:45Z</time>
      </trkpt>
      <trkpt lat="46.58772" lon="5.87642">
        <ele>798.3</ele>
        <time>2022-11-10T10:59:53Z</time>
      </trkpt>
      <trkpt lat="46.58776" lon="5.87643">
        <ele>797.1</ele>
        <time>2022-11-10T10:59:58Z</time>
      </trkpt>
      <trkpt lat="46.58781" lon="5.87642">
        <ele>796.4</ele>
        <time>2022-11-10T11:00:02Z</time>
      </trkpt>
      <trkpt lat="46.58787" lon="5.87642">
        <ele>795.9</ele>
        <time>2022-11-10T11:00:05Z</time>
      </trkpt>
      <trkpt lat="46.58791" lon="5.87642">
        <ele>795.7</ele>
        <time>2022-11-10T11:00:09Z</time>
      </trkpt>
      <trkpt lat="46.58796" lon="5.87643">
        <ele>795.5</ele>
        <time>2022-11-10T11:00:14Z</time>
      </trkpt>
      <trkpt lat="46.58801" lon="5.87641">
        <ele>795.7</ele>
        <time>2022-11-10T11:00:20Z</time>
      </trkpt>
      <trkpt lat="46.58807" lon="5.87641">
        <ele>796.6</ele>
        <time>2022-11-10T11:00:25Z</time>
      </trkpt>
      <trkpt lat="46.58812" lon="5.8764">
        <ele>797.4</ele>
        <time>2022-11-10T11:00:30Z</time>
      </trkpt>
      <trkpt lat="46.58817" lon="5.87639">
        <ele>797.4</ele>
        <time>2022-11-10T11:00:35Z</time>
      </trkpt>
      <trkpt lat="46.58821" lon="5.87638">
        <ele>797.5</ele>
        <time>2022-11-10T11:00:40Z</time>
      </trkpt>
      <trkpt lat="46.58827" lon="5.87639">
        <ele>797.6</ele>
        <time>2022-11-10T11:00:45Z</time>
      </trkpt>
      <trkpt lat="46.58832" lon="5.87639">
        <ele>797.3</ele>
        <time>2022-11-10T11:00:49Z</time>
      </trkpt>
      <trkpt lat="46.58836" lon="5.87638">
        <ele>796.6</ele>
        <time>2022-11-10T11:00:53Z</time>
      </trkpt>
      <trkpt lat="46.58842" lon="5.87637">
        <ele>795.5</ele>
        <time>2022-11-10T11:00:59Z</time>
      </trkpt>
      <trkpt lat="46.58847" lon="5.87635">
        <ele>795.1</ele>
        <time>2022-11-10T11:01:05Z</time>
      </trkpt>
      <trkpt lat="46.58852" lon="5.87635">
        <ele>794.7</ele>
        <time>2022-11-10T11:01:10Z</time>
      </trkpt>
      <trkpt lat="46.58857" lon="5.87634">
        <ele>793.6</ele>
        <time>2022-11-10T11:01:16Z</time>
      </trkpt>
      <trkpt lat="46.58862" lon="5.87634">
        <ele>792.2</ele>
        <time>2022-11-10T11:01:22Z</time>
      </trkpt>
      <trkpt lat="46.58867" lon="5.87632">
        <ele>791.9</ele>
        <time>2022-11-10T11:01:26Z</time>
      </trkpt>
      <trkpt lat="46.58871" lon="5.8763">
        <ele>791.8</ele>
        <time>2022-11-10T11:01:31Z</time>
      </trkpt>
      <trkpt lat="46.58877" lon="5.87628">
        <ele>791.6</ele>
        <time>2022-11-10T11:01:35Z</time>
      </trkpt>
      <trkpt lat="46.58881" lon="5.87627">
        <ele>791.2</ele>
        <time>2022-11-10T11:01:40Z</time>
      </trkpt>
      <trkpt lat="46.58887" lon="5.87628">
        <ele>790.2</ele>
        <time>2022-11-10T11:01:45Z</time>
      </trkpt>
      <trkpt lat="46.58892" lon="5.87627">
        <ele>789.3</ele>
        <time>2022-11-10T11:01:49Z</time>
      </trkpt>
      <trkpt lat="46.58896" lon="5.87624">
        <ele>788.5</ele>
        <time>2022-11-10T11:01:53Z</time>
      </trkpt>
      <trkpt lat="46.58901" lon="5.87622">
        <ele>788.7</ele>
        <time>2022-11-10T11:01:58Z</time>
      </trkpt>
      <trkpt lat="46.58905" lon="5.87618">
        <ele>788.7</ele>
        <time>2022-11-10T11:02:03Z</time>
      </trkpt>
      <trkpt lat="46.58908" lon="5.87613">
        <ele>788.3</ele>
        <time>2022-11-10T11:02:07Z</time>
      </trkpt>
      <trkpt lat="46.58911" lon="5.87608">
        <ele>787.9</ele>
        <time>2022-11-10T11:02:12Z</time>
      </trkpt>
      <trkpt lat="46.58916" lon="5.87608">
        <ele>787.5</ele>
        <time>2022-11-10T11:02:17Z</time>
      </trkpt>
      <trkpt lat="46.58921" lon="5.87608">
        <ele>787.3</ele>
        <time>2022-11-10T11:02:22Z</time>
      </trkpt>
      <trkpt lat="46.58925" lon="5.87605">
        <ele>787.4</ele>
        <time>2022-11-10T11:02:27Z</time>
      </trkpt>
      <trkpt lat="46.58923" lon="5.87599">
        <ele>786.2</ele>
        <time>2022-11-10T11:02:40Z</time>
      </trkpt>
      <trkpt lat="46.58918" lon="5.87602">
        <ele>784.7</ele>
        <time>2022-11-10T11:02:56Z</time>
      </trkpt>
      <trkpt lat="46.58914" lon="5.87599">
        <ele>783.8</ele>
        <time>2022-11-10T11:03:01Z</time>
      </trkpt>
      <trkpt lat="46.5891" lon="5.87595">
        <ele>783.7</ele>
        <time>2022-11-10T11:03:05Z</time>
      </trkpt>
      <trkpt lat="46.58905" lon="5.87591">
        <ele>783.7</ele>
        <time>2022-11-10T11:03:09Z</time>
      </trkpt>
      <trkpt lat="46.58905" lon="5.87584">
        <ele>783</ele>
        <time>2022-11-10T11:03:15Z</time>
      </trkpt>
      <trkpt lat="46.58908" lon="5.87579">
        <ele>782.8</ele>
        <time>2022-11-10T11:03:20Z</time>
      </trkpt>
      <trkpt lat="46.58912" lon="5.87574">
        <ele>783.1</ele>
        <time>2022-11-10T11:03:25Z</time>
      </trkpt>
      <trkpt lat="46.58916" lon="5.87578">
        <ele>782.6</ele>
        <time>2022-11-10T11:03:58Z</time>
      </trkpt>
      <trkpt lat="46.58915" lon="5.87585">
        <ele>782.1</ele>
        <time>2022-11-10T11:04:01Z</time>
      </trkpt>
      <trkpt lat="46.58913" lon="5.87591">
        <ele>781.8</ele>
        <time>2022-11-10T11:04:08Z</time>
      </trkpt>
      <trkpt lat="46.58909" lon="5.87595">
        <ele>782</ele>
        <time>2022-11-10T11:04:13Z</time>
      </trkpt>
      <trkpt lat="46.58905" lon="5.87599">
        <ele>782</ele>
        <time>2022-11-10T11:04:19Z</time>
      </trkpt>
      <trkpt lat="46.589" lon="5.87599">
        <ele>782.6</ele>
        <time>2022-11-10T11:04:25Z</time>
      </trkpt>
      <trkpt lat="46.58897" lon="5.87594">
        <ele>783</ele>
        <time>2022-11-10T11:04:32Z</time>
      </trkpt>
      <trkpt lat="46.58893" lon="5.87598">
        <ele>782.9</ele>
        <time>2022-11-10T11:05:12Z</time>
      </trkpt>
      <trkpt lat="46.58888" lon="5.87598">
        <ele>783.5</ele>
        <time>2022-11-10T11:05:21Z</time>
      </trkpt>
      <trkpt lat="46.58885" lon="5.87594">
        <ele>783.8</ele>
        <time>2022-11-10T11:05:27Z</time>
      </trkpt>
      <trkpt lat="46.58884" lon="5.87602">
        <ele>783.3</ele>
        <time>2022-11-10T11:05:55Z</time>
      </trkpt>
      <trkpt lat="46.5888" lon="5.87607">
        <ele>782.1</ele>
        <time>2022-11-10T11:06:03Z</time>
      </trkpt>
      <trkpt lat="46.58877" lon="5.87613">
        <ele>781.8</ele>
        <time>2022-11-10T11:06:09Z</time>
      </trkpt>
      <trkpt lat="46.58872" lon="5.87612">
        <ele>780.8</ele>
        <time>2022-11-10T11:06:15Z</time>
      </trkpt>
      <trkpt lat="46.58868" lon="5.87611">
        <ele>779.7</ele>
        <time>2022-11-10T11:06:40Z</time>
      </trkpt>
      <trkpt lat="46.58871" lon="5.87607">
        <ele>781.3</ele>
        <time>2022-11-10T11:06:54Z</time>
      </trkpt>
      <trkpt lat="46.58874" lon="5.87599">
        <ele>788.3</ele>
        <time>2022-11-10T11:10:23Z</time>
      </trkpt>
      <trkpt lat="46.58875" lon="5.87592">
        <ele>794</ele>
        <time>2022-11-10T11:10:27Z</time>
      </trkpt>
      <trkpt lat="46.58875" lon="5.87585">
        <ele>801</ele>
        <time>2022-11-10T11:20:09Z</time>
      </trkpt>
      <trkpt lat="46.58875" lon="5.87592">
        <ele>801.2</ele>
        <time>2022-11-10T11:22:00Z</time>
      </trkpt>
      <trkpt lat="46.58871" lon="5.87597">
        <ele>798.7</ele>
        <time>2022-11-10T11:32:34Z</time>
      </trkpt>
      <trkpt lat="46.58875" lon="5.87602">
        <ele>796</ele>
        <time>2022-11-10T11:37:55Z</time>
      </trkpt>
      <trkpt lat="46.5887" lon="5.87599">
        <ele>798.4</ele>
        <time>2022-11-10T11:39:36Z</time>
      </trkpt>
      <trkpt lat="46.58872" lon="5.87592">
        <ele>798.5</ele>
        <time>2022-11-10T11:41:00Z</time>
      </trkpt>
      <trkpt lat="46.58874" lon="5.87597">
        <ele>792</ele>
        <time>2022-11-10T11:43:00Z</time>
      </trkpt>
      <trkpt lat="46.58877" lon="5.87593">
        <ele>797.6</ele>
        <time>2022-11-10T11:44:12Z</time>
      </trkpt>
      <trkpt lat="46.58882" lon="5.87595">
        <ele>797.4</ele>
        <time>2022-11-10T11:44:20Z</time>
      </trkpt>
      <trkpt lat="46.58887" lon="5.87596">
        <ele>796.3</ele>
        <time>2022-11-10T11:44:30Z</time>
      </trkpt>
      <trkpt lat="46.58892" lon="5.87597">
        <ele>796</ele>
        <time>2022-11-10T11:44:38Z</time>
      </trkpt>
      <trkpt lat="46.58897" lon="5.87597">
        <ele>796.5</ele>
        <time>2022-11-10T11:44:44Z</time>
      </trkpt>
      <trkpt lat="46.58901" lon="5.87594">
        <ele>796.6</ele>
        <time>2022-11-10T11:44:50Z</time>
      </trkpt>
      <trkpt lat="46.58906" lon="5.87593">
        <ele>796.6</ele>
        <time>2022-11-10T11:44:55Z</time>
      </trkpt>
      <trkpt lat="46.5891" lon="5.87593">
        <ele>796.2</ele>
        <time>2022-11-10T11:45:00Z</time>
      </trkpt>
      <trkpt lat="46.58915" lon="5.87595">
        <ele>795.9</ele>
        <time>2022-11-10T11:45:06Z</time>
      </trkpt>
      <trkpt lat="46.58919" lon="5.876">
        <ele>795.9</ele>
        <time>2022-11-10T11:45:12Z</time>
      </trkpt>
      <trkpt lat="46.58923" lon="5.87603">
        <ele>796.1</ele>
        <time>2022-11-10T11:45:16Z</time>
      </trkpt>
      <trkpt lat="46.58927" lon="5.87606">
        <ele>796.5</ele>
        <time>2022-11-10T11:45:21Z</time>
      </trkpt>
      <trkpt lat="46.58931" lon="5.87609">
        <ele>797.1</ele>
        <time>2022-11-10T11:45:27Z</time>
      </trkpt>
      <trkpt lat="46.58936" lon="5.8761">
        <ele>798.9</ele>
        <time>2022-11-10T11:45:37Z</time>
      </trkpt>
      <trkpt lat="46.5894" lon="5.87609">
        <ele>799.1</ele>
        <time>2022-11-10T11:45:42Z</time>
      </trkpt>
      <trkpt lat="46.58945" lon="5.87609">
        <ele>798.9</ele>
        <time>2022-11-10T11:45:47Z</time>
      </trkpt>
      <trkpt lat="46.5895" lon="5.87611">
        <ele>798.6</ele>
        <time>2022-11-10T11:45:52Z</time>
      </trkpt>
      <trkpt lat="46.58955" lon="5.87613">
        <ele>798.3</ele>
        <time>2022-11-10T11:45:57Z</time>
      </trkpt>
      <trkpt lat="46.58959" lon="5.87614">
        <ele>797.9</ele>
        <time>2022-11-10T11:46:01Z</time>
      </trkpt>
      <trkpt lat="46.58964" lon="5.87614">
        <ele>797.9</ele>
        <time>2022-11-10T11:46:06Z</time>
      </trkpt>
      <trkpt lat="46.58969" lon="5.87613">
        <ele>798.4</ele>
        <time>2022-11-10T11:46:14Z</time>
      </trkpt>
      <trkpt lat="46.58974" lon="5.87616">
        <ele>798.5</ele>
        <time>2022-11-10T11:46:19Z</time>
      </trkpt>
      <trkpt lat="46.58978" lon="5.8762">
        <ele>798.7</ele>
        <time>2022-11-10T11:46:23Z</time>
      </trkpt>
      <trkpt lat="46.58983" lon="5.87622">
        <ele>798.3</ele>
        <time>2022-11-10T11:46:29Z</time>
      </trkpt>
      <trkpt lat="46.58988" lon="5.87622">
        <ele>797</ele>
        <time>2022-11-10T11:46:33Z</time>
      </trkpt>
      <trkpt lat="46.58994" lon="5.87624">
        <ele>796</ele>
        <time>2022-11-10T11:46:37Z</time>
      </trkpt>
      <trkpt lat="46.58998" lon="5.87627">
        <ele>795.6</ele>
        <time>2022-11-10T11:46:41Z</time>
      </trkpt>
      <trkpt lat="46.59004" lon="5.87628">
        <ele>795.8</ele>
        <time>2022-11-10T11:46:46Z</time>
      </trkpt>
      <trkpt lat="46.59008" lon="5.87628">
        <ele>796.7</ele>
        <time>2022-11-10T11:46:53Z</time>
      </trkpt>
      <trkpt lat="46.59013" lon="5.87632">
        <ele>797.5</ele>
        <time>2022-11-10T11:46:58Z</time>
      </trkpt>
      <trkpt lat="46.59017" lon="5.87637">
        <ele>797.9</ele>
        <time>2022-11-10T11:47:02Z</time>
      </trkpt>
      <trkpt lat="46.59022" lon="5.8764">
        <ele>797.6</ele>
        <time>2022-11-10T11:47:06Z</time>
      </trkpt>
      <trkpt lat="46.59026" lon="5.87643">
        <ele>796.9</ele>
        <time>2022-11-10T11:47:11Z</time>
      </trkpt>
      <trkpt lat="46.59031" lon="5.87647">
        <ele>795.9</ele>
        <time>2022-11-10T11:47:18Z</time>
      </trkpt>
      <trkpt lat="46.59035" lon="5.87651">
        <ele>795.5</ele>
        <time>2022-11-10T11:47:22Z</time>
      </trkpt>
      <trkpt lat="46.5904" lon="5.87655">
        <ele>795</ele>
        <time>2022-11-10T11:47:26Z</time>
      </trkpt>
      <trkpt lat="46.59043" lon="5.87659">
        <ele>794.6</ele>
        <time>2022-11-10T11:47:31Z</time>
      </trkpt>
      <trkpt lat="46.59048" lon="5.87662">
        <ele>794</ele>
        <time>2022-11-10T11:47:37Z</time>
      </trkpt>
      <trkpt lat="46.59053" lon="5.87665">
        <ele>794.1</ele>
        <time>2022-11-10T11:47:43Z</time>
      </trkpt>
      <trkpt lat="46.59057" lon="5.87667">
        <ele>795.1</ele>
        <time>2022-11-10T11:47:48Z</time>
      </trkpt>
      <trkpt lat="46.59062" lon="5.8767">
        <ele>796.3</ele>
        <time>2022-11-10T11:47:54Z</time>
      </trkpt>
      <trkpt lat="46.59067" lon="5.87672">
        <ele>796.6</ele>
        <time>2022-11-10T11:47:59Z</time>
      </trkpt>
      <trkpt lat="46.59072" lon="5.87675">
        <ele>796.8</ele>
        <time>2022-11-10T11:48:03Z</time>
      </trkpt>
      <trkpt lat="46.59077" lon="5.87677">
        <ele>797.8</ele>
        <time>2022-11-10T11:48:08Z</time>
      </trkpt>
      <trkpt lat="46.59081" lon="5.87676">
        <ele>798.6</ele>
        <time>2022-11-10T11:48:14Z</time>
      </trkpt>
      <trkpt lat="46.59086" lon="5.87677">
        <ele>799.1</ele>
        <time>2022-11-10T11:48:20Z</time>
      </trkpt>
      <trkpt lat="46.59091" lon="5.87677">
        <ele>799.5</ele>
        <time>2022-11-10T11:48:25Z</time>
      </trkpt>
      <trkpt lat="46.59096" lon="5.87677">
        <ele>800.3</ele>
        <time>2022-11-10T11:48:31Z</time>
      </trkpt>
      <trkpt lat="46.59101" lon="5.87675">
        <ele>801.8</ele>
        <time>2022-11-10T11:48:39Z</time>
      </trkpt>
      <trkpt lat="46.59105" lon="5.87672">
        <ele>803.2</ele>
        <time>2022-11-10T11:48:45Z</time>
      </trkpt>
      <trkpt lat="46.59109" lon="5.87668">
        <ele>803.9</ele>
        <time>2022-11-10T11:48:49Z</time>
      </trkpt>
      <trkpt lat="46.59113" lon="5.87663">
        <ele>804.6</ele>
        <time>2022-11-10T11:48:53Z</time>
      </trkpt>
      <trkpt lat="46.59117" lon="5.87658">
        <ele>804.8</ele>
        <time>2022-11-10T11:48:56Z</time>
      </trkpt>
      <trkpt lat="46.59121" lon="5.87653">
        <ele>803.7</ele>
        <time>2022-11-10T11:49:01Z</time>
      </trkpt>
      <trkpt lat="46.59126" lon="5.87649">
        <ele>801.5</ele>
        <time>2022-11-10T11:49:06Z</time>
      </trkpt>
      <trkpt lat="46.5913" lon="5.87647">
        <ele>799</ele>
        <time>2022-11-10T11:49:10Z</time>
      </trkpt>
      <trkpt lat="46.59134" lon="5.87642">
        <ele>796.5</ele>
        <time>2022-11-10T11:49:14Z</time>
      </trkpt>
      <trkpt lat="46.59137" lon="5.87635">
        <ele>793.8</ele>
        <time>2022-11-10T11:49:19Z</time>
      </trkpt>
      <trkpt lat="46.5914" lon="5.87631">
        <ele>791.1</ele>
        <time>2022-11-10T11:49:25Z</time>
      </trkpt>
      <trkpt lat="46.59143" lon="5.87624">
        <ele>788.9</ele>
        <time>2022-11-10T11:49:32Z</time>
      </trkpt>
      <trkpt lat="46.59146" lon="5.87619">
        <ele>787.9</ele>
        <time>2022-11-10T11:49:38Z</time>
      </trkpt>
      <trkpt lat="46.5915" lon="5.87615">
        <ele>788.1</ele>
        <time>2022-11-10T11:49:42Z</time>
      </trkpt>
      <trkpt lat="46.59154" lon="5.87609">
        <ele>788.7</ele>
        <time>2022-11-10T11:49:46Z</time>
      </trkpt>
      <trkpt lat="46.59157" lon="5.87604">
        <ele>789.7</ele>
        <time>2022-11-10T11:49:50Z</time>
      </trkpt>
      <trkpt lat="46.59161" lon="5.87598">
        <ele>790.5</ele>
        <time>2022-11-10T11:49:54Z</time>
      </trkpt>
      <trkpt lat="46.59166" lon="5.87594">
        <ele>791.4</ele>
        <time>2022-11-10T11:49:59Z</time>
      </trkpt>
      <trkpt lat="46.5917" lon="5.8759">
        <ele>791.9</ele>
        <time>2022-11-10T11:50:05Z</time>
      </trkpt>
      <trkpt lat="46.59176" lon="5.87589">
        <ele>791.9</ele>
        <time>2022-11-10T11:50:09Z</time>
      </trkpt>
      <trkpt lat="46.59182" lon="5.87588">
        <ele>792.3</ele>
        <time>2022-11-10T11:50:13Z</time>
      </trkpt>
      <trkpt lat="46.59187" lon="5.87588">
        <ele>792.9</ele>
        <time>2022-11-10T11:50:17Z</time>
      </trkpt>
      <trkpt lat="46.59192" lon="5.87587">
        <ele>793.4</ele>
        <time>2022-11-10T11:50:21Z</time>
      </trkpt>
      <trkpt lat="46.59197" lon="5.87585">
        <ele>793.8</ele>
        <time>2022-11-10T11:50:25Z</time>
      </trkpt>
      <trkpt lat="46.59202" lon="5.87585">
        <ele>794.8</ele>
        <time>2022-11-10T11:50:29Z</time>
      </trkpt>
      <trkpt lat="46.59207" lon="5.87584">
        <ele>796.2</ele>
        <time>2022-11-10T11:50:34Z</time>
      </trkpt>
      <trkpt lat="46.59212" lon="5.87582">
        <ele>797.7</ele>
        <time>2022-11-10T11:50:39Z</time>
      </trkpt>
      <trkpt lat="46.59217" lon="5.87579">
        <ele>798.9</ele>
        <time>2022-11-10T11:50:45Z</time>
      </trkpt>
      <trkpt lat="46.59222" lon="5.87578">
        <ele>799.5</ele>
        <time>2022-11-10T11:50:50Z</time>
      </trkpt>
      <trkpt lat="46.59227" lon="5.87578">
        <ele>800.2</ele>
        <time>2022-11-10T11:50:57Z</time>
      </trkpt>
      <trkpt lat="46.59231" lon="5.87575">
        <ele>800.1</ele>
        <time>2022-11-10T11:51:02Z</time>
      </trkpt>
      <trkpt lat="46.59236" lon="5.87572">
        <ele>799.6</ele>
        <time>2022-11-10T11:51:06Z</time>
      </trkpt>
      <trkpt lat="46.5924" lon="5.87568">
        <ele>799.1</ele>
        <time>2022-11-10T11:51:10Z</time>
      </trkpt>
      <trkpt lat="46.59244" lon="5.87563">
        <ele>798.9</ele>
        <time>2022-11-10T11:51:14Z</time>
      </trkpt>
      <trkpt lat="46.59247" lon="5.87558">
        <ele>799</ele>
        <time>2022-11-10T11:51:18Z</time>
      </trkpt>
      <trkpt lat="46.5925" lon="5.87551">
        <ele>799.3</ele>
        <time>2022-11-10T11:51:22Z</time>
      </trkpt>
      <trkpt lat="46.59253" lon="5.87544">
        <ele>800</ele>
        <time>2022-11-10T11:51:26Z</time>
      </trkpt>
      <trkpt lat="46.59256" lon="5.87538">
        <ele>800.9</ele>
        <time>2022-11-10T11:51:31Z</time>
      </trkpt>
      <trkpt lat="46.5926" lon="5.87533">
        <ele>800.8</ele>
        <time>2022-11-10T11:51:36Z</time>
      </trkpt>
      <trkpt lat="46.59264" lon="5.87529">
        <ele>799.8</ele>
        <time>2022-11-10T11:51:41Z</time>
      </trkpt>
      <trkpt lat="46.59268" lon="5.87527">
        <ele>798.3</ele>
        <time>2022-11-10T11:51:46Z</time>
      </trkpt>
      <trkpt lat="46.59273" lon="5.87525">
        <ele>796.9</ele>
        <time>2022-11-10T11:51:51Z</time>
      </trkpt>
      <trkpt lat="46.59278" lon="5.87524">
        <ele>793.2</ele>
        <time>2022-11-10T11:52:06Z</time>
      </trkpt>
      <trkpt lat="46.59283" lon="5.87521">
        <ele>792</ele>
        <time>2022-11-10T11:52:10Z</time>
      </trkpt>
      <trkpt lat="46.59287" lon="5.87517">
        <ele>791.5</ele>
        <time>2022-11-10T11:52:13Z</time>
      </trkpt>
      <trkpt lat="46.59291" lon="5.87513">
        <ele>791.1</ele>
        <time>2022-11-10T11:52:17Z</time>
      </trkpt>
      <trkpt lat="46.59295" lon="5.87509">
        <ele>790.8</ele>
        <time>2022-11-10T11:52:21Z</time>
      </trkpt>
      <trkpt lat="46.593" lon="5.87505">
        <ele>790.6</ele>
        <time>2022-11-10T11:52:25Z</time>
      </trkpt>
      <trkpt lat="46.59304" lon="5.87503">
        <ele>790.2</ele>
        <time>2022-11-10T11:52:29Z</time>
      </trkpt>
      <trkpt lat="46.59308" lon="5.875">
        <ele>789.7</ele>
        <time>2022-11-10T11:52:33Z</time>
      </trkpt>
      <trkpt lat="46.59312" lon="5.87496">
        <ele>789.5</ele>
        <time>2022-11-10T11:52:38Z</time>
      </trkpt>
      <trkpt lat="46.59317" lon="5.87495">
        <ele>789.2</ele>
        <time>2022-11-10T11:52:42Z</time>
      </trkpt>
      <trkpt lat="46.59323" lon="5.87493">
        <ele>788.8</ele>
        <time>2022-11-10T11:52:46Z</time>
      </trkpt>
      <trkpt lat="46.59328" lon="5.87491">
        <ele>788.7</ele>
        <time>2022-11-10T11:52:49Z</time>
      </trkpt>
      <trkpt lat="46.59332" lon="5.87487">
        <ele>788.5</ele>
        <time>2022-11-10T11:52:53Z</time>
      </trkpt>
      <trkpt lat="46.59336" lon="5.87483">
        <ele>788.5</ele>
        <time>2022-11-10T11:52:57Z</time>
      </trkpt>
      <trkpt lat="46.5934" lon="5.87479">
        <ele>788.8</ele>
        <time>2022-11-10T11:53:02Z</time>
      </trkpt>
      <trkpt lat="46.59345" lon="5.87475">
        <ele>789.1</ele>
        <time>2022-11-10T11:53:07Z</time>
      </trkpt>
      <trkpt lat="46.59349" lon="5.87472">
        <ele>789.5</ele>
        <time>2022-11-10T11:53:11Z</time>
      </trkpt>
      <trkpt lat="46.59354" lon="5.87468">
        <ele>790</ele>
        <time>2022-11-10T11:53:15Z</time>
      </trkpt>
      <trkpt lat="46.59359" lon="5.87466">
        <ele>790.8</ele>
        <time>2022-11-10T11:53:19Z</time>
      </trkpt>
      <trkpt lat="46.59363" lon="5.87463">
        <ele>791.4</ele>
        <time>2022-11-10T11:53:23Z</time>
      </trkpt>
      <trkpt lat="46.59368" lon="5.87459">
        <ele>792.3</ele>
        <time>2022-11-10T11:53:28Z</time>
      </trkpt>
      <trkpt lat="46.59372" lon="5.87456">
        <ele>793</ele>
        <time>2022-11-10T11:53:33Z</time>
      </trkpt>
      <trkpt lat="46.59377" lon="5.87454">
        <ele>792.8</ele>
        <time>2022-11-10T11:53:39Z</time>
      </trkpt>
      <trkpt lat="46.59382" lon="5.87453">
        <ele>792.1</ele>
        <time>2022-11-10T11:53:44Z</time>
      </trkpt>
      <trkpt lat="46.59387" lon="5.87451">
        <ele>791.3</ele>
        <time>2022-11-10T11:53:49Z</time>
      </trkpt>
      <trkpt lat="46.59392" lon="5.87449">
        <ele>790.8</ele>
        <time>2022-11-10T11:53:53Z</time>
      </trkpt>
      <trkpt lat="46.59397" lon="5.87445">
        <ele>790.4</ele>
        <time>2022-11-10T11:53:57Z</time>
      </trkpt>
      <trkpt lat="46.59401" lon="5.8744">
        <ele>789.8</ele>
        <time>2022-11-10T11:54:01Z</time>
      </trkpt>
      <trkpt lat="46.59406" lon="5.87435">
        <ele>788.9</ele>
        <time>2022-11-10T11:54:06Z</time>
      </trkpt>
      <trkpt lat="46.5941" lon="5.87432">
        <ele>788</ele>
        <time>2022-11-10T11:54:11Z</time>
      </trkpt>
      <trkpt lat="46.59413" lon="5.87426">
        <ele>786.8</ele>
        <time>2022-11-10T11:54:17Z</time>
      </trkpt>
      <trkpt lat="46.59415" lon="5.87419">
        <ele>785.8</ele>
        <time>2022-11-10T11:54:22Z</time>
      </trkpt>
      <trkpt lat="46.59417" lon="5.87412">
        <ele>785.4</ele>
        <time>2022-11-10T11:54:26Z</time>
      </trkpt>
      <trkpt lat="46.59419" lon="5.87405">
        <ele>784.9</ele>
        <time>2022-11-10T11:54:30Z</time>
      </trkpt>
      <trkpt lat="46.59421" lon="5.87399">
        <ele>785.1</ele>
        <time>2022-11-10T11:54:33Z</time>
      </trkpt>
      <trkpt lat="46.59422" lon="5.87392">
        <ele>785.7</ele>
        <time>2022-11-10T11:54:37Z</time>
      </trkpt>
      <trkpt lat="46.59424" lon="5.87385">
        <ele>786.4</ele>
        <time>2022-11-10T11:54:41Z</time>
      </trkpt>
      <trkpt lat="46.59425" lon="5.87378">
        <ele>787.8</ele>
        <time>2022-11-10T11:54:46Z</time>
      </trkpt>
      <trkpt lat="46.59425" lon="5.87371">
        <ele>788.9</ele>
        <time>2022-11-10T11:54:50Z</time>
      </trkpt>
      <trkpt lat="46.59425" lon="5.87363">
        <ele>789.8</ele>
        <time>2022-11-10T11:54:55Z</time>
      </trkpt>
      <trkpt lat="46.59426" lon="5.87357">
        <ele>790.6</ele>
        <time>2022-11-10T11:55:00Z</time>
      </trkpt>
      <trkpt lat="46.59428" lon="5.87351">
        <ele>791.2</ele>
        <time>2022-11-10T11:55:04Z</time>
      </trkpt>
      <trkpt lat="46.5943" lon="5.87344">
        <ele>791.8</ele>
        <time>2022-11-10T11:55:09Z</time>
      </trkpt>
      <trkpt lat="46.59432" lon="5.87338">
        <ele>791.4</ele>
        <time>2022-11-10T11:55:14Z</time>
      </trkpt>
      <trkpt lat="46.59433" lon="5.87331">
        <ele>791.3</ele>
        <time>2022-11-10T11:55:19Z</time>
      </trkpt>
      <trkpt lat="46.59434" lon="5.87325">
        <ele>791.3</ele>
        <time>2022-11-10T11:55:23Z</time>
      </trkpt>
      <trkpt lat="46.59437" lon="5.87319">
        <ele>791.6</ele>
        <time>2022-11-10T11:55:27Z</time>
      </trkpt>
      <trkpt lat="46.59439" lon="5.87312">
        <ele>792</ele>
        <time>2022-11-10T11:55:32Z</time>
      </trkpt>
      <trkpt lat="46.59441" lon="5.87306">
        <ele>792.6</ele>
        <time>2022-11-10T11:55:36Z</time>
      </trkpt>
      <trkpt lat="46.59444" lon="5.873">
        <ele>793.6</ele>
        <time>2022-11-10T11:55:42Z</time>
      </trkpt>
      <trkpt lat="46.59447" lon="5.87294">
        <ele>794.1</ele>
        <time>2022-11-10T11:55:47Z</time>
      </trkpt>
      <trkpt lat="46.5945" lon="5.87287">
        <ele>794.1</ele>
        <time>2022-11-10T11:55:52Z</time>
      </trkpt>
      <trkpt lat="46.59453" lon="5.87282">
        <ele>793.7</ele>
        <time>2022-11-10T11:55:56Z</time>
      </trkpt>
      <trkpt lat="46.59456" lon="5.87275">
        <ele>793.2</ele>
        <time>2022-11-10T11:56:00Z</time>
      </trkpt>
      <trkpt lat="46.59459" lon="5.87269">
        <ele>792.8</ele>
        <time>2022-11-10T11:56:04Z</time>
      </trkpt>
      <trkpt lat="46.59463" lon="5.87263">
        <ele>792.4</ele>
        <time>2022-11-10T11:56:09Z</time>
      </trkpt>
      <trkpt lat="46.59467" lon="5.87259">
        <ele>792.2</ele>
        <time>2022-11-10T11:56:14Z</time>
      </trkpt>
      <trkpt lat="46.59471" lon="5.87253">
        <ele>792.1</ele>
        <time>2022-11-10T11:56:19Z</time>
      </trkpt>
      <trkpt lat="46.59473" lon="5.87248">
        <ele>792</ele>
        <time>2022-11-10T11:56:24Z</time>
      </trkpt>
      <trkpt lat="46.59475" lon="5.87242">
        <ele>791.6</ele>
        <time>2022-11-10T11:56:29Z</time>
      </trkpt>
      <trkpt lat="46.59479" lon="5.87236">
        <ele>790.6</ele>
        <time>2022-11-10T11:56:35Z</time>
      </trkpt>
      <trkpt lat="46.59484" lon="5.87232">
        <ele>790</ele>
        <time>2022-11-10T11:56:40Z</time>
      </trkpt>
      <trkpt lat="46.59488" lon="5.87227">
        <ele>790.2</ele>
        <time>2022-11-10T11:56:45Z</time>
      </trkpt>
      <trkpt lat="46.59493" lon="5.87222">
        <ele>791</ele>
        <time>2022-11-10T11:56:50Z</time>
      </trkpt>
      <trkpt lat="46.59497" lon="5.87218">
        <ele>791.9</ele>
        <time>2022-11-10T11:56:55Z</time>
      </trkpt>
      <trkpt lat="46.59502" lon="5.87214">
        <ele>792.7</ele>
        <time>2022-11-10T11:57:00Z</time>
      </trkpt>
      <trkpt lat="46.59506" lon="5.87211">
        <ele>793</ele>
        <time>2022-11-10T11:57:04Z</time>
      </trkpt>
      <trkpt lat="46.59511" lon="5.87207">
        <ele>792.9</ele>
        <time>2022-11-10T11:57:09Z</time>
      </trkpt>
      <trkpt lat="46.59514" lon="5.87203">
        <ele>792.9</ele>
        <time>2022-11-10T11:57:14Z</time>
      </trkpt>
      <trkpt lat="46.59519" lon="5.87197">
        <ele>792.3</ele>
        <time>2022-11-10T11:57:20Z</time>
      </trkpt>
      <trkpt lat="46.59522" lon="5.87192">
        <ele>791.9</ele>
        <time>2022-11-10T11:57:25Z</time>
      </trkpt>
      <trkpt lat="46.59525" lon="5.87188">
        <ele>791.8</ele>
        <time>2022-11-10T11:57:30Z</time>
      </trkpt>
      <trkpt lat="46.5953" lon="5.87185">
        <ele>792.2</ele>
        <time>2022-11-10T11:57:35Z</time>
      </trkpt>
      <trkpt lat="46.59534" lon="5.87182">
        <ele>792.4</ele>
        <time>2022-11-10T11:57:41Z</time>
      </trkpt>
      <trkpt lat="46.59538" lon="5.87179">
        <ele>792.4</ele>
        <time>2022-11-10T11:57:46Z</time>
      </trkpt>
      <trkpt lat="46.59542" lon="5.87177">
        <ele>792.6</ele>
        <time>2022-11-10T11:57:51Z</time>
      </trkpt>
      <trkpt lat="46.59546" lon="5.87174">
        <ele>793.2</ele>
        <time>2022-11-10T11:57:56Z</time>
      </trkpt>
      <trkpt lat="46.59551" lon="5.87171">
        <ele>793.9</ele>
        <time>2022-11-10T11:58:01Z</time>
      </trkpt>
      <trkpt lat="46.59555" lon="5.87169">
        <ele>794.2</ele>
        <time>2022-11-10T11:58:06Z</time>
      </trkpt>
      <trkpt lat="46.5956" lon="5.87165">
        <ele>794.4</ele>
        <time>2022-11-10T11:58:12Z</time>
      </trkpt>
      <trkpt lat="46.59564" lon="5.87161">
        <ele>794.2</ele>
        <time>2022-11-10T11:58:17Z</time>
      </trkpt>
      <trkpt lat="46.59568" lon="5.87158">
        <ele>793.8</ele>
        <time>2022-11-10T11:58:21Z</time>
      </trkpt>
      <trkpt lat="46.59572" lon="5.87155">
        <ele>793.5</ele>
        <time>2022-11-10T11:58:25Z</time>
      </trkpt>
      <trkpt lat="46.59577" lon="5.87152">
        <ele>793.6</ele>
        <time>2022-11-10T11:58:29Z</time>
      </trkpt>
      <trkpt lat="46.59581" lon="5.87148">
        <ele>793.5</ele>
        <time>2022-11-10T11:58:33Z</time>
      </trkpt>
      <trkpt lat="46.59585" lon="5.87144">
        <ele>793.4</ele>
        <time>2022-11-10T11:58:37Z</time>
      </trkpt>
      <trkpt lat="46.59589" lon="5.87141">
        <ele>793.7</ele>
        <time>2022-11-10T11:58:41Z</time>
      </trkpt>
      <trkpt lat="46.59593" lon="5.87137">
        <ele>794</ele>
        <time>2022-11-10T11:58:45Z</time>
      </trkpt>
      <trkpt lat="46.59597" lon="5.87133">
        <ele>794.4</ele>
        <time>2022-11-10T11:58:49Z</time>
      </trkpt>
      <trkpt lat="46.59601" lon="5.8713">
        <ele>794.6</ele>
        <time>2022-11-10T11:58:53Z</time>
      </trkpt>
      <trkpt lat="46.59606" lon="5.87126">
        <ele>795</ele>
        <time>2022-11-10T11:58:58Z</time>
      </trkpt>
      <trkpt lat="46.59611" lon="5.87125">
        <ele>795.5</ele>
        <time>2022-11-10T11:59:02Z</time>
      </trkpt>
      <trkpt lat="46.59616" lon="5.87123">
        <ele>796.2</ele>
        <time>2022-11-10T11:59:07Z</time>
      </trkpt>
      <trkpt lat="46.59621" lon="5.87121">
        <ele>796.4</ele>
        <time>2022-11-10T11:59:12Z</time>
      </trkpt>
      <trkpt lat="46.59626" lon="5.87118">
        <ele>797</ele>
        <time>2022-11-10T11:59:16Z</time>
      </trkpt>
      <trkpt lat="46.59631" lon="5.87116">
        <ele>797.4</ele>
        <time>2022-11-10T11:59:20Z</time>
      </trkpt>
      <trkpt lat="46.59635" lon="5.87116">
        <ele>798.4</ele>
        <time>2022-11-10T11:59:24Z</time>
      </trkpt>
      <trkpt lat="46.59641" lon="5.87114">
        <ele>800.1</ele>
        <time>2022-11-10T11:59:29Z</time>
      </trkpt>
      <trkpt lat="46.59645" lon="5.87111">
        <ele>801.1</ele>
        <time>2022-11-10T11:59:34Z</time>
      </trkpt>
      <trkpt lat="46.5965" lon="5.87111">
        <ele>801.8</ele>
        <time>2022-11-10T11:59:39Z</time>
      </trkpt>
      <trkpt lat="46.59654" lon="5.87111">
        <ele>802.7</ele>
        <time>2022-11-10T11:59:46Z</time>
      </trkpt>
      <trkpt lat="46.59659" lon="5.87112">
        <ele>802.8</ele>
        <time>2022-11-10T11:59:52Z</time>
      </trkpt>
      <trkpt lat="46.59665" lon="5.87114">
        <ele>803.1</ele>
        <time>2022-11-10T11:59:57Z</time>
      </trkpt>
      <trkpt lat="46.5967" lon="5.87117">
        <ele>803.6</ele>
        <time>2022-11-10T12:00:02Z</time>
      </trkpt>
      <trkpt lat="46.59675" lon="5.87119">
        <ele>803.2</ele>
        <time>2022-11-10T12:00:07Z</time>
      </trkpt>
      <trkpt lat="46.59679" lon="5.8712">
        <ele>802.7</ele>
        <time>2022-11-10T12:00:11Z</time>
      </trkpt>
      <trkpt lat="46.59684" lon="5.87123">
        <ele>801.9</ele>
        <time>2022-11-10T12:00:17Z</time>
      </trkpt>
      <trkpt lat="46.59687" lon="5.87127">
        <ele>801</ele>
        <time>2022-11-10T12:00:24Z</time>
      </trkpt>
      <trkpt lat="46.59692" lon="5.87131">
        <ele>800.5</ele>
        <time>2022-11-10T12:00:29Z</time>
      </trkpt>
      <trkpt lat="46.59697" lon="5.87133">
        <ele>800</ele>
        <time>2022-11-10T12:00:34Z</time>
      </trkpt>
      <trkpt lat="46.59701" lon="5.87134">
        <ele>799.7</ele>
        <time>2022-11-10T12:00:38Z</time>
      </trkpt>
      <trkpt lat="46.59707" lon="5.87135">
        <ele>799.2</ele>
        <time>2022-11-10T12:00:43Z</time>
      </trkpt>
      <trkpt lat="46.59712" lon="5.87136">
        <ele>799.1</ele>
        <time>2022-11-10T12:00:47Z</time>
      </trkpt>
      <trkpt lat="46.59717" lon="5.87136">
        <ele>799.5</ele>
        <time>2022-11-10T12:00:50Z</time>
      </trkpt>
      <trkpt lat="46.59723" lon="5.87135">
        <ele>800.1</ele>
        <time>2022-11-10T12:00:54Z</time>
      </trkpt>
      <trkpt lat="46.59727" lon="5.8713">
        <ele>801</ele>
        <time>2022-11-10T12:00:59Z</time>
      </trkpt>
      <trkpt lat="46.59731" lon="5.87125">
        <ele>801.7</ele>
        <time>2022-11-10T12:01:05Z</time>
      </trkpt>
      <trkpt lat="46.59735" lon="5.87119">
        <ele>801</ele>
        <time>2022-11-10T12:01:11Z</time>
      </trkpt>
      <trkpt lat="46.59739" lon="5.87116">
        <ele>800</ele>
        <time>2022-11-10T12:01:16Z</time>
      </trkpt>
      <trkpt lat="46.59741" lon="5.8711">
        <ele>799</ele>
        <time>2022-11-10T12:01:20Z</time>
      </trkpt>
      <trkpt lat="46.5974" lon="5.87102">
        <ele>798.4</ele>
        <time>2022-11-10T12:01:24Z</time>
      </trkpt>
      <trkpt lat="46.59737" lon="5.87096">
        <ele>798.2</ele>
        <time>2022-11-10T12:01:30Z</time>
      </trkpt>
      <trkpt lat="46.59734" lon="5.8709">
        <ele>797.8</ele>
        <time>2022-11-10T12:01:37Z</time>
      </trkpt>
      <trkpt lat="46.59733" lon="5.87083">
        <ele>796.8</ele>
        <time>2022-11-10T12:01:45Z</time>
      </trkpt>
      <trkpt lat="46.59729" lon="5.87077">
        <ele>795.9</ele>
        <time>2022-11-10T12:01:51Z</time>
      </trkpt>
      <trkpt lat="46.59727" lon="5.87071">
        <ele>795.8</ele>
        <time>2022-11-10T12:01:54Z</time>
      </trkpt>
      <trkpt lat="46.59724" lon="5.87066">
        <ele>795.8</ele>
        <time>2022-11-10T12:01:57Z</time>
      </trkpt>
      <trkpt lat="46.59721" lon="5.87061">
        <ele>795.9</ele>
        <time>2022-11-10T12:02:00Z</time>
      </trkpt>
      <trkpt lat="46.59718" lon="5.87054">
        <ele>796.3</ele>
        <time>2022-11-10T12:02:04Z</time>
      </trkpt>
      <trkpt lat="46.59715" lon="5.87048">
        <ele>796.6</ele>
        <time>2022-11-10T12:02:09Z</time>
      </trkpt>
      <trkpt lat="46.59713" lon="5.87041">
        <ele>796.6</ele>
        <time>2022-11-10T12:02:14Z</time>
      </trkpt>
      <trkpt lat="46.5971" lon="5.87036">
        <ele>796.5</ele>
        <time>2022-11-10T12:02:17Z</time>
      </trkpt>
      <trkpt lat="46.59706" lon="5.8703">
        <ele>796.4</ele>
        <time>2022-11-10T12:02:20Z</time>
      </trkpt>
      <trkpt lat="46.59703" lon="5.87025">
        <ele>796.5</ele>
        <time>2022-11-10T12:02:23Z</time>
      </trkpt>
      <trkpt lat="46.59701" lon="5.87018">
        <ele>796.6</ele>
        <time>2022-11-10T12:02:27Z</time>
      </trkpt>
      <trkpt lat="46.597" lon="5.87011">
        <ele>796.7</ele>
        <time>2022-11-10T12:02:34Z</time>
      </trkpt>
      <trkpt lat="46.59698" lon="5.87005">
        <ele>796.7</ele>
        <time>2022-11-10T12:02:41Z</time>
      </trkpt>
      <trkpt lat="46.59697" lon="5.86997">
        <ele>796.6</ele>
        <time>2022-11-10T12:02:47Z</time>
      </trkpt>
      <trkpt lat="46.59694" lon="5.8699">
        <ele>797.3</ele>
        <time>2022-11-10T12:02:52Z</time>
      </trkpt>
      <trkpt lat="46.59692" lon="5.86983">
        <ele>797.9</ele>
        <time>2022-11-10T12:02:58Z</time>
      </trkpt>
      <trkpt lat="46.59689" lon="5.86977">
        <ele>798.5</ele>
        <time>2022-11-10T12:03:02Z</time>
      </trkpt>
      <trkpt lat="46.59685" lon="5.86971">
        <ele>799.4</ele>
        <time>2022-11-10T12:03:07Z</time>
      </trkpt>
      <trkpt lat="46.59682" lon="5.86966">
        <ele>800.2</ele>
        <time>2022-11-10T12:03:12Z</time>
      </trkpt>
      <trkpt lat="46.59679" lon="5.8696">
        <ele>800.8</ele>
        <time>2022-11-10T12:03:19Z</time>
      </trkpt>
      <trkpt lat="46.59679" lon="5.86952">
        <ele>797.4</ele>
        <time>2022-11-10T12:04:02Z</time>
      </trkpt>
      <trkpt lat="46.59677" lon="5.86946">
        <ele>796.4</ele>
        <time>2022-11-10T12:04:07Z</time>
      </trkpt>
      <trkpt lat="46.59674" lon="5.86939">
        <ele>795.9</ele>
        <time>2022-11-10T12:04:13Z</time>
      </trkpt>
      <trkpt lat="46.59671" lon="5.86933">
        <ele>795.6</ele>
        <time>2022-11-10T12:04:18Z</time>
      </trkpt>
      <trkpt lat="46.59667" lon="5.86927">
        <ele>795.2</ele>
        <time>2022-11-10T12:04:24Z</time>
      </trkpt>
      <trkpt lat="46.59664" lon="5.86922">
        <ele>795</ele>
        <time>2022-11-10T12:04:30Z</time>
      </trkpt>
      <trkpt lat="46.59661" lon="5.86915">
        <ele>795.7</ele>
        <time>2022-11-10T12:04:35Z</time>
      </trkpt>
      <trkpt lat="46.59658" lon="5.86909">
        <ele>796.2</ele>
        <time>2022-11-10T12:04:40Z</time>
      </trkpt>
      <trkpt lat="46.59655" lon="5.86904">
        <ele>796.7</ele>
        <time>2022-11-10T12:04:44Z</time>
      </trkpt>
      <trkpt lat="46.59652" lon="5.86898">
        <ele>796.9</ele>
        <time>2022-11-10T12:04:49Z</time>
      </trkpt>
      <trkpt lat="46.5965" lon="5.86892">
        <ele>797.3</ele>
        <time>2022-11-10T12:04:54Z</time>
      </trkpt>
      <trkpt lat="46.59647" lon="5.86886">
        <ele>797.6</ele>
        <time>2022-11-10T12:04:59Z</time>
      </trkpt>
      <trkpt lat="46.59645" lon="5.86879">
        <ele>797.8</ele>
        <time>2022-11-10T12:05:05Z</time>
      </trkpt>
      <trkpt lat="46.59643" lon="5.86873">
        <ele>797.4</ele>
        <time>2022-11-10T12:05:10Z</time>
      </trkpt>
      <trkpt lat="46.59639" lon="5.86868">
        <ele>796.9</ele>
        <time>2022-11-10T12:05:14Z</time>
      </trkpt>
      <trkpt lat="46.59636" lon="5.86863">
        <ele>796.6</ele>
        <time>2022-11-10T12:05:18Z</time>
      </trkpt>
      <trkpt lat="46.59633" lon="5.86858">
        <ele>796.5</ele>
        <time>2022-11-10T12:05:21Z</time>
      </trkpt>
      <trkpt lat="46.5963" lon="5.86853">
        <ele>796.3</ele>
        <time>2022-11-10T12:05:24Z</time>
      </trkpt>
      <trkpt lat="46.59628" lon="5.86847">
        <ele>796.8</ele>
        <time>2022-11-10T12:05:29Z</time>
      </trkpt>
      <trkpt lat="46.59625" lon="5.8684">
        <ele>797.8</ele>
        <time>2022-11-10T12:05:36Z</time>
      </trkpt>
      <trkpt lat="46.59622" lon="5.86833">
        <ele>798.1</ele>
        <time>2022-11-10T12:05:41Z</time>
      </trkpt>
      <trkpt lat="46.5962" lon="5.86827">
        <ele>797.6</ele>
        <time>2022-11-10T12:05:48Z</time>
      </trkpt>
      <trkpt lat="46.59618" lon="5.8682">
        <ele>796.6</ele>
        <time>2022-11-10T12:05:52Z</time>
      </trkpt>
      <trkpt lat="46.59616" lon="5.86813">
        <ele>796</ele>
        <time>2022-11-10T12:05:56Z</time>
      </trkpt>
      <trkpt lat="46.59614" lon="5.86807">
        <ele>795.7</ele>
        <time>2022-11-10T12:06:01Z</time>
      </trkpt>
      <trkpt lat="46.59611" lon="5.86802">
        <ele>796.1</ele>
        <time>2022-11-10T12:06:07Z</time>
      </trkpt>
      <trkpt lat="46.59608" lon="5.86797">
        <ele>796.8</ele>
        <time>2022-11-10T12:06:12Z</time>
      </trkpt>
      <trkpt lat="46.59605" lon="5.86792">
        <ele>797.2</ele>
        <time>2022-11-10T12:06:16Z</time>
      </trkpt>
      <trkpt lat="46.59602" lon="5.86786">
        <ele>797.2</ele>
        <time>2022-11-10T12:06:20Z</time>
      </trkpt>
      <trkpt lat="46.59599" lon="5.86779">
        <ele>797.2</ele>
        <time>2022-11-10T12:06:24Z</time>
      </trkpt>
      <trkpt lat="46.59597" lon="5.86772">
        <ele>797.5</ele>
        <time>2022-11-10T12:06:28Z</time>
      </trkpt>
      <trkpt lat="46.59594" lon="5.86766">
        <ele>797.6</ele>
        <time>2022-11-10T12:06:33Z</time>
      </trkpt>
      <trkpt lat="46.59593" lon="5.86759">
        <ele>797.6</ele>
        <time>2022-11-10T12:06:38Z</time>
      </trkpt>
      <trkpt lat="46.59591" lon="5.86753">
        <ele>796.9</ele>
        <time>2022-11-10T12:06:47Z</time>
      </trkpt>
      <trkpt lat="46.59588" lon="5.86746">
        <ele>796.5</ele>
        <time>2022-11-10T12:06:51Z</time>
      </trkpt>
      <trkpt lat="46.59586" lon="5.86738">
        <ele>796.4</ele>
        <time>2022-11-10T12:06:55Z</time>
      </trkpt>
      <trkpt lat="46.59586" lon="5.8673">
        <ele>796.5</ele>
        <time>2022-11-10T12:06:58Z</time>
      </trkpt>
      <trkpt lat="46.59585" lon="5.86722">
        <ele>796.4</ele>
        <time>2022-11-10T12:07:02Z</time>
      </trkpt>
      <trkpt lat="46.59584" lon="5.86714">
        <ele>795.7</ele>
        <time>2022-11-10T12:07:07Z</time>
      </trkpt>
      <trkpt lat="46.59584" lon="5.86707">
        <ele>795.5</ele>
        <time>2022-11-10T12:07:12Z</time>
      </trkpt>
      <trkpt lat="46.59584" lon="5.86701">
        <ele>795.5</ele>
        <time>2022-11-10T12:07:18Z</time>
      </trkpt>
      <trkpt lat="46.59587" lon="5.86694">
        <ele>795.3</ele>
        <time>2022-11-10T12:07:23Z</time>
      </trkpt>
      <trkpt lat="46.59588" lon="5.86687">
        <ele>795.5</ele>
        <time>2022-11-10T12:07:28Z</time>
      </trkpt>
      <trkpt lat="46.59589" lon="5.8668">
        <ele>795.7</ele>
        <time>2022-11-10T12:07:32Z</time>
      </trkpt>
      <trkpt lat="46.5959" lon="5.86673">
        <ele>796.5</ele>
        <time>2022-11-10T12:07:37Z</time>
      </trkpt>
      <trkpt lat="46.59588" lon="5.86666">
        <ele>797.3</ele>
        <time>2022-11-10T12:07:41Z</time>
      </trkpt>
      <trkpt lat="46.59588" lon="5.86659">
        <ele>797.6</ele>
        <time>2022-11-10T12:07:46Z</time>
      </trkpt>
      <trkpt lat="46.59589" lon="5.86653">
        <ele>797.1</ele>
        <time>2022-11-10T12:07:51Z</time>
      </trkpt>
      <trkpt lat="46.59591" lon="5.86646">
        <ele>795.7</ele>
        <time>2022-11-10T12:07:56Z</time>
      </trkpt>
      <trkpt lat="46.59591" lon="5.86639">
        <ele>794.5</ele>
        <time>2022-11-10T12:08:00Z</time>
      </trkpt>
      <trkpt lat="46.59592" lon="5.86632">
        <ele>793.1</ele>
        <time>2022-11-10T12:08:05Z</time>
      </trkpt>
      <trkpt lat="46.59595" lon="5.86627">
        <ele>791.4</ele>
        <time>2022-11-10T12:08:10Z</time>
      </trkpt>
      <trkpt lat="46.59597" lon="5.86621">
        <ele>789.4</ele>
        <time>2022-11-10T12:08:16Z</time>
      </trkpt>
      <trkpt lat="46.59601" lon="5.86615">
        <ele>786.9</ele>
        <time>2022-11-10T12:08:22Z</time>
      </trkpt>
      <trkpt lat="46.59603" lon="5.86608">
        <ele>785.8</ele>
        <time>2022-11-10T12:08:27Z</time>
      </trkpt>
      <trkpt lat="46.59607" lon="5.86603">
        <ele>784.7</ele>
        <time>2022-11-10T12:08:32Z</time>
      </trkpt>
      <trkpt lat="46.5961" lon="5.86596">
        <ele>783.6</ele>
        <time>2022-11-10T12:08:37Z</time>
      </trkpt>
      <trkpt lat="46.59613" lon="5.8659">
        <ele>782.7</ele>
        <time>2022-11-10T12:08:42Z</time>
      </trkpt>
      <trkpt lat="46.59615" lon="5.86584">
        <ele>782.3</ele>
        <time>2022-11-10T12:08:47Z</time>
      </trkpt>
      <trkpt lat="46.59616" lon="5.86578">
        <ele>781.6</ele>
        <time>2022-11-10T12:08:52Z</time>
      </trkpt>
      <trkpt lat="46.59618" lon="5.86571">
        <ele>780.7</ele>
        <time>2022-11-10T12:08:57Z</time>
      </trkpt>
      <trkpt lat="46.59619" lon="5.86564">
        <ele>780.2</ele>
        <time>2022-11-10T12:09:02Z</time>
      </trkpt>
      <trkpt lat="46.59621" lon="5.86557">
        <ele>779</ele>
        <time>2022-11-10T12:09:07Z</time>
      </trkpt>
      <trkpt lat="46.59623" lon="5.86551">
        <ele>777.3</ele>
        <time>2022-11-10T12:09:12Z</time>
      </trkpt>
      <trkpt lat="46.59627" lon="5.86546">
        <ele>775.9</ele>
        <time>2022-11-10T12:09:17Z</time>
      </trkpt>
      <trkpt lat="46.59631" lon="5.8654">
        <ele>775.1</ele>
        <time>2022-11-10T12:09:22Z</time>
      </trkpt>
      <trkpt lat="46.59634" lon="5.86533">
        <ele>775</ele>
        <time>2022-11-10T12:09:27Z</time>
      </trkpt>
      <trkpt lat="46.59636" lon="5.86527">
        <ele>775</ele>
        <time>2022-11-10T12:09:32Z</time>
      </trkpt>
      <trkpt lat="46.59638" lon="5.86521">
        <ele>774.9</ele>
        <time>2022-11-10T12:09:37Z</time>
      </trkpt>
      <trkpt lat="46.59641" lon="5.86515">
        <ele>775.2</ele>
        <time>2022-11-10T12:09:42Z</time>
      </trkpt>
      <trkpt lat="46.59643" lon="5.86509">
        <ele>775.5</ele>
        <time>2022-11-10T12:09:46Z</time>
      </trkpt>
      <trkpt lat="46.59645" lon="5.86503">
        <ele>775.9</ele>
        <time>2022-11-10T12:09:51Z</time>
      </trkpt>
      <trkpt lat="46.59647" lon="5.86496">
        <ele>775.9</ele>
        <time>2022-11-10T12:09:56Z</time>
      </trkpt>
      <trkpt lat="46.59648" lon="5.8649">
        <ele>775.9</ele>
        <time>2022-11-10T12:10:00Z</time>
      </trkpt>
      <trkpt lat="46.59649" lon="5.86482">
        <ele>775.9</ele>
        <time>2022-11-10T12:10:04Z</time>
      </trkpt>
      <trkpt lat="46.5965" lon="5.86475">
        <ele>775.8</ele>
        <time>2022-11-10T12:10:08Z</time>
      </trkpt>
      <trkpt lat="46.59652" lon="5.86466">
        <ele>775.9</ele>
        <time>2022-11-10T12:10:12Z</time>
      </trkpt>
      <trkpt lat="46.59652" lon="5.86459">
        <ele>776</ele>
        <time>2022-11-10T12:10:16Z</time>
      </trkpt>
      <trkpt lat="46.59654" lon="5.86451">
        <ele>776.4</ele>
        <time>2022-11-10T12:10:21Z</time>
      </trkpt>
      <trkpt lat="46.59657" lon="5.86445">
        <ele>776.9</ele>
        <time>2022-11-10T12:10:26Z</time>
      </trkpt>
      <trkpt lat="46.59658" lon="5.86438">
        <ele>777.4</ele>
        <time>2022-11-10T12:10:31Z</time>
      </trkpt>
      <trkpt lat="46.5966" lon="5.86431">
        <ele>777.8</ele>
        <time>2022-11-10T12:10:35Z</time>
      </trkpt>
      <trkpt lat="46.59663" lon="5.86424">
        <ele>778</ele>
        <time>2022-11-10T12:10:40Z</time>
      </trkpt>
      <trkpt lat="46.59664" lon="5.86418">
        <ele>778.1</ele>
        <time>2022-11-10T12:10:44Z</time>
      </trkpt>
      <trkpt lat="46.59665" lon="5.8641">
        <ele>778</ele>
        <time>2022-11-10T12:10:48Z</time>
      </trkpt>
      <trkpt lat="46.59666" lon="5.86403">
        <ele>777.8</ele>
        <time>2022-11-10T12:10:52Z</time>
      </trkpt>
      <trkpt lat="46.59668" lon="5.86396">
        <ele>777.6</ele>
        <time>2022-11-10T12:10:56Z</time>
      </trkpt>
      <trkpt lat="46.5967" lon="5.8639">
        <ele>777.9</ele>
        <time>2022-11-10T12:11:00Z</time>
      </trkpt>
      <trkpt lat="46.59672" lon="5.86383">
        <ele>778.9</ele>
        <time>2022-11-10T12:11:05Z</time>
      </trkpt>
      <trkpt lat="46.59672" lon="5.86376">
        <ele>779.7</ele>
        <time>2022-11-10T12:11:10Z</time>
      </trkpt>
      <trkpt lat="46.59672" lon="5.86368">
        <ele>779.4</ele>
        <time>2022-11-10T12:11:15Z</time>
      </trkpt>
      <trkpt lat="46.59671" lon="5.86361">
        <ele>778.9</ele>
        <time>2022-11-10T12:11:19Z</time>
      </trkpt>
      <trkpt lat="46.59672" lon="5.86355">
        <ele>778.6</ele>
        <time>2022-11-10T12:11:23Z</time>
      </trkpt>
      <trkpt lat="46.59673" lon="5.86348">
        <ele>777.8</ele>
        <time>2022-11-10T12:11:27Z</time>
      </trkpt>
      <trkpt lat="46.59675" lon="5.86341">
        <ele>777</ele>
        <time>2022-11-10T12:11:33Z</time>
      </trkpt>
      <trkpt lat="46.59678" lon="5.86335">
        <ele>776.5</ele>
        <time>2022-11-10T12:11:39Z</time>
      </trkpt>
      <trkpt lat="46.59678" lon="5.86327">
        <ele>775.8</ele>
        <time>2022-11-10T12:11:44Z</time>
      </trkpt>
      <trkpt lat="46.59679" lon="5.86319">
        <ele>775.2</ele>
        <time>2022-11-10T12:11:49Z</time>
      </trkpt>
      <trkpt lat="46.59679" lon="5.86312">
        <ele>774.5</ele>
        <time>2022-11-10T12:11:54Z</time>
      </trkpt>
      <trkpt lat="46.5968" lon="5.86304">
        <ele>774.3</ele>
        <time>2022-11-10T12:11:58Z</time>
      </trkpt>
      <trkpt lat="46.59682" lon="5.86296">
        <ele>774.3</ele>
        <time>2022-11-10T12:12:02Z</time>
      </trkpt>
      <trkpt lat="46.59682" lon="5.86288">
        <ele>774.5</ele>
        <time>2022-11-10T12:12:06Z</time>
      </trkpt>
      <trkpt lat="46.59684" lon="5.86282">
        <ele>774.7</ele>
        <time>2022-11-10T12:12:10Z</time>
      </trkpt>
      <trkpt lat="46.59684" lon="5.86275">
        <ele>775.1</ele>
        <time>2022-11-10T12:12:14Z</time>
      </trkpt>
      <trkpt lat="46.59683" lon="5.86268">
        <ele>775.7</ele>
        <time>2022-11-10T12:12:19Z</time>
      </trkpt>
      <trkpt lat="46.59684" lon="5.8626">
        <ele>776.3</ele>
        <time>2022-11-10T12:12:24Z</time>
      </trkpt>
      <trkpt lat="46.59685" lon="5.86253">
        <ele>776.5</ele>
        <time>2022-11-10T12:12:28Z</time>
      </trkpt>
      <trkpt lat="46.59686" lon="5.86247">
        <ele>776.8</ele>
        <time>2022-11-10T12:12:32Z</time>
      </trkpt>
      <trkpt lat="46.59687" lon="5.8624">
        <ele>777</ele>
        <time>2022-11-10T12:12:36Z</time>
      </trkpt>
      <trkpt lat="46.59688" lon="5.86234">
        <ele>777.2</ele>
        <time>2022-11-10T12:12:40Z</time>
      </trkpt>
      <trkpt lat="46.59689" lon="5.86226">
        <ele>777.6</ele>
        <time>2022-11-10T12:12:45Z</time>
      </trkpt>
      <trkpt lat="46.59689" lon="5.86219">
        <ele>777.8</ele>
        <time>2022-11-10T12:12:49Z</time>
      </trkpt>
      <trkpt lat="46.5969" lon="5.86212">
        <ele>778</ele>
        <time>2022-11-10T12:12:54Z</time>
      </trkpt>
      <trkpt lat="46.59691" lon="5.86205">
        <ele>777.8</ele>
        <time>2022-11-10T12:12:59Z</time>
      </trkpt>
      <trkpt lat="46.59692" lon="5.86197">
        <ele>777.6</ele>
        <time>2022-11-10T12:13:04Z</time>
      </trkpt>
      <trkpt lat="46.59692" lon="5.8619">
        <ele>777.4</ele>
        <time>2022-11-10T12:13:09Z</time>
      </trkpt>
      <trkpt lat="46.59691" lon="5.86183">
        <ele>777.4</ele>
        <time>2022-11-10T12:13:14Z</time>
      </trkpt>
      <trkpt lat="46.5969" lon="5.86176">
        <ele>776.8</ele>
        <time>2022-11-10T12:13:19Z</time>
      </trkpt>
      <trkpt lat="46.59693" lon="5.86169">
        <ele>775.5</ele>
        <time>2022-11-10T12:13:25Z</time>
      </trkpt>
      <trkpt lat="46.59695" lon="5.86162">
        <ele>774.4</ele>
        <time>2022-11-10T12:13:30Z</time>
      </trkpt>
      <trkpt lat="46.59697" lon="5.86156">
        <ele>773.7</ele>
        <time>2022-11-10T12:13:34Z</time>
      </trkpt>
      <trkpt lat="46.59699" lon="5.86149">
        <ele>773.7</ele>
        <time>2022-11-10T12:13:39Z</time>
      </trkpt>
      <trkpt lat="46.597" lon="5.86143">
        <ele>774.2</ele>
        <time>2022-11-10T12:13:44Z</time>
      </trkpt>
      <trkpt lat="46.59703" lon="5.86136">
        <ele>775.1</ele>
        <time>2022-11-10T12:13:49Z</time>
      </trkpt>
      <trkpt lat="46.59705" lon="5.86131">
        <ele>775.6</ele>
        <time>2022-11-10T12:13:54Z</time>
      </trkpt>
      <trkpt lat="46.59705" lon="5.86122">
        <ele>775.4</ele>
        <time>2022-11-10T12:13:59Z</time>
      </trkpt>
      <trkpt lat="46.59704" lon="5.86115">
        <ele>774.9</ele>
        <time>2022-11-10T12:14:03Z</time>
      </trkpt>
      <trkpt lat="46.59702" lon="5.86108">
        <ele>774.3</ele>
        <time>2022-11-10T12:14:07Z</time>
      </trkpt>
      <trkpt lat="46.59702" lon="5.86101">
        <ele>774</ele>
        <time>2022-11-10T12:14:11Z</time>
      </trkpt>
      <trkpt lat="46.59702" lon="5.86094">
        <ele>773.4</ele>
        <time>2022-11-10T12:14:15Z</time>
      </trkpt>
      <trkpt lat="46.59703" lon="5.86087">
        <ele>772.8</ele>
        <time>2022-11-10T12:14:19Z</time>
      </trkpt>
      <trkpt lat="46.59704" lon="5.86079">
        <ele>772.6</ele>
        <time>2022-11-10T12:14:23Z</time>
      </trkpt>
      <trkpt lat="46.59705" lon="5.86072">
        <ele>773.2</ele>
        <time>2022-11-10T12:14:26Z</time>
      </trkpt>
      <trkpt lat="46.59706" lon="5.86064">
        <ele>774.2</ele>
        <time>2022-11-10T12:14:30Z</time>
      </trkpt>
      <trkpt lat="46.59707" lon="5.86056">
        <ele>774.9</ele>
        <time>2022-11-10T12:14:34Z</time>
      </trkpt>
      <trkpt lat="46.59706" lon="5.86049">
        <ele>775.2</ele>
        <time>2022-11-10T12:14:40Z</time>
      </trkpt>
      <trkpt lat="46.59706" lon="5.86042">
        <ele>775</ele>
        <time>2022-11-10T12:14:46Z</time>
      </trkpt>
      <trkpt lat="46.59704" lon="5.86035">
        <ele>774.7</ele>
        <time>2022-11-10T12:14:52Z</time>
      </trkpt>
      <trkpt lat="46.59702" lon="5.86028">
        <ele>774.4</ele>
        <time>2022-11-10T12:14:57Z</time>
      </trkpt>
      <trkpt lat="46.597" lon="5.86021">
        <ele>773.9</ele>
        <time>2022-11-10T12:15:03Z</time>
      </trkpt>
      <trkpt lat="46.59697" lon="5.86014">
        <ele>773.8</ele>
        <time>2022-11-10T12:15:07Z</time>
      </trkpt>
      <trkpt lat="46.59696" lon="5.86007">
        <ele>774</ele>
        <time>2022-11-10T12:15:12Z</time>
      </trkpt>
      <trkpt lat="46.59695" lon="5.86">
        <ele>773.9</ele>
        <time>2022-11-10T12:15:16Z</time>
      </trkpt>
      <trkpt lat="46.59693" lon="5.85993">
        <ele>773.7</ele>
        <time>2022-11-10T12:15:20Z</time>
      </trkpt>
      <trkpt lat="46.5969" lon="5.85986">
        <ele>773.6</ele>
        <time>2022-11-10T12:15:24Z</time>
      </trkpt>
      <trkpt lat="46.59688" lon="5.8598">
        <ele>773.4</ele>
        <time>2022-11-10T12:15:28Z</time>
      </trkpt>
      <trkpt lat="46.59686" lon="5.85973">
        <ele>773.2</ele>
        <time>2022-11-10T12:15:34Z</time>
      </trkpt>
      <trkpt lat="46.59686" lon="5.85966">
        <ele>773.1</ele>
        <time>2022-11-10T12:15:38Z</time>
      </trkpt>
      <trkpt lat="46.59685" lon="5.85959">
        <ele>773</ele>
        <time>2022-11-10T12:15:42Z</time>
      </trkpt>
      <trkpt lat="46.59684" lon="5.85952">
        <ele>773.6</ele>
        <time>2022-11-10T12:15:46Z</time>
      </trkpt>
      <trkpt lat="46.59683" lon="5.85944">
        <ele>773.9</ele>
        <time>2022-11-10T12:15:51Z</time>
      </trkpt>
      <trkpt lat="46.59681" lon="5.85937">
        <ele>773.5</ele>
        <time>2022-11-10T12:15:57Z</time>
      </trkpt>
      <trkpt lat="46.5968" lon="5.8593">
        <ele>772.8</ele>
        <time>2022-11-10T12:16:02Z</time>
      </trkpt>
      <trkpt lat="46.59679" lon="5.85922">
        <ele>772.1</ele>
        <time>2022-11-10T12:16:07Z</time>
      </trkpt>
      <trkpt lat="46.59678" lon="5.85915">
        <ele>771.4</ele>
        <time>2022-11-10T12:16:12Z</time>
      </trkpt>
      <trkpt lat="46.59678" lon="5.85908">
        <ele>771.4</ele>
        <time>2022-11-10T12:16:17Z</time>
      </trkpt>
      <trkpt lat="46.59679" lon="5.85902">
        <ele>771.2</ele>
        <time>2022-11-10T12:16:22Z</time>
      </trkpt>
      <trkpt lat="46.59678" lon="5.85894">
        <ele>770.3</ele>
        <time>2022-11-10T12:16:28Z</time>
      </trkpt>
      <trkpt lat="46.59678" lon="5.85886">
        <ele>769.4</ele>
        <time>2022-11-10T12:16:33Z</time>
      </trkpt>
      <trkpt lat="46.59679" lon="5.85878">
        <ele>769.3</ele>
        <time>2022-11-10T12:16:37Z</time>
      </trkpt>
      <trkpt lat="46.59678" lon="5.85869">
        <ele>769.2</ele>
        <time>2022-11-10T12:16:41Z</time>
      </trkpt>
      <trkpt lat="46.59678" lon="5.85862">
        <ele>769.5</ele>
        <time>2022-11-10T12:16:45Z</time>
      </trkpt>
      <trkpt lat="46.59678" lon="5.85855">
        <ele>770.1</ele>
        <time>2022-11-10T12:16:50Z</time>
      </trkpt>
      <trkpt lat="46.59679" lon="5.85847">
        <ele>770.2</ele>
        <time>2022-11-10T12:16:55Z</time>
      </trkpt>
      <trkpt lat="46.59679" lon="5.8584">
        <ele>770.4</ele>
        <time>2022-11-10T12:17:00Z</time>
      </trkpt>
      <trkpt lat="46.59679" lon="5.85834">
        <ele>770.8</ele>
        <time>2022-11-10T12:17:04Z</time>
      </trkpt>
      <trkpt lat="46.59679" lon="5.85827">
        <ele>771.3</ele>
        <time>2022-11-10T12:17:10Z</time>
      </trkpt>
      <trkpt lat="46.59679" lon="5.8582">
        <ele>771.1</ele>
        <time>2022-11-10T12:17:15Z</time>
      </trkpt>
      <trkpt lat="46.59681" lon="5.85812">
        <ele>770.2</ele>
        <time>2022-11-10T12:17:20Z</time>
      </trkpt>
      <trkpt lat="46.59682" lon="5.85806">
        <ele>769.1</ele>
        <time>2022-11-10T12:17:25Z</time>
      </trkpt>
      <trkpt lat="46.59683" lon="5.85799">
        <ele>768</ele>
        <time>2022-11-10T12:17:32Z</time>
      </trkpt>
      <trkpt lat="46.59684" lon="5.85792">
        <ele>766.6</ele>
        <time>2022-11-10T12:17:38Z</time>
      </trkpt>
      <trkpt lat="46.59685" lon="5.85785">
        <ele>765.4</ele>
        <time>2022-11-10T12:17:43Z</time>
      </trkpt>
      <trkpt lat="46.59686" lon="5.85778">
        <ele>764.2</ele>
        <time>2022-11-10T12:17:48Z</time>
      </trkpt>
      <trkpt lat="46.59687" lon="5.85771">
        <ele>763.5</ele>
        <time>2022-11-10T12:17:53Z</time>
      </trkpt>
      <trkpt lat="46.59687" lon="5.85763">
        <ele>762.9</ele>
        <time>2022-11-10T12:17:58Z</time>
      </trkpt>
      <trkpt lat="46.59687" lon="5.85756">
        <ele>762.7</ele>
        <time>2022-11-10T12:18:02Z</time>
      </trkpt>
      <trkpt lat="46.59687" lon="5.85749">
        <ele>762.7</ele>
        <time>2022-11-10T12:18:07Z</time>
      </trkpt>
      <trkpt lat="46.59687" lon="5.85742">
        <ele>762.5</ele>
        <time>2022-11-10T12:18:12Z</time>
      </trkpt>
      <trkpt lat="46.59688" lon="5.85735">
        <ele>762.2</ele>
        <time>2022-11-10T12:18:17Z</time>
      </trkpt>
      <trkpt lat="46.59689" lon="5.85728">
        <ele>761.8</ele>
        <time>2022-11-10T12:18:22Z</time>
      </trkpt>
      <trkpt lat="46.59689" lon="5.85721">
        <ele>761.2</ele>
        <time>2022-11-10T12:18:27Z</time>
      </trkpt>
      <trkpt lat="46.5969" lon="5.85715">
        <ele>760.7</ele>
        <time>2022-11-10T12:18:33Z</time>
      </trkpt>
      <trkpt lat="46.5969" lon="5.85707">
        <ele>760.9</ele>
        <time>2022-11-10T12:18:37Z</time>
      </trkpt>
      <trkpt lat="46.59689" lon="5.85699">
        <ele>761.1</ele>
        <time>2022-11-10T12:18:41Z</time>
      </trkpt>
      <trkpt lat="46.59689" lon="5.85692">
        <ele>761</ele>
        <time>2022-11-10T12:18:45Z</time>
      </trkpt>
      <trkpt lat="46.59691" lon="5.85684">
        <ele>761</ele>
        <time>2022-11-10T12:18:50Z</time>
      </trkpt>
      <trkpt lat="46.59691" lon="5.85677">
        <ele>760.9</ele>
        <time>2022-11-10T12:18:55Z</time>
      </trkpt>
      <trkpt lat="46.59692" lon="5.85671">
        <ele>760.6</ele>
        <time>2022-11-10T12:19:00Z</time>
      </trkpt>
      <trkpt lat="46.59693" lon="5.85664">
        <ele>760</ele>
        <time>2022-11-10T12:19:05Z</time>
      </trkpt>
      <trkpt lat="46.59693" lon="5.85657">
        <ele>759.4</ele>
        <time>2022-11-10T12:19:11Z</time>
      </trkpt>
      <trkpt lat="46.59695" lon="5.8565">
        <ele>758.5</ele>
        <time>2022-11-10T12:19:17Z</time>
      </trkpt>
      <trkpt lat="46.59695" lon="5.85643">
        <ele>758.3</ele>
        <time>2022-11-10T12:19:22Z</time>
      </trkpt>
      <trkpt lat="46.59695" lon="5.85636">
        <ele>757.6</ele>
        <time>2022-11-10T12:19:27Z</time>
      </trkpt>
      <trkpt lat="46.59695" lon="5.85628">
        <ele>756.4</ele>
        <time>2022-11-10T12:19:32Z</time>
      </trkpt>
      <trkpt lat="46.59695" lon="5.85621">
        <ele>755.9</ele>
        <time>2022-11-10T12:19:36Z</time>
      </trkpt>
      <trkpt lat="46.59695" lon="5.85614">
        <ele>755.4</ele>
        <time>2022-11-10T12:19:41Z</time>
      </trkpt>
      <trkpt lat="46.59696" lon="5.85607">
        <ele>755</ele>
        <time>2022-11-10T12:19:46Z</time>
      </trkpt>
      <trkpt lat="46.59698" lon="5.856">
        <ele>754.7</ele>
        <time>2022-11-10T12:19:52Z</time>
      </trkpt>
      <trkpt lat="46.59699" lon="5.85593">
        <ele>754.5</ele>
        <time>2022-11-10T12:19:56Z</time>
      </trkpt>
      <trkpt lat="46.59699" lon="5.85585">
        <ele>754</ele>
        <time>2022-11-10T12:20:01Z</time>
      </trkpt>
      <trkpt lat="46.597" lon="5.85579">
        <ele>753.6</ele>
        <time>2022-11-10T12:20:05Z</time>
      </trkpt>
      <trkpt lat="46.59702" lon="5.85571">
        <ele>753.2</ele>
        <time>2022-11-10T12:20:09Z</time>
      </trkpt>
      <trkpt lat="46.59704" lon="5.85565">
        <ele>753</ele>
        <time>2022-11-10T12:20:13Z</time>
      </trkpt>
      <trkpt lat="46.59705" lon="5.85558">
        <ele>752.8</ele>
        <time>2022-11-10T12:20:17Z</time>
      </trkpt>
      <trkpt lat="46.59707" lon="5.85552">
        <ele>752.6</ele>
        <time>2022-11-10T12:20:21Z</time>
      </trkpt>
      <trkpt lat="46.59709" lon="5.85546">
        <ele>752.4</ele>
        <time>2022-11-10T12:20:25Z</time>
      </trkpt>
      <trkpt lat="46.59712" lon="5.8554">
        <ele>752.6</ele>
        <time>2022-11-10T12:20:29Z</time>
      </trkpt>
      <trkpt lat="46.59714" lon="5.85534">
        <ele>753.5</ele>
        <time>2022-11-10T12:20:34Z</time>
      </trkpt>
      <trkpt lat="46.59716" lon="5.85528">
        <ele>754.2</ele>
        <time>2022-11-10T12:20:39Z</time>
      </trkpt>
      <trkpt lat="46.59719" lon="5.85523">
        <ele>755</ele>
        <time>2022-11-10T12:20:43Z</time>
      </trkpt>
      <trkpt lat="46.59722" lon="5.85518">
        <ele>756</ele>
        <time>2022-11-10T12:20:47Z</time>
      </trkpt>
      <trkpt lat="46.59727" lon="5.85516">
        <ele>757.7</ele>
        <time>2022-11-10T12:20:52Z</time>
      </trkpt>
      <trkpt lat="46.59732" lon="5.85514">
        <ele>758</ele>
        <time>2022-11-10T12:20:58Z</time>
      </trkpt>
      <trkpt lat="46.59737" lon="5.85511">
        <ele>759.2</ele>
        <time>2022-11-10T12:21:07Z</time>
      </trkpt>
      <trkpt lat="46.59741" lon="5.8551">
        <ele>757.7</ele>
        <time>2022-11-10T12:21:12Z</time>
      </trkpt>
      <trkpt lat="46.59747" lon="5.85507">
        <ele>755.5</ele>
        <time>2022-11-10T12:21:17Z</time>
      </trkpt>
      <trkpt lat="46.59751" lon="5.85501">
        <ele>753.5</ele>
        <time>2022-11-10T12:21:22Z</time>
      </trkpt>
      <trkpt lat="46.59754" lon="5.85495">
        <ele>752</ele>
        <time>2022-11-10T12:21:27Z</time>
      </trkpt>
      <trkpt lat="46.59757" lon="5.85489">
        <ele>751.1</ele>
        <time>2022-11-10T12:21:31Z</time>
      </trkpt>
      <trkpt lat="46.5976" lon="5.85485">
        <ele>750.6</ele>
        <time>2022-11-10T12:21:35Z</time>
      </trkpt>
      <trkpt lat="46.59764" lon="5.85481">
        <ele>750.6</ele>
        <time>2022-11-10T12:21:39Z</time>
      </trkpt>
      <trkpt lat="46.59767" lon="5.85477">
        <ele>751.2</ele>
        <time>2022-11-10T12:21:45Z</time>
      </trkpt>
      <trkpt lat="46.59772" lon="5.85476">
        <ele>753.2</ele>
        <time>2022-11-10T12:21:54Z</time>
      </trkpt>
      <trkpt lat="46.59777" lon="5.85474">
        <ele>754.2</ele>
        <time>2022-11-10T12:21:58Z</time>
      </trkpt>
      <trkpt lat="46.59781" lon="5.85474">
        <ele>754.8</ele>
        <time>2022-11-10T12:22:01Z</time>
      </trkpt>
      <trkpt lat="46.59786" lon="5.85472">
        <ele>755.4</ele>
        <time>2022-11-10T12:22:05Z</time>
      </trkpt>
      <trkpt lat="46.59792" lon="5.85472">
        <ele>756.4</ele>
        <time>2022-11-10T12:22:09Z</time>
      </trkpt>
      <trkpt lat="46.59797" lon="5.8547">
        <ele>757.4</ele>
        <time>2022-11-10T12:22:14Z</time>
      </trkpt>
      <trkpt lat="46.59802" lon="5.85467">
        <ele>758.2</ele>
        <time>2022-11-10T12:22:18Z</time>
      </trkpt>
      <trkpt lat="46.59807" lon="5.85466">
        <ele>758.4</ele>
        <time>2022-11-10T12:22:21Z</time>
      </trkpt>
      <trkpt lat="46.59812" lon="5.85464">
        <ele>758.6</ele>
        <time>2022-11-10T12:22:25Z</time>
      </trkpt>
      <trkpt lat="46.59818" lon="5.85464">
        <ele>759</ele>
        <time>2022-11-10T12:22:29Z</time>
      </trkpt>
      <trkpt lat="46.59822" lon="5.85464">
        <ele>758.9</ele>
        <time>2022-11-10T12:22:34Z</time>
      </trkpt>
      <trkpt lat="46.59826" lon="5.85461">
        <ele>758.1</ele>
        <time>2022-11-10T12:22:40Z</time>
      </trkpt>
      <trkpt lat="46.59831" lon="5.85459">
        <ele>757.5</ele>
        <time>2022-11-10T12:22:46Z</time>
      </trkpt>
      <trkpt lat="46.59836" lon="5.85461">
        <ele>757.8</ele>
        <time>2022-11-10T12:22:51Z</time>
      </trkpt>
      <trkpt lat="46.59841" lon="5.85463">
        <ele>757.9</ele>
        <time>2022-11-10T12:22:55Z</time>
      </trkpt>
      <trkpt lat="46.59846" lon="5.85463">
        <ele>758</ele>
        <time>2022-11-10T12:23:00Z</time>
      </trkpt>
      <trkpt lat="46.59851" lon="5.85464">
        <ele>758.1</ele>
        <time>2022-11-10T12:23:04Z</time>
      </trkpt>
      <trkpt lat="46.59855" lon="5.85465">
        <ele>759</ele>
        <time>2022-11-10T12:23:09Z</time>
      </trkpt>
      <trkpt lat="46.5986" lon="5.85464">
        <ele>760</ele>
        <time>2022-11-10T12:23:13Z</time>
      </trkpt>
      <trkpt lat="46.59864" lon="5.85467">
        <ele>761.6</ele>
        <time>2022-11-10T12:23:17Z</time>
      </trkpt>
      <trkpt lat="46.5987" lon="5.85468">
        <ele>763.2</ele>
        <time>2022-11-10T12:23:22Z</time>
      </trkpt>
      <trkpt lat="46.59875" lon="5.85469">
        <ele>764.2</ele>
        <time>2022-11-10T12:23:27Z</time>
      </trkpt>
      <trkpt lat="46.59879" lon="5.85469">
        <ele>764.8</ele>
        <time>2022-11-10T12:23:32Z</time>
      </trkpt>
      <trkpt lat="46.59885" lon="5.85471">
        <ele>765</ele>
        <time>2022-11-10T12:23:37Z</time>
      </trkpt>
      <trkpt lat="46.59889" lon="5.85473">
        <ele>765</ele>
        <time>2022-11-10T12:23:42Z</time>
      </trkpt>
      <trkpt lat="46.59894" lon="5.85474">
        <ele>765.2</ele>
        <time>2022-11-10T12:23:46Z</time>
      </trkpt>
      <trkpt lat="46.599" lon="5.85474">
        <ele>765.5</ele>
        <time>2022-11-10T12:23:50Z</time>
      </trkpt>
      <trkpt lat="46.59904" lon="5.85474">
        <ele>766.2</ele>
        <time>2022-11-10T12:23:55Z</time>
      </trkpt>
      <trkpt lat="46.59909" lon="5.85473">
        <ele>767</ele>
        <time>2022-11-10T12:24:00Z</time>
      </trkpt>
      <trkpt lat="46.59914" lon="5.85472">
        <ele>767.6</ele>
        <time>2022-11-10T12:24:05Z</time>
      </trkpt>
      <trkpt lat="46.59919" lon="5.8547">
        <ele>768.1</ele>
        <time>2022-11-10T12:24:10Z</time>
      </trkpt>
      <trkpt lat="46.59924" lon="5.85469">
        <ele>767.8</ele>
        <time>2022-11-10T12:24:14Z</time>
      </trkpt>
      <trkpt lat="46.59928" lon="5.85469">
        <ele>767.3</ele>
        <time>2022-11-10T12:24:17Z</time>
      </trkpt>
      <trkpt lat="46.59933" lon="5.85469">
        <ele>766.1</ele>
        <time>2022-11-10T12:24:21Z</time>
      </trkpt>
      <trkpt lat="46.59939" lon="5.85469">
        <ele>764.5</ele>
        <time>2022-11-10T12:24:26Z</time>
      </trkpt>
      <trkpt lat="46.59944" lon="5.85469">
        <ele>763.1</ele>
        <time>2022-11-10T12:24:30Z</time>
      </trkpt>
      <trkpt lat="46.59949" lon="5.85468">
        <ele>761.2</ele>
        <time>2022-11-10T12:24:35Z</time>
      </trkpt>
      <trkpt lat="46.59954" lon="5.85468">
        <ele>758.7</ele>
        <time>2022-11-10T12:24:41Z</time>
      </trkpt>
      <trkpt lat="46.59959" lon="5.85468">
        <ele>757.2</ele>
        <time>2022-11-10T12:24:46Z</time>
      </trkpt>
      <trkpt lat="46.59964" lon="5.85467">
        <ele>756.1</ele>
        <time>2022-11-10T12:24:51Z</time>
      </trkpt>
      <trkpt lat="46.59969" lon="5.85468">
        <ele>755.5</ele>
        <time>2022-11-10T12:24:56Z</time>
      </trkpt>
      <trkpt lat="46.59974" lon="5.85467">
        <ele>755.6</ele>
        <time>2022-11-10T12:25:01Z</time>
      </trkpt>
      <trkpt lat="46.59978" lon="5.85464">
        <ele>756.1</ele>
        <time>2022-11-10T12:25:06Z</time>
      </trkpt>
      <trkpt lat="46.59983" lon="5.85461">
        <ele>756.9</ele>
        <time>2022-11-10T12:25:11Z</time>
      </trkpt>
      <trkpt lat="46.59987" lon="5.85459">
        <ele>758.4</ele>
        <time>2022-11-10T12:25:19Z</time>
      </trkpt>
      <trkpt lat="46.59992" lon="5.85456">
        <ele>759.1</ele>
        <time>2022-11-10T12:25:24Z</time>
      </trkpt>
      <trkpt lat="46.59997" lon="5.85453">
        <ele>759.9</ele>
        <time>2022-11-10T12:25:28Z</time>
      </trkpt>
      <trkpt lat="46.60002" lon="5.85452">
        <ele>761.6</ele>
        <time>2022-11-10T12:25:33Z</time>
      </trkpt>
      <trkpt lat="46.60006" lon="5.85448">
        <ele>764.1</ele>
        <time>2022-11-10T12:25:40Z</time>
      </trkpt>
      <trkpt lat="46.60011" lon="5.85446">
        <ele>765.8</ele>
        <time>2022-11-10T12:25:45Z</time>
      </trkpt>
      <trkpt lat="46.60015" lon="5.85445">
        <ele>767.1</ele>
        <time>2022-11-10T12:25:51Z</time>
      </trkpt>
      <trkpt lat="46.6002" lon="5.85444">
        <ele>768.4</ele>
        <time>2022-11-10T12:25:57Z</time>
      </trkpt>
      <trkpt lat="46.60025" lon="5.85444">
        <ele>769.4</ele>
        <time>2022-11-10T12:26:01Z</time>
      </trkpt>
      <trkpt lat="46.6003" lon="5.85443">
        <ele>770.4</ele>
        <time>2022-11-10T12:26:05Z</time>
      </trkpt>
      <trkpt lat="46.60034" lon="5.85441">
        <ele>771.1</ele>
        <time>2022-11-10T12:26:10Z</time>
      </trkpt>
      <trkpt lat="46.60039" lon="5.85443">
        <ele>770</ele>
        <time>2022-11-10T12:26:46Z</time>
      </trkpt>
      <trkpt lat="46.60041" lon="5.8545">
        <ele>769.1</ele>
        <time>2022-11-10T12:26:52Z</time>
      </trkpt>
      <trkpt lat="46.60044" lon="5.85455">
        <ele>768.1</ele>
        <time>2022-11-10T12:27:00Z</time>
      </trkpt>
      <trkpt lat="46.60045" lon="5.85463">
        <ele>767.6</ele>
        <time>2022-11-10T12:27:05Z</time>
      </trkpt>
      <trkpt lat="46.60044" lon="5.85469">
        <ele>767.4</ele>
        <time>2022-11-10T12:27:11Z</time>
      </trkpt>
      <trkpt lat="46.60043" lon="5.85476">
        <ele>766.9</ele>
        <time>2022-11-10T12:27:15Z</time>
      </trkpt>
      <trkpt lat="46.60045" lon="5.85483">
        <ele>766</ele>
        <time>2022-11-10T12:27:19Z</time>
      </trkpt>
      <trkpt lat="46.60047" lon="5.85489">
        <ele>765.4</ele>
        <time>2022-11-10T12:27:24Z</time>
      </trkpt>
      <trkpt lat="46.60047" lon="5.85496">
        <ele>765.5</ele>
        <time>2022-11-10T12:27:32Z</time>
      </trkpt>
      <trkpt lat="46.6005" lon="5.85501">
        <ele>766</ele>
        <time>2022-11-10T12:27:40Z</time>
      </trkpt>
      <trkpt lat="46.60055" lon="5.85505">
        <ele>765.9</ele>
        <time>2022-11-10T12:27:44Z</time>
      </trkpt>
      <trkpt lat="46.60058" lon="5.85508">
        <ele>765.7</ele>
        <time>2022-11-10T12:27:47Z</time>
      </trkpt>
      <trkpt lat="46.60064" lon="5.85511">
        <ele>765</ele>
        <time>2022-11-10T12:27:51Z</time>
      </trkpt>
      <trkpt lat="46.60069" lon="5.8551">
        <ele>765.2</ele>
        <time>2022-11-10T12:27:55Z</time>
      </trkpt>
      <trkpt lat="46.60073" lon="5.85505">
        <ele>765.6</ele>
        <time>2022-11-10T12:27:59Z</time>
      </trkpt>
      <trkpt lat="46.60077" lon="5.85502">
        <ele>766.5</ele>
        <time>2022-11-10T12:28:05Z</time>
      </trkpt>
      <trkpt lat="46.60082" lon="5.85498">
        <ele>767</ele>
        <time>2022-11-10T12:28:11Z</time>
      </trkpt>
      <trkpt lat="46.60087" lon="5.85497">
        <ele>766.9</ele>
        <time>2022-11-10T12:28:16Z</time>
      </trkpt>
      <trkpt lat="46.60092" lon="5.85495">
        <ele>766</ele>
        <time>2022-11-10T12:28:22Z</time>
      </trkpt>
      <trkpt lat="46.60096" lon="5.85495">
        <ele>765.2</ele>
        <time>2022-11-10T12:28:27Z</time>
      </trkpt>
      <trkpt lat="46.60101" lon="5.85494">
        <ele>764.4</ele>
        <time>2022-11-10T12:28:32Z</time>
      </trkpt>
      <trkpt lat="46.60105" lon="5.8549">
        <ele>764.2</ele>
        <time>2022-11-10T12:28:37Z</time>
      </trkpt>
      <trkpt lat="46.6011" lon="5.85488">
        <ele>763.6</ele>
        <time>2022-11-10T12:28:42Z</time>
      </trkpt>
      <trkpt lat="46.60115" lon="5.85488">
        <ele>762.7</ele>
        <time>2022-11-10T12:28:48Z</time>
      </trkpt>
      <trkpt lat="46.6012" lon="5.85485">
        <ele>761.4</ele>
        <time>2022-11-10T12:28:53Z</time>
      </trkpt>
      <trkpt lat="46.60125" lon="5.85486">
        <ele>760.3</ele>
        <time>2022-11-10T12:28:57Z</time>
      </trkpt>
      <trkpt lat="46.6013" lon="5.85487">
        <ele>759.3</ele>
        <time>2022-11-10T12:29:01Z</time>
      </trkpt>
      <trkpt lat="46.60135" lon="5.85486">
        <ele>757.9</ele>
        <time>2022-11-10T12:29:06Z</time>
      </trkpt>
      <trkpt lat="46.60139" lon="5.85486">
        <ele>757.1</ele>
        <time>2022-11-10T12:29:11Z</time>
      </trkpt>
      <trkpt lat="46.60144" lon="5.85485">
        <ele>756.9</ele>
        <time>2022-11-10T12:29:16Z</time>
      </trkpt>
      <trkpt lat="46.60148" lon="5.85485">
        <ele>756.6</ele>
        <time>2022-11-10T12:29:21Z</time>
      </trkpt>
      <trkpt lat="46.60153" lon="5.85483">
        <ele>756.3</ele>
        <time>2022-11-10T12:29:26Z</time>
      </trkpt>
      <trkpt lat="46.60158" lon="5.85482">
        <ele>756</ele>
        <time>2022-11-10T12:29:30Z</time>
      </trkpt>
      <trkpt lat="46.60162" lon="5.8548">
        <ele>755.8</ele>
        <time>2022-11-10T12:29:35Z</time>
      </trkpt>
      <trkpt lat="46.60167" lon="5.8548">
        <ele>755.9</ele>
        <time>2022-11-10T12:29:40Z</time>
      </trkpt>
      <trkpt lat="46.60172" lon="5.8548">
        <ele>756.1</ele>
        <time>2022-11-10T12:29:45Z</time>
      </trkpt>
      <trkpt lat="46.60177" lon="5.85481">
        <ele>756.3</ele>
        <time>2022-11-10T12:29:49Z</time>
      </trkpt>
      <trkpt lat="46.60182" lon="5.85482">
        <ele>756.4</ele>
        <time>2022-11-10T12:29:54Z</time>
      </trkpt>
      <trkpt lat="46.60187" lon="5.85483">
        <ele>756.7</ele>
        <time>2022-11-10T12:29:59Z</time>
      </trkpt>
      <trkpt lat="46.60192" lon="5.85483">
        <ele>756.8</ele>
        <time>2022-11-10T12:30:05Z</time>
      </trkpt>
      <trkpt lat="46.60198" lon="5.85483">
        <ele>757.6</ele>
        <time>2022-11-10T12:30:09Z</time>
      </trkpt>
      <trkpt lat="46.60203" lon="5.85484">
        <ele>758</ele>
        <time>2022-11-10T12:30:13Z</time>
      </trkpt>
      <trkpt lat="46.60207" lon="5.85486">
        <ele>758.7</ele>
        <time>2022-11-10T12:30:17Z</time>
      </trkpt>
      <trkpt lat="46.60213" lon="5.85489">
        <ele>759.3</ele>
        <time>2022-11-10T12:30:22Z</time>
      </trkpt>
      <trkpt lat="46.60218" lon="5.85492">
        <ele>759.8</ele>
        <time>2022-11-10T12:30:26Z</time>
      </trkpt>
      <trkpt lat="46.60222" lon="5.85494">
        <ele>760.7</ele>
        <time>2022-11-10T12:30:31Z</time>
      </trkpt>
      <trkpt lat="46.60227" lon="5.85494">
        <ele>761.8</ele>
        <time>2022-11-10T12:30:37Z</time>
      </trkpt>
      <trkpt lat="46.60231" lon="5.85498">
        <ele>762.9</ele>
        <time>2022-11-10T12:30:43Z</time>
      </trkpt>
      <trkpt lat="46.60235" lon="5.85502">
        <ele>763.4</ele>
        <time>2022-11-10T12:30:49Z</time>
      </trkpt>
      <trkpt lat="46.6024" lon="5.85505">
        <ele>763.8</ele>
        <time>2022-11-10T12:30:54Z</time>
      </trkpt>
      <trkpt lat="46.60245" lon="5.85505">
        <ele>764.1</ele>
        <time>2022-11-10T12:30:59Z</time>
      </trkpt>
      <trkpt lat="46.60249" lon="5.85508">
        <ele>764</ele>
        <time>2022-11-10T12:31:02Z</time>
      </trkpt>
      <trkpt lat="46.60254" lon="5.85511">
        <ele>763.4</ele>
        <time>2022-11-10T12:31:05Z</time>
      </trkpt>
      <trkpt lat="46.60258" lon="5.85515">
        <ele>762.9</ele>
        <time>2022-11-10T12:31:08Z</time>
      </trkpt>
      <trkpt lat="46.60263" lon="5.85519">
        <ele>762.2</ele>
        <time>2022-11-10T12:31:12Z</time>
      </trkpt>
      <trkpt lat="46.60268" lon="5.85522">
        <ele>761.7</ele>
        <time>2022-11-10T12:31:16Z</time>
      </trkpt>
      <trkpt lat="46.60272" lon="5.85521">
        <ele>761.6</ele>
        <time>2022-11-10T12:31:20Z</time>
      </trkpt>
      <trkpt lat="46.60278" lon="5.8552">
        <ele>762.1</ele>
        <time>2022-11-10T12:31:25Z</time>
      </trkpt>
      <trkpt lat="46.60282" lon="5.85519">
        <ele>762.1</ele>
        <time>2022-11-10T12:31:29Z</time>
      </trkpt>
      <trkpt lat="46.60287" lon="5.85517">
        <ele>762.5</ele>
        <time>2022-11-10T12:31:35Z</time>
      </trkpt>
      <trkpt lat="46.60292" lon="5.85517">
        <ele>763.3</ele>
        <time>2022-11-10T12:31:41Z</time>
      </trkpt>
      <trkpt lat="46.60297" lon="5.85518">
        <ele>764.1</ele>
        <time>2022-11-10T12:31:46Z</time>
      </trkpt>
      <trkpt lat="46.60301" lon="5.85515">
        <ele>764</ele>
        <time>2022-11-10T12:31:52Z</time>
      </trkpt>
      <trkpt lat="46.60306" lon="5.85512">
        <ele>763.8</ele>
        <time>2022-11-10T12:31:57Z</time>
      </trkpt>
      <trkpt lat="46.6031" lon="5.85508">
        <ele>763.5</ele>
        <time>2022-11-10T12:32:02Z</time>
      </trkpt>
      <trkpt lat="46.60315" lon="5.85506">
        <ele>764.3</ele>
        <time>2022-11-10T12:32:07Z</time>
      </trkpt>
      <trkpt lat="46.6032" lon="5.85506">
        <ele>765.5</ele>
        <time>2022-11-10T12:32:12Z</time>
      </trkpt>
      <trkpt lat="46.60325" lon="5.85505">
        <ele>767.1</ele>
        <time>2022-11-10T12:32:18Z</time>
      </trkpt>
      <trkpt lat="46.6033" lon="5.85506">
        <ele>768.1</ele>
        <time>2022-11-10T12:32:24Z</time>
      </trkpt>
      <trkpt lat="46.60335" lon="5.85507">
        <ele>768.3</ele>
        <time>2022-11-10T12:32:30Z</time>
      </trkpt>
      <trkpt lat="46.60339" lon="5.85509">
        <ele>768.5</ele>
        <time>2022-11-10T12:32:35Z</time>
      </trkpt>
      <trkpt lat="46.60344" lon="5.85512">
        <ele>768.6</ele>
        <time>2022-11-10T12:32:41Z</time>
      </trkpt>
      <trkpt lat="46.60349" lon="5.85515">
        <ele>768.7</ele>
        <time>2022-11-10T12:32:46Z</time>
      </trkpt>
      <trkpt lat="46.60353" lon="5.85519">
        <ele>769.1</ele>
        <time>2022-11-10T12:32:53Z</time>
      </trkpt>
      <trkpt lat="46.60358" lon="5.85522">
        <ele>769</ele>
        <time>2022-11-10T12:33:01Z</time>
      </trkpt>
      <trkpt lat="46.60362" lon="5.85524">
        <ele>768.8</ele>
        <time>2022-11-10T12:33:05Z</time>
      </trkpt>
      <trkpt lat="46.60366" lon="5.85527">
        <ele>768.8</ele>
        <time>2022-11-10T12:33:10Z</time>
      </trkpt>
      <trkpt lat="46.60371" lon="5.8553">
        <ele>769.2</ele>
        <time>2022-11-10T12:33:16Z</time>
      </trkpt>
      <trkpt lat="46.60375" lon="5.85534">
        <ele>770.7</ele>
        <time>2022-11-10T12:33:23Z</time>
      </trkpt>
      <trkpt lat="46.6038" lon="5.85536">
        <ele>772.9</ele>
        <time>2022-11-10T12:33:30Z</time>
      </trkpt>
      <trkpt lat="46.60385" lon="5.85537">
        <ele>774.5</ele>
        <time>2022-11-10T12:33:35Z</time>
      </trkpt>
      <trkpt lat="46.6039" lon="5.85538">
        <ele>775.9</ele>
        <time>2022-11-10T12:33:40Z</time>
      </trkpt>
      <trkpt lat="46.60395" lon="5.8554">
        <ele>777.3</ele>
        <time>2022-11-10T12:33:46Z</time>
      </trkpt>
      <trkpt lat="46.604" lon="5.85542">
        <ele>777.9</ele>
        <time>2022-11-10T12:33:53Z</time>
      </trkpt>
      <trkpt lat="46.60404" lon="5.85543">
        <ele>778.2</ele>
        <time>2022-11-10T12:33:58Z</time>
      </trkpt>
      <trkpt lat="46.60409" lon="5.85546">
        <ele>778.2</ele>
        <time>2022-11-10T12:34:03Z</time>
      </trkpt>
      <trkpt lat="46.60414" lon="5.85548">
        <ele>778.4</ele>
        <time>2022-11-10T12:34:08Z</time>
      </trkpt>
      <trkpt lat="46.60419" lon="5.8555">
        <ele>778.5</ele>
        <time>2022-11-10T12:34:13Z</time>
      </trkpt>
      <trkpt lat="46.60423" lon="5.85551">
        <ele>778.1</ele>
        <time>2022-11-10T12:34:19Z</time>
      </trkpt>
      <trkpt lat="46.60428" lon="5.85552">
        <ele>777.2</ele>
        <time>2022-11-10T12:34:26Z</time>
      </trkpt>
      <trkpt lat="46.60433" lon="5.85552">
        <ele>777</ele>
        <time>2022-11-10T12:34:32Z</time>
      </trkpt>
      <trkpt lat="46.60437" lon="5.85556">
        <ele>777.5</ele>
        <time>2022-11-10T12:34:38Z</time>
      </trkpt>
      <trkpt lat="46.60442" lon="5.8556">
        <ele>778</ele>
        <time>2022-11-10T12:34:43Z</time>
      </trkpt>
      <trkpt lat="46.60446" lon="5.85566">
        <ele>777.8</ele>
        <time>2022-11-10T12:34:48Z</time>
      </trkpt>
      <trkpt lat="46.6045" lon="5.8557">
        <ele>777.9</ele>
        <time>2022-11-10T12:34:54Z</time>
      </trkpt>
      <trkpt lat="46.60454" lon="5.85574">
        <ele>778.1</ele>
        <time>2022-11-10T12:34:58Z</time>
      </trkpt>
      <trkpt lat="46.60458" lon="5.85578">
        <ele>778.4</ele>
        <time>2022-11-10T12:35:04Z</time>
      </trkpt>
      <trkpt lat="46.60463" lon="5.85582">
        <ele>778.6</ele>
        <time>2022-11-10T12:35:10Z</time>
      </trkpt>
      <trkpt lat="46.60466" lon="5.85586">
        <ele>778.2</ele>
        <time>2022-11-10T12:35:15Z</time>
      </trkpt>
      <trkpt lat="46.60471" lon="5.85591">
        <ele>777.6</ele>
        <time>2022-11-10T12:35:20Z</time>
      </trkpt>
      <trkpt lat="46.60476" lon="5.85591">
        <ele>777.2</ele>
        <time>2022-11-10T12:35:26Z</time>
      </trkpt>
      <trkpt lat="46.60481" lon="5.85591">
        <ele>776.5</ele>
        <time>2022-11-10T12:35:30Z</time>
      </trkpt>
      <trkpt lat="46.60486" lon="5.85592">
        <ele>775.7</ele>
        <time>2022-11-10T12:35:34Z</time>
      </trkpt>
      <trkpt lat="46.6049" lon="5.85595">
        <ele>774.5</ele>
        <time>2022-11-10T12:35:39Z</time>
      </trkpt>
      <trkpt lat="46.60494" lon="5.85598">
        <ele>773.5</ele>
        <time>2022-11-10T12:35:43Z</time>
      </trkpt>
      <trkpt lat="46.60499" lon="5.85601">
        <ele>772.5</ele>
        <time>2022-11-10T12:35:48Z</time>
      </trkpt>
      <trkpt lat="46.60504" lon="5.85602">
        <ele>771.9</ele>
        <time>2022-11-10T12:35:54Z</time>
      </trkpt>
      <trkpt lat="46.60509" lon="5.85603">
        <ele>771.2</ele>
        <time>2022-11-10T12:35:59Z</time>
      </trkpt>
      <trkpt lat="46.60513" lon="5.85604">
        <ele>770.3</ele>
        <time>2022-11-10T12:36:04Z</time>
      </trkpt>
      <trkpt lat="46.60518" lon="5.85606">
        <ele>770</ele>
        <time>2022-11-10T12:36:08Z</time>
      </trkpt>
      <trkpt lat="46.60523" lon="5.85607">
        <ele>770.1</ele>
        <time>2022-11-10T12:36:12Z</time>
      </trkpt>
      <trkpt lat="46.60528" lon="5.85608">
        <ele>770.4</ele>
        <time>2022-11-10T12:36:16Z</time>
      </trkpt>
      <trkpt lat="46.60533" lon="5.85609">
        <ele>770.7</ele>
        <time>2022-11-10T12:36:21Z</time>
      </trkpt>
      <trkpt lat="46.60537" lon="5.8561">
        <ele>770.6</ele>
        <time>2022-11-10T12:36:26Z</time>
      </trkpt>
      <trkpt lat="46.60543" lon="5.85612">
        <ele>770.4</ele>
        <time>2022-11-10T12:36:32Z</time>
      </trkpt>
      <trkpt lat="46.60547" lon="5.85614">
        <ele>769.8</ele>
        <time>2022-11-10T12:36:36Z</time>
      </trkpt>
      <trkpt lat="46.60552" lon="5.85615">
        <ele>769.2</ele>
        <time>2022-11-10T12:36:40Z</time>
      </trkpt>
      <trkpt lat="46.60558" lon="5.85616">
        <ele>769</ele>
        <time>2022-11-10T12:36:44Z</time>
      </trkpt>
      <trkpt lat="46.60563" lon="5.85617">
        <ele>769.3</ele>
        <time>2022-11-10T12:36:48Z</time>
      </trkpt>
      <trkpt lat="46.60568" lon="5.85618">
        <ele>770.5</ele>
        <time>2022-11-10T12:36:54Z</time>
      </trkpt>
      <trkpt lat="46.60573" lon="5.8562">
        <ele>771.2</ele>
        <time>2022-11-10T12:36:59Z</time>
      </trkpt>
      <trkpt lat="46.60578" lon="5.8562">
        <ele>770.9</ele>
        <time>2022-11-10T12:37:04Z</time>
      </trkpt>
      <trkpt lat="46.60582" lon="5.85622">
        <ele>770.5</ele>
        <time>2022-11-10T12:37:10Z</time>
      </trkpt>
      <trkpt lat="46.60587" lon="5.85624">
        <ele>770.4</ele>
        <time>2022-11-10T12:37:15Z</time>
      </trkpt>
      <trkpt lat="46.60592" lon="5.85625">
        <ele>770.9</ele>
        <time>2022-11-10T12:37:20Z</time>
      </trkpt>
      <trkpt lat="46.60597" lon="5.85627">
        <ele>771.4</ele>
        <time>2022-11-10T12:37:23Z</time>
      </trkpt>
      <trkpt lat="46.60602" lon="5.85628">
        <ele>772.3</ele>
        <time>2022-11-10T12:37:27Z</time>
      </trkpt>
      <trkpt lat="46.60606" lon="5.85628">
        <ele>773.4</ele>
        <time>2022-11-10T12:37:32Z</time>
      </trkpt>
      <trkpt lat="46.60611" lon="5.85628">
        <ele>774.2</ele>
        <time>2022-11-10T12:37:37Z</time>
      </trkpt>
      <trkpt lat="46.60616" lon="5.85629">
        <ele>774.9</ele>
        <time>2022-11-10T12:37:41Z</time>
      </trkpt>
      <trkpt lat="46.60622" lon="5.8563">
        <ele>775.6</ele>
        <time>2022-11-10T12:37:46Z</time>
      </trkpt>
      <trkpt lat="46.60626" lon="5.85631">
        <ele>776</ele>
        <time>2022-11-10T12:37:51Z</time>
      </trkpt>
      <trkpt lat="46.60631" lon="5.85633">
        <ele>776.4</ele>
        <time>2022-11-10T12:37:55Z</time>
      </trkpt>
      <trkpt lat="46.60636" lon="5.85634">
        <ele>777.2</ele>
        <time>2022-11-10T12:38:00Z</time>
      </trkpt>
      <trkpt lat="46.60641" lon="5.85636">
        <ele>778.3</ele>
        <time>2022-11-10T12:38:06Z</time>
      </trkpt>
      <trkpt lat="46.60646" lon="5.85635">
        <ele>778.9</ele>
        <time>2022-11-10T12:38:10Z</time>
      </trkpt>
      <trkpt lat="46.60651" lon="5.85635">
        <ele>779.7</ele>
        <time>2022-11-10T12:38:15Z</time>
      </trkpt>
      <trkpt lat="46.60656" lon="5.85637">
        <ele>780.5</ele>
        <time>2022-11-10T12:38:21Z</time>
      </trkpt>
      <trkpt lat="46.60661" lon="5.85638">
        <ele>780.9</ele>
        <time>2022-11-10T12:38:26Z</time>
      </trkpt>
      <trkpt lat="46.60666" lon="5.85639">
        <ele>781.6</ele>
        <time>2022-11-10T12:38:31Z</time>
      </trkpt>
      <trkpt lat="46.60671" lon="5.8564">
        <ele>782.3</ele>
        <time>2022-11-10T12:38:37Z</time>
      </trkpt>
      <trkpt lat="46.60676" lon="5.85639">
        <ele>782</ele>
        <time>2022-11-10T12:38:42Z</time>
      </trkpt>
      <trkpt lat="46.60681" lon="5.8564">
        <ele>781.6</ele>
        <time>2022-11-10T12:38:47Z</time>
      </trkpt>
      <trkpt lat="46.60687" lon="5.85639">
        <ele>781.4</ele>
        <time>2022-11-10T12:38:52Z</time>
      </trkpt>
      <trkpt lat="46.60692" lon="5.85638">
        <ele>781</ele>
        <time>2022-11-10T12:38:57Z</time>
      </trkpt>
      <trkpt lat="46.60697" lon="5.85635">
        <ele>781.1</ele>
        <time>2022-11-10T12:39:01Z</time>
      </trkpt>
      <trkpt lat="46.60702" lon="5.85634">
        <ele>781.5</ele>
        <time>2022-11-10T12:39:05Z</time>
      </trkpt>
      <trkpt lat="46.60708" lon="5.85633">
        <ele>781.9</ele>
        <time>2022-11-10T12:39:09Z</time>
      </trkpt>
      <trkpt lat="46.60713" lon="5.85632">
        <ele>781.8</ele>
        <time>2022-11-10T12:39:13Z</time>
      </trkpt>
      <trkpt lat="46.60717" lon="5.85631">
        <ele>781.7</ele>
        <time>2022-11-10T12:39:19Z</time>
      </trkpt>
      <trkpt lat="46.60723" lon="5.85631">
        <ele>782.4</ele>
        <time>2022-11-10T12:39:26Z</time>
      </trkpt>
      <trkpt lat="46.60728" lon="5.85631">
        <ele>782.8</ele>
        <time>2022-11-10T12:39:31Z</time>
      </trkpt>
      <trkpt lat="46.60733" lon="5.8563">
        <ele>782.6</ele>
        <time>2022-11-10T12:39:35Z</time>
      </trkpt>
      <trkpt lat="46.60738" lon="5.8563">
        <ele>781.7</ele>
        <time>2022-11-10T12:39:40Z</time>
      </trkpt>
      <trkpt lat="46.60743" lon="5.85629">
        <ele>781.3</ele>
        <time>2022-11-10T12:39:45Z</time>
      </trkpt>
      <trkpt lat="46.60748" lon="5.85628">
        <ele>781.7</ele>
        <time>2022-11-10T12:39:49Z</time>
      </trkpt>
      <trkpt lat="46.60753" lon="5.85629">
        <ele>782</ele>
        <time>2022-11-10T12:39:53Z</time>
      </trkpt>
      <trkpt lat="46.60758" lon="5.85629">
        <ele>782</ele>
        <time>2022-11-10T12:39:57Z</time>
      </trkpt>
      <trkpt lat="46.60763" lon="5.85627">
        <ele>781.8</ele>
        <time>2022-11-10T12:40:02Z</time>
      </trkpt>
      <trkpt lat="46.60768" lon="5.85625">
        <ele>781.5</ele>
        <time>2022-11-10T12:40:08Z</time>
      </trkpt>
      <trkpt lat="46.60772" lon="5.8562">
        <ele>781.1</ele>
        <time>2022-11-10T12:40:13Z</time>
      </trkpt>
      <trkpt lat="46.60777" lon="5.85616">
        <ele>781.6</ele>
        <time>2022-11-10T12:40:18Z</time>
      </trkpt>
      <trkpt lat="46.60781" lon="5.85613">
        <ele>782.4</ele>
        <time>2022-11-10T12:40:22Z</time>
      </trkpt>
      <trkpt lat="46.60786" lon="5.85611">
        <ele>783.3</ele>
        <time>2022-11-10T12:40:26Z</time>
      </trkpt>
      <trkpt lat="46.60791" lon="5.8561">
        <ele>784</ele>
        <time>2022-11-10T12:40:30Z</time>
      </trkpt>
      <trkpt lat="46.60796" lon="5.85608">
        <ele>784.7</ele>
        <time>2022-11-10T12:40:35Z</time>
      </trkpt>
      <trkpt lat="46.60801" lon="5.85605">
        <ele>785</ele>
        <time>2022-11-10T12:40:40Z</time>
      </trkpt>
      <trkpt lat="46.60805" lon="5.85602">
        <ele>785.3</ele>
        <time>2022-11-10T12:40:47Z</time>
      </trkpt>
      <trkpt lat="46.6081" lon="5.856">
        <ele>784.9</ele>
        <time>2022-11-10T12:40:53Z</time>
      </trkpt>
      <trkpt lat="46.60815" lon="5.85598">
        <ele>784.6</ele>
        <time>2022-11-10T12:40:57Z</time>
      </trkpt>
      <trkpt lat="46.6082" lon="5.85596">
        <ele>784.7</ele>
        <time>2022-11-10T12:41:01Z</time>
      </trkpt>
      <trkpt lat="46.60825" lon="5.85597">
        <ele>784.9</ele>
        <time>2022-11-10T12:41:06Z</time>
      </trkpt>
      <trkpt lat="46.6083" lon="5.85598">
        <ele>785.5</ele>
        <time>2022-11-10T12:41:11Z</time>
      </trkpt>
      <trkpt lat="46.60835" lon="5.85598">
        <ele>785.6</ele>
        <time>2022-11-10T12:41:16Z</time>
      </trkpt>
      <trkpt lat="46.6084" lon="5.85597">
        <ele>785.7</ele>
        <time>2022-11-10T12:41:21Z</time>
      </trkpt>
      <trkpt lat="46.60845" lon="5.85595">
        <ele>786.2</ele>
        <time>2022-11-10T12:41:25Z</time>
      </trkpt>
      <trkpt lat="46.6085" lon="5.85595">
        <ele>787</ele>
        <time>2022-11-10T12:41:29Z</time>
      </trkpt>
      <trkpt lat="46.60855" lon="5.85595">
        <ele>788.5</ele>
        <time>2022-11-10T12:41:34Z</time>
      </trkpt>
      <trkpt lat="46.6086" lon="5.85598">
        <ele>789.5</ele>
        <time>2022-11-10T12:41:39Z</time>
      </trkpt>
      <trkpt lat="46.60865" lon="5.85596">
        <ele>790.7</ele>
        <time>2022-11-10T12:42:46Z</time>
      </trkpt>
      <trkpt lat="46.60869" lon="5.85593">
        <ele>790.4</ele>
        <time>2022-11-10T12:42:51Z</time>
      </trkpt>
      <trkpt lat="46.60874" lon="5.85593">
        <ele>789.9</ele>
        <time>2022-11-10T12:42:55Z</time>
      </trkpt>
      <trkpt lat="46.60879" lon="5.85592">
        <ele>789.3</ele>
        <time>2022-11-10T12:42:59Z</time>
      </trkpt>
      <trkpt lat="46.60884" lon="5.8559">
        <ele>788.6</ele>
        <time>2022-11-10T12:43:03Z</time>
      </trkpt>
      <trkpt lat="46.60888" lon="5.85588">
        <ele>788.3</ele>
        <time>2022-11-10T12:43:07Z</time>
      </trkpt>
      <trkpt lat="46.60892" lon="5.85585">
        <ele>787.6</ele>
        <time>2022-11-10T12:43:14Z</time>
      </trkpt>
      <trkpt lat="46.60897" lon="5.85584">
        <ele>787.5</ele>
        <time>2022-11-10T12:43:26Z</time>
      </trkpt>
      <trkpt lat="46.60892" lon="5.85587">
        <ele>788.7</ele>
        <time>2022-11-10T12:43:49Z</time>
      </trkpt>
      <trkpt lat="46.60888" lon="5.85591">
        <ele>790.2</ele>
        <time>2022-11-10T12:43:55Z</time>
      </trkpt>
      <trkpt lat="46.60892" lon="5.85595">
        <ele>790.7</ele>
        <time>2022-11-10T12:44:07Z</time>
      </trkpt>
      <trkpt lat="46.60896" lon="5.856">
        <ele>790.4</ele>
        <time>2022-11-10T12:44:12Z</time>
      </trkpt>
      <trkpt lat="46.609" lon="5.85603">
        <ele>790.4</ele>
        <time>2022-11-10T12:44:17Z</time>
      </trkpt>
      <trkpt lat="46.60905" lon="5.85604">
        <ele>790.5</ele>
        <time>2022-11-10T12:44:22Z</time>
      </trkpt>
      <trkpt lat="46.60911" lon="5.85605">
        <ele>790.6</ele>
        <time>2022-11-10T12:44:27Z</time>
      </trkpt>
      <trkpt lat="46.60915" lon="5.85607">
        <ele>790.8</ele>
        <time>2022-11-10T12:44:31Z</time>
      </trkpt>
      <trkpt lat="46.6092" lon="5.85609">
        <ele>791.3</ele>
        <time>2022-11-10T12:44:35Z</time>
      </trkpt>
      <trkpt lat="46.60925" lon="5.85611">
        <ele>791.8</ele>
        <time>2022-11-10T12:44:40Z</time>
      </trkpt>
      <trkpt lat="46.60929" lon="5.85614">
        <ele>792.1</ele>
        <time>2022-11-10T12:44:45Z</time>
      </trkpt>
      <trkpt lat="46.60933" lon="5.85617">
        <ele>792.1</ele>
        <time>2022-11-10T12:44:50Z</time>
      </trkpt>
      <trkpt lat="46.60938" lon="5.8562">
        <ele>791.3</ele>
        <time>2022-11-10T12:44:55Z</time>
      </trkpt>
      <trkpt lat="46.60942" lon="5.85625">
        <ele>790.7</ele>
        <time>2022-11-10T12:45:00Z</time>
      </trkpt>
      <trkpt lat="46.60947" lon="5.85628">
        <ele>790.4</ele>
        <time>2022-11-10T12:45:04Z</time>
      </trkpt>
      <trkpt lat="46.60951" lon="5.85631">
        <ele>790.7</ele>
        <time>2022-11-10T12:45:08Z</time>
      </trkpt>
      <trkpt lat="46.60956" lon="5.85634">
        <ele>791.4</ele>
        <time>2022-11-10T12:45:13Z</time>
      </trkpt>
      <trkpt lat="46.6096" lon="5.85637">
        <ele>792</ele>
        <time>2022-11-10T12:45:18Z</time>
      </trkpt>
      <trkpt lat="46.60964" lon="5.85642">
        <ele>792.6</ele>
        <time>2022-11-10T12:45:23Z</time>
      </trkpt>
      <trkpt lat="46.60967" lon="5.85646">
        <ele>793.2</ele>
        <time>2022-11-10T12:45:28Z</time>
      </trkpt>
      <trkpt lat="46.60972" lon="5.85649">
        <ele>793.6</ele>
        <time>2022-11-10T12:45:33Z</time>
      </trkpt>
      <trkpt lat="46.60977" lon="5.85652">
        <ele>793.5</ele>
        <time>2022-11-10T12:45:38Z</time>
      </trkpt>
      <trkpt lat="46.60981" lon="5.85656">
        <ele>793.2</ele>
        <time>2022-11-10T12:45:43Z</time>
      </trkpt>
      <trkpt lat="46.60985" lon="5.85659">
        <ele>793.1</ele>
        <time>2022-11-10T12:45:47Z</time>
      </trkpt>
      <trkpt lat="46.60989" lon="5.85664">
        <ele>793.4</ele>
        <time>2022-11-10T12:45:51Z</time>
      </trkpt>
      <trkpt lat="46.60993" lon="5.85669">
        <ele>793.8</ele>
        <time>2022-11-10T12:45:55Z</time>
      </trkpt>
      <trkpt lat="46.60998" lon="5.85674">
        <ele>794.6</ele>
        <time>2022-11-10T12:45:59Z</time>
      </trkpt>
      <trkpt lat="46.61002" lon="5.85677">
        <ele>795.7</ele>
        <time>2022-11-10T12:46:04Z</time>
      </trkpt>
      <trkpt lat="46.61006" lon="5.85681">
        <ele>796.5</ele>
        <time>2022-11-10T12:46:09Z</time>
      </trkpt>
      <trkpt lat="46.61011" lon="5.85686">
        <ele>797</ele>
        <time>2022-11-10T12:46:14Z</time>
      </trkpt>
      <trkpt lat="46.61015" lon="5.85691">
        <ele>796.9</ele>
        <time>2022-11-10T12:46:18Z</time>
      </trkpt>
      <trkpt lat="46.61018" lon="5.85695">
        <ele>796.7</ele>
        <time>2022-11-10T12:46:22Z</time>
      </trkpt>
      <trkpt lat="46.61022" lon="5.85698">
        <ele>796.5</ele>
        <time>2022-11-10T12:46:26Z</time>
      </trkpt>
      <trkpt lat="46.61027" lon="5.85701">
        <ele>796.4</ele>
        <time>2022-11-10T12:46:31Z</time>
      </trkpt>
      <trkpt lat="46.6103" lon="5.85706">
        <ele>796.3</ele>
        <time>2022-11-10T12:46:36Z</time>
      </trkpt>
      <trkpt lat="46.61034" lon="5.85709">
        <ele>796</ele>
        <time>2022-11-10T12:46:41Z</time>
      </trkpt>
      <trkpt lat="46.61039" lon="5.85712">
        <ele>796.2</ele>
        <time>2022-11-10T12:46:46Z</time>
      </trkpt>
      <trkpt lat="46.61045" lon="5.85716">
        <ele>796.4</ele>
        <time>2022-11-10T12:46:50Z</time>
      </trkpt>
      <trkpt lat="46.61049" lon="5.8572">
        <ele>796.1</ele>
        <time>2022-11-10T12:46:55Z</time>
      </trkpt>
      <trkpt lat="46.61052" lon="5.85725">
        <ele>795.9</ele>
        <time>2022-11-10T12:46:59Z</time>
      </trkpt>
      <trkpt lat="46.61056" lon="5.8573">
        <ele>795.8</ele>
        <time>2022-11-10T12:47:03Z</time>
      </trkpt>
      <trkpt lat="46.6106" lon="5.85735">
        <ele>795.9</ele>
        <time>2022-11-10T12:47:09Z</time>
      </trkpt>
      <trkpt lat="46.61064" lon="5.85739">
        <ele>796</ele>
        <time>2022-11-10T12:47:13Z</time>
      </trkpt>
      <trkpt lat="46.61069" lon="5.85742">
        <ele>795.5</ele>
        <time>2022-11-10T12:47:17Z</time>
      </trkpt>
      <trkpt lat="46.61074" lon="5.85745">
        <ele>795</ele>
        <time>2022-11-10T12:47:21Z</time>
      </trkpt>
      <trkpt lat="46.61079" lon="5.85748">
        <ele>794.8</ele>
        <time>2022-11-10T12:47:25Z</time>
      </trkpt>
      <trkpt lat="46.61083" lon="5.85753">
        <ele>794.4</ele>
        <time>2022-11-10T12:47:31Z</time>
      </trkpt>
      <trkpt lat="46.61087" lon="5.85756">
        <ele>794.2</ele>
        <time>2022-11-10T12:47:35Z</time>
      </trkpt>
      <trkpt lat="46.61092" lon="5.8576">
        <ele>794</ele>
        <time>2022-11-10T12:47:40Z</time>
      </trkpt>
      <trkpt lat="46.61096" lon="5.85765">
        <ele>793.7</ele>
        <time>2022-11-10T12:47:45Z</time>
      </trkpt>
      <trkpt lat="46.61099" lon="5.85769">
        <ele>793.3</ele>
        <time>2022-11-10T12:47:49Z</time>
      </trkpt>
      <trkpt lat="46.61103" lon="5.85773">
        <ele>792.7</ele>
        <time>2022-11-10T12:47:53Z</time>
      </trkpt>
      <trkpt lat="46.61108" lon="5.85778">
        <ele>791.9</ele>
        <time>2022-11-10T12:47:58Z</time>
      </trkpt>
      <trkpt lat="46.61112" lon="5.85783">
        <ele>791.1</ele>
        <time>2022-11-10T12:48:03Z</time>
      </trkpt>
      <trkpt lat="46.61116" lon="5.85788">
        <ele>790.6</ele>
        <time>2022-11-10T12:48:07Z</time>
      </trkpt>
      <trkpt lat="46.61121" lon="5.85791">
        <ele>790.7</ele>
        <time>2022-11-10T12:48:11Z</time>
      </trkpt>
      <trkpt lat="46.61125" lon="5.85796">
        <ele>791.2</ele>
        <time>2022-11-10T12:48:15Z</time>
      </trkpt>
      <trkpt lat="46.61128" lon="5.85801">
        <ele>791.9</ele>
        <time>2022-11-10T12:48:20Z</time>
      </trkpt>
      <trkpt lat="46.61131" lon="5.85806">
        <ele>792.3</ele>
        <time>2022-11-10T12:48:25Z</time>
      </trkpt>
      <trkpt lat="46.61133" lon="5.85812">
        <ele>792.8</ele>
        <time>2022-11-10T12:48:30Z</time>
      </trkpt>
      <trkpt lat="46.61136" lon="5.85819">
        <ele>793.1</ele>
        <time>2022-11-10T12:48:34Z</time>
      </trkpt>
      <trkpt lat="46.61139" lon="5.85825">
        <ele>792.8</ele>
        <time>2022-11-10T12:48:39Z</time>
      </trkpt>
      <trkpt lat="46.61142" lon="5.85831">
        <ele>792.2</ele>
        <time>2022-11-10T12:48:44Z</time>
      </trkpt>
      <trkpt lat="46.61145" lon="5.85837">
        <ele>791.7</ele>
        <time>2022-11-10T12:48:49Z</time>
      </trkpt>
      <trkpt lat="46.61147" lon="5.85844">
        <ele>790.6</ele>
        <time>2022-11-10T12:48:55Z</time>
      </trkpt>
      <trkpt lat="46.6115" lon="5.8585">
        <ele>790</ele>
        <time>2022-11-10T12:48:59Z</time>
      </trkpt>
      <trkpt lat="46.61153" lon="5.85857">
        <ele>789.3</ele>
        <time>2022-11-10T12:49:03Z</time>
      </trkpt>
      <trkpt lat="46.61157" lon="5.8586">
        <ele>788.7</ele>
        <time>2022-11-10T12:49:06Z</time>
      </trkpt>
      <trkpt lat="46.61162" lon="5.85864">
        <ele>788</ele>
        <time>2022-11-10T12:49:10Z</time>
      </trkpt>
      <trkpt lat="46.61166" lon="5.85868">
        <ele>787</ele>
        <time>2022-11-10T12:49:14Z</time>
      </trkpt>
      <trkpt lat="46.6117" lon="5.85873">
        <ele>786.7</ele>
        <time>2022-11-10T12:49:18Z</time>
      </trkpt>
      <trkpt lat="46.61172" lon="5.85879">
        <ele>786.8</ele>
        <time>2022-11-10T12:49:23Z</time>
      </trkpt>
      <trkpt lat="46.61173" lon="5.85886">
        <ele>786.2</ele>
        <time>2022-11-10T12:49:29Z</time>
      </trkpt>
      <trkpt lat="46.61174" lon="5.85893">
        <ele>785.1</ele>
        <time>2022-11-10T12:49:33Z</time>
      </trkpt>
      <trkpt lat="46.61174" lon="5.85901">
        <ele>783.4</ele>
        <time>2022-11-10T12:49:38Z</time>
      </trkpt>
      <trkpt lat="46.61175" lon="5.85907">
        <ele>781.8</ele>
        <time>2022-11-10T12:49:43Z</time>
      </trkpt>
      <trkpt lat="46.61176" lon="5.85914">
        <ele>780.3</ele>
        <time>2022-11-10T12:49:48Z</time>
      </trkpt>
      <trkpt lat="46.61178" lon="5.85921">
        <ele>779.3</ele>
        <time>2022-11-10T12:49:52Z</time>
      </trkpt>
      <trkpt lat="46.61179" lon="5.85928">
        <ele>778.5</ele>
        <time>2022-11-10T12:49:56Z</time>
      </trkpt>
      <trkpt lat="46.61181" lon="5.85935">
        <ele>777.2</ele>
        <time>2022-11-10T12:50:01Z</time>
      </trkpt>
      <trkpt lat="46.61182" lon="5.85942">
        <ele>776.2</ele>
        <time>2022-11-10T12:50:06Z</time>
      </trkpt>
      <trkpt lat="46.61184" lon="5.8595">
        <ele>775.3</ele>
        <time>2022-11-10T12:50:11Z</time>
      </trkpt>
      <trkpt lat="46.61184" lon="5.85957">
        <ele>773.7</ele>
        <time>2022-11-10T12:50:16Z</time>
      </trkpt>
      <trkpt lat="46.61186" lon="5.85964">
        <ele>772</ele>
        <time>2022-11-10T12:50:21Z</time>
      </trkpt>
      <trkpt lat="46.61186" lon="5.85972">
        <ele>770.9</ele>
        <time>2022-11-10T12:50:26Z</time>
      </trkpt>
      <trkpt lat="46.61189" lon="5.85978">
        <ele>769.9</ele>
        <time>2022-11-10T12:50:31Z</time>
      </trkpt>
      <trkpt lat="46.61192" lon="5.85985">
        <ele>769.6</ele>
        <time>2022-11-10T12:50:35Z</time>
      </trkpt>
      <trkpt lat="46.61195" lon="5.8599">
        <ele>769.8</ele>
        <time>2022-11-10T12:50:40Z</time>
      </trkpt>
      <trkpt lat="46.61199" lon="5.85996">
        <ele>770.7</ele>
        <time>2022-11-10T12:50:44Z</time>
      </trkpt>
      <trkpt lat="46.61201" lon="5.86002">
        <ele>771.7</ele>
        <time>2022-11-10T12:50:50Z</time>
      </trkpt>
      <trkpt lat="46.61204" lon="5.86008">
        <ele>771.9</ele>
        <time>2022-11-10T12:50:55Z</time>
      </trkpt>
      <trkpt lat="46.61206" lon="5.86015">
        <ele>772</ele>
        <time>2022-11-10T12:50:59Z</time>
      </trkpt>
      <trkpt lat="46.61209" lon="5.8602">
        <ele>772.1</ele>
        <time>2022-11-10T12:51:03Z</time>
      </trkpt>
      <trkpt lat="46.61212" lon="5.86026">
        <ele>772.2</ele>
        <time>2022-11-10T12:51:07Z</time>
      </trkpt>
      <trkpt lat="46.61213" lon="5.86033">
        <ele>771.3</ele>
        <time>2022-11-10T12:51:13Z</time>
      </trkpt>
      <trkpt lat="46.61215" lon="5.8604">
        <ele>770.3</ele>
        <time>2022-11-10T12:51:18Z</time>
      </trkpt>
      <trkpt lat="46.61219" lon="5.86046">
        <ele>769.4</ele>
        <time>2022-11-10T12:51:23Z</time>
      </trkpt>
      <trkpt lat="46.61222" lon="5.86051">
        <ele>769</ele>
        <time>2022-11-10T12:51:27Z</time>
      </trkpt>
      <trkpt lat="46.61227" lon="5.86057">
        <ele>768.8</ele>
        <time>2022-11-10T12:51:31Z</time>
      </trkpt>
      <trkpt lat="46.6123" lon="5.86061">
        <ele>768.5</ele>
        <time>2022-11-10T12:51:35Z</time>
      </trkpt>
      <trkpt lat="46.61233" lon="5.86068">
        <ele>768.1</ele>
        <time>2022-11-10T12:51:40Z</time>
      </trkpt>
      <trkpt lat="46.61237" lon="5.86073">
        <ele>767.9</ele>
        <time>2022-11-10T12:51:44Z</time>
      </trkpt>
      <trkpt lat="46.61241" lon="5.86078">
        <ele>768.3</ele>
        <time>2022-11-10T12:51:49Z</time>
      </trkpt>
      <trkpt lat="46.61244" lon="5.86084">
        <ele>768.7</ele>
        <time>2022-11-10T12:51:54Z</time>
      </trkpt>
      <trkpt lat="46.61247" lon="5.86091">
        <ele>769.1</ele>
        <time>2022-11-10T12:51:59Z</time>
      </trkpt>
      <trkpt lat="46.6125" lon="5.86097">
        <ele>769.2</ele>
        <time>2022-11-10T12:52:04Z</time>
      </trkpt>
      <trkpt lat="46.61252" lon="5.86104">
        <ele>768.7</ele>
        <time>2022-11-10T12:52:11Z</time>
      </trkpt>
      <trkpt lat="46.61254" lon="5.8611">
        <ele>768.4</ele>
        <time>2022-11-10T12:52:16Z</time>
      </trkpt>
      <trkpt lat="46.61258" lon="5.86115">
        <ele>768.2</ele>
        <time>2022-11-10T12:52:20Z</time>
      </trkpt>
      <trkpt lat="46.61261" lon="5.8612">
        <ele>768</ele>
        <time>2022-11-10T12:52:24Z</time>
      </trkpt>
      <trkpt lat="46.61263" lon="5.86126">
        <ele>767.8</ele>
        <time>2022-11-10T12:52:28Z</time>
      </trkpt>
      <trkpt lat="46.61267" lon="5.86131">
        <ele>767.7</ele>
        <time>2022-11-10T12:52:32Z</time>
      </trkpt>
      <trkpt lat="46.61269" lon="5.86138">
        <ele>767.8</ele>
        <time>2022-11-10T12:52:37Z</time>
      </trkpt>
      <trkpt lat="46.61271" lon="5.86145">
        <ele>767.8</ele>
        <time>2022-11-10T12:52:42Z</time>
      </trkpt>
      <trkpt lat="46.61272" lon="5.86152">
        <ele>767.9</ele>
        <time>2022-11-10T12:52:47Z</time>
      </trkpt>
      <trkpt lat="46.61271" lon="5.86158">
        <ele>767.7</ele>
        <time>2022-11-10T12:52:51Z</time>
      </trkpt>
      <trkpt lat="46.61272" lon="5.86166">
        <ele>768</ele>
        <time>2022-11-10T12:52:55Z</time>
      </trkpt>
      <trkpt lat="46.61273" lon="5.86173">
        <ele>768.3</ele>
        <time>2022-11-10T12:52:59Z</time>
      </trkpt>
      <trkpt lat="46.61273" lon="5.8618">
        <ele>768.4</ele>
        <time>2022-11-10T12:53:03Z</time>
      </trkpt>
      <trkpt lat="46.61274" lon="5.86187">
        <ele>768.2</ele>
        <time>2022-11-10T12:53:08Z</time>
      </trkpt>
      <trkpt lat="46.61274" lon="5.86195">
        <ele>767.7</ele>
        <time>2022-11-10T12:53:13Z</time>
      </trkpt>
      <trkpt lat="46.61274" lon="5.86202">
        <ele>767.7</ele>
        <time>2022-11-10T12:53:17Z</time>
      </trkpt>
      <trkpt lat="46.61275" lon="5.8621">
        <ele>768.1</ele>
        <time>2022-11-10T12:53:22Z</time>
      </trkpt>
      <trkpt lat="46.61278" lon="5.86216">
        <ele>767.9</ele>
        <time>2022-11-10T12:53:28Z</time>
      </trkpt>
      <trkpt lat="46.6128" lon="5.86223">
        <ele>767.2</ele>
        <time>2022-11-10T12:53:33Z</time>
      </trkpt>
      <trkpt lat="46.61281" lon="5.86231">
        <ele>766.4</ele>
        <time>2022-11-10T12:53:38Z</time>
      </trkpt>
      <trkpt lat="46.61283" lon="5.86237">
        <ele>766.2</ele>
        <time>2022-11-10T12:53:42Z</time>
      </trkpt>
      <trkpt lat="46.61284" lon="5.86244">
        <ele>765.8</ele>
        <time>2022-11-10T12:53:46Z</time>
      </trkpt>
      <trkpt lat="46.61286" lon="5.86251">
        <ele>764.7</ele>
        <time>2022-11-10T12:53:52Z</time>
      </trkpt>
      <trkpt lat="46.61289" lon="5.86257">
        <ele>763.7</ele>
        <time>2022-11-10T12:53:57Z</time>
      </trkpt>
      <trkpt lat="46.61292" lon="5.86263">
        <ele>762.9</ele>
        <time>2022-11-10T12:54:02Z</time>
      </trkpt>
      <trkpt lat="46.61293" lon="5.8627">
        <ele>762.6</ele>
        <time>2022-11-10T12:54:07Z</time>
      </trkpt>
      <trkpt lat="46.61293" lon="5.86278">
        <ele>762.7</ele>
        <time>2022-11-10T12:54:11Z</time>
      </trkpt>
      <trkpt lat="46.61294" lon="5.86286">
        <ele>763</ele>
        <time>2022-11-10T12:54:16Z</time>
      </trkpt>
      <trkpt lat="46.61294" lon="5.86293">
        <ele>762.6</ele>
        <time>2022-11-10T12:54:21Z</time>
      </trkpt>
      <trkpt lat="46.61294" lon="5.863">
        <ele>761.7</ele>
        <time>2022-11-10T12:54:26Z</time>
      </trkpt>
      <trkpt lat="46.61296" lon="5.86306">
        <ele>761.1</ele>
        <time>2022-11-10T12:54:30Z</time>
      </trkpt>
      <trkpt lat="46.61297" lon="5.86314">
        <ele>760.5</ele>
        <time>2022-11-10T12:54:35Z</time>
      </trkpt>
      <trkpt lat="46.61299" lon="5.86321">
        <ele>759.4</ele>
        <time>2022-11-10T12:54:40Z</time>
      </trkpt>
      <trkpt lat="46.61299" lon="5.86328">
        <ele>758.2</ele>
        <time>2022-11-10T12:54:45Z</time>
      </trkpt>
      <trkpt lat="46.613" lon="5.86335">
        <ele>757.3</ele>
        <time>2022-11-10T12:54:50Z</time>
      </trkpt>
      <trkpt lat="46.61301" lon="5.86341">
        <ele>757.1</ele>
        <time>2022-11-10T12:54:55Z</time>
      </trkpt>
      <trkpt lat="46.61302" lon="5.86348">
        <ele>757.3</ele>
        <time>2022-11-10T12:55:01Z</time>
      </trkpt>
      <trkpt lat="46.61304" lon="5.86356">
        <ele>757</ele>
        <time>2022-11-10T12:55:06Z</time>
      </trkpt>
      <trkpt lat="46.61305" lon="5.86364">
        <ele>756.9</ele>
        <time>2022-11-10T12:55:11Z</time>
      </trkpt>
      <trkpt lat="46.61306" lon="5.86371">
        <ele>756.5</ele>
        <time>2022-11-10T12:55:15Z</time>
      </trkpt>
      <trkpt lat="46.61307" lon="5.86379">
        <ele>755.9</ele>
        <time>2022-11-10T12:55:20Z</time>
      </trkpt>
      <trkpt lat="46.61307" lon="5.86386">
        <ele>755</ele>
        <time>2022-11-10T12:55:25Z</time>
      </trkpt>
      <trkpt lat="46.61308" lon="5.86393">
        <ele>754.3</ele>
        <time>2022-11-10T12:55:30Z</time>
      </trkpt>
      <trkpt lat="46.61308" lon="5.86401">
        <ele>753</ele>
        <time>2022-11-10T12:55:35Z</time>
      </trkpt>
      <trkpt lat="46.6131" lon="5.86409">
        <ele>751.1</ele>
        <time>2022-11-10T12:55:40Z</time>
      </trkpt>
      <trkpt lat="46.61312" lon="5.86416">
        <ele>749.1</ele>
        <time>2022-11-10T12:55:45Z</time>
      </trkpt>
      <trkpt lat="46.61314" lon="5.86423">
        <ele>747.3</ele>
        <time>2022-11-10T12:55:51Z</time>
      </trkpt>
      <trkpt lat="46.61315" lon="5.8643">
        <ele>746.4</ele>
        <time>2022-11-10T12:55:56Z</time>
      </trkpt>
      <trkpt lat="46.61315" lon="5.86437">
        <ele>746.2</ele>
        <time>2022-11-10T12:56:01Z</time>
      </trkpt>
      <trkpt lat="46.61316" lon="5.86444">
        <ele>745.2</ele>
        <time>2022-11-10T12:56:06Z</time>
      </trkpt>
      <trkpt lat="46.61318" lon="5.86451">
        <ele>744.4</ele>
        <time>2022-11-10T12:56:10Z</time>
      </trkpt>
      <trkpt lat="46.61318" lon="5.86458">
        <ele>743.5</ele>
        <time>2022-11-10T12:56:14Z</time>
      </trkpt>
      <trkpt lat="46.61319" lon="5.86465">
        <ele>742.8</ele>
        <time>2022-11-10T12:56:18Z</time>
      </trkpt>
      <trkpt lat="46.61321" lon="5.86471">
        <ele>742.6</ele>
        <time>2022-11-10T12:56:22Z</time>
      </trkpt>
      <trkpt lat="46.61323" lon="5.86479">
        <ele>743.1</ele>
        <time>2022-11-10T12:56:28Z</time>
      </trkpt>
      <trkpt lat="46.61325" lon="5.86485">
        <ele>744.1</ele>
        <time>2022-11-10T12:56:32Z</time>
      </trkpt>
      <trkpt lat="46.61325" lon="5.86492">
        <ele>744.8</ele>
        <time>2022-11-10T12:56:37Z</time>
      </trkpt>
      <trkpt lat="46.61325" lon="5.86499">
        <ele>744.6</ele>
        <time>2022-11-10T12:56:43Z</time>
      </trkpt>
      <trkpt lat="46.61328" lon="5.86506">
        <ele>744.2</ele>
        <time>2022-11-10T12:56:48Z</time>
      </trkpt>
      <trkpt lat="46.6133" lon="5.86512">
        <ele>743.7</ele>
        <time>2022-11-10T12:56:53Z</time>
      </trkpt>
      <trkpt lat="46.61331" lon="5.8652">
        <ele>742.9</ele>
        <time>2022-11-10T12:56:59Z</time>
      </trkpt>
      <trkpt lat="46.61331" lon="5.86527">
        <ele>742.4</ele>
        <time>2022-11-10T12:57:03Z</time>
      </trkpt>
      <trkpt lat="46.61332" lon="5.86534">
        <ele>741.9</ele>
        <time>2022-11-10T12:57:07Z</time>
      </trkpt>
      <trkpt lat="46.61334" lon="5.86541">
        <ele>741.3</ele>
        <time>2022-11-10T12:57:12Z</time>
      </trkpt>
      <trkpt lat="46.61336" lon="5.86548">
        <ele>740.4</ele>
        <time>2022-11-10T12:57:17Z</time>
      </trkpt>
      <trkpt lat="46.61338" lon="5.86554">
        <ele>739.9</ele>
        <time>2022-11-10T12:57:21Z</time>
      </trkpt>
      <trkpt lat="46.6134" lon="5.86561">
        <ele>739.3</ele>
        <time>2022-11-10T12:57:25Z</time>
      </trkpt>
      <trkpt lat="46.61342" lon="5.86567">
        <ele>738.6</ele>
        <time>2022-11-10T12:57:30Z</time>
      </trkpt>
      <trkpt lat="46.61343" lon="5.86573">
        <ele>737.1</ele>
        <time>2022-11-10T12:57:36Z</time>
      </trkpt>
      <trkpt lat="46.61345" lon="5.8658">
        <ele>735.7</ele>
        <time>2022-11-10T12:57:41Z</time>
      </trkpt>
      <trkpt lat="46.61347" lon="5.86587">
        <ele>734.4</ele>
        <time>2022-11-10T12:57:46Z</time>
      </trkpt>
      <trkpt lat="46.61348" lon="5.86594">
        <ele>734</ele>
        <time>2022-11-10T12:57:50Z</time>
      </trkpt>
      <trkpt lat="46.6135" lon="5.86601">
        <ele>734</ele>
        <time>2022-11-10T12:57:54Z</time>
      </trkpt>
      <trkpt lat="46.61351" lon="5.86608">
        <ele>734.3</ele>
        <time>2022-11-10T12:58:00Z</time>
      </trkpt>
      <trkpt lat="46.61352" lon="5.86614">
        <ele>733.6</ele>
        <time>2022-11-10T12:58:05Z</time>
      </trkpt>
      <trkpt lat="46.61353" lon="5.86621">
        <ele>732.5</ele>
        <time>2022-11-10T12:58:11Z</time>
      </trkpt>
      <trkpt lat="46.61354" lon="5.86629">
        <ele>731</ele>
        <time>2022-11-10T12:58:17Z</time>
      </trkpt>
      <trkpt lat="46.61353" lon="5.86636">
        <ele>730.4</ele>
        <time>2022-11-10T12:58:21Z</time>
      </trkpt>
      <trkpt lat="46.61352" lon="5.86644">
        <ele>730</ele>
        <time>2022-11-10T12:58:25Z</time>
      </trkpt>
      <trkpt lat="46.61352" lon="5.86652">
        <ele>729.7</ele>
        <time>2022-11-10T12:58:30Z</time>
      </trkpt>
      <trkpt lat="46.61352" lon="5.86659">
        <ele>729.3</ele>
        <time>2022-11-10T12:58:35Z</time>
      </trkpt>
      <trkpt lat="46.61351" lon="5.86667">
        <ele>728.7</ele>
        <time>2022-11-10T12:58:40Z</time>
      </trkpt>
      <trkpt lat="46.61351" lon="5.86675">
        <ele>727.9</ele>
        <time>2022-11-10T12:58:44Z</time>
      </trkpt>
      <trkpt lat="46.6135" lon="5.86682">
        <ele>727.3</ele>
        <time>2022-11-10T12:58:48Z</time>
      </trkpt>
      <trkpt lat="46.61349" lon="5.8669">
        <ele>726.6</ele>
        <time>2022-11-10T12:58:53Z</time>
      </trkpt>
      <trkpt lat="46.61352" lon="5.86695">
        <ele>725.9</ele>
        <time>2022-11-10T12:58:58Z</time>
      </trkpt>
      <trkpt lat="46.61355" lon="5.86701">
        <ele>725.1</ele>
        <time>2022-11-10T12:59:04Z</time>
      </trkpt>
      <trkpt lat="46.61355" lon="5.86708">
        <ele>723.9</ele>
        <time>2022-11-10T12:59:12Z</time>
      </trkpt>
      <trkpt lat="46.61357" lon="5.86716">
        <ele>723.3</ele>
        <time>2022-11-10T12:59:19Z</time>
      </trkpt>
      <trkpt lat="46.61357" lon="5.86723">
        <ele>722.8</ele>
        <time>2022-11-10T12:59:24Z</time>
      </trkpt>
      <trkpt lat="46.61358" lon="5.86731">
        <ele>722.3</ele>
        <time>2022-11-10T12:59:29Z</time>
      </trkpt>
      <trkpt lat="46.61356" lon="5.86737">
        <ele>721.9</ele>
        <time>2022-11-10T12:59:33Z</time>
      </trkpt>
      <trkpt lat="46.61355" lon="5.86744">
        <ele>721.3</ele>
        <time>2022-11-10T12:59:38Z</time>
      </trkpt>
      <trkpt lat="46.61354" lon="5.86751">
        <ele>720.9</ele>
        <time>2022-11-10T12:59:43Z</time>
      </trkpt>
      <trkpt lat="46.61352" lon="5.86759">
        <ele>721.3</ele>
        <time>2022-11-10T12:59:48Z</time>
      </trkpt>
      <trkpt lat="46.61353" lon="5.86766">
        <ele>722.8</ele>
        <time>2022-11-10T12:59:54Z</time>
      </trkpt>
      <trkpt lat="46.61352" lon="5.86773">
        <ele>723.9</ele>
        <time>2022-11-10T13:00:00Z</time>
      </trkpt>
      <trkpt lat="46.61355" lon="5.86778">
        <ele>723.8</ele>
        <time>2022-11-10T13:00:09Z</time>
      </trkpt>
      <trkpt lat="46.61358" lon="5.86784">
        <ele>723.2</ele>
        <time>2022-11-10T13:00:17Z</time>
      </trkpt>
      <trkpt lat="46.61362" lon="5.86788">
        <ele>720.6</ele>
        <time>2022-11-10T13:00:26Z</time>
      </trkpt>
      <trkpt lat="46.61361" lon="5.86795">
        <ele>719.6</ele>
        <time>2022-11-10T13:00:30Z</time>
      </trkpt>
      <trkpt lat="46.61363" lon="5.86802">
        <ele>717.8</ele>
        <time>2022-11-10T13:00:39Z</time>
      </trkpt>
      <trkpt lat="46.61367" lon="5.86805">
        <ele>717.4</ele>
        <time>2022-11-10T13:00:43Z</time>
      </trkpt>
      <trkpt lat="46.61373" lon="5.86808">
        <ele>717.2</ele>
        <time>2022-11-10T13:00:47Z</time>
      </trkpt>
      <trkpt lat="46.61377" lon="5.8681">
        <ele>717.1</ele>
        <time>2022-11-10T13:00:51Z</time>
      </trkpt>
      <trkpt lat="46.61381" lon="5.86813">
        <ele>717.2</ele>
        <time>2022-11-10T13:00:55Z</time>
      </trkpt>
      <trkpt lat="46.61385" lon="5.86817">
        <ele>717.3</ele>
        <time>2022-11-10T13:00:58Z</time>
      </trkpt>
      <trkpt lat="46.61389" lon="5.8682">
        <ele>717.6</ele>
        <time>2022-11-10T13:01:03Z</time>
      </trkpt>
      <trkpt lat="46.61393" lon="5.86825">
        <ele>717.3</ele>
        <time>2022-11-10T13:01:09Z</time>
      </trkpt>
      <trkpt lat="46.61394" lon="5.86832">
        <ele>716.8</ele>
        <time>2022-11-10T13:01:14Z</time>
      </trkpt>
      <trkpt lat="46.61393" lon="5.86839">
        <ele>716.4</ele>
        <time>2022-11-10T13:01:19Z</time>
      </trkpt>
      <trkpt lat="46.61391" lon="5.86846">
        <ele>716.3</ele>
        <time>2022-11-10T13:01:24Z</time>
      </trkpt>
      <trkpt lat="46.6139" lon="5.86852">
        <ele>716.4</ele>
        <time>2022-11-10T13:01:30Z</time>
      </trkpt>
      <trkpt lat="46.61388" lon="5.86859">
        <ele>715.9</ele>
        <time>2022-11-10T13:01:35Z</time>
      </trkpt>
      <trkpt lat="46.61388" lon="5.86867">
        <ele>715.1</ele>
        <time>2022-11-10T13:01:40Z</time>
      </trkpt>
      <trkpt lat="46.61392" lon="5.86872">
        <ele>714.1</ele>
        <time>2022-11-10T13:01:47Z</time>
      </trkpt>
      <trkpt lat="46.61397" lon="5.86874">
        <ele>712.5</ele>
        <time>2022-11-10T13:01:52Z</time>
      </trkpt>
      <trkpt lat="46.61402" lon="5.86876">
        <ele>710.5</ele>
        <time>2022-11-10T13:01:56Z</time>
      </trkpt>
      <trkpt lat="46.61408" lon="5.86877">
        <ele>708.5</ele>
        <time>2022-11-10T13:02:01Z</time>
      </trkpt>
      <trkpt lat="46.61413" lon="5.86876">
        <ele>707.3</ele>
        <time>2022-11-10T13:02:06Z</time>
      </trkpt>
      <trkpt lat="46.61408" lon="5.86876">
        <ele>702</ele>
        <time>2022-11-10T13:02:52Z</time>
      </trkpt>
      <trkpt lat="46.61403" lon="5.86881">
        <ele>699.7</ele>
        <time>2022-11-10T13:03:19Z</time>
      </trkpt>
      <trkpt lat="46.61398" lon="5.8688">
        <ele>700.7</ele>
        <time>2022-11-10T13:03:24Z</time>
      </trkpt>
      <trkpt lat="46.61394" lon="5.86877">
        <ele>701.5</ele>
        <time>2022-11-10T13:03:31Z</time>
      </trkpt>
      <trkpt lat="46.61391" lon="5.86882">
        <ele>701.8</ele>
        <time>2022-11-10T13:03:37Z</time>
      </trkpt>
      <trkpt lat="46.61389" lon="5.86889">
        <ele>701.8</ele>
        <time>2022-11-10T13:03:46Z</time>
      </trkpt>
      <trkpt lat="46.61385" lon="5.86892">
        <ele>702.4</ele>
        <time>2022-11-10T13:03:51Z</time>
      </trkpt>
      <trkpt lat="46.6138" lon="5.86896">
        <ele>702.7</ele>
        <time>2022-11-10T13:03:56Z</time>
      </trkpt>
      <trkpt lat="46.61377" lon="5.869">
        <ele>702.4</ele>
        <time>2022-11-10T13:04:01Z</time>
      </trkpt>
      <trkpt lat="46.61372" lon="5.86903">
        <ele>701.7</ele>
        <time>2022-11-10T13:04:07Z</time>
      </trkpt>
      <trkpt lat="46.61368" lon="5.86906">
        <ele>700.9</ele>
        <time>2022-11-10T13:04:13Z</time>
      </trkpt>
      <trkpt lat="46.61363" lon="5.86909">
        <ele>700.2</ele>
        <time>2022-11-10T13:04:18Z</time>
      </trkpt>
      <trkpt lat="46.61361" lon="5.86915">
        <ele>699.7</ele>
        <time>2022-11-10T13:04:22Z</time>
      </trkpt>
      <trkpt lat="46.61357" lon="5.86919">
        <ele>699.2</ele>
        <time>2022-11-10T13:04:27Z</time>
      </trkpt>
      <trkpt lat="46.61352" lon="5.86921">
        <ele>698.3</ele>
        <time>2022-11-10T13:04:32Z</time>
      </trkpt>
      <trkpt lat="46.6135" lon="5.86928">
        <ele>697.7</ele>
        <time>2022-11-10T13:04:38Z</time>
      </trkpt>
      <trkpt lat="46.61349" lon="5.86935">
        <ele>697.9</ele>
        <time>2022-11-10T13:04:42Z</time>
      </trkpt>
      <trkpt lat="46.6135" lon="5.86943">
        <ele>698.7</ele>
        <time>2022-11-10T13:04:47Z</time>
      </trkpt>
      <trkpt lat="46.61351" lon="5.8695">
        <ele>699.9</ele>
        <time>2022-11-10T13:04:52Z</time>
      </trkpt>
      <trkpt lat="46.61352" lon="5.86957">
        <ele>700.7</ele>
        <time>2022-11-10T13:04:58Z</time>
      </trkpt>
      <trkpt lat="46.61352" lon="5.86963">
        <ele>701.3</ele>
        <time>2022-11-10T13:05:04Z</time>
      </trkpt>
      <trkpt lat="46.61351" lon="5.8697">
        <ele>702.2</ele>
        <time>2022-11-10T13:05:10Z</time>
      </trkpt>
      <trkpt lat="46.6135" lon="5.86977">
        <ele>702.3</ele>
        <time>2022-11-10T13:05:17Z</time>
      </trkpt>
      <trkpt lat="46.61346" lon="5.86984">
        <ele>702.4</ele>
        <time>2022-11-10T13:05:21Z</time>
      </trkpt>
      <trkpt lat="46.61344" lon="5.8699">
        <ele>702.6</ele>
        <time>2022-11-10T13:05:25Z</time>
      </trkpt>
      <trkpt lat="46.61342" lon="5.86996">
        <ele>702.5</ele>
        <time>2022-11-10T13:05:29Z</time>
      </trkpt>
      <trkpt lat="46.61339" lon="5.87001">
        <ele>702.3</ele>
        <time>2022-11-10T13:05:33Z</time>
      </trkpt>
      <trkpt lat="46.61336" lon="5.87007">
        <ele>702.4</ele>
        <time>2022-11-10T13:05:37Z</time>
      </trkpt>
      <trkpt lat="46.61335" lon="5.87013">
        <ele>702.6</ele>
        <time>2022-11-10T13:05:41Z</time>
      </trkpt>
      <trkpt lat="46.61334" lon="5.8702">
        <ele>702.9</ele>
        <time>2022-11-10T13:05:45Z</time>
      </trkpt>
      <trkpt lat="46.61336" lon="5.87027">
        <ele>703.3</ele>
        <time>2022-11-10T13:05:51Z</time>
      </trkpt>
      <trkpt lat="46.61336" lon="5.87034">
        <ele>703.6</ele>
        <time>2022-11-10T13:05:56Z</time>
      </trkpt>
      <trkpt lat="46.61336" lon="5.87041">
        <ele>703.9</ele>
        <time>2022-11-10T13:06:01Z</time>
      </trkpt>
      <trkpt lat="46.61336" lon="5.8705">
        <ele>704.1</ele>
        <time>2022-11-10T13:06:07Z</time>
      </trkpt>
      <trkpt lat="46.61336" lon="5.87057">
        <ele>704.2</ele>
        <time>2022-11-10T13:06:11Z</time>
      </trkpt>
      <trkpt lat="46.61336" lon="5.87064">
        <ele>704.5</ele>
        <time>2022-11-10T13:06:15Z</time>
      </trkpt>
      <trkpt lat="46.61337" lon="5.87071">
        <ele>704.6</ele>
        <time>2022-11-10T13:06:21Z</time>
      </trkpt>
      <trkpt lat="46.61337" lon="5.87078">
        <ele>705.2</ele>
        <time>2022-11-10T13:06:26Z</time>
      </trkpt>
      <trkpt lat="46.61337" lon="5.87086">
        <ele>706</ele>
        <time>2022-11-10T13:06:31Z</time>
      </trkpt>
      <trkpt lat="46.61337" lon="5.87093">
        <ele>707.1</ele>
        <time>2022-11-10T13:06:36Z</time>
      </trkpt>
      <trkpt lat="46.61336" lon="5.87101">
        <ele>708</ele>
        <time>2022-11-10T13:06:41Z</time>
      </trkpt>
      <trkpt lat="46.61335" lon="5.87107">
        <ele>708.9</ele>
        <time>2022-11-10T13:06:44Z</time>
      </trkpt>
      <trkpt lat="46.61334" lon="5.87115">
        <ele>710.5</ele>
        <time>2022-11-10T13:06:50Z</time>
      </trkpt>
      <trkpt lat="46.61333" lon="5.87121">
        <ele>711.4</ele>
        <time>2022-11-10T13:06:57Z</time>
      </trkpt>
      <trkpt lat="46.61335" lon="5.87128">
        <ele>711.2</ele>
        <time>2022-11-10T13:07:02Z</time>
      </trkpt>
      <trkpt lat="46.61334" lon="5.87134">
        <ele>710.9</ele>
        <time>2022-11-10T13:07:08Z</time>
      </trkpt>
      <trkpt lat="46.61332" lon="5.8714">
        <ele>710.7</ele>
        <time>2022-11-10T13:07:16Z</time>
      </trkpt>
      <trkpt lat="46.61335" lon="5.87147">
        <ele>710.2</ele>
        <time>2022-11-10T13:07:20Z</time>
      </trkpt>
      <trkpt lat="46.61337" lon="5.87152">
        <ele>709.4</ele>
        <time>2022-11-10T13:07:24Z</time>
      </trkpt>
      <trkpt lat="46.61337" lon="5.87159">
        <ele>708.6</ele>
        <time>2022-11-10T13:07:29Z</time>
      </trkpt>
      <trkpt lat="46.61337" lon="5.87166">
        <ele>706.8</ele>
        <time>2022-11-10T13:07:41Z</time>
      </trkpt>
      <trkpt lat="46.61335" lon="5.87172">
        <ele>706</ele>
        <time>2022-11-10T13:07:46Z</time>
      </trkpt>
      <trkpt lat="46.61333" lon="5.87179">
        <ele>705.4</ele>
        <time>2022-11-10T13:07:51Z</time>
      </trkpt>
      <trkpt lat="46.61337" lon="5.87175">
        <ele>704.6</ele>
        <time>2022-11-10T13:08:29Z</time>
      </trkpt>
      <trkpt lat="46.61341" lon="5.87177">
        <ele>707.5</ele>
        <time>2022-11-10T13:08:39Z</time>
      </trkpt>
      <trkpt lat="46.61337" lon="5.87178">
        <ele>709.6</ele>
        <time>2022-11-10T13:08:58Z</time>
      </trkpt>
      <trkpt lat="46.6134" lon="5.87184">
        <ele>706.9</ele>
        <time>2022-11-10T13:09:26Z</time>
      </trkpt>
      <trkpt lat="46.61339" lon="5.87192">
        <ele>707.3</ele>
        <time>2022-11-10T13:09:31Z</time>
      </trkpt>
      <trkpt lat="46.61336" lon="5.87198">
        <ele>707.4</ele>
        <time>2022-11-10T13:09:35Z</time>
      </trkpt>
      <trkpt lat="46.61334" lon="5.87204">
        <ele>707.2</ele>
        <time>2022-11-10T13:09:39Z</time>
      </trkpt>
      <trkpt lat="46.61333" lon="5.87211">
        <ele>707.5</ele>
        <time>2022-11-10T13:09:43Z</time>
      </trkpt>
      <trkpt lat="46.61334" lon="5.87219">
        <ele>708.7</ele>
        <time>2022-11-10T13:09:47Z</time>
      </trkpt>
      <trkpt lat="46.61334" lon="5.87225">
        <ele>709.7</ele>
        <time>2022-11-10T13:09:51Z</time>
      </trkpt>
      <trkpt lat="46.61332" lon="5.87233">
        <ele>710.7</ele>
        <time>2022-11-10T13:09:55Z</time>
      </trkpt>
      <trkpt lat="46.61333" lon="5.8724">
        <ele>711.5</ele>
        <time>2022-11-10T13:10:00Z</time>
      </trkpt>
      <trkpt lat="46.61336" lon="5.87247">
        <ele>712.3</ele>
        <time>2022-11-10T13:10:04Z</time>
      </trkpt>
      <trkpt lat="46.61338" lon="5.87253">
        <ele>713.9</ele>
        <time>2022-11-10T13:10:09Z</time>
      </trkpt>
      <trkpt lat="46.61338" lon="5.8726">
        <ele>716.1</ele>
        <time>2022-11-10T13:10:15Z</time>
      </trkpt>
      <trkpt lat="46.61339" lon="5.87267">
        <ele>717.3</ele>
        <time>2022-11-10T13:10:20Z</time>
      </trkpt>
      <trkpt lat="46.61341" lon="5.87274">
        <ele>717.9</ele>
        <time>2022-11-10T13:10:25Z</time>
      </trkpt>
      <trkpt lat="46.61342" lon="5.8728">
        <ele>717.8</ele>
        <time>2022-11-10T13:10:31Z</time>
      </trkpt>
      <trkpt lat="46.61343" lon="5.87287">
        <ele>716.8</ele>
        <time>2022-11-10T13:10:38Z</time>
      </trkpt>
      <trkpt lat="46.61344" lon="5.87294">
        <ele>715.4</ele>
        <time>2022-11-10T13:10:45Z</time>
      </trkpt>
      <trkpt lat="46.61345" lon="5.87301">
        <ele>714.1</ele>
        <time>2022-11-10T13:10:51Z</time>
      </trkpt>
      <trkpt lat="46.61347" lon="5.87307">
        <ele>713.4</ele>
        <time>2022-11-10T13:10:55Z</time>
      </trkpt>
      <trkpt lat="46.61349" lon="5.87315">
        <ele>712.6</ele>
        <time>2022-11-10T13:11:00Z</time>
      </trkpt>
      <trkpt lat="46.61351" lon="5.87321">
        <ele>712.2</ele>
        <time>2022-11-10T13:11:05Z</time>
      </trkpt>
      <trkpt lat="46.61353" lon="5.87327">
        <ele>712.2</ele>
        <time>2022-11-10T13:11:09Z</time>
      </trkpt>
      <trkpt lat="46.61355" lon="5.87334">
        <ele>712.1</ele>
        <time>2022-11-10T13:11:14Z</time>
      </trkpt>
      <trkpt lat="46.61358" lon="5.8734">
        <ele>712.2</ele>
        <time>2022-11-10T13:11:18Z</time>
      </trkpt>
      <trkpt lat="46.61359" lon="5.87346">
        <ele>712.5</ele>
        <time>2022-11-10T13:11:22Z</time>
      </trkpt>
      <trkpt lat="46.61363" lon="5.87352">
        <ele>713.1</ele>
        <time>2022-11-10T13:11:27Z</time>
      </trkpt>
      <trkpt lat="46.61366" lon="5.87356">
        <ele>713.5</ele>
        <time>2022-11-10T13:11:31Z</time>
      </trkpt>
      <trkpt lat="46.6137" lon="5.87361">
        <ele>713.6</ele>
        <time>2022-11-10T13:11:35Z</time>
      </trkpt>
      <trkpt lat="46.61374" lon="5.87366">
        <ele>713.3</ele>
        <time>2022-11-10T13:11:40Z</time>
      </trkpt>
      <trkpt lat="46.61378" lon="5.87369">
        <ele>713.1</ele>
        <time>2022-11-10T13:11:44Z</time>
      </trkpt>
      <trkpt lat="46.61382" lon="5.87373">
        <ele>713.1</ele>
        <time>2022-11-10T13:11:50Z</time>
      </trkpt>
      <trkpt lat="46.61384" lon="5.8738">
        <ele>712.8</ele>
        <time>2022-11-10T13:11:56Z</time>
      </trkpt>
      <trkpt lat="46.61384" lon="5.87387">
        <ele>712.2</ele>
        <time>2022-11-10T13:12:03Z</time>
      </trkpt>
      <trkpt lat="46.61384" lon="5.87394">
        <ele>711.9</ele>
        <time>2022-11-10T13:12:09Z</time>
      </trkpt>
      <trkpt lat="46.61382" lon="5.874">
        <ele>711.8</ele>
        <time>2022-11-10T13:12:13Z</time>
      </trkpt>
      <trkpt lat="46.61378" lon="5.87405">
        <ele>711.8</ele>
        <time>2022-11-10T13:12:16Z</time>
      </trkpt>
      <trkpt lat="46.61374" lon="5.8741">
        <ele>711.6</ele>
        <time>2022-11-10T13:12:19Z</time>
      </trkpt>
      <trkpt lat="46.6137" lon="5.87413">
        <ele>711.2</ele>
        <time>2022-11-10T13:12:24Z</time>
      </trkpt>
      <trkpt lat="46.61366" lon="5.87418">
        <ele>711.1</ele>
        <time>2022-11-10T13:12:29Z</time>
      </trkpt>
      <trkpt lat="46.61362" lon="5.87423">
        <ele>711.6</ele>
        <time>2022-11-10T13:12:33Z</time>
      </trkpt>
      <trkpt lat="46.61358" lon="5.87428">
        <ele>712.1</ele>
        <time>2022-11-10T13:12:37Z</time>
      </trkpt>
      <trkpt lat="46.61354" lon="5.87431">
        <ele>712.6</ele>
        <time>2022-11-10T13:12:41Z</time>
      </trkpt>
      <trkpt lat="46.61351" lon="5.87439">
        <ele>713.4</ele>
        <time>2022-11-10T13:12:45Z</time>
      </trkpt>
      <trkpt lat="46.61351" lon="5.87447">
        <ele>715</ele>
        <time>2022-11-10T13:12:49Z</time>
      </trkpt>
      <trkpt lat="46.61351" lon="5.87453">
        <ele>717.6</ele>
        <time>2022-11-10T13:12:54Z</time>
      </trkpt>
      <trkpt lat="46.6135" lon="5.8746">
        <ele>720.2</ele>
        <time>2022-11-10T13:13:00Z</time>
      </trkpt>
      <trkpt lat="46.61347" lon="5.87466">
        <ele>720.6</ele>
        <time>2022-11-10T13:13:08Z</time>
      </trkpt>
      <trkpt lat="46.61345" lon="5.87473">
        <ele>720.1</ele>
        <time>2022-11-10T13:13:16Z</time>
      </trkpt>
      <trkpt lat="46.61342" lon="5.87479">
        <ele>720.3</ele>
        <time>2022-11-10T13:13:21Z</time>
      </trkpt>
      <trkpt lat="46.61338" lon="5.87483">
        <ele>721</ele>
        <time>2022-11-10T13:13:27Z</time>
      </trkpt>
      <trkpt lat="46.61334" lon="5.87486">
        <ele>720.8</ele>
        <time>2022-11-10T13:13:34Z</time>
      </trkpt>
      <trkpt lat="46.6133" lon="5.8749">
        <ele>720.9</ele>
        <time>2022-11-10T13:13:41Z</time>
      </trkpt>
      <trkpt lat="46.61325" lon="5.87495">
        <ele>720.8</ele>
        <time>2022-11-10T13:13:46Z</time>
      </trkpt>
      <trkpt lat="46.61321" lon="5.87498">
        <ele>720.7</ele>
        <time>2022-11-10T13:13:50Z</time>
      </trkpt>
      <trkpt lat="46.61317" lon="5.87502">
        <ele>720.7</ele>
        <time>2022-11-10T13:13:54Z</time>
      </trkpt>
      <trkpt lat="46.61314" lon="5.87506">
        <ele>720.7</ele>
        <time>2022-11-10T13:13:59Z</time>
      </trkpt>
      <trkpt lat="46.6131" lon="5.8751">
        <ele>720.2</ele>
        <time>2022-11-10T13:14:04Z</time>
      </trkpt>
      <trkpt lat="46.61306" lon="5.87514">
        <ele>718.4</ele>
        <time>2022-11-10T13:14:10Z</time>
      </trkpt>
      <trkpt lat="46.61304" lon="5.87521">
        <ele>716.3</ele>
        <time>2022-11-10T13:14:17Z</time>
      </trkpt>
      <trkpt lat="46.61302" lon="5.87527">
        <ele>715.9</ele>
        <time>2022-11-10T13:14:21Z</time>
      </trkpt>
      <trkpt lat="46.61299" lon="5.87531">
        <ele>716</ele>
        <time>2022-11-10T13:14:24Z</time>
      </trkpt>
      <trkpt lat="46.61295" lon="5.87537">
        <ele>716.3</ele>
        <time>2022-11-10T13:14:28Z</time>
      </trkpt>
      <trkpt lat="46.61292" lon="5.87542">
        <ele>716.9</ele>
        <time>2022-11-10T13:14:35Z</time>
      </trkpt>
      <trkpt lat="46.6129" lon="5.87548">
        <ele>716.9</ele>
        <time>2022-11-10T13:14:42Z</time>
      </trkpt>
      <trkpt lat="46.61288" lon="5.87555">
        <ele>716.6</ele>
        <time>2022-11-10T13:14:48Z</time>
      </trkpt>
      <trkpt lat="46.61285" lon="5.87561">
        <ele>716.1</ele>
        <time>2022-11-10T13:14:54Z</time>
      </trkpt>
      <trkpt lat="46.61284" lon="5.87568">
        <ele>715.5</ele>
        <time>2022-11-10T13:15:01Z</time>
      </trkpt>
      <trkpt lat="46.61281" lon="5.87575">
        <ele>714.9</ele>
        <time>2022-11-10T13:15:07Z</time>
      </trkpt>
      <trkpt lat="46.61279" lon="5.87581">
        <ele>714.8</ele>
        <time>2022-11-10T13:15:13Z</time>
      </trkpt>
      <trkpt lat="46.61277" lon="5.87588">
        <ele>714.9</ele>
        <time>2022-11-10T13:15:19Z</time>
      </trkpt>
      <trkpt lat="46.61273" lon="5.87594">
        <ele>714.6</ele>
        <time>2022-11-10T13:15:24Z</time>
      </trkpt>
      <trkpt lat="46.61271" lon="5.876">
        <ele>714.4</ele>
        <time>2022-11-10T13:15:28Z</time>
      </trkpt>
      <trkpt lat="46.6127" lon="5.87608">
        <ele>713.8</ele>
        <time>2022-11-10T13:15:34Z</time>
      </trkpt>
      <trkpt lat="46.61272" lon="5.87614">
        <ele>713.2</ele>
        <time>2022-11-10T13:15:39Z</time>
      </trkpt>
      <trkpt lat="46.6127" lon="5.87621">
        <ele>713</ele>
        <time>2022-11-10T13:15:45Z</time>
      </trkpt>
      <trkpt lat="46.6127" lon="5.87627">
        <ele>713.2</ele>
        <time>2022-11-10T13:15:52Z</time>
      </trkpt>
      <trkpt lat="46.6127" lon="5.87635">
        <ele>713.6</ele>
        <time>2022-11-10T13:15:59Z</time>
      </trkpt>
      <trkpt lat="46.61271" lon="5.87643">
        <ele>714.6</ele>
        <time>2022-11-10T13:16:03Z</time>
      </trkpt>
      <trkpt lat="46.6127" lon="5.87649">
        <ele>715.7</ele>
        <time>2022-11-10T13:16:08Z</time>
      </trkpt>
      <trkpt lat="46.6127" lon="5.87656">
        <ele>717</ele>
        <time>2022-11-10T13:16:13Z</time>
      </trkpt>
      <trkpt lat="46.61269" lon="5.87664">
        <ele>718.6</ele>
        <time>2022-11-10T13:16:19Z</time>
      </trkpt>
      <trkpt lat="46.61269" lon="5.87671">
        <ele>720</ele>
        <time>2022-11-10T13:16:26Z</time>
      </trkpt>
      <trkpt lat="46.61268" lon="5.87678">
        <ele>721.8</ele>
        <time>2022-11-10T13:16:32Z</time>
      </trkpt>
      <trkpt lat="46.61266" lon="5.87685">
        <ele>723.2</ele>
        <time>2022-11-10T13:16:38Z</time>
      </trkpt>
      <trkpt lat="46.61265" lon="5.87692">
        <ele>723.6</ele>
        <time>2022-11-10T13:16:43Z</time>
      </trkpt>
      <trkpt lat="46.61262" lon="5.87697">
        <ele>723.7</ele>
        <time>2022-11-10T13:16:47Z</time>
      </trkpt>
      <trkpt lat="46.61258" lon="5.87703">
        <ele>723.1</ele>
        <time>2022-11-10T13:16:51Z</time>
      </trkpt>
      <trkpt lat="46.61256" lon="5.87709">
        <ele>722.3</ele>
        <time>2022-11-10T13:16:56Z</time>
      </trkpt>
      <trkpt lat="46.61254" lon="5.87715">
        <ele>721.3</ele>
        <time>2022-11-10T13:17:02Z</time>
      </trkpt>
      <trkpt lat="46.61253" lon="5.87723">
        <ele>721.6</ele>
        <time>2022-11-10T13:17:07Z</time>
      </trkpt>
      <trkpt lat="46.61252" lon="5.87729">
        <ele>722.2</ele>
        <time>2022-11-10T13:17:11Z</time>
      </trkpt>
      <trkpt lat="46.61249" lon="5.87736">
        <ele>722.8</ele>
        <time>2022-11-10T13:17:16Z</time>
      </trkpt>
      <trkpt lat="46.61246" lon="5.87742">
        <ele>723.3</ele>
        <time>2022-11-10T13:17:21Z</time>
      </trkpt>
      <trkpt lat="46.61242" lon="5.87746">
        <ele>723.8</ele>
        <time>2022-11-10T13:17:25Z</time>
      </trkpt>
      <trkpt lat="46.61238" lon="5.87751">
        <ele>725</ele>
        <time>2022-11-10T13:17:30Z</time>
      </trkpt>
      <trkpt lat="46.61237" lon="5.87758">
        <ele>726.3</ele>
        <time>2022-11-10T13:17:36Z</time>
      </trkpt>
      <trkpt lat="46.61234" lon="5.87763">
        <ele>727.1</ele>
        <time>2022-11-10T13:17:41Z</time>
      </trkpt>
      <trkpt lat="46.61231" lon="5.87769">
        <ele>725.1</ele>
        <time>2022-11-10T13:17:51Z</time>
      </trkpt>
      <trkpt lat="46.61227" lon="5.87773">
        <ele>723.5</ele>
        <time>2022-11-10T13:17:56Z</time>
      </trkpt>
      <trkpt lat="46.61227" lon="5.8778">
        <ele>721.8</ele>
        <time>2022-11-10T13:18:03Z</time>
      </trkpt>
      <trkpt lat="46.61222" lon="5.87784">
        <ele>720.1</ele>
        <time>2022-11-10T13:18:07Z</time>
      </trkpt>
      <trkpt lat="46.61219" lon="5.8779">
        <ele>718.5</ele>
        <time>2022-11-10T13:18:11Z</time>
      </trkpt>
      <trkpt lat="46.61216" lon="5.87796">
        <ele>717.3</ele>
        <time>2022-11-10T13:18:16Z</time>
      </trkpt>
      <trkpt lat="46.61215" lon="5.87803">
        <ele>716.7</ele>
        <time>2022-11-10T13:18:22Z</time>
      </trkpt>
      <trkpt lat="46.61215" lon="5.8781">
        <ele>716.4</ele>
        <time>2022-11-10T13:18:26Z</time>
      </trkpt>
      <trkpt lat="46.61215" lon="5.87818">
        <ele>716.7</ele>
        <time>2022-11-10T13:18:31Z</time>
      </trkpt>
      <trkpt lat="46.61215" lon="5.87825">
        <ele>718.5</ele>
        <time>2022-11-10T13:18:37Z</time>
      </trkpt>
      <trkpt lat="46.61217" lon="5.87832">
        <ele>719.7</ele>
        <time>2022-11-10T13:18:42Z</time>
      </trkpt>
      <trkpt lat="46.61216" lon="5.87839">
        <ele>719.4</ele>
        <time>2022-11-10T13:18:49Z</time>
      </trkpt>
      <trkpt lat="46.61213" lon="5.87846">
        <ele>719.1</ele>
        <time>2022-11-10T13:18:54Z</time>
      </trkpt>
      <trkpt lat="46.61211" lon="5.87852">
        <ele>719.4</ele>
        <time>2022-11-10T13:19:00Z</time>
      </trkpt>
      <trkpt lat="46.61207" lon="5.87858">
        <ele>719.3</ele>
        <time>2022-11-10T13:19:05Z</time>
      </trkpt>
      <trkpt lat="46.61202" lon="5.87861">
        <ele>719.3</ele>
        <time>2022-11-10T13:19:10Z</time>
      </trkpt>
      <trkpt lat="46.61198" lon="5.87865">
        <ele>719.2</ele>
        <time>2022-11-10T13:19:15Z</time>
      </trkpt>
      <trkpt lat="46.61196" lon="5.87872">
        <ele>720.1</ele>
        <time>2022-11-10T13:19:21Z</time>
      </trkpt>
      <trkpt lat="46.61196" lon="5.87879">
        <ele>721.6</ele>
        <time>2022-11-10T13:19:25Z</time>
      </trkpt>
      <trkpt lat="46.61194" lon="5.87886">
        <ele>722.5</ele>
        <time>2022-11-10T13:19:29Z</time>
      </trkpt>
      <trkpt lat="46.61191" lon="5.87892">
        <ele>722.7</ele>
        <time>2022-11-10T13:19:32Z</time>
      </trkpt>
      <trkpt lat="46.61191" lon="5.87899">
        <ele>722.7</ele>
        <time>2022-11-10T13:19:36Z</time>
      </trkpt>
      <trkpt lat="46.61192" lon="5.87906">
        <ele>723.1</ele>
        <time>2022-11-10T13:19:42Z</time>
      </trkpt>
      <trkpt lat="46.61191" lon="5.87913">
        <ele>723</ele>
        <time>2022-11-10T13:19:51Z</time>
      </trkpt>
      <trkpt lat="46.61188" lon="5.87919">
        <ele>722.5</ele>
        <time>2022-11-10T13:19:57Z</time>
      </trkpt>
      <trkpt lat="46.61185" lon="5.87925">
        <ele>722.7</ele>
        <time>2022-11-10T13:20:02Z</time>
      </trkpt>
      <trkpt lat="46.61182" lon="5.87931">
        <ele>723.4</ele>
        <time>2022-11-10T13:20:10Z</time>
      </trkpt>
      <trkpt lat="46.61179" lon="5.87936">
        <ele>723.8</ele>
        <time>2022-11-10T13:20:18Z</time>
      </trkpt>
      <trkpt lat="46.61177" lon="5.87943">
        <ele>723.9</ele>
        <time>2022-11-10T13:20:23Z</time>
      </trkpt>
      <trkpt lat="46.61174" lon="5.87949">
        <ele>724.4</ele>
        <time>2022-11-10T13:20:28Z</time>
      </trkpt>
      <trkpt lat="46.61171" lon="5.87955">
        <ele>725.2</ele>
        <time>2022-11-10T13:20:35Z</time>
      </trkpt>
      <trkpt lat="46.61167" lon="5.87958">
        <ele>725.7</ele>
        <time>2022-11-10T13:20:40Z</time>
      </trkpt>
      <trkpt lat="46.61163" lon="5.87961">
        <ele>726</ele>
        <time>2022-11-10T13:20:45Z</time>
      </trkpt>
      <trkpt lat="46.61159" lon="5.87967">
        <ele>725.8</ele>
        <time>2022-11-10T13:20:51Z</time>
      </trkpt>
      <trkpt lat="46.61155" lon="5.87972">
        <ele>725.1</ele>
        <time>2022-11-10T13:20:56Z</time>
      </trkpt>
      <trkpt lat="46.61151" lon="5.87976">
        <ele>724.3</ele>
        <time>2022-11-10T13:21:02Z</time>
      </trkpt>
      <trkpt lat="46.61145" lon="5.87977">
        <ele>723.3</ele>
        <time>2022-11-10T13:21:08Z</time>
      </trkpt>
      <trkpt lat="46.61141" lon="5.87981">
        <ele>722.8</ele>
        <time>2022-11-10T13:21:14Z</time>
      </trkpt>
      <trkpt lat="46.61138" lon="5.87987">
        <ele>722.7</ele>
        <time>2022-11-10T13:21:20Z</time>
      </trkpt>
      <trkpt lat="46.61135" lon="5.87991">
        <ele>722.8</ele>
        <time>2022-11-10T13:21:24Z</time>
      </trkpt>
      <trkpt lat="46.61132" lon="5.87997">
        <ele>723.1</ele>
        <time>2022-11-10T13:21:29Z</time>
      </trkpt>
      <trkpt lat="46.61129" lon="5.88003">
        <ele>723.8</ele>
        <time>2022-11-10T13:21:35Z</time>
      </trkpt>
      <trkpt lat="46.61127" lon="5.88009">
        <ele>724.5</ele>
        <time>2022-11-10T13:21:41Z</time>
      </trkpt>
      <trkpt lat="46.61125" lon="5.88015">
        <ele>725.1</ele>
        <time>2022-11-10T13:21:48Z</time>
      </trkpt>
      <trkpt lat="46.61123" lon="5.88022">
        <ele>725</ele>
        <time>2022-11-10T13:21:54Z</time>
      </trkpt>
      <trkpt lat="46.6112" lon="5.88028">
        <ele>724.9</ele>
        <time>2022-11-10T13:21:59Z</time>
      </trkpt>
      <trkpt lat="46.61117" lon="5.88034">
        <ele>725</ele>
        <time>2022-11-10T13:22:04Z</time>
      </trkpt>
      <trkpt lat="46.61114" lon="5.88039">
        <ele>723.7</ele>
        <time>2022-11-10T13:22:12Z</time>
      </trkpt>
      <trkpt lat="46.6111" lon="5.88047">
        <ele>723.3</ele>
        <time>2022-11-10T13:22:15Z</time>
      </trkpt>
      <trkpt lat="46.61107" lon="5.88054">
        <ele>723</ele>
        <time>2022-11-10T13:22:19Z</time>
      </trkpt>
      <trkpt lat="46.61104" lon="5.88059">
        <ele>722.9</ele>
        <time>2022-11-10T13:22:25Z</time>
      </trkpt>
      <trkpt lat="46.61101" lon="5.88064">
        <ele>722.6</ele>
        <time>2022-11-10T13:22:31Z</time>
      </trkpt>
      <trkpt lat="46.61097" lon="5.88068">
        <ele>722.2</ele>
        <time>2022-11-10T13:22:35Z</time>
      </trkpt>
      <trkpt lat="46.61092" lon="5.88071">
        <ele>721.8</ele>
        <time>2022-11-10T13:22:39Z</time>
      </trkpt>
      <trkpt lat="46.61089" lon="5.88078">
        <ele>721.8</ele>
        <time>2022-11-10T13:22:43Z</time>
      </trkpt>
      <trkpt lat="46.61086" lon="5.88083">
        <ele>722.8</ele>
        <time>2022-11-10T13:22:47Z</time>
      </trkpt>
      <trkpt lat="46.61082" lon="5.88089">
        <ele>724.3</ele>
        <time>2022-11-10T13:22:52Z</time>
      </trkpt>
      <trkpt lat="46.61079" lon="5.88095">
        <ele>726</ele>
        <time>2022-11-10T13:22:59Z</time>
      </trkpt>
      <trkpt lat="46.61077" lon="5.88102">
        <ele>727.4</ele>
        <time>2022-11-10T13:23:06Z</time>
      </trkpt>
      <trkpt lat="46.61083" lon="5.88101">
        <ele>727.8</ele>
        <time>2022-11-10T13:23:45Z</time>
      </trkpt>
      <trkpt lat="46.61084" lon="5.8811">
        <ele>727.6</ele>
        <time>2022-11-10T13:23:58Z</time>
      </trkpt>
      <trkpt lat="46.61083" lon="5.88117">
        <ele>727.5</ele>
        <time>2022-11-10T13:24:01Z</time>
      </trkpt>
      <trkpt lat="46.61081" lon="5.88124">
        <ele>727.9</ele>
        <time>2022-11-10T13:24:04Z</time>
      </trkpt>
      <trkpt lat="46.6108" lon="5.88132">
        <ele>728.5</ele>
        <time>2022-11-10T13:24:08Z</time>
      </trkpt>
      <trkpt lat="46.61082" lon="5.88138">
        <ele>729.1</ele>
        <time>2022-11-10T13:24:13Z</time>
      </trkpt>
      <trkpt lat="46.61084" lon="5.88144">
        <ele>729.4</ele>
        <time>2022-11-10T13:24:19Z</time>
      </trkpt>
      <trkpt lat="46.61089" lon="5.88149">
        <ele>729.3</ele>
        <time>2022-11-10T13:24:25Z</time>
      </trkpt>
      <trkpt lat="46.61093" lon="5.88153">
        <ele>730.2</ele>
        <time>2022-11-10T13:24:31Z</time>
      </trkpt>
      <trkpt lat="46.61097" lon="5.88157">
        <ele>731.5</ele>
        <time>2022-11-10T13:24:38Z</time>
      </trkpt>
      <trkpt lat="46.61099" lon="5.88163">
        <ele>733.4</ele>
        <time>2022-11-10T13:24:45Z</time>
      </trkpt>
      <trkpt lat="46.61102" lon="5.88169">
        <ele>735</ele>
        <time>2022-11-10T13:24:53Z</time>
      </trkpt>
      <trkpt lat="46.61099" lon="5.88176">
        <ele>735.5</ele>
        <time>2022-11-10T13:25:02Z</time>
      </trkpt>
      <trkpt lat="46.61103" lon="5.8818">
        <ele>734.7</ele>
        <time>2022-11-10T13:25:09Z</time>
      </trkpt>
      <trkpt lat="46.61108" lon="5.88183">
        <ele>734.7</ele>
        <time>2022-11-10T13:25:15Z</time>
      </trkpt>
      <trkpt lat="46.61112" lon="5.88186">
        <ele>735.4</ele>
        <time>2022-11-10T13:25:21Z</time>
      </trkpt>
      <trkpt lat="46.61117" lon="5.8819">
        <ele>735.8</ele>
        <time>2022-11-10T13:25:27Z</time>
      </trkpt>
      <trkpt lat="46.61121" lon="5.88194">
        <ele>735.2</ele>
        <time>2022-11-10T13:25:33Z</time>
      </trkpt>
      <trkpt lat="46.61125" lon="5.88197">
        <ele>734.1</ele>
        <time>2022-11-10T13:25:39Z</time>
      </trkpt>
      <trkpt lat="46.61129" lon="5.88202">
        <ele>732.9</ele>
        <time>2022-11-10T13:25:45Z</time>
      </trkpt>
      <trkpt lat="46.61133" lon="5.88205">
        <ele>732.3</ele>
        <time>2022-11-10T13:25:50Z</time>
      </trkpt>
      <trkpt lat="46.61137" lon="5.8821">
        <ele>731.5</ele>
        <time>2022-11-10T13:25:55Z</time>
      </trkpt>
      <trkpt lat="46.61141" lon="5.88214">
        <ele>728.4</ele>
        <time>2022-11-10T13:26:05Z</time>
      </trkpt>
      <trkpt lat="46.61144" lon="5.88219">
        <ele>726.1</ele>
        <time>2022-11-10T13:26:12Z</time>
      </trkpt>
      <trkpt lat="46.61146" lon="5.88225">
        <ele>724.6</ele>
        <time>2022-11-10T13:26:17Z</time>
      </trkpt>
      <trkpt lat="46.61149" lon="5.8823">
        <ele>724.4</ele>
        <time>2022-11-10T13:26:21Z</time>
      </trkpt>
      <trkpt lat="46.61152" lon="5.88236">
        <ele>724.9</ele>
        <time>2022-11-10T13:26:26Z</time>
      </trkpt>
      <trkpt lat="46.61153" lon="5.88243">
        <ele>725.6</ele>
        <time>2022-11-10T13:26:31Z</time>
      </trkpt>
      <trkpt lat="46.61154" lon="5.88251">
        <ele>725.6</ele>
        <time>2022-11-10T13:26:36Z</time>
      </trkpt>
      <trkpt lat="46.61156" lon="5.88258">
        <ele>725.3</ele>
        <time>2022-11-10T13:26:40Z</time>
      </trkpt>
      <trkpt lat="46.61159" lon="5.88263">
        <ele>724.7</ele>
        <time>2022-11-10T13:26:45Z</time>
      </trkpt>
      <trkpt lat="46.61161" lon="5.8827">
        <ele>724.4</ele>
        <time>2022-11-10T13:26:50Z</time>
      </trkpt>
      <trkpt lat="46.61163" lon="5.88277">
        <ele>724.4</ele>
        <time>2022-11-10T13:26:55Z</time>
      </trkpt>
      <trkpt lat="46.61163" lon="5.88284">
        <ele>724.2</ele>
        <time>2022-11-10T13:27:00Z</time>
      </trkpt>
      <trkpt lat="46.61162" lon="5.88292">
        <ele>724.5</ele>
        <time>2022-11-10T13:27:05Z</time>
      </trkpt>
      <trkpt lat="46.61161" lon="5.88298">
        <ele>724.9</ele>
        <time>2022-11-10T13:27:09Z</time>
      </trkpt>
      <trkpt lat="46.61159" lon="5.88305">
        <ele>725.1</ele>
        <time>2022-11-10T13:27:14Z</time>
      </trkpt>
      <trkpt lat="46.61157" lon="5.88312">
        <ele>725.9</ele>
        <time>2022-11-10T13:27:19Z</time>
      </trkpt>
      <trkpt lat="46.61156" lon="5.8832">
        <ele>727.3</ele>
        <time>2022-11-10T13:27:24Z</time>
      </trkpt>
      <trkpt lat="46.61157" lon="5.88327">
        <ele>728.5</ele>
        <time>2022-11-10T13:27:28Z</time>
      </trkpt>
      <trkpt lat="46.61161" lon="5.8833">
        <ele>730</ele>
        <time>2022-11-10T13:27:33Z</time>
      </trkpt>
      <trkpt lat="46.61166" lon="5.88331">
        <ele>730.6</ele>
        <time>2022-11-10T13:27:37Z</time>
      </trkpt>
      <trkpt lat="46.61171" lon="5.88332">
        <ele>731.1</ele>
        <time>2022-11-10T13:27:41Z</time>
      </trkpt>
      <trkpt lat="46.61176" lon="5.88335">
        <ele>731.2</ele>
        <time>2022-11-10T13:27:46Z</time>
      </trkpt>
      <trkpt lat="46.6118" lon="5.88338">
        <ele>730.9</ele>
        <time>2022-11-10T13:27:51Z</time>
      </trkpt>
      <trkpt lat="46.61185" lon="5.88341">
        <ele>730.1</ele>
        <time>2022-11-10T13:27:56Z</time>
      </trkpt>
      <trkpt lat="46.61189" lon="5.88344">
        <ele>728</ele>
        <time>2022-11-10T13:28:03Z</time>
      </trkpt>
      <trkpt lat="46.61194" lon="5.88346">
        <ele>725.8</ele>
        <time>2022-11-10T13:28:27Z</time>
      </trkpt>
      <trkpt lat="46.61199" lon="5.88349">
        <ele>725</ele>
        <time>2022-11-10T13:28:31Z</time>
      </trkpt>
      <trkpt lat="46.61197" lon="5.88356">
        <ele>723.9</ele>
        <time>2022-11-10T13:28:38Z</time>
      </trkpt>
      <trkpt lat="46.61192" lon="5.88356">
        <ele>724.1</ele>
        <time>2022-11-10T13:28:43Z</time>
      </trkpt>
      <trkpt lat="46.61188" lon="5.88361">
        <ele>724.5</ele>
        <time>2022-11-10T13:28:48Z</time>
      </trkpt>
      <trkpt lat="46.61184" lon="5.88366">
        <ele>725</ele>
        <time>2022-11-10T13:28:51Z</time>
      </trkpt>
      <trkpt lat="46.61182" lon="5.88372">
        <ele>725</ele>
        <time>2022-11-10T13:28:55Z</time>
      </trkpt>
      <trkpt lat="46.61184" lon="5.88378">
        <ele>724.7</ele>
        <time>2022-11-10T13:29:01Z</time>
      </trkpt>
      <trkpt lat="46.61189" lon="5.88378">
        <ele>724.2</ele>
        <time>2022-11-10T13:29:16Z</time>
      </trkpt>
      <trkpt lat="46.6119" lon="5.88371">
        <ele>722.7</ele>
        <time>2022-11-10T13:29:21Z</time>
      </trkpt>
      <trkpt lat="46.61193" lon="5.88366">
        <ele>716.2</ele>
        <time>2022-11-10T13:30:17Z</time>
      </trkpt>
      <trkpt lat="46.61193" lon="5.88358">
        <ele>713.2</ele>
        <time>2022-11-10T13:30:23Z</time>
      </trkpt>
      <trkpt lat="46.61192" lon="5.88352">
        <ele>713.8</ele>
        <time>2022-11-10T13:30:29Z</time>
      </trkpt>
      <trkpt lat="46.61196" lon="5.88349">
        <ele>721.4</ele>
        <time>2022-11-10T13:30:43Z</time>
      </trkpt>
      <trkpt lat="46.612" lon="5.88352">
        <ele>724.5</ele>
        <time>2022-11-10T13:30:48Z</time>
      </trkpt>
      <trkpt lat="46.61206" lon="5.88353">
        <ele>727.3</ele>
        <time>2022-11-10T13:30:53Z</time>
      </trkpt>
      <trkpt lat="46.61211" lon="5.88355">
        <ele>729</ele>
        <time>2022-11-10T13:30:58Z</time>
      </trkpt>
      <trkpt lat="46.61215" lon="5.88359">
        <ele>729.8</ele>
        <time>2022-11-10T13:31:03Z</time>
      </trkpt>
      <trkpt lat="46.61219" lon="5.88363">
        <ele>730</ele>
        <time>2022-11-10T13:31:08Z</time>
      </trkpt>
      <trkpt lat="46.61224" lon="5.88368">
        <ele>730.6</ele>
        <time>2022-11-10T13:31:13Z</time>
      </trkpt>
      <trkpt lat="46.61228" lon="5.88374">
        <ele>731.2</ele>
        <time>2022-11-10T13:31:17Z</time>
      </trkpt>
      <trkpt lat="46.61231" lon="5.88379">
        <ele>731.9</ele>
        <time>2022-11-10T13:31:20Z</time>
      </trkpt>
      <trkpt lat="46.61234" lon="5.88386">
        <ele>733</ele>
        <time>2022-11-10T13:31:24Z</time>
      </trkpt>
      <trkpt lat="46.61239" lon="5.88386">
        <ele>734.2</ele>
        <time>2022-11-10T13:31:33Z</time>
      </trkpt>
      <trkpt lat="46.61242" lon="5.88391">
        <ele>735.3</ele>
        <time>2022-11-10T13:31:41Z</time>
      </trkpt>
      <trkpt lat="46.61247" lon="5.88394">
        <ele>735.4</ele>
        <time>2022-11-10T13:31:48Z</time>
      </trkpt>
      <trkpt lat="46.61254" lon="5.88396">
        <ele>735.3</ele>
        <time>2022-11-10T13:32:14Z</time>
      </trkpt>
      <trkpt lat="46.61258" lon="5.88399">
        <ele>736.7</ele>
        <time>2022-11-10T13:32:19Z</time>
      </trkpt>
      <trkpt lat="46.61253" lon="5.88396">
        <ele>737.7</ele>
        <time>2022-11-10T13:32:28Z</time>
      </trkpt>
      <trkpt lat="46.61248" lon="5.88394">
        <ele>738.1</ele>
        <time>2022-11-10T13:32:31Z</time>
      </trkpt>
      <trkpt lat="46.61243" lon="5.88393">
        <ele>739.1</ele>
        <time>2022-11-10T13:32:35Z</time>
      </trkpt>
      <trkpt lat="46.61238" lon="5.8839">
        <ele>740.2</ele>
        <time>2022-11-10T13:32:40Z</time>
      </trkpt>
      <trkpt lat="46.61234" lon="5.88387">
        <ele>740.5</ele>
        <time>2022-11-10T13:32:46Z</time>
      </trkpt>
      <trkpt lat="46.61235" lon="5.88381">
        <ele>739</ele>
        <time>2022-11-10T13:32:52Z</time>
      </trkpt>
      <trkpt lat="46.61239" lon="5.88376">
        <ele>738.2</ele>
        <time>2022-11-10T13:32:57Z</time>
      </trkpt>
      <trkpt lat="46.61243" lon="5.88374">
        <ele>737.4</ele>
        <time>2022-11-10T13:33:01Z</time>
      </trkpt>
      <trkpt lat="46.61248" lon="5.88377">
        <ele>735.3</ele>
        <time>2022-11-10T13:33:07Z</time>
      </trkpt>
      <trkpt lat="46.61253" lon="5.8838">
        <ele>734.1</ele>
        <time>2022-11-10T13:33:12Z</time>
      </trkpt>
      <trkpt lat="46.61259" lon="5.88381">
        <ele>733.5</ele>
        <time>2022-11-10T13:33:16Z</time>
      </trkpt>
      <trkpt lat="46.61264" lon="5.8838">
        <ele>733.1</ele>
        <time>2022-11-10T13:33:21Z</time>
      </trkpt>
      <trkpt lat="46.61268" lon="5.88378">
        <ele>733</ele>
        <time>2022-11-10T13:33:25Z</time>
      </trkpt>
      <trkpt lat="46.61273" lon="5.88379">
        <ele>734.3</ele>
        <time>2022-11-10T13:33:32Z</time>
      </trkpt>
      <trkpt lat="46.61269" lon="5.88382">
        <ele>735.8</ele>
        <time>2022-11-10T13:33:43Z</time>
      </trkpt>
      <trkpt lat="46.61263" lon="5.88383">
        <ele>736.4</ele>
        <time>2022-11-10T13:33:47Z</time>
      </trkpt>
      <trkpt lat="46.61257" lon="5.88383">
        <ele>736.7</ele>
        <time>2022-11-10T13:33:51Z</time>
      </trkpt>
      <trkpt lat="46.61252" lon="5.88384">
        <ele>736.9</ele>
        <time>2022-11-10T13:33:55Z</time>
      </trkpt>
      <trkpt lat="46.61247" lon="5.88384">
        <ele>737.3</ele>
        <time>2022-11-10T13:34:00Z</time>
      </trkpt>
      <trkpt lat="46.61242" lon="5.88385">
        <ele>737.5</ele>
        <time>2022-11-10T13:34:04Z</time>
      </trkpt>
      <trkpt lat="46.61237" lon="5.88384">
        <ele>737.4</ele>
        <time>2022-11-10T13:34:08Z</time>
      </trkpt>
      <trkpt lat="46.61233" lon="5.88387">
        <ele>736.9</ele>
        <time>2022-11-10T13:34:14Z</time>
      </trkpt>
      <trkpt lat="46.61236" lon="5.88392">
        <ele>736.5</ele>
        <time>2022-11-10T13:34:21Z</time>
      </trkpt>
      <trkpt lat="46.61241" lon="5.88395">
        <ele>735.9</ele>
        <time>2022-11-10T13:34:25Z</time>
      </trkpt>
      <trkpt lat="46.61247" lon="5.88396">
        <ele>734.9</ele>
        <time>2022-11-10T13:34:29Z</time>
      </trkpt>
      <trkpt lat="46.61252" lon="5.88398">
        <ele>733.8</ele>
        <time>2022-11-10T13:34:33Z</time>
      </trkpt>
      <trkpt lat="46.61256" lon="5.88401">
        <ele>732.6</ele>
        <time>2022-11-10T13:34:38Z</time>
      </trkpt>
      <trkpt lat="46.61261" lon="5.88403">
        <ele>732.3</ele>
        <time>2022-11-10T13:34:42Z</time>
      </trkpt>
      <trkpt lat="46.61265" lon="5.88406">
        <ele>731.7</ele>
        <time>2022-11-10T13:34:46Z</time>
      </trkpt>
      <trkpt lat="46.61269" lon="5.88411">
        <ele>731.2</ele>
        <time>2022-11-10T13:34:51Z</time>
      </trkpt>
      <trkpt lat="46.61272" lon="5.88415">
        <ele>730.9</ele>
        <time>2022-11-10T13:34:58Z</time>
      </trkpt>
      <trkpt lat="46.61276" lon="5.8842">
        <ele>731.4</ele>
        <time>2022-11-10T13:35:05Z</time>
      </trkpt>
      <trkpt lat="46.61279" lon="5.88427">
        <ele>732.6</ele>
        <time>2022-11-10T13:35:10Z</time>
      </trkpt>
      <trkpt lat="46.61282" lon="5.88433">
        <ele>734.2</ele>
        <time>2022-11-10T13:35:15Z</time>
      </trkpt>
      <trkpt lat="46.61286" lon="5.88438">
        <ele>735.5</ele>
        <time>2022-11-10T13:35:19Z</time>
      </trkpt>
      <trkpt lat="46.6129" lon="5.88443">
        <ele>736.1</ele>
        <time>2022-11-10T13:35:24Z</time>
      </trkpt>
      <trkpt lat="46.61295" lon="5.88448">
        <ele>735.8</ele>
        <time>2022-11-10T13:35:29Z</time>
      </trkpt>
      <trkpt lat="46.613" lon="5.8845">
        <ele>735.1</ele>
        <time>2022-11-10T13:35:33Z</time>
      </trkpt>
      <trkpt lat="46.61305" lon="5.88453">
        <ele>734.8</ele>
        <time>2022-11-10T13:35:37Z</time>
      </trkpt>
      <trkpt lat="46.61309" lon="5.88456">
        <ele>734.7</ele>
        <time>2022-11-10T13:35:41Z</time>
      </trkpt>
      <trkpt lat="46.61313" lon="5.88461">
        <ele>734.4</ele>
        <time>2022-11-10T13:35:45Z</time>
      </trkpt>
      <trkpt lat="46.61317" lon="5.88464">
        <ele>734.2</ele>
        <time>2022-11-10T13:35:49Z</time>
      </trkpt>
      <trkpt lat="46.61321" lon="5.88468">
        <ele>733.9</ele>
        <time>2022-11-10T13:35:54Z</time>
      </trkpt>
      <trkpt lat="46.61325" lon="5.8847">
        <ele>733.7</ele>
        <time>2022-11-10T13:35:58Z</time>
      </trkpt>
      <trkpt lat="46.6133" lon="5.8847">
        <ele>733.7</ele>
        <time>2022-11-10T13:36:02Z</time>
      </trkpt>
      <trkpt lat="46.61335" lon="5.8847">
        <ele>733.8</ele>
        <time>2022-11-10T13:36:07Z</time>
      </trkpt>
      <trkpt lat="46.61341" lon="5.88469">
        <ele>734.2</ele>
        <time>2022-11-10T13:36:11Z</time>
      </trkpt>
      <trkpt lat="46.61346" lon="5.88468">
        <ele>734.8</ele>
        <time>2022-11-10T13:36:14Z</time>
      </trkpt>
      <trkpt lat="46.61351" lon="5.88467">
        <ele>736.6</ele>
        <time>2022-11-10T13:36:21Z</time>
      </trkpt>
      <trkpt lat="46.61355" lon="5.88469">
        <ele>737.7</ele>
        <time>2022-11-10T13:36:27Z</time>
      </trkpt>
      <trkpt lat="46.6136" lon="5.88472">
        <ele>738.5</ele>
        <time>2022-11-10T13:36:32Z</time>
      </trkpt>
      <trkpt lat="46.61364" lon="5.88477">
        <ele>739</ele>
        <time>2022-11-10T13:36:36Z</time>
      </trkpt>
      <trkpt lat="46.61368" lon="5.88481">
        <ele>739.5</ele>
        <time>2022-11-10T13:36:41Z</time>
      </trkpt>
      <trkpt lat="46.61373" lon="5.88486">
        <ele>740.2</ele>
        <time>2022-11-10T13:36:46Z</time>
      </trkpt>
      <trkpt lat="46.61377" lon="5.88488">
        <ele>740.7</ele>
        <time>2022-11-10T13:36:50Z</time>
      </trkpt>
      <trkpt lat="46.61382" lon="5.8849">
        <ele>741.5</ele>
        <time>2022-11-10T13:36:54Z</time>
      </trkpt>
      <trkpt lat="46.61386" lon="5.88495">
        <ele>741.7</ele>
        <time>2022-11-10T13:36:58Z</time>
      </trkpt>
      <trkpt lat="46.61389" lon="5.88501">
        <ele>742</ele>
        <time>2022-11-10T13:37:03Z</time>
      </trkpt>
      <trkpt lat="46.61392" lon="5.88506">
        <ele>741.9</ele>
        <time>2022-11-10T13:37:09Z</time>
      </trkpt>
      <trkpt lat="46.61396" lon="5.88512">
        <ele>742</ele>
        <time>2022-11-10T13:37:14Z</time>
      </trkpt>
      <trkpt lat="46.61399" lon="5.88517">
        <ele>742.6</ele>
        <time>2022-11-10T13:37:17Z</time>
      </trkpt>
      <trkpt lat="46.61402" lon="5.88523">
        <ele>743.4</ele>
        <time>2022-11-10T13:37:22Z</time>
      </trkpt>
      <trkpt lat="46.61406" lon="5.88526">
        <ele>744.3</ele>
        <time>2022-11-10T13:37:27Z</time>
      </trkpt>
      <trkpt lat="46.61411" lon="5.88529">
        <ele>745.5</ele>
        <time>2022-11-10T13:37:32Z</time>
      </trkpt>
      <trkpt lat="46.61417" lon="5.88531">
        <ele>746.2</ele>
        <time>2022-11-10T13:37:36Z</time>
      </trkpt>
      <trkpt lat="46.61422" lon="5.88531">
        <ele>746.5</ele>
        <time>2022-11-10T13:37:40Z</time>
      </trkpt>
      <trkpt lat="46.61427" lon="5.8853">
        <ele>747.9</ele>
        <time>2022-11-10T13:37:46Z</time>
      </trkpt>
      <trkpt lat="46.61432" lon="5.88531">
        <ele>748.8</ele>
        <time>2022-11-10T13:37:50Z</time>
      </trkpt>
      <trkpt lat="46.61437" lon="5.88531">
        <ele>749.6</ele>
        <time>2022-11-10T13:37:53Z</time>
      </trkpt>
      <trkpt lat="46.61442" lon="5.88529">
        <ele>750.8</ele>
        <time>2022-11-10T13:37:57Z</time>
      </trkpt>
      <trkpt lat="46.61447" lon="5.88528">
        <ele>752.6</ele>
        <time>2022-11-10T13:38:03Z</time>
      </trkpt>
      <trkpt lat="46.61452" lon="5.8853">
        <ele>754.2</ele>
        <time>2022-11-10T13:38:10Z</time>
      </trkpt>
      <trkpt lat="46.61456" lon="5.88535">
        <ele>755.9</ele>
        <time>2022-11-10T13:38:15Z</time>
      </trkpt>
      <trkpt lat="46.61459" lon="5.88539">
        <ele>756.8</ele>
        <time>2022-11-10T13:38:19Z</time>
      </trkpt>
      <trkpt lat="46.61463" lon="5.88542">
        <ele>757.2</ele>
        <time>2022-11-10T13:38:23Z</time>
      </trkpt>
      <trkpt lat="46.61467" lon="5.88547">
        <ele>757.7</ele>
        <time>2022-11-10T13:38:28Z</time>
      </trkpt>
      <trkpt lat="46.6147" lon="5.88553">
        <ele>757.9</ele>
        <time>2022-11-10T13:38:32Z</time>
      </trkpt>
      <trkpt lat="46.61474" lon="5.88558">
        <ele>757.9</ele>
        <time>2022-11-10T13:38:36Z</time>
      </trkpt>
      <trkpt lat="46.61478" lon="5.88562">
        <ele>757.9</ele>
        <time>2022-11-10T13:38:40Z</time>
      </trkpt>
      <trkpt lat="46.61482" lon="5.88566">
        <ele>757.8</ele>
        <time>2022-11-10T13:38:44Z</time>
      </trkpt>
      <trkpt lat="46.61485" lon="5.88573">
        <ele>758.2</ele>
        <time>2022-11-10T13:38:49Z</time>
      </trkpt>
      <trkpt lat="46.61487" lon="5.88579">
        <ele>759.6</ele>
        <time>2022-11-10T13:38:55Z</time>
      </trkpt>
      <trkpt lat="46.61485" lon="5.88587">
        <ele>763.3</ele>
        <time>2022-11-10T13:39:16Z</time>
      </trkpt>
      <trkpt lat="46.61481" lon="5.88593">
        <ele>763</ele>
        <time>2022-11-10T13:39:21Z</time>
      </trkpt>
      <trkpt lat="46.61481" lon="5.886">
        <ele>762.1</ele>
        <time>2022-11-10T13:39:28Z</time>
      </trkpt>
      <trkpt lat="46.61478" lon="5.88606">
        <ele>761.2</ele>
        <time>2022-11-10T13:39:33Z</time>
      </trkpt>
      <trkpt lat="46.61474" lon="5.8861">
        <ele>760.7</ele>
        <time>2022-11-10T13:39:37Z</time>
      </trkpt>
      <trkpt lat="46.61471" lon="5.88615">
        <ele>760.6</ele>
        <time>2022-11-10T13:39:41Z</time>
      </trkpt>
      <trkpt lat="46.6147" lon="5.88621">
        <ele>760.5</ele>
        <time>2022-11-10T13:39:46Z</time>
      </trkpt>
      <trkpt lat="46.6147" lon="5.88629">
        <ele>760.9</ele>
        <time>2022-11-10T13:39:51Z</time>
      </trkpt>
      <trkpt lat="46.6147" lon="5.88636">
        <ele>761.4</ele>
        <time>2022-11-10T13:39:56Z</time>
      </trkpt>
      <trkpt lat="46.6147" lon="5.88643">
        <ele>761.6</ele>
        <time>2022-11-10T13:40:00Z</time>
      </trkpt>
      <trkpt lat="46.6147" lon="5.8865">
        <ele>761.6</ele>
        <time>2022-11-10T13:40:05Z</time>
      </trkpt>
      <trkpt lat="46.61473" lon="5.88655">
        <ele>760.5</ele>
        <time>2022-11-10T13:40:12Z</time>
      </trkpt>
      <trkpt lat="46.61475" lon="5.88662">
        <ele>759.6</ele>
        <time>2022-11-10T13:40:17Z</time>
      </trkpt>
      <trkpt lat="46.61476" lon="5.88669">
        <ele>758.9</ele>
        <time>2022-11-10T13:40:22Z</time>
      </trkpt>
      <trkpt lat="46.61477" lon="5.88677">
        <ele>759.1</ele>
        <time>2022-11-10T13:40:27Z</time>
      </trkpt>
      <trkpt lat="46.61478" lon="5.88684">
        <ele>759.6</ele>
        <time>2022-11-10T13:40:31Z</time>
      </trkpt>
      <trkpt lat="46.61476" lon="5.8869">
        <ele>760.8</ele>
        <time>2022-11-10T13:40:37Z</time>
      </trkpt>
      <trkpt lat="46.61471" lon="5.88692">
        <ele>761.4</ele>
        <time>2022-11-10T13:40:44Z</time>
      </trkpt>
      <trkpt lat="46.61466" lon="5.88695">
        <ele>763.2</ele>
        <time>2022-11-10T13:41:02Z</time>
      </trkpt>
      <trkpt lat="46.61463" lon="5.88699">
        <ele>764.5</ele>
        <time>2022-11-10T13:41:13Z</time>
      </trkpt>
      <trkpt lat="46.61462" lon="5.88706">
        <ele>765.3</ele>
        <time>2022-11-10T13:41:20Z</time>
      </trkpt>
      <trkpt lat="46.6146" lon="5.88714">
        <ele>765.6</ele>
        <time>2022-11-10T13:41:35Z</time>
      </trkpt>
      <trkpt lat="46.61458" lon="5.8872">
        <ele>765.5</ele>
        <time>2022-11-10T13:41:40Z</time>
      </trkpt>
      <trkpt lat="46.61457" lon="5.88726">
        <ele>765.2</ele>
        <time>2022-11-10T13:41:45Z</time>
      </trkpt>
      <trkpt lat="46.61456" lon="5.88734">
        <ele>764.5</ele>
        <time>2022-11-10T13:41:51Z</time>
      </trkpt>
      <trkpt lat="46.61456" lon="5.88741">
        <ele>764.7</ele>
        <time>2022-11-10T13:41:56Z</time>
      </trkpt>
      <trkpt lat="46.61455" lon="5.88748">
        <ele>765.8</ele>
        <time>2022-11-10T13:42:01Z</time>
      </trkpt>
      <trkpt lat="46.61455" lon="5.88755">
        <ele>766.8</ele>
        <time>2022-11-10T13:42:06Z</time>
      </trkpt>
      <trkpt lat="46.61453" lon="5.88764">
        <ele>767.7</ele>
        <time>2022-11-10T13:42:10Z</time>
      </trkpt>
      <trkpt lat="46.61451" lon="5.8877">
        <ele>768.7</ele>
        <time>2022-11-10T13:42:13Z</time>
      </trkpt>
      <trkpt lat="46.61449" lon="5.88777">
        <ele>769.6</ele>
        <time>2022-11-10T13:42:16Z</time>
      </trkpt>
      <trkpt lat="46.61452" lon="5.88783">
        <ele>770.6</ele>
        <time>2022-11-10T13:42:21Z</time>
      </trkpt>
      <trkpt lat="46.61454" lon="5.88789">
        <ele>771.6</ele>
        <time>2022-11-10T13:42:26Z</time>
      </trkpt>
      <trkpt lat="46.61452" lon="5.88796">
        <ele>772.2</ele>
        <time>2022-11-10T13:42:32Z</time>
      </trkpt>
      <trkpt lat="46.61448" lon="5.88801">
        <ele>772.5</ele>
        <time>2022-11-10T13:42:37Z</time>
      </trkpt>
      <trkpt lat="46.61446" lon="5.88807">
        <ele>773.6</ele>
        <time>2022-11-10T13:42:43Z</time>
      </trkpt>
      <trkpt lat="46.61443" lon="5.88813">
        <ele>774.7</ele>
        <time>2022-11-10T13:42:47Z</time>
      </trkpt>
      <trkpt lat="46.61442" lon="5.8882">
        <ele>775.8</ele>
        <time>2022-11-10T13:42:52Z</time>
      </trkpt>
      <trkpt lat="46.61442" lon="5.88828">
        <ele>775.8</ele>
        <time>2022-11-10T13:42:58Z</time>
      </trkpt>
      <trkpt lat="46.61441" lon="5.88834">
        <ele>775.6</ele>
        <time>2022-11-10T13:43:02Z</time>
      </trkpt>
      <trkpt lat="46.61441" lon="5.88841">
        <ele>775.6</ele>
        <time>2022-11-10T13:43:06Z</time>
      </trkpt>
      <trkpt lat="46.6144" lon="5.88849">
        <ele>776.1</ele>
        <time>2022-11-10T13:43:11Z</time>
      </trkpt>
      <trkpt lat="46.61439" lon="5.88856">
        <ele>777.1</ele>
        <time>2022-11-10T13:43:15Z</time>
      </trkpt>
      <trkpt lat="46.61438" lon="5.88863">
        <ele>778.4</ele>
        <time>2022-11-10T13:43:20Z</time>
      </trkpt>
      <trkpt lat="46.61437" lon="5.8887">
        <ele>779.6</ele>
        <time>2022-11-10T13:43:26Z</time>
      </trkpt>
      <trkpt lat="46.61436" lon="5.88878">
        <ele>780.1</ele>
        <time>2022-11-10T13:43:31Z</time>
      </trkpt>
      <trkpt lat="46.61435" lon="5.88885">
        <ele>779.7</ele>
        <time>2022-11-10T13:43:36Z</time>
      </trkpt>
      <trkpt lat="46.61436" lon="5.88892">
        <ele>778.6</ele>
        <time>2022-11-10T13:43:42Z</time>
      </trkpt>
      <trkpt lat="46.61437" lon="5.889">
        <ele>777.1</ele>
        <time>2022-11-10T13:43:48Z</time>
      </trkpt>
      <trkpt lat="46.61437" lon="5.88907">
        <ele>775.6</ele>
        <time>2022-11-10T13:43:53Z</time>
      </trkpt>
      <trkpt lat="46.61437" lon="5.88914">
        <ele>774.5</ele>
        <time>2022-11-10T13:43:57Z</time>
      </trkpt>
      <trkpt lat="46.61436" lon="5.88923">
        <ele>773.4</ele>
        <time>2022-11-10T13:44:01Z</time>
      </trkpt>
      <trkpt lat="46.61436" lon="5.8893">
        <ele>771.6</ele>
        <time>2022-11-10T13:44:06Z</time>
      </trkpt>
      <trkpt lat="46.61435" lon="5.88938">
        <ele>770.7</ele>
        <time>2022-11-10T13:44:10Z</time>
      </trkpt>
      <trkpt lat="46.61434" lon="5.88945">
        <ele>770.6</ele>
        <time>2022-11-10T13:44:14Z</time>
      </trkpt>
      <trkpt lat="46.61434" lon="5.88952">
        <ele>770.5</ele>
        <time>2022-11-10T13:44:18Z</time>
      </trkpt>
      <trkpt lat="46.61433" lon="5.88959">
        <ele>769.4</ele>
        <time>2022-11-10T13:44:24Z</time>
      </trkpt>
      <trkpt lat="46.61434" lon="5.88966">
        <ele>769.3</ele>
        <time>2022-11-10T13:44:28Z</time>
      </trkpt>
      <trkpt lat="46.61434" lon="5.88972">
        <ele>769.5</ele>
        <time>2022-11-10T13:44:32Z</time>
      </trkpt>
      <trkpt lat="46.61435" lon="5.88979">
        <ele>770.7</ele>
        <time>2022-11-10T13:44:36Z</time>
      </trkpt>
      <trkpt lat="46.61437" lon="5.88987">
        <ele>772.4</ele>
        <time>2022-11-10T13:44:41Z</time>
      </trkpt>
      <trkpt lat="46.6144" lon="5.88993">
        <ele>773.5</ele>
        <time>2022-11-10T13:44:45Z</time>
      </trkpt>
      <trkpt lat="46.61442" lon="5.88999">
        <ele>774.1</ele>
        <time>2022-11-10T13:44:49Z</time>
      </trkpt>
      <trkpt lat="46.61444" lon="5.89006">
        <ele>773.9</ele>
        <time>2022-11-10T13:44:54Z</time>
      </trkpt>
      <trkpt lat="46.61448" lon="5.89011">
        <ele>773.1</ele>
        <time>2022-11-10T13:44:59Z</time>
      </trkpt>
      <trkpt lat="46.61451" lon="5.89017">
        <ele>772.6</ele>
        <time>2022-11-10T13:45:04Z</time>
      </trkpt>
      <trkpt lat="46.61454" lon="5.89023">
        <ele>772.1</ele>
        <time>2022-11-10T13:45:09Z</time>
      </trkpt>
      <trkpt lat="46.61457" lon="5.89028">
        <ele>771.9</ele>
        <time>2022-11-10T13:45:13Z</time>
      </trkpt>
      <trkpt lat="46.61461" lon="5.89032">
        <ele>771.8</ele>
        <time>2022-11-10T13:45:18Z</time>
      </trkpt>
      <trkpt lat="46.61466" lon="5.89036">
        <ele>772.3</ele>
        <time>2022-11-10T13:45:23Z</time>
      </trkpt>
      <trkpt lat="46.6147" lon="5.89041">
        <ele>773.2</ele>
        <time>2022-11-10T13:45:27Z</time>
      </trkpt>
      <trkpt lat="46.61474" lon="5.89045">
        <ele>774.2</ele>
        <time>2022-11-10T13:45:31Z</time>
      </trkpt>
      <trkpt lat="46.61477" lon="5.89051">
        <ele>774.8</ele>
        <time>2022-11-10T13:45:36Z</time>
      </trkpt>
      <trkpt lat="46.61481" lon="5.89056">
        <ele>774.8</ele>
        <time>2022-11-10T13:45:41Z</time>
      </trkpt>
      <trkpt lat="46.61485" lon="5.8906">
        <ele>774.5</ele>
        <time>2022-11-10T13:45:46Z</time>
      </trkpt>
      <trkpt lat="46.61489" lon="5.89065">
        <ele>774.1</ele>
        <time>2022-11-10T13:45:51Z</time>
      </trkpt>
      <trkpt lat="46.61492" lon="5.8907">
        <ele>773.7</ele>
        <time>2022-11-10T13:45:56Z</time>
      </trkpt>
      <trkpt lat="46.61497" lon="5.89075">
        <ele>773.6</ele>
        <time>2022-11-10T13:46:01Z</time>
      </trkpt>
      <trkpt lat="46.61502" lon="5.89079">
        <ele>773.6</ele>
        <time>2022-11-10T13:46:05Z</time>
      </trkpt>
      <trkpt lat="46.61506" lon="5.89084">
        <ele>773.9</ele>
        <time>2022-11-10T13:46:10Z</time>
      </trkpt>
      <trkpt lat="46.61508" lon="5.8909">
        <ele>774.5</ele>
        <time>2022-11-10T13:46:17Z</time>
      </trkpt>
      <trkpt lat="46.61511" lon="5.89096">
        <ele>774.7</ele>
        <time>2022-11-10T13:46:22Z</time>
      </trkpt>
      <trkpt lat="46.61515" lon="5.891">
        <ele>774.9</ele>
        <time>2022-11-10T13:46:27Z</time>
      </trkpt>
      <trkpt lat="46.61518" lon="5.89105">
        <ele>775.2</ele>
        <time>2022-11-10T13:46:31Z</time>
      </trkpt>
      <trkpt lat="46.61522" lon="5.89108">
        <ele>775.3</ele>
        <time>2022-11-10T13:46:35Z</time>
      </trkpt>
      <trkpt lat="46.61527" lon="5.89108">
        <ele>775.5</ele>
        <time>2022-11-10T13:46:40Z</time>
      </trkpt>
      <trkpt lat="46.61531" lon="5.89107">
        <ele>776.2</ele>
        <time>2022-11-10T13:46:45Z</time>
      </trkpt>
      <trkpt lat="46.61536" lon="5.89108">
        <ele>778.4</ele>
        <time>2022-11-10T13:46:51Z</time>
      </trkpt>
      <trkpt lat="46.61541" lon="5.89108">
        <ele>779.5</ele>
        <time>2022-11-10T13:46:57Z</time>
      </trkpt>
      <trkpt lat="46.61546" lon="5.89107">
        <ele>780.2</ele>
        <time>2022-11-10T13:47:01Z</time>
      </trkpt>
      <trkpt lat="46.61551" lon="5.89106">
        <ele>781.5</ele>
        <time>2022-11-10T13:47:06Z</time>
      </trkpt>
      <trkpt lat="46.61556" lon="5.89105">
        <ele>782</ele>
        <time>2022-11-10T13:47:11Z</time>
      </trkpt>
      <trkpt lat="46.61561" lon="5.89104">
        <ele>782.3</ele>
        <time>2022-11-10T13:47:17Z</time>
      </trkpt>
      <trkpt lat="46.61566" lon="5.89103">
        <ele>782</ele>
        <time>2022-11-10T13:47:22Z</time>
      </trkpt>
      <trkpt lat="46.6157" lon="5.891">
        <ele>781.5</ele>
        <time>2022-11-10T13:47:26Z</time>
      </trkpt>
      <trkpt lat="46.61574" lon="5.89096">
        <ele>780</ele>
        <time>2022-11-10T13:47:32Z</time>
      </trkpt>
      <trkpt lat="46.61579" lon="5.89094">
        <ele>778</ele>
        <time>2022-11-10T13:47:38Z</time>
      </trkpt>
      <trkpt lat="46.61584" lon="5.89095">
        <ele>777</ele>
        <time>2022-11-10T13:47:43Z</time>
      </trkpt>
      <trkpt lat="46.61588" lon="5.89099">
        <ele>776.1</ele>
        <time>2022-11-10T13:47:48Z</time>
      </trkpt>
      <trkpt lat="46.61593" lon="5.89103">
        <ele>775.9</ele>
        <time>2022-11-10T13:47:53Z</time>
      </trkpt>
      <trkpt lat="46.61598" lon="5.89104">
        <ele>776.1</ele>
        <time>2022-11-10T13:47:57Z</time>
      </trkpt>
      <trkpt lat="46.61603" lon="5.89106">
        <ele>776.9</ele>
        <time>2022-11-10T13:48:02Z</time>
      </trkpt>
      <trkpt lat="46.61607" lon="5.89107">
        <ele>777.5</ele>
        <time>2022-11-10T13:48:06Z</time>
      </trkpt>
      <trkpt lat="46.61612" lon="5.89107">
        <ele>778.5</ele>
        <time>2022-11-10T13:48:12Z</time>
      </trkpt>
      <trkpt lat="46.61617" lon="5.89105">
        <ele>779</ele>
        <time>2022-11-10T13:48:18Z</time>
      </trkpt>
      <trkpt lat="46.61622" lon="5.89101">
        <ele>779.3</ele>
        <time>2022-11-10T13:48:22Z</time>
      </trkpt>
      <trkpt lat="46.61626" lon="5.89097">
        <ele>779.4</ele>
        <time>2022-11-10T13:48:25Z</time>
      </trkpt>
      <trkpt lat="46.6163" lon="5.89092">
        <ele>779.7</ele>
        <time>2022-11-10T13:48:30Z</time>
      </trkpt>
      <trkpt lat="46.61631" lon="5.89084">
        <ele>780.8</ele>
        <time>2022-11-10T13:48:36Z</time>
      </trkpt>
      <trkpt lat="46.61631" lon="5.89077">
        <ele>781.4</ele>
        <time>2022-11-10T13:48:42Z</time>
      </trkpt>
      <trkpt lat="46.61632" lon="5.8907">
        <ele>781.1</ele>
        <time>2022-11-10T13:48:49Z</time>
      </trkpt>
      <trkpt lat="46.61635" lon="5.89063">
        <ele>781.1</ele>
        <time>2022-11-10T13:48:54Z</time>
      </trkpt>
      <trkpt lat="46.61637" lon="5.89057">
        <ele>781</ele>
        <time>2022-11-10T13:48:58Z</time>
      </trkpt>
      <trkpt lat="46.61637" lon="5.89048">
        <ele>781</ele>
        <time>2022-11-10T13:49:02Z</time>
      </trkpt>
      <trkpt lat="46.61636" lon="5.89041">
        <ele>781.4</ele>
        <time>2022-11-10T13:49:06Z</time>
      </trkpt>
      <trkpt lat="46.61636" lon="5.89033">
        <ele>781.9</ele>
        <time>2022-11-10T13:49:11Z</time>
      </trkpt>
      <trkpt lat="46.61637" lon="5.89026">
        <ele>781.8</ele>
        <time>2022-11-10T13:49:15Z</time>
      </trkpt>
      <trkpt lat="46.61638" lon="5.89018">
        <ele>781.9</ele>
        <time>2022-11-10T13:49:20Z</time>
      </trkpt>
      <trkpt lat="46.61639" lon="5.89012">
        <ele>782.5</ele>
        <time>2022-11-10T13:49:24Z</time>
      </trkpt>
      <trkpt lat="46.6164" lon="5.89005">
        <ele>783</ele>
        <time>2022-11-10T13:49:28Z</time>
      </trkpt>
      <trkpt lat="46.61642" lon="5.88997">
        <ele>783.3</ele>
        <time>2022-11-10T13:49:33Z</time>
      </trkpt>
      <trkpt lat="46.61644" lon="5.8899">
        <ele>783.3</ele>
        <time>2022-11-10T13:49:39Z</time>
      </trkpt>
      <trkpt lat="46.61648" lon="5.88986">
        <ele>782.9</ele>
        <time>2022-11-10T13:49:43Z</time>
      </trkpt>
      <trkpt lat="46.61652" lon="5.88982">
        <ele>780.8</ele>
        <time>2022-11-10T13:49:48Z</time>
      </trkpt>
      <trkpt lat="46.61656" lon="5.88979">
        <ele>778.7</ele>
        <time>2022-11-10T13:49:53Z</time>
      </trkpt>
      <trkpt lat="46.61661" lon="5.88976">
        <ele>776.9</ele>
        <time>2022-11-10T13:49:57Z</time>
      </trkpt>
      <trkpt lat="46.61665" lon="5.88971">
        <ele>774.4</ele>
        <time>2022-11-10T13:50:02Z</time>
      </trkpt>
      <trkpt lat="46.6167" lon="5.88969">
        <ele>772.9</ele>
        <time>2022-11-10T13:50:07Z</time>
      </trkpt>
      <trkpt lat="46.61675" lon="5.88969">
        <ele>772.1</ele>
        <time>2022-11-10T13:50:11Z</time>
      </trkpt>
      <trkpt lat="46.6168" lon="5.88968">
        <ele>771.4</ele>
        <time>2022-11-10T13:50:15Z</time>
      </trkpt>
      <trkpt lat="46.61685" lon="5.88966">
        <ele>771.5</ele>
        <time>2022-11-10T13:50:20Z</time>
      </trkpt>
      <trkpt lat="46.6169" lon="5.88966">
        <ele>771.8</ele>
        <time>2022-11-10T13:50:25Z</time>
      </trkpt>
      <trkpt lat="46.61695" lon="5.88966">
        <ele>772.4</ele>
        <time>2022-11-10T13:50:30Z</time>
      </trkpt>
      <trkpt lat="46.617" lon="5.88966">
        <ele>773.1</ele>
        <time>2022-11-10T13:50:35Z</time>
      </trkpt>
      <trkpt lat="46.61706" lon="5.88966">
        <ele>773.7</ele>
        <time>2022-11-10T13:50:39Z</time>
      </trkpt>
      <trkpt lat="46.61711" lon="5.88966">
        <ele>773.8</ele>
        <time>2022-11-10T13:50:43Z</time>
      </trkpt>
      <trkpt lat="46.61716" lon="5.88966">
        <ele>773.2</ele>
        <time>2022-11-10T13:50:48Z</time>
      </trkpt>
      <trkpt lat="46.61721" lon="5.88968">
        <ele>772.2</ele>
        <time>2022-11-10T13:50:53Z</time>
      </trkpt>
      <trkpt lat="46.61725" lon="5.88971">
        <ele>772.3</ele>
        <time>2022-11-10T13:50:57Z</time>
      </trkpt>
      <trkpt lat="46.6173" lon="5.88973">
        <ele>772.2</ele>
        <time>2022-11-10T13:51:01Z</time>
      </trkpt>
      <trkpt lat="46.61734" lon="5.88976">
        <ele>772</ele>
        <time>2022-11-10T13:51:05Z</time>
      </trkpt>
      <trkpt lat="46.6174" lon="5.88977">
        <ele>771.8</ele>
        <time>2022-11-10T13:51:09Z</time>
      </trkpt>
      <trkpt lat="46.61745" lon="5.88978">
        <ele>771.6</ele>
        <time>2022-11-10T13:51:14Z</time>
      </trkpt>
      <trkpt lat="46.61749" lon="5.88978">
        <ele>771</ele>
        <time>2022-11-10T13:51:19Z</time>
      </trkpt>
      <trkpt lat="46.61754" lon="5.88982">
        <ele>769.8</ele>
        <time>2022-11-10T13:51:24Z</time>
      </trkpt>
      <trkpt lat="46.61759" lon="5.88984">
        <ele>768.5</ele>
        <time>2022-11-10T13:51:28Z</time>
      </trkpt>
      <trkpt lat="46.61764" lon="5.88987">
        <ele>767.1</ele>
        <time>2022-11-10T13:51:33Z</time>
      </trkpt>
      <trkpt lat="46.61766" lon="5.88992">
        <ele>766.5</ele>
        <time>2022-11-10T13:51:38Z</time>
      </trkpt>
      <trkpt lat="46.61771" lon="5.88994">
        <ele>766.2</ele>
        <time>2022-11-10T13:51:44Z</time>
      </trkpt>
      <trkpt lat="46.61777" lon="5.88994">
        <ele>766.2</ele>
        <time>2022-11-10T13:51:49Z</time>
      </trkpt>
      <trkpt lat="46.61782" lon="5.88991">
        <ele>766.1</ele>
        <time>2022-11-10T13:51:54Z</time>
      </trkpt>
      <trkpt lat="46.61786" lon="5.88988">
        <ele>765.3</ele>
        <time>2022-11-10T13:51:58Z</time>
      </trkpt>
      <trkpt lat="46.6179" lon="5.88983">
        <ele>764.8</ele>
        <time>2022-11-10T13:52:03Z</time>
      </trkpt>
      <trkpt lat="46.61794" lon="5.88984">
        <ele>764.6</ele>
        <time>2022-11-10T13:52:11Z</time>
      </trkpt>
      <trkpt lat="46.61799" lon="5.88984">
        <ele>764.5</ele>
        <time>2022-11-10T13:52:17Z</time>
      </trkpt>
      <trkpt lat="46.61803" lon="5.8898">
        <ele>764.4</ele>
        <time>2022-11-10T13:52:21Z</time>
      </trkpt>
      <trkpt lat="46.61807" lon="5.88975">
        <ele>764.1</ele>
        <time>2022-11-10T13:52:25Z</time>
      </trkpt>
      <trkpt lat="46.61812" lon="5.88971">
        <ele>763.8</ele>
        <time>2022-11-10T13:52:30Z</time>
      </trkpt>
      <trkpt lat="46.61816" lon="5.88966">
        <ele>764.6</ele>
        <time>2022-11-10T13:52:36Z</time>
      </trkpt>
      <trkpt lat="46.61819" lon="5.8896">
        <ele>766.2</ele>
        <time>2022-11-10T13:52:42Z</time>
      </trkpt>
      <trkpt lat="46.61821" lon="5.88954">
        <ele>767.6</ele>
        <time>2022-11-10T13:52:48Z</time>
      </trkpt>
      <trkpt lat="46.61824" lon="5.88948">
        <ele>769</ele>
        <time>2022-11-10T13:52:53Z</time>
      </trkpt>
      <trkpt lat="46.61825" lon="5.8894">
        <ele>769.5</ele>
        <time>2022-11-10T13:52:58Z</time>
      </trkpt>
      <trkpt lat="46.61826" lon="5.88932">
        <ele>769.6</ele>
        <time>2022-11-10T13:53:03Z</time>
      </trkpt>
      <trkpt lat="46.61827" lon="5.88926">
        <ele>769.8</ele>
        <time>2022-11-10T13:53:07Z</time>
      </trkpt>
      <trkpt lat="46.61829" lon="5.88918">
        <ele>770</ele>
        <time>2022-11-10T13:53:11Z</time>
      </trkpt>
      <trkpt lat="46.6183" lon="5.88911">
        <ele>770.5</ele>
        <time>2022-11-10T13:53:16Z</time>
      </trkpt>
      <trkpt lat="46.61829" lon="5.88903">
        <ele>770.8</ele>
        <time>2022-11-10T13:53:23Z</time>
      </trkpt>
      <trkpt lat="46.61829" lon="5.88896">
        <ele>771.5</ele>
        <time>2022-11-10T13:53:29Z</time>
      </trkpt>
      <trkpt lat="46.6183" lon="5.88889">
        <ele>772</ele>
        <time>2022-11-10T13:53:33Z</time>
      </trkpt>
      <trkpt lat="46.61832" lon="5.88882">
        <ele>773.3</ele>
        <time>2022-11-10T13:53:39Z</time>
      </trkpt>
      <trkpt lat="46.61832" lon="5.88875">
        <ele>774.7</ele>
        <time>2022-11-10T13:53:44Z</time>
      </trkpt>
      <trkpt lat="46.61833" lon="5.88868">
        <ele>776.4</ele>
        <time>2022-11-10T13:53:48Z</time>
      </trkpt>
      <trkpt lat="46.61836" lon="5.8886">
        <ele>778.7</ele>
        <time>2022-11-10T13:53:53Z</time>
      </trkpt>
      <trkpt lat="46.61837" lon="5.88853">
        <ele>780.3</ele>
        <time>2022-11-10T13:53:57Z</time>
      </trkpt>
      <trkpt lat="46.61837" lon="5.88845">
        <ele>781.4</ele>
        <time>2022-11-10T13:54:02Z</time>
      </trkpt>
      <trkpt lat="46.61836" lon="5.88838">
        <ele>781.6</ele>
        <time>2022-11-10T13:54:07Z</time>
      </trkpt>
      <trkpt lat="46.61835" lon="5.88832">
        <ele>781.2</ele>
        <time>2022-11-10T13:54:12Z</time>
      </trkpt>
      <trkpt lat="46.61835" lon="5.88825">
        <ele>780.2</ele>
        <time>2022-11-10T13:54:17Z</time>
      </trkpt>
      <trkpt lat="46.61838" lon="5.88819">
        <ele>779.1</ele>
        <time>2022-11-10T13:54:22Z</time>
      </trkpt>
      <trkpt lat="46.61841" lon="5.88814">
        <ele>778.2</ele>
        <time>2022-11-10T13:54:26Z</time>
      </trkpt>
      <trkpt lat="46.61844" lon="5.88809">
        <ele>777.1</ele>
        <time>2022-11-10T13:54:30Z</time>
      </trkpt>
      <trkpt lat="46.61848" lon="5.88804">
        <ele>775</ele>
        <time>2022-11-10T13:54:36Z</time>
      </trkpt>
      <trkpt lat="46.61851" lon="5.88798">
        <ele>773</ele>
        <time>2022-11-10T13:54:43Z</time>
      </trkpt>
    </trkseg>
  </trk>
</gpx>